5	www.nytimes.com							
(Timestamp)	(Location)	(Temperature) (F C)	(Conditions)	Humidity (%)	Barometer (in)	Visibility (mi)	(Wind Speed) (mph)	Wind
Fri Jan 29 08:48:49 2010	San Jose	46 8 	Mostly Cloudy	90	30.06	7	2	E
Fri Jan 29 08:48:50 2010	Charlotte	42 6 	Cloudy	50	30.18	10	5	N
Fri Jan 29 08:48:51 2010	San Diego	53 12 	Clear	85	30.06	5	3	NE
Fri Jan 29 08:48:52 2010	Denver	24 -4 	Partly Cloudy	88	30.18	5	6	S
Fri Jan 29 08:48:52 2010	Memphis	33 1 	Cloudy	63	30.32	10	16	NE
Fri Jan 29 08:48:53 2010	Los Angeles	52 11 	Clear	71	30.04	10	0	CLM
Fri Jan 29 08:48:54 2010	El Paso	30 -1 	Light Snow/Fog	86	30.11	4	12	N
Fri Jan 29 08:48:55 2010	New York	19 -7 	Clear	41	30.18	10	18	W
Fri Jan 29 08:48:56 2010	Baltimore	21 -6 	Partly Cloudy	38	30.34	10	9	NNW
Fri Jan 29 08:48:56 2010	Las Vegas	47 8 	Clear	63	30.08	10	3	SSE
Fri Jan 29 08:48:57 2010	Washington	24 -4 	Partly Cloudy	43	30.35	10	14	NNW
Fri Jan 29 08:48:58 2010	Austin	57 14 	Rain	93	29.89	6	22	N
Fri Jan 29 08:48:59 2010	San Francisco	49 9 	Mostly Cloudy	89	30.06	6	3	NNE
Fri Jan 29 08:49:00 2010	Oklahoma City	28 -2 	Light Freezing Drizzle	86	30.16	6	16	N
Fri Jan 29 08:49:01 2010	Fort Worth	45 7 	Rain	87	30.03	5	7	NE
Fri Jan 29 08:49:01 2010	Nashville	28 -2 	Cloudy	58	30.39	10	8	N
Fri Jan 29 08:49:02 2010	Phoenix	53 12 	Cloudy	79	30.04	10	7	ESE
Fri Jan 29 08:49:03 2010	Portland	46 8 	Clear	70	30	10	20	E
Fri Jan 29 08:49:04 2010	Chicago	14-Jul	Mostly Clear	57	30.6	10	5	NW
Fri Jan 29 08:49:05 2010	Indianapolis	13-Sep	Cloudy	76	30.48	7	3	NNW
Fri Jan 29 08:49:05 2010	San Antonio	58 14 	Thunderstorm	87	29.9	8	10	N
Fri Jan 29 08:49:06 2010	Boston	18 -8 	Clear	35	29.95	10	33	WNW
Fri Jan 29 08:49:07 2010	Jacksonville	42 6 	Mostly Clear	85	30.19	9	0	CLM
Fri Jan 29 08:49:08 2010	Columbus	12-Nov	Mostly Clear	70	30.49	10	8	N
Fri Jan 29 08:49:09 2010	Dallas	43 6 	Rain	93	30.03	6	6	NE
Fri Jan 29 08:49:09 2010	Houston	64 18 	Light Rain	93	29.88	9	12	SE
Fri Jan 29 08:49:10 2010	Seattle	49 9 	Mostly Cloudy	51	30.01	10	0	CLM
Fri Jan 29 08:49:11 2010	Milwaukee	17-Jan	Clear	50	30.53	10	3	WNW
Fri Jan 29 08:49:12 2010	Detroit	13-Aug	Clear	63	30.51	10	7	WNW
Fri Jan 29 08:49:13 2010	Philadelphia	18 -8 	Clear	41	30.3	10	15	WNW
Fri Jan 29 09:32:18 2010	Charlotte	41 5 	Clear	52	30.2	10	5	NE
Fri Jan 29 09:32:18 2010	San Jose	46 8 		90	30.04	7	2	ESE
Fri Jan 29 09:32:19 2010	San Diego	51 11 	Clear	85	30.06	5	0	CLM
Fri Jan 29 09:32:20 2010	Denver	25 -4 	Partly Cloudy	92	30.17	6	0	CLM
Fri Jan 29 09:32:21 2010	Los Angeles	50 10 	Clear	71	30.03	10	0	CLM
Fri Jan 29 09:32:21 2010	Memphis	32 0 	Cloudy	66	30.3	10	14	ENE
Fri Jan 29 11:20:48 2010	New York	17 -8 	Clear	42	30.26	10	8	WNW
Fri Jan 29 11:20:49 2010	Baltimore	19 -7 		43	30.38	10	6	NW
Fri Jan 29 11:20:49 2010	Las Vegas	45 7 	Mostly Clear	62	30.06	10	3	ESE
Fri Jan 29 11:20:50 2010	Washington	21 -6 	Cloudy	41	30.4	10	14	NNW
Fri Jan 29 11:20:51 2010	Austin	48 9 	Thunderstorm	93	29.97	10	25	NNW
Fri Jan 29 11:20:52 2010	San Francisco	48 9 	Cloudy	91	30.04	7	3	E
Fri Jan 29 11:20:55 2010	Oklahoma City	26 -3 	Freezing Drizzle	84	30.16	3	10	NNE
Fri Jan 29 11:20:56 2010	Nashville	28 -2 	Cloudy	58	30.36	10	8	N
Fri Jan 29 11:20:57 2010	Fort Worth	41 5 	Light Rain	92	29.98	7	12	NE
Fri Jan 29 11:20:58 2010	Phoenix	51 11 	Cloudy	89	30.05	10	3	ENE
Fri Jan 29 11:20:58 2010	Portland	46 8 	Mostly Cloudy	67	29.96	10	23	E
Fri Jan 29 11:20:59 2010	Chicago	14-Jul		52	30.58	10	7	NNW
Fri Jan 29 11:21:00 2010	San Antonio	49 9 	Cloudy	89	29.88	8	14	NNW
Fri Jan 29 11:21:01 2010	Indianapolis	12-Oct	Cloudy	78	30.46	10	3	N
Fri Jan 29 11:21:02 2010	Boston	14 -10 	Clear	40	29.97	10	28	W
Fri Jan 29 11:21:02 2010	Jacksonville	45 7 	Clear	85	30.19	10	6	NNW
Fri Jan 29 11:21:03 2010	Columbus	12-Oct	Mostly Clear	61	30.51	10	6	NNW
Fri Jan 29 11:21:04 2010	Dallas	41 5 	Rain	92	30	6	8	NE
Fri Jan 29 11:21:05 2010	Houston	66 19 	Cloudy	93	29.8	8	14	S
Fri Jan 29 11:21:05 2010	Seattle	49 9 	Partly Cloudy	49	29.97	10	8	SE
Fri Jan 29 11:21:06 2010	Milwaukee	17-Jan	Partly Cloudy	55	30.52	10	6	W
Fri Jan 29 11:21:07 2010	Detroit	14-Jul	Clear	69	30.5	10	7	W
Fri Jan 29 11:21:08 2010	Philadelphia	17 -8 	Clear	42	30.34	10	12	NW
Fri Jan 29 12:05:27 2010	San Jose	45 7 	Mostly Cloudy	90	30.03	6	3	NNE
Fri Jan 29 12:05:28 2010	Charlotte	41 5 	Cloudy	42	30.21	10	8	NE
Fri Jan 29 12:05:28 2010	San Diego	50 10 	Cloudy	89	30.05	4	3	E
Fri Jan 29 12:05:29 2010	Denver	25 -4 	Dense Fog	86	30.08	0	5	W
Fri Jan 29 12:05:30 2010	Memphis	32 0 	Cloudy	63	30.25	10	18	ENE
Fri Jan 29 12:05:31 2010	Los Angeles	50 10 	Mostly Clear	60	30.02	10	0	CLM
Fri Jan 29 12:05:32 2010	El Paso	30 -1 	Light Snow	80	30.12	6	13	N
Fri Jan 29 12:05:33 2010	Baltimore	19 -7 		43	30.38	10	6	NW
Fri Jan 29 12:05:33 2010	New York	17 -8 	Clear	42	30.26	10	8	WNW
Fri Jan 29 12:05:34 2010	Las Vegas	45 7 	Mostly Clear	62	30.06	10	3	ESE
Fri Jan 29 12:05:35 2010	Washington	21 -6 	Cloudy	41	30.4	10	14	NNW
Fri Jan 29 12:05:36 2010	Austin	46 8 	Cloudy	87	29.97	10	22	N
Fri Jan 29 12:05:37 2010	Oklahoma City	26 -3 	Light Snow	86	30.16	3	14	NNE
Fri Jan 29 12:05:37 2010	San Francisco	47 8 	Cloudy	92	30.04	6	3	S
Fri Jan 29 12:05:38 2010	Nashville	28 -2 	Cloudy	58	30.36	10	8	N
Fri Jan 29 12:05:39 2010	Fort Worth	41 5 	Light Rain	93	30.02	10	5	NNE
Fri Jan 29 12:05:40 2010	Phoenix	51 11 	Cloudy	89	30.05	10	3	ENE
Fri Jan 29 12:05:41 2010	Chicago	14-Jul		52	30.58	10	7	NNW
Fri Jan 29 12:05:41 2010	Portland	46 8 	Cloudy	67	29.96	10	23	E
Fri Jan 29 12:05:42 2010	San Antonio	49 9 	Cloudy	89	29.88	8	14	NNW
Fri Jan 29 12:05:43 2010	Indianapolis	12-Oct	Cloudy	78	30.46	10	0	CLM
Fri Jan 29 12:05:44 2010	Boston	14 -10 	Clear	40	29.97	10	28	W
Fri Jan 29 12:05:45 2010	Columbus	12-Oct		61	30.51	10	6	NNW
Fri Jan 29 12:05:45 2010	Jacksonville	45 7 	Cloudy	85	30.19	10	6	NNW
Fri Jan 29 12:05:46 2010	Dallas	41 5 	Rain	93	30.01	6	8	ENE
Fri Jan 29 12:05:47 2010	Houston	66 19 	Cloudy	93	29.8	8	14	S
Fri Jan 29 12:05:48 2010	Seattle	49 9 	Cloudy	49	29.97	10	8	SE
Fri Jan 29 12:05:49 2010	Milwaukee	17-Jan	Mostly Clear	55	30.52	10	6	W
Fri Jan 29 12:05:50 2010	Detroit	14-Jul	Mostly Clear	69	30.5	10	7	W
Fri Jan 29 12:05:50 2010	Philadelphia	17 -8 	Clear	42	30.34	10	12	NW
Fri Jan 29 12:52:00 2010	San Jose	45 7 	Mostly Cloudy	90	30.03	7	2	SE
Fri Jan 29 12:52:01 2010	Charlotte	40 4 	Cloudy	41	30.22	10	8	NE
Fri Jan 29 12:52:01 2010	San Diego	49 9 	Clear	89	30.03	7	6	E
Fri Jan 29 12:52:02 2010	Denver	23 -5 	Dense Fog	95	30.13	0	6	W
Fri Jan 29 12:52:03 2010	Memphis	32 0 	Cloudy	63	30.22	10	18	ENE
Fri Jan 29 12:52:04 2010	Los Angeles	46 8 	Clear	76	30.02	10	3	N
Fri Jan 29 12:52:05 2010	El Paso	30 -1 	Cloudy	85	30.12	7	10	N
Fri Jan 29 12:52:05 2010	New York	17 -8 	Clear	45	30.25	10	10	W
Fri Jan 29 12:52:06 2010	Baltimore	18 -8 	Mostly Cloudy	45	30.39	10	8	NNW
Fri Jan 29 12:52:07 2010	Las Vegas	42 6 		70	30.06	10	0	CLM
Fri Jan 29 12:52:08 2010	Washington	20 -7 		41	30.41	10	14	NNW
Fri Jan 29 12:52:09 2010	Austin	43 6 	Rain	93	29.97	5	21	NNW
Fri Jan 29 12:52:09 2010	San Francisco	48 9 		90	30.05	6	2	NNE
Fri Jan 29 12:52:10 2010	Oklahoma City	25 -4 	Light Freezing Drizzle	88	30.16	4	15	NNE
Fri Jan 29 12:52:11 2010	Nashville	28 -2 	Cloudy	58	30.36	10	12	N
Fri Jan 29 12:52:12 2010	Fort Worth	41 5 	Light Rain	88	30	10	9	NE
Fri Jan 29 12:52:13 2010	Phoenix	51 11 	Cloudy	89	30.01	10	0	CLM
Fri Jan 29 12:52:14 2010	Chicago	14-Jun		54	30.6	10	7	NW
Fri Jan 29 12:52:14 2010	Portland	46 8 	Mostly Cloudy	67	29.97	10	22	E
Fri Jan 29 12:52:15 2010	San Antonio	46 8 	Rain	88	29.91	5	18	NNW
Fri Jan 29 12:52:16 2010	Indianapolis	12-Oct	Cloudy	78	30.47	10	7	N
Fri Jan 29 12:52:17 2010	Boston	14 -10 	Clear	40	30	10	22	W
Fri Jan 29 12:52:18 2010	Columbus	12-Oct	Cloudy	61	30.5	10	6	NNW
Fri Jan 29 12:52:18 2010	Jacksonville	47 8 	Cloudy	83	30.18	10	0	CLM
Fri Jan 29 12:52:19 2010	Dallas	41 5 	Rain	92	30.01	6	9	NE
Fri Jan 29 12:52:20 2010	Houston	66 19 	Light Rain	93	29.8	8	15	S
Fri Jan 29 12:52:21 2010	Seattle	49 9 	Clear	47	29.97	10	3	N
Fri Jan 29 12:52:22 2010	Detroit	14-Jul	Partly Cloudy	69	30.51	10	6	WNW
Fri Jan 29 12:52:22 2010	Milwaukee	0 -18 	Mostly Clear	60	30.52	10	5	WNW
Fri Jan 29 12:52:23 2010	Philadelphia	17 -8 	Clear	45	30.35	10	7	WNW
Fri Jan 29 13:40:35 2010	San Jose	45 7 		90	30.03	7	2	ENE
Fri Jan 29 13:40:36 2010	Charlotte	38 3 	Partly Cloudy	40	30.25	10	7	ENE
Fri Jan 29 13:40:37 2010	Denver	19 -7 	Dense Fog	92	30.06	0	0	CLM
Fri Jan 29 13:40:37 2010	San Diego	50 10 	Clear	82	30.03	10	3	ESE
Fri Jan 29 13:40:38 2010	Memphis	32 0 	Cloudy	63	30.24	10	13	ENE
Fri Jan 29 13:40:39 2010	Los Angeles	46 8 	Clear	73	30.02	10	0	CLM
Fri Jan 29 13:40:40 2010	El Paso	30 -1 	Cloudy	85	30.13	10	9	N
Fri Jan 29 13:40:41 2010	New York	16 -9 	Clear	44	30.26	10	16	WNW
Fri Jan 29 13:40:42 2010	Baltimore	18 -8 		47	30.41	10	9	NW
Fri Jan 29 13:40:42 2010	Las Vegas	42 6 		70	30.06	10	3	SSW
Fri Jan 29 13:40:43 2010	Washington	20 -7 		41	30.44	10	16	NNW
Fri Jan 29 13:40:44 2010	Austin	41 5 	Heavy Rain	93	29.99	2	18	NNW
Fri Jan 29 13:40:45 2010	San Francisco	48 9 	Mostly Cloudy	92	30.05	7	3	ENE
Fri Jan 29 13:40:46 2010	Nashville	28 -2 	Cloudy	58	30.33	10	10	NNE
Fri Jan 29 13:40:46 2010	Oklahoma City	25 -4 	Light Freezing Drizzle	84	30.14	5	10	N
Fri Jan 29 13:40:47 2010	Fort Worth	39 4 	Rain	92	30	7	10	N
Fri Jan 29 13:40:48 2010	Phoenix	51 11 	Cloudy	85	30.01	10	3	ENE
Fri Jan 29 13:40:49 2010	Portland	46 8 	Mostly Cloudy	67	29.99	10	20	E
Fri Jan 29 13:40:50 2010	Chicago	14-Jun	Cloudy	52	30.6	10	8	NW
Fri Jan 29 13:40:50 2010	San Antonio	45 7 	Light Rain	89	29.95	10	14	NNW
Fri Jan 29 13:40:51 2010	Indianapolis	11-Dec	Cloudy	67	30.47	10	3	N
Fri Jan 29 13:40:52 2010	Boston	13 -11 	Clear	42	30.01	10	26	W
Fri Jan 29 13:40:53 2010	Jacksonville	48 9 	Cloudy	79	30.18	10	0	CLM
Fri Jan 29 13:40:54 2010	Columbus	12-Oct	Cloudy	61	30.52	10	6	N
Fri Jan 29 13:40:54 2010	Dallas	39 4 	Rain	93	30.01	7	10	N
Fri Jan 29 13:40:55 2010	Houston	64 18 	Thunderstorm	96	29.79	5	8	WSW
Fri Jan 29 13:40:56 2010	Seattle	48 9 	Mostly Cloudy	49	29.95	10	9	ESE
Fri Jan 29 13:40:57 2010	Milwaukee	16-Mar	Mostly Clear	57	30.52	10	7	WNW
Fri Jan 29 13:40:58 2010	Detroit	12-Oct	Cloudy	61	30.48	10	7	W
Fri Jan 29 13:40:58 2010	Philadelphia	16 -9 	Clear	49	30.36	10	10	WNW
Fri Jan 29 14:25:08 2010	San Jose	44 7 		90	30.03	6	3	ENE
Fri Jan 29 14:25:09 2010	Charlotte	38 3 	Cloudy	44	30.28	10	6	NNE
Fri Jan 29 14:25:09 2010	San Diego	49 9 	Clear	86	30.03	9	0	CLM
Fri Jan 29 14:25:10 2010	Denver	20 -7 	Dense Fog	91	30.14	0	5	WSW
Fri Jan 29 14:25:11 2010	Memphis	32 0 	Freezing Rain	64	30.25	9	15	NE
Fri Jan 29 14:25:12 2010	Los Angeles	45 7 	Clear	73	30.01	10	0	CLM
Fri Jan 29 14:25:13 2010	El Paso	30 -1 	Cloudy	81	30.11	10	10	NNE
Fri Jan 29 14:25:13 2010	New York	16 -9 	Sunny	44	30.29	10	15	WNW
Fri Jan 29 14:25:14 2010	Baltimore	18 -8 	Mostly Cloudy	51	30.42	10	9	WNW
Fri Jan 29 14:25:15 2010	Las Vegas	42 6 		70	30.06	10	0	CLM
Fri Jan 29 14:25:16 2010	Washington	20 -7 	Mostly Cloudy	41	30.45	10	17	NNW
Fri Jan 29 14:25:17 2010	Austin	41 5 	Heavy Rain	100	30.02	2	17	NW
Fri Jan 29 14:25:17 2010	San Francisco	48 9 	Mostly Cloudy	92	30.04	7	3	NNE
Fri Jan 29 14:25:18 2010	Oklahoma City	25 -4 	Freezing Drizzle	86	30.13	3	16	NW
Fri Jan 29 14:25:19 2010	Nashville	28 -2 	Cloudy	58	30.33	10	10	NNE
Fri Jan 29 14:25:20 2010	Fort Worth	39 4 	Light Rain	88	30.01	7	12	N
Fri Jan 29 14:25:21 2010	Phoenix	50 10 	Clear	89	30.01	9	5	E
Fri Jan 29 14:25:21 2010	Portland	46 8 	Partly Cloudy	67	30.01	10	22	E
Fri Jan 29 14:25:22 2010	Chicago	15-May		60	30.6	10	5	NW
Fri Jan 29 14:25:23 2010	San Antonio	43 6 	Light Rain	92	29.98	10	21	NNW
Fri Jan 29 14:25:24 2010	Indianapolis	11-Dec	Cloudy	72	30.48	10	0	CLM
Fri Jan 29 14:25:25 2010	Boston	13 -11 	Sunny	42	30.02	10	24	W
Fri Jan 29 14:25:25 2010	Jacksonville	49 9 	Mostly Cloudy	83	30.18	10	0	CLM
Fri Jan 29 14:25:26 2010	Columbus	12-Nov	Cloudy	55	30.53	10	8	NNE
Fri Jan 29 14:25:27 2010	Dallas	39 4 	Rain	92	30.02	6	8	N
Fri Jan 29 14:25:28 2010	Houston	62 17 	Thunderstorm	89	29.82	5	16	NNW
Fri Jan 29 14:25:29 2010	Milwaukee	0 -18 	Clear	60	30.54	10	3	W
Fri Jan 29 14:25:29 2010	Seattle	49 9 	Mostly Cloudy	47	29.97	10	5	S
Fri Jan 29 14:25:30 2010	Detroit	12-Oct	Cloudy	63	30.53	10	7	WNW
Fri Jan 29 14:25:31 2010	Philadelphia	17 -8 	Sunny	49	30.38	10	9	WNW
Fri Jan 29 15:11:13 2010	San Jose	44 7 	Cloudy	91	30.03	6	3	NNE
Fri Jan 29 15:11:14 2010	Charlotte	38 3 	Cloudy	44	30.28	10	6	NNE
Fri Jan 29 15:11:15 2010	San Diego	49 9 	Mostly Clear	86	30.03	9	0	CLM
Fri Jan 29 15:11:16 2010	Denver	20 -7 	Dense Fog	91	30.14	0	5	WSW
Fri Jan 29 15:11:16 2010	Memphis	32 0 	Freezing Rain	64	30.25	9	15	NE
Fri Jan 29 15:11:17 2010	Los Angeles	45 7 	Mostly Clear	73	30.01	10	0	CLM
Fri Jan 29 15:11:18 2010	El Paso	30 -1 	Cloudy	81	30.11	10	10	NNE
Fri Jan 29 15:11:19 2010	New York	16 -9 	Sunny	44	30.29	10	15	WNW
Fri Jan 29 15:11:20 2010	Baltimore	18 -8 	Mostly Cloudy	51	30.42	10	9	WNW
Fri Jan 29 15:11:20 2010	Las Vegas	42 6 		70	30.06	10	0	CLM
Fri Jan 29 15:11:21 2010	Washington	20 -7 	Mostly Cloudy	41	30.45	10	17	NNW
Fri Jan 29 15:11:22 2010	Austin	41 5 	Rain	93	30.02	2	21	NNW
Fri Jan 29 15:11:23 2010	San Francisco	48 9 	Cloudy	92	30.04	7	3	ESE
Fri Jan 29 15:11:24 2010	Nashville	28 -2 	Cloudy	58	30.33	10	10	NNE
Fri Jan 29 15:11:24 2010	Oklahoma City	25 -4 	Freezing Drizzle	86	30.13	2	9	NNE
Fri Jan 29 15:11:25 2010	Fort Worth	37 3 	Light Rain	93	30.03	8	13	N
Fri Jan 29 15:11:26 2010	Phoenix	50 10 	Clear	89	30.01	9	5	E
Fri Jan 29 15:11:27 2010	Portland	46 8 	Cloudy	67	30.01	10	22	E
Fri Jan 29 15:11:28 2010	Chicago	15-May		60	30.6	10	5	NW
Fri Jan 29 15:11:28 2010	San Antonio	41 5 	Heavy Rain	86	30.05	4	14	NNW
Fri Jan 29 15:11:29 2010	Indianapolis	11-Dec	Cloudy	72	30.47	10	5	NNE
Fri Jan 29 15:11:30 2010	Boston	13 -11 	Sunny	42	30.02	10	24	W
Fri Jan 29 15:11:31 2010	Jacksonville	52 11 	Light Rain	76	31.21	8	0	CLM
Fri Jan 29 15:11:32 2010	Columbus	12-Nov	Cloudy	55	30.53	10	8	NNE
Fri Jan 29 15:11:32 2010	Dallas	37 3 	Rain	93	30.04	6	8	NNE
Fri Jan 29 15:11:33 2010	Houston	59 15 	Rain	87	29.83	7	12	NW
Fri Jan 29 15:11:34 2010	Seattle	49 9 	Cloudy	47	29.97	10	5	S
Fri Jan 29 15:11:35 2010	Milwaukee	0 -18 	Clear	60	30.54	10	3	W
Fri Jan 29 15:11:36 2010	Detroit	12-Oct	Cloudy	63	30.53	10	7	WNW
Fri Jan 29 15:11:36 2010	Philadelphia	17 -8 	Sunny	49	30.38	10	9	WNW
Fri Jan 29 15:58:15 2010	San Jose	45 7 	Cloudy	90	30.02	6	3	NE
Fri Jan 29 15:58:16 2010	Charlotte	39 4 	Cloudy	40	30.29	10	12	ENE
Fri Jan 29 15:58:17 2010	San Diego	47 8 	Cloudy	86	30.03	10	3	ENE
Fri Jan 29 15:58:18 2010	Denver	19 -7 	Dense Fog	92	30.06	0	0	CLM
Fri Jan 29 15:58:18 2010	Memphis	30 -1 		80	30.25	8	15	ENE
Fri Jan 29 15:58:19 2010	Los Angeles	44 7 	Partly Cloudy	76	30.03	10	3	WNW
Fri Jan 29 15:58:20 2010	El Paso	30 -1 	Mostly Cloudy	80	30.15	10	7	N
Fri Jan 29 15:58:21 2010	New York	16 -9 	Sunny	44	30.3	10	17	WNW
Fri Jan 29 15:58:22 2010	Baltimore	19 -7 	Cloudy	47	30.43	10	8	NW
Fri Jan 29 15:58:23 2010	Las Vegas	41 5 		73	30.06	10	3	WSW
Fri Jan 29 15:58:23 2010	Washington	21 -6 	Cloudy	41	30.46	10	16	NNW
Fri Jan 29 15:58:24 2010	Austin	39 4 	Rain	100	30.06	5	18	NW
Fri Jan 29 15:58:25 2010	San Francisco	48 9 	Cloudy	92	30.02	6	3	NE
Fri Jan 29 15:58:26 2010	Oklahoma City	25 -4 	Light Snow/Fog	84	30.15	1	14	NNE
Fri Jan 29 15:58:27 2010	Nashville	28 -2 	Light Snow	55	30.36	9	10	NE
Fri Jan 29 15:58:28 2010	Fort Worth	37 3 	Light Rain	93	30.06	10	10	N
Fri Jan 29 15:58:28 2010	Phoenix	49 9 	Clear	89	30.02	7	3	ENE
Fri Jan 29 15:58:29 2010	Portland	45 7 	Cloudy	70	29.99	10	24	E
Fri Jan 29 15:58:30 2010	Chicago	14-Jun		57	30.61	10	5	WNW
Fri Jan 29 15:58:31 2010	San Antonio	41 5 	Rain	92	30.03	4	14	NNW
Fri Jan 29 15:58:32 2010	Boston	14 -10 	Sunny	38	30.03	10	25	W
Fri Jan 29 15:58:32 2010	Indianapolis	11-Dec	Cloudy	85	30.47	10	6	NE
Fri Jan 29 15:58:33 2010	Jacksonville	54 12 	Mostly Cloudy	76	30.21	10	0	CLM
Fri Jan 29 15:58:34 2010	Columbus	12-Nov	Cloudy	53	30.53	10	7	N
Fri Jan 29 15:58:35 2010	Dallas	37 3 	Rain	93	30.07	6	9	NNW
Fri Jan 29 15:58:36 2010	Houston	57 14 	Light Rain	93	29.87	8	13	NW
Fri Jan 29 15:58:36 2010	Seattle	50 10 	Cloudy	46	29.97	10	5	N
Fri Jan 29 15:58:37 2010	Milwaukee	0 -18 	Sunny	60	30.53	10	7	NW
Fri Jan 29 15:58:38 2010	Detroit	11-Dec	Cloudy	61	30.53	10	12	NNW
Fri Jan 29 15:58:39 2010	Philadelphia	18 -8 	Mostly Sunny	47	30.39	10	12	WNW
Fri Jan 29 16:42:52 2010	Charlotte	40 4 	Cloudy	36	30.29	10	10	E
Fri Jan 29 16:42:52 2010	San Jose	46 8 	Cloudy	93	30.03	10	0	CLM
Fri Jan 29 16:42:53 2010	San Diego	49 9 	Sunny	83	30.04	8	0	CLM
Fri Jan 29 16:42:54 2010	Denver	20 -7 	Dense Fog	91	30.15	0	5	SSW
Fri Jan 29 16:42:55 2010	Memphis	30 -1 		80	30.3	2	12	ENE
Fri Jan 29 16:42:56 2010	El Paso	31 -1 	Mostly Cloudy	75	30.15	10	0	CLM
Fri Jan 29 16:42:56 2010	Los Angeles	45 7 	Sunny	70	30.03	10	0	CLM
Fri Jan 29 16:42:57 2010	New York	18 -8 	Sunny	37	30.31	10	13	WNW
Fri Jan 29 16:42:58 2010	Baltimore	20 -7 	Cloudy	43	30.45	10	14	NW
Fri Jan 29 16:42:59 2010	Las Vegas	42 6 		70	30.07	10	5	SW
Fri Jan 29 16:43:00 2010	Austin	39 4 	Rain	93	30.07	3	22	NW
Fri Jan 29 16:43:00 2010	Washington	22 -6 	Cloudy	41	30.47	10	15	NNW
Fri Jan 29 16:43:01 2010	San Francisco	48 9 	Cloudy	91	30.03	6	3	S
Fri Jan 29 16:43:02 2010	Oklahoma City	24 -4 	Light Snow/Fog	84	30.15	1	17	N
Fri Jan 29 16:43:03 2010	Nashville	25 -4 	Snow	79	30.37	1	10	NNE
Fri Jan 29 16:43:04 2010	Fort Worth	37 3 	Rain	93	30.08	5	8	NNW
Fri Jan 29 16:43:04 2010	Phoenix	48 9 	Partly Sunny	92	30.03	4	0	CLM
Fri Jan 29 16:43:05 2010	Portland	46 8 	Mostly Cloudy	67	29.97	10	23	E
Fri Jan 29 16:43:06 2010	Chicago	13-Sep		55	30.59	10	5	N
Fri Jan 29 16:43:07 2010	San Antonio	42 6 	Light Rain	85	30.03	8	17	NNW
Fri Jan 29 16:43:08 2010	Boston	15 -9 	Sunny	36	30.05	10	25	W
Fri Jan 29 16:43:08 2010	Indianapolis	14 -10 	Cloudy	78	30.5	10	5	NE
Fri Jan 29 16:43:09 2010	Jacksonville	54 12 	Cloudy	77	30.21	10	3	ENE
Fri Jan 29 16:43:10 2010	Columbus	11-Dec	Cloudy	53	30.53	10	8	N
Fri Jan 29 16:43:11 2010	Dallas	37 3 	Rain	93	30.09	6	7	NNW
Fri Jan 29 16:43:12 2010	Houston	57 14 	Light Rain	89	29.91	10	18	NW
Fri Jan 29 16:43:13 2010	Milwaukee	17-Jan	Sunny	60	30.52	10	5	NNW
Fri Jan 29 16:43:13 2010	Seattle	49 9 	Cloudy	47	29.97	10	7	ESE
Fri Jan 29 16:43:14 2010	Detroit	14 -10 	Mostly Cloudy	56	30.53	10	8	N
Fri Jan 29 16:43:15 2010	Philadelphia	19 -7 		45	30.4	10	15	WNW
Fri Jan 29 17:31:13 2010	San Jose	46 8 	Cloudy	87	30.02	10	0	CLM
Fri Jan 29 17:31:14 2010	Charlotte	41 5 	Cloudy	33	30.3	10	12	ENE
Fri Jan 29 17:31:15 2010	San Diego	50 10 	Sunny	82	30.06	10	3	NE
Fri Jan 29 17:31:16 2010	Denver	25 -4 	Dense Fog	92	30.14	0	5	SW
Fri Jan 29 17:31:17 2010	Los Angeles	47 8 	Sunny	68	30.04	10	3	WSW
Fri Jan 29 17:31:17 2010	Memphis	30 -1 		86	30.26	2	12	ENE
Fri Jan 29 17:31:18 2010	El Paso	32 0 	Cloudy	72	30.17	10	3	NNE
Fri Jan 29 17:31:19 2010	New York	19 -7 	Sunny	35	30.29	10	15	WNW
Fri Jan 29 17:31:20 2010	Baltimore	21 -6 	Cloudy	41	30.42	10	10	NW
Fri Jan 29 17:31:21 2010	Las Vegas	42 6 		70	30.08	10	3	W
Fri Jan 29 17:31:21 2010	Washington	21 -6 	Cloudy	43	30.46	10	14	NNW
Fri Jan 29 17:31:22 2010	Austin	39 4 	Light Rain	93	30.07	9	18	NNW
Fri Jan 29 17:31:23 2010	San Francisco	48 9 	Cloudy	92	30.04	6	3	SSW
Fri Jan 29 17:31:24 2010	Oklahoma City	24 -4 	Light Snow/Fog	84	30.18	1	12	N
Fri Jan 29 17:31:25 2010	Fort Worth	37 3 	Light Rain	93	30.08	10	15	NW
Fri Jan 29 17:31:25 2010	Nashville	25 -4 	Light Snow/Fog	84	30.39	1	9	NNE
Fri Jan 29 17:31:26 2010	Phoenix	51 11 	Partly Sunny	85	30.06	7	0	CLM
Fri Jan 29 17:31:27 2010	Portland	45 7 	Mostly Cloudy	70	29.98	10	23	E
Fri Jan 29 17:31:28 2010	Chicago	12-Nov		55	30.61	10	0	CLM
Fri Jan 29 17:31:29 2010	Indianapolis	14 -10 	Cloudy	78	30.5	10	6	ENE
Fri Jan 29 17:31:29 2010	San Antonio	43 6 	Light Rain	82	30.03	10	21	NNW
Fri Jan 29 17:31:30 2010	Boston	17 -8 	Sunny	32	30.04	10	28	WNW
Fri Jan 29 17:31:31 2010	Jacksonville	56 13 	Cloudy	74	30.19	10	5	E
Fri Jan 29 17:31:32 2010	Columbus	13 -11 	Cloudy	49	30.56	10	8	N
Fri Jan 29 17:31:33 2010	Dallas	37 3 	Light Rain	93	30.1	8	9	NW
Fri Jan 29 17:31:33 2010	Houston	53 12 	Cloudy	89	29.98	10	15	NW
Fri Jan 29 17:31:34 2010	Seattle	47 8 	Mostly Cloudy	55	29.98	10	6	S
Fri Jan 29 17:31:35 2010	Milwaukee	15-May	Sunny	51	30.52	10	6	NNW
Fri Jan 29 17:31:36 2010	Detroit	15 -9 	Partly Sunny	51	30.53	10	5	NW
Fri Jan 29 17:31:37 2010	Philadelphia	21 -6 	Sunny	41	30.38	10	14	NW
Fri Jan 29 18:16:11 2010	San Jose	46 8 	Cloudy	87	30.02	10	0	CLM
Fri Jan 29 18:16:12 2010	Charlotte	41 5 	Cloudy	33	30.3	10	12	ENE
Fri Jan 29 18:16:13 2010	Denver	28 -2 	Foggy	92	30.09	1	3	W
Fri Jan 29 18:16:13 2010	San Diego	50 10 	Mostly Sunny	82	30.06	10	3	NE
Fri Jan 29 18:16:14 2010	Memphis	30 -1 	Light Sleet	86	30.23	5	17	ENE
Fri Jan 29 18:16:15 2010	Los Angeles	47 8 		68	30.04	10	3	WSW
Fri Jan 29 18:16:16 2010	El Paso	32 0 	Cloudy	72	30.17	10	3	NNE
Fri Jan 29 18:16:17 2010	Baltimore	21 -6 	Cloudy	41	30.42	10	10	NW
Fri Jan 29 18:16:17 2010	New York	19 -7 		35	30.29	10	15	WNW
Fri Jan 29 18:16:18 2010	Las Vegas	42 6 		70	30.08	10	3	W
Fri Jan 29 18:16:19 2010	Washington	21 -6 	Cloudy	43	30.46	10	14	NNW
Fri Jan 29 18:16:20 2010	Austin	39 4 	Light Rain	86	30.07	8	18	NNW
Fri Jan 29 18:16:21 2010	Oklahoma City	25 -4 	Snow/Fog	79	30.14	1	13	N
Fri Jan 29 18:16:21 2010	San Francisco	48 9 	Cloudy	91	30.04	6	3	N
Fri Jan 29 18:16:22 2010	Nashville	25 -4 	Light Snow/Fog	86	30.37	1	9	NE
Fri Jan 29 18:16:23 2010	Fort Worth	37 3 	Light Rain	86	30.1	10	16	WNW
Fri Jan 29 18:16:24 2010	Phoenix	51 11 	Partly Sunny	85	30.06	7	0	CLM
Fri Jan 29 18:16:25 2010	Chicago	12-Nov		55	30.61	10	0	CLM
Fri Jan 29 18:16:25 2010	Portland	45 7 	Cloudy	70	29.98	10	23	E
Fri Jan 29 18:16:26 2010	San Antonio	43 6 	Light Rain	82	30.03	10	21	NNW
Fri Jan 29 18:16:27 2010	Indianapolis	16 -9 	Cloudy	73	30.5	10	7	ENE
Fri Jan 29 18:16:28 2010	Boston	17 -8 	Sunny	32	30.04	10	28	WNW
Fri Jan 29 18:16:29 2010	Columbus	13 -11 	Cloudy	49	30.56	10	8	N
Fri Jan 29 18:16:29 2010	Jacksonville	56 13 	Cloudy	74	30.19	10	5	E
Fri Jan 29 18:16:30 2010	Dallas	37 3 	Light Rain	93	30.09	8	7	N
Fri Jan 29 18:16:31 2010	Houston	52 11 	Light Rain	87	29.97	10	25	NNW
Fri Jan 29 18:16:32 2010	Seattle	47 8 	Cloudy	55	29.98	10	6	S
Fri Jan 29 18:16:33 2010	Milwaukee	15-May	Sunny	51	30.52	10	6	NNW
Fri Jan 29 18:16:34 2010	Detroit	15 -9 	Partly Sunny	51	30.53	10	5	NW
Fri Jan 29 18:16:34 2010	Philadelphia	21 -6 	Cloudy	41	30.38	10	14	NW
Fri Jan 29 19:08:33 2010	San Jose	48 9 	Cloudy	87	30.04	10	0	CLM
Fri Jan 29 19:08:34 2010	Charlotte	44 7 	Cloudy	27	30.29	10	12	E
Fri Jan 29 19:08:35 2010	San Diego	56 13 	Mostly Sunny	80	30.07	10	0	CLM
Fri Jan 29 19:08:36 2010	Denver	30 -1 	Light Fog	92	30.09	3	5	W
Fri Jan 29 19:08:36 2010	Memphis	30 -1 	Freezing Rain	86	30.16	8	22	ENE
Fri Jan 29 19:08:37 2010	Los Angeles	53 12 		56	30.05	10	0	CLM
Fri Jan 29 19:08:38 2010	El Paso	35 2 	Partly Sunny	72	30.16	10	6	N
Fri Jan 29 19:08:39 2010	New York	20 -7 	Mostly Sunny	36	30.26	10	12	WNW
Fri Jan 29 19:08:40 2010	Baltimore	23 -5 	Cloudy	36	30.4	10	14	NNW
Fri Jan 29 19:08:41 2010	Las Vegas	46 8 		62	30.1	10	0	CLM
Fri Jan 29 19:08:41 2010	Washington	23 -5 	Cloudy	38	30.43	10	9	NW
Fri Jan 29 19:08:42 2010	Austin	39 4 	Cloudy	86	30.08	10	22	NNW
Fri Jan 29 19:08:43 2010	San Francisco	50 10 	Cloudy	89	30.04	6	4	NE
Fri Jan 29 19:08:44 2010	Oklahoma City	25 -4 	Snow/Fog	79	30.12	1	16	N
Fri Jan 29 19:08:45 2010	Fort Worth	36 2 	Rain	93	30.06	3	16	NW
Fri Jan 29 19:08:45 2010	Nashville	25 -4 	Light Snow/Fog	86	30.36	2	10	NNE
Fri Jan 29 19:08:46 2010	Phoenix	55 13 	Partly Sunny	74	30.07	10	0	CLM
Fri Jan 29 19:08:47 2010	Portland	46 8 	Cloudy	67	29.98	10	21	E
Fri Jan 29 19:08:48 2010	Chicago	14 -10 		51	30.61	10	0	CLM
Fri Jan 29 19:08:49 2010	Indianapolis	18 -8 	Cloudy	67	30.48	10	7	ENE
Fri Jan 29 19:08:49 2010	San Antonio	44 7 	Partly Sunny	76	30.05	10	24	NNW
Fri Jan 29 19:08:50 2010	Boston	19 -7 	Sunny	27	30	10	26	WNW
Fri Jan 29 19:08:51 2010	Jacksonville	61 16 	Cloudy	45	30.17	10	6	E
Fri Jan 29 19:08:52 2010	Columbus	14 -10 	Cloudy	51	30.55	10	7	NE
Fri Jan 29 19:08:53 2010	Dallas	37 3 	Rain	93	30.07	6	10	NW
Fri Jan 29 19:08:53 2010	Houston	52 11 	Cloudy	81	29.95	10	17	NNW
Fri Jan 29 19:08:54 2010	Seattle	46 8 	Cloudy	60	29.99	10	5	S
Fri Jan 29 19:08:55 2010	Milwaukee	13-Sep	Sunny	43	30.54	10	0	CLM
Fri Jan 29 19:08:56 2010	Detroit	17 -8 	Partly Sunny	45	30.53	10	6	WNW
Fri Jan 29 19:08:57 2010	Philadelphia	21 -6 	Cloudy	41	30.34	10	10	WNW
Fri Jan 29 20:06:29 2010	San Jose	50 10 	Cloudy	87	30.04	10	0	CLM
Fri Jan 29 20:06:30 2010	Charlotte	43 6 	Cloudy	28	30.27	10	6	NE
Fri Jan 29 20:06:31 2010	San Diego	59 15 	Cloudy	64	30.08	10	7	CLM
Fri Jan 29 20:06:32 2010	Denver	32 0 	Sunny	72	30.14	10	3	N
Fri Jan 29 20:06:33 2010	Los Angeles	57 14 		52	30.06	10	0	CLM
Fri Jan 29 20:06:33 2010	Memphis	30 -1 	Freezing Rain	86	30.11	6	15	ENE
Fri Jan 29 20:06:34 2010	El Paso	37 3 	Partly Sunny	69	30.17	10	7	N
Fri Jan 29 20:06:35 2010	New York	21 -6 	Partly Sunny	36	30.24	10	10	W
Fri Jan 29 20:06:36 2010	Baltimore	25 -4 	Cloudy	38	30.39	10	15	WNW
Fri Jan 29 20:06:37 2010	Las Vegas	49 9 		44	30.1	10	5	ENE
Fri Jan 29 20:06:37 2010	Washington	24 -4 	Cloudy	38	30.41	10	12	NW
Fri Jan 29 20:06:38 2010	Austin	41 5 	Cloudy	80	30.06	10	18	NW
Fri Jan 29 20:06:39 2010	San Francisco	51 11 	Mostly Cloudy	87	30.03	5	4	E
Fri Jan 29 20:06:40 2010	Oklahoma City	24 -4 	Snow	84	30.1	1	14	N
Fri Jan 29 20:06:41 2010	Fort Worth	36 2 	Rain	93	30.04	5	18	NW
Fri Jan 29 20:06:41 2010	Nashville	25 -4 	Light Snow/Fog	86	30.29	1	12	ENE
Fri Jan 29 20:06:42 2010	Phoenix	57 14 	Cloudy	62	30.09	10	3	N
Fri Jan 29 20:06:43 2010	Portland	46 8 	Cloudy	67	30	10	22	E
Fri Jan 29 20:06:44 2010	Chicago	18 -8 		47	30.57	10	0	CLM
Fri Jan 29 20:06:45 2010	San Antonio	47 8 	Partly Sunny	70	30.04	10	18	NNW
Fri Jan 29 20:06:46 2010	Boston	19 -7 	Mostly Sunny	28	29.98	10	24	W
Fri Jan 29 20:06:46 2010	Indianapolis	18 -8 	Cloudy	67	30.44	10	9	E
Fri Jan 29 20:06:47 2010	Jacksonville	60 16 	Mostly Cloudy	51	30.14	10	9	NE
Fri Jan 29 20:06:48 2010	Columbus	15 -9 	Cloudy	49	30.52	10	8	N
Fri Jan 29 20:06:49 2010	Dallas	37 3 	Light Rain	92	30.05	7	14	NW
Fri Jan 29 20:06:50 2010	Houston	52 11 	Cloudy	87	29.93	10	16	NNW
Fri Jan 29 20:06:50 2010	Seattle	51 11 	Cloudy	45	30	10	0	CLM
Fri Jan 29 20:06:51 2010	Milwaukee	12-Oct	Sunny	37	30.53	10	0	CLM
Fri Jan 29 20:06:52 2010	Detroit	18 -8 	Partly Sunny	43	30.53	10	6	N
Fri Jan 29 20:06:53 2010	Philadelphia	21 -6 	Cloudy	41	30.33	10	12	WNW
Fri Jan 29 20:50:41 2010	San Jose	55 13 	Mostly Cloudy	79	30.04	8	3	ESE
Fri Jan 29 20:50:42 2010	Charlotte	44 7 	Cloudy	29	30.24	10	8	ENE
Fri Jan 29 20:50:43 2010	San Diego	62 17 	Sunny	51	30.07	10	0	CLM
Fri Jan 29 20:50:44 2010	Denver	37 3 	Mostly Sunny	48	30.1	10	3	W
Fri Jan 29 20:50:45 2010	Los Angeles	59 15 	Sunny	47	30.05	10	0	CLM
Fri Jan 29 20:50:45 2010	Memphis	30 -1 	Freezing Rain	86	30.06	9	16	E
Fri Jan 29 20:50:46 2010	El Paso	40 4 	Partly Sunny	64	30.13	10	8	N
Fri Jan 29 20:50:47 2010	New York	22 -6 	Partly Sunny	34	30.21	10	14	WNW
Fri Jan 29 20:50:48 2010	Baltimore	25 -4 	Mostly Cloudy	35	30.36	10	13	NW
Fri Jan 29 20:50:49 2010	Las Vegas	50 10 		46	30.08	10	3	ENE
Fri Jan 29 20:50:49 2010	Washington	25 -4 	Cloudy	36	30.39	10	9	NNW
Fri Jan 29 20:50:50 2010	Austin	41 5 	Cloudy	80	30.05	10	18	NW
Fri Jan 29 20:50:51 2010	San Francisco	52 11 	Mostly Cloudy	84	30.03	7	4	ESE
Fri Jan 29 20:50:52 2010	Oklahoma City	21 -6 	Snow	92	30.09	1	15	N
Fri Jan 29 20:50:53 2010	Fort Worth	36 2 	Cloudy	89	30.02	10	16	NW
Fri Jan 29 20:50:53 2010	Nashville	25 -4 	Snow/Fog	86	30.27	1	10	ENE
Fri Jan 29 20:50:54 2010	Phoenix	59 15 	Cloudy	62	30.07	10	0	CLM
Fri Jan 29 20:50:55 2010	Portland	47 8 	Partly Sunny	68	30.01	10	21	E
Fri Jan 29 20:50:56 2010	Chicago	20 -7 		49	30.53	10	0	CLM
Fri Jan 29 20:50:57 2010	San Antonio	48 9 	Partly Sunny	65	30.01	10	20	NW
Fri Jan 29 20:50:58 2010	Boston	20 -7 	Mostly Sunny	26	29.99	10	24	WNW
Fri Jan 29 20:50:58 2010	Indianapolis	19 -7 	Cloudy	67	30.41	10	9	E
Fri Jan 29 20:50:59 2010	Jacksonville	59 15 	Mostly Cloudy	57	30.11	10	10	NE
Fri Jan 29 20:51:00 2010	Columbus	16 -9 		49	30.5	10	7	N
Fri Jan 29 20:51:01 2010	Dallas	37 3 	Cloudy	92	30.03	10	14	NW
Fri Jan 29 20:51:02 2010	Houston	54 12 	Cloudy	81	29.9	10	9	NNW
Fri Jan 29 20:51:02 2010	Seattle	52 11 	Partly Sunny	48	29.99	10	7	ESE
Fri Jan 29 20:51:03 2010	Milwaukee	11-Dec	Sunny	34	30.5	10	0	CLM
Fri Jan 29 20:51:04 2010	Detroit	20 -7 	Partly Sunny	41	30.5	10	0	CLM
Fri Jan 29 20:51:05 2010	Philadelphia	23 -5 	Sunny	40	30.32	10	15	WNW
Fri Jan 29 21:36:42 2010	San Jose	61 16 	Mostly Cloudy	58	29.99	15	12	SE
Fri Jan 29 21:36:43 2010	Charlotte	43 6 	Cloudy	30	30.25	10	9	NE
Fri Jan 29 21:36:44 2010	Denver	41 5 	Mostly Sunny	34	30.04	10	0	CLM
Fri Jan 29 21:36:44 2010	San Diego	63 17 	Sunny	49	30.05	10	5	W
Fri Jan 29 21:36:45 2010	Memphis	30 -1 	Freezing Rain	92	30.06	4	10	ENE
Fri Jan 29 21:36:46 2010	Los Angeles	62 17 	Sunny	39	30.02	10	3	SE
Fri Jan 29 21:36:47 2010	El Paso	42 6 	Partly Sunny	64	30.09	10	7	N
Fri Jan 29 21:36:48 2010	New York	23 -5 	Sunny	33	30.22	10	14	W
Fri Jan 29 21:36:49 2010	Baltimore	24 -4 	Mostly Cloudy	36	30.36	10	9	WNW
Fri Jan 29 21:36:49 2010	Las Vegas	53 12 		39	30.06	10	0	CLM
Fri Jan 29 21:36:50 2010	Washington	26 -3 	Cloudy	35	30.39	10	9	NW
Fri Jan 29 21:36:51 2010	Austin	39 4 	Cloudy	75	30.05	10	21	NW
Fri Jan 29 21:36:52 2010	San Francisco	53 12 	Mostly Cloudy	83	30.01	7	4	ESE
Fri Jan 29 21:36:53 2010	Nashville	25 -4 	Snow	88	30.26	0	12	NE
Fri Jan 29 21:36:53 2010	Oklahoma City	23 -5 	Heavy Snow	84	30.09	0	13	NNW
Fri Jan 29 21:36:54 2010	Fort Worth	36 2 	Light Fog	86	30	3	18	WNW
Fri Jan 29 21:36:55 2010	Phoenix	60 16 	Mostly Cloudy	55	30.02	10	0	CLM
Fri Jan 29 21:36:56 2010	Portland	46 8 	Cloudy	73	29.98	10	23	E
Fri Jan 29 21:36:57 2010	Chicago	20 -7 		57	30.49	10	9	E
Fri Jan 29 21:36:57 2010	San Antonio	49 9 	Partly Sunny	63	30	10	15	NW
Fri Jan 29 21:36:58 2010	Indianapolis	19 -7 	Cloudy	62	30.39	10	10	ESE
Fri Jan 29 21:36:59 2010	Boston	20 -7 	Mostly Sunny	24	30	10	26	WNW
Fri Jan 29 21:37:00 2010	Jacksonville	58 14 	Mostly Cloudy	57	30.1	10	8	NE
Fri Jan 29 21:37:01 2010	Columbus	17 -8 	Cloudy	46	30.47	10	6	NNE
Fri Jan 29 21:37:01 2010	Dallas	37 3 	Rain	86	30.01	3	15	NW
Fri Jan 29 21:37:02 2010	Houston	51 11 	Cloudy	82	29.92	10	17	NW
Fri Jan 29 21:37:03 2010	Seattle	52 11 	Partly Sunny	52	29.99	10	6	S
Fri Jan 29 21:37:04 2010	Milwaukee	11-Dec	Sunny	34	30.44	10	0	CLM
Fri Jan 29 21:37:05 2010	Detroit	21 -6 	Partly Sunny	39	30.48	10	5	N
Fri Jan 29 21:37:06 2010	Philadelphia	23 -5 	Sunny	40	30.31	10	16	WNW
Fri Jan 29 22:22:58 2010	San Jose	63 17 	Mostly Cloudy	55	29.95	15	14	SE
Fri Jan 29 22:22:59 2010	Charlotte	36 2 	Light Snow	69	30.26	2	8	NNE
Fri Jan 29 22:23:00 2010	San Diego	64 18 	Sunny	51	30.03	10	7	SW
Fri Jan 29 22:23:01 2010	Denver	42 6 	Mostly Sunny	27	30	10	7	NW
Fri Jan 29 22:23:01 2010	Memphis	32 0 	Rain	85	30.06	4	13	NNE
Fri Jan 29 22:23:02 2010	Los Angeles	64 18 	Sunny	37	29.99	10	0	CLM
Fri Jan 29 22:23:03 2010	El Paso	43 6 	Partly Sunny	62	30.06	10	5	NW
Fri Jan 29 22:23:04 2010	New York	23 -5 	Sunny	35	30.23	10	12	WNW
Fri Jan 29 22:23:05 2010	Baltimore	24 -4 	Cloudy	38	30.36	10	13	NW
Fri Jan 29 22:23:05 2010	Las Vegas	54 12 		38	30.03	10	5	E
Fri Jan 29 22:23:06 2010	Washington	26 -3 	Cloudy	35	30.38	10	13	NNW
Fri Jan 29 22:23:07 2010	Austin	39 4 	Cloudy	75	30.04	10	18	NNW
Fri Jan 29 22:23:08 2010	San Francisco	54 12 	Mostly Cloudy	79	29.99	8	4	E
Fri Jan 29 22:23:09 2010	Nashville	26 -3 	Snow	84	30.22	1	12	NE
Fri Jan 29 22:23:09 2010	Oklahoma City	22 -6 	Snow	84	30.1	1	21	N
Fri Jan 29 22:23:10 2010	Fort Worth	34 1 	Cloudy	85	30.01	7	16	WNW
Fri Jan 29 22:23:11 2010	Phoenix	62 17 	Sunny	51	29.99	10	0	CLM
Fri Jan 29 22:23:12 2010	Chicago	19 -7 		59	30.49	10	8	E
Fri Jan 29 22:23:12 2010	Portland	46 8 	Mostly Cloudy	73	29.97	10	23	E
Fri Jan 29 22:23:13 2010	San Antonio	48 9 	Partly Sunny	60	30	10	18	WNW
Fri Jan 29 22:23:14 2010	Indianapolis	19 -7 	Cloudy	67	30.38	10	7	E
Fri Jan 29 22:23:15 2010	Boston	19 -7 	Partly Sunny	27	30.02	10	23	WNW
Fri Jan 29 22:23:16 2010	Columbus	16 -9 	Cloudy	51	30.44	10	6	E
Fri Jan 29 22:23:16 2010	Jacksonville	58 14 	Mostly Cloudy	57	30.09	10	7	NE
Fri Jan 29 22:23:17 2010	Dallas	35 2 	Mist	84	30.02	10	18	WNW
Fri Jan 29 22:23:18 2010	Houston	48 9 	Cloudy	82	29.93	10	20	NW
Fri Jan 29 22:23:19 2010	Seattle	54 12 	Cloudy	48	29.98	10	5	SSE
Fri Jan 29 22:23:20 2010	Detroit	22 -6 	Partly Sunny	36	30.45	10	5	NNW
Fri Jan 29 22:23:20 2010	Milwaukee	14 -10 	Sunny	34	30.42	10	0	CLM
Fri Jan 29 22:23:21 2010	Philadelphia	23 -5 	Sunny	38	30.32	10	12	WNW
Fri Jan 29 23:07:12 2010	Charlotte	36 2 	Snow	74	30.27	1	7	NE
Fri Jan 29 23:07:12 2010	San Jose	63 17 	Mostly Cloudy	55	29.95	15	14	SE
Fri Jan 29 23:07:13 2010	San Diego	64 18 	Mostly Sunny	51	30.03	10	7	SW
Fri Jan 29 23:07:14 2010	Denver	42 6 	Mostly Sunny	27	30	10	7	NW
Fri Jan 29 23:07:15 2010	Los Angeles	64 18 		37	29.99	10	0	CLM
Fri Jan 29 23:07:15 2010	Memphis	30 -1 	Freezing Rain	92	30.01	2	18	NE
Fri Jan 29 23:07:16 2010	El Paso	43 6 	Partly Sunny	62	30.06	10	5	NW
Fri Jan 29 23:07:17 2010	New York	23 -5 	Sunny	35	30.23	10	12	WNW
Fri Jan 29 23:07:18 2010	Baltimore	24 -4 	Cloudy	38	30.36	10	13	NW
Fri Jan 29 23:07:19 2010	Las Vegas	54 12 		38	30.03	10	5	E
Fri Jan 29 23:07:19 2010	Washington	26 -3 	Cloudy	35	30.38	10	13	NNW
Fri Jan 29 23:07:20 2010	Austin	39 4 	Cloudy	75	30.04	10	18	NW
Fri Jan 29 23:07:21 2010	San Francisco	56 13 	Mostly Cloudy	76	29.99	9	5	SSW
Fri Jan 29 23:07:22 2010	Oklahoma City	22 -6 	Snow	84	30.1	1	21	N
Fri Jan 29 23:07:23 2010	Fort Worth	34 1 	Cloudy	85	30.01	7	16	WNW
Fri Jan 29 23:07:23 2010	Nashville	26 -3 	Snow	84	30.22	1	12	NE
Fri Jan 29 23:07:24 2010	Phoenix	62 17 	Sunny	51	29.99	10	0	CLM
Fri Jan 29 23:07:25 2010	Portland	46 8 	Cloudy	73	29.97	10	23	E
Fri Jan 29 23:07:26 2010	Chicago	19 -7 		59	30.49	10	8	E
Fri Jan 29 23:07:27 2010	Indianapolis	19 -7 	Cloudy	67	30.35	10	8	ENE
Fri Jan 29 23:07:27 2010	San Antonio	48 9 	Partly Sunny	60	30	10	18	WNW
Fri Jan 29 23:07:28 2010	Boston	19 -7 	Partly Sunny	27	30.02	10	23	WNW
Fri Jan 29 23:07:29 2010	Jacksonville	58 14 	Mostly Cloudy	57	30.09	10	7	NE
Fri Jan 29 23:07:30 2010	Columbus	16 -9 	Cloudy	51	30.44	10	6	E
Fri Jan 29 23:07:31 2010	Dallas	35 2 	Mist	84	30.02	10	18	WNW
Fri Jan 29 23:07:31 2010	Houston	48 9 	Cloudy	82	29.93	10	20	NW
Fri Jan 29 23:07:32 2010	Seattle	54 12 	Cloudy	48	29.98	10	5	SSE
Fri Jan 29 23:07:33 2010	Milwaukee	14 -10 	Sunny	34	30.42	10	0	CLM
Fri Jan 29 23:07:34 2010	Detroit	22 -6 	Partly Sunny	36	30.45	10	5	NNW
Fri Jan 29 23:07:35 2010	Philadelphia	23 -5 	Mostly Sunny	38	30.32	10	12	WNW
Fri Jan 29 23:51:05 2010	San Jose	60 16 		65	29.92	10	6	SSE
Fri Jan 29 23:51:06 2010	Charlotte	34 1 	Snow	80	30.27	1	5	E
Fri Jan 29 23:51:06 2010	San Diego	62 17 	Sunny	69	30.01	9	7	WSW
Fri Jan 29 23:51:07 2010	Denver	44 7 	Mostly Sunny	23	30	10	0	CLM
Fri Jan 29 23:51:08 2010	Memphis	30 -1 	Snow	92	29.99	2	14	ENE
Fri Jan 29 23:51:09 2010	Los Angeles	65 18 	Sunny	38	29.99	10	7	SSE
Fri Jan 29 23:51:10 2010	El Paso	46 8 	Partly Sunny	55	30.05	10	0	CLM
Fri Jan 29 23:51:10 2010	New York	22 -6 	Sunny	34	30.25	10	8	W
Fri Jan 29 23:51:11 2010	Baltimore	24 -4 	Cloudy	36	30.36	10	9	NW
Fri Jan 29 23:51:12 2010	Las Vegas	55 13 		36	30.02	10	0	CLM
Fri Jan 29 23:51:13 2010	Austin	39 4 	Mostly Cloudy	69	30.06	10	16	NW
Fri Jan 29 23:51:13 2010	Washington	26 -3 	Cloudy	33	30.37	10	9	NW
Fri Jan 29 23:51:14 2010	San Francisco	57 14 	Mostly Cloudy	75	29.97	9	6	SSW
Fri Jan 29 23:51:15 2010	Oklahoma City	24 -4 	Snow	91	30.06	1	12	N
Fri Jan 29 23:51:16 2010	Nashville	26 -3 	Light Snow/Fog	88	30.19	1	12	ENE
Fri Jan 29 23:51:17 2010	Fort Worth	34 1 	Cloudy	78	30.02	10	22	NW
Fri Jan 29 23:51:17 2010	Phoenix	61 16 	Sunny	51	29.98	10	0	CLM
Fri Jan 29 23:51:18 2010	Portland	46 8 	Light Rain	76	29.95	10	22	E
Fri Jan 29 23:51:19 2010	Chicago	19 -7 		62	30.47	10	7	ENE
Fri Jan 29 23:51:20 2010	San Antonio	47 8 	Partly Sunny	55	30.01	10	17	NNW
Fri Jan 29 23:51:21 2010	Boston	18 -8 	Partly Cloudy	25	30.05	10	25	WNW
Fri Jan 29 23:51:21 2010	Indianapolis	18 -8 	Cloudy	73	30.34	10	10	ENE
Fri Jan 29 23:51:22 2010	Jacksonville	56 13 	Cloudy	69	30.08	10	7	NE
Fri Jan 29 23:51:23 2010	Columbus	16 -9 	Cloudy	51	30.44	10	8	NE
Fri Jan 29 23:51:24 2010	Dallas	34 1 		89	30.03	9	11	NW
Fri Jan 29 23:51:24 2010	Houston	47 8 	Cloudy	84	29.96	9	9	NW
Fri Jan 29 23:51:25 2010	Seattle	55 13 	Mostly Cloudy	44	29.96	10	8	ESE
Fri Jan 29 23:51:26 2010	Milwaukee	16 -9 	Mostly Sunny	50	30.4	10	2	NNW
Fri Jan 29 23:51:27 2010	Detroit	21 -6 	Partly Sunny	38	30.46	10	6	N
Fri Jan 29 23:51:28 2010	Philadelphia	22 -6 	Sunny	40	30.33	10	12	NW
Mon Feb  1 00:17:13 2010	San Jose	61 16 		54	29.98	10	8	NW
Mon Feb  1 00:17:14 2010	Charlotte	38 3 	Mostly Sunny	48	30.25	10	3	S
Mon Feb  1 00:17:15 2010	San Diego	60 16 	Partly Sunny	66	29.91	10	5	NW
Mon Feb  1 00:17:16 2010	Denver	37 3 		49	29.83	10	8	NNE
Mon Feb  1 00:17:17 2010	Los Angeles	66 19 	Mostly Sunny	41	29.88	10	7	S
Mon Feb  1 00:17:17 2010	Memphis	37 3 	Mostly Sunny	64	30.33	10	3	N
Mon Feb  1 00:17:18 2010	El Paso	57 14 	Mostly Cloudy	40	29.82	10	0	CLM
Mon Feb  1 00:17:19 2010	New York	29 -2 	Sunny	30	30.07	10	8	WSW
Mon Feb  1 00:17:20 2010	Baltimore	28 -2 	Sunny	37	30.17	10	6	W
Mon Feb  1 00:17:21 2010	Las Vegas	59 15 		35	29.89	10	0	CLM
Mon Feb  1 00:17:21 2010	Washington	33 1 	Sunny	27	30.18	10	5	W
Mon Feb  1 00:17:22 2010	Austin	34 1 	Cloudy	86	30.22	5	0	CLM
Mon Feb  1 00:17:23 2010	San Francisco	55 13 		75	29.99	10	4	N
Mon Feb  1 00:17:24 2010	Oklahoma City	28 -2 	Light Fog	87	30.18	1	5	N
Mon Feb  1 00:17:25 2010	Fort Worth	36 2 	Cloudy	72	30.23	10	3	N
Mon Feb  1 00:17:25 2010	Nashville	35 2 	Partly Sunny	47	30.33	10	0	CLM
Mon Feb  1 00:17:26 2010	Phoenix	65 18 	Sunny	36	29.83	10	0	CLM
Mon Feb  1 00:17:27 2010	Portland	51 11 	Cloudy	76	29.97	10	3	NNE
Mon Feb  1 00:17:28 2010	Chicago	29 -2 		49	30.27	10	15	W
Mon Feb  1 00:17:29 2010	Indianapolis	28 -2 	Sunny	63	30.25	10	10	WSW
Mon Feb  1 00:17:29 2010	San Antonio	37 3 	Cloudy	78	30.18	7	7	NE
Mon Feb  1 00:17:30 2010	Boston	28 -2 	Partly Cloudy	32	30	10	10	WNW
Mon Feb  1 00:17:31 2010	Jacksonville	43 6 	Cloudy	70	30.24	10	15	NE
Mon Feb  1 00:17:32 2010	Columbus	31 -1 	Sunny	39	30.22	10	16	W
Mon Feb  1 00:17:33 2010	Dallas	38 3 	Cloudy	69	30.24	10	0	CLM
Mon Feb  1 00:17:33 2010	Houston	42 6 	Mostly Cloudy	67	30.24	10	0	CLM
Mon Feb  1 00:17:34 2010	Seattle	45 7 	Cloudy	89	29.98	10	7	SSW
Mon Feb  1 00:17:35 2010	Milwaukee	21 -6 	Partly Sunny	45	30.22	10	14	WNW
Mon Feb  1 00:17:36 2010	Detroit	29 -2 	Partly Sunny	51	30.12	10	15	WSW
Mon Feb  1 00:17:37 2010	Philadelphia	28 -2 	Sunny	32	30.15	10	6	WSW
Mon Feb  1 01:01:49 2010	San Jose	60 16 	Partly Sunny	59	29.97	10	3	N
Mon Feb  1 01:01:50 2010	Charlotte	35 2 	Mostly Clear	51	30.27	10	5	S
Mon Feb  1 01:01:51 2010	Denver	35 2 	Partly Sunny	53	29.85	10	8	NE
Mon Feb  1 01:01:51 2010	San Diego	60 16 	Partly Sunny	69	29.92	9	7	WNW
Mon Feb  1 01:01:52 2010	Memphis	36 2 		69	30.32	10	7	NE
Mon Feb  1 01:01:53 2010	Los Angeles	64 18 		37	29.89	10	5	N
Mon Feb  1 01:01:54 2010	El Paso	57 14 	Cloudy	41	29.82	10	3	S
Mon Feb  1 01:01:55 2010	Baltimore	23 -5 	Clear	45	30.17	10	0	CLM
Mon Feb  1 01:01:55 2010	New York	28 -2 	Clear	34	30.09	10	8	SW
Mon Feb  1 01:01:56 2010	Las Vegas	59 15 		33	29.89	10	5	ESE
Mon Feb  1 01:01:57 2010	Washington	32 0 	Clear	31	30.19	10	6	SSW
Mon Feb  1 01:01:58 2010	Austin	34 1 	Light Fog	93	30.21	3	0	CLM
Mon Feb  1 01:01:59 2010	Oklahoma City	28 -2 	Light Fog	87	30.21	1	5	N
Mon Feb  1 01:01:59 2010	San Francisco	56 13 		75	29.99	10	4	N
Mon Feb  1 01:02:00 2010	Nashville	35 2 	Mostly Sunny	47	30.33	10	0	CLM
Mon Feb  1 01:02:01 2010	Fort Worth	37 3 	Cloudy	69	30.23	10	6	SSW
Mon Feb  1 01:02:02 2010	Phoenix	65 18 	Partly Sunny	36	29.83	10	5	W
Mon Feb  1 01:02:03 2010	Chicago	27 -3 		53	30.29	10	10	WNW
Mon Feb  1 01:02:03 2010	Portland	51 11 	Cloudy	76	29.96	10	0	CLM
Mon Feb  1 01:02:04 2010	San Antonio	36 2 	Cloudy	81	30.17	7	8	ENE
Mon Feb  1 01:02:05 2010	Indianapolis	25 -4 	Sunny	68	30.26	10	6	WSW
Mon Feb  1 01:02:06 2010	Boston	27 -3 	Clear	35	30	10	13	W
Mon Feb  1 01:02:07 2010	Columbus	28 -2 	Mostly Clear	46	30.24	10	10	W
Mon Feb  1 01:02:07 2010	Jacksonville	44 7 	Cloudy	67	30.24	10	14	NE
Mon Feb  1 01:02:08 2010	Dallas	37 3 	Cloudy	69	30.22	10	3	SSW
Mon Feb  1 01:02:09 2010	Houston	41 5 	Cloudy	67	30.26	10	6	WSW
Mon Feb  1 01:02:10 2010	Seattle	46 8 	Cloudy	85	29.98	10	3	SW
Mon Feb  1 01:02:11 2010	Detroit	27 -3 	Mostly Cloudy	55	30.15	10	15	W
Mon Feb  1 01:02:11 2010	Milwaukee	19 -7 	Mostly Cloudy	45	30.24	10	12	WNW
Mon Feb  1 01:02:12 2010	Philadelphia	26 -3 	Clear	37	30.15	10	8	WSW
Mon Feb  1 01:46:57 2010	San Jose	59 15 		60	29.97	10	3	ENE
Mon Feb  1 01:46:58 2010	Charlotte	33 1 	Mostly Clear	58	30.29	10	7	SSW
Mon Feb  1 01:46:59 2010	San Diego	58 14 	Partly Sunny	71	29.93	10	6	WNW
Mon Feb  1 01:47:00 2010	Denver	30 -1 		63	29.89	10	3	NNE
Mon Feb  1 01:47:00 2010	Memphis	34 1 		72	30.32	10	7	ENE
Mon Feb  1 01:47:01 2010	Los Angeles	63 17 	Sunny	42	29.89	10	6	N
Mon Feb  1 01:47:02 2010	El Paso	56 13 	Mostly Cloudy	43	29.82	10	3	WSW
Mon Feb  1 01:47:03 2010	New York	28 -2 	Clear	32	30.09	10	5	N
Mon Feb  1 01:47:04 2010	Baltimore	21 -6 	Clear	52	30.18	10	5	SSW
Mon Feb  1 01:47:04 2010	Las Vegas	58 14 		32	29.89	10	5	N
Mon Feb  1 01:47:05 2010	Washington	28 -2 	Clear	42	30.21	10	8	SW
Mon Feb  1 01:47:06 2010	Austin	34 1 	Light Fog	93	30.2	3	6	ENE
Mon Feb  1 01:47:07 2010	San Francisco	56 13 		75	29.99	9	4	N
Mon Feb  1 01:47:08 2010	Nashville	32 0 	Mostly Clear	66	30.33	10	3	SSE
Mon Feb  1 01:47:08 2010	Oklahoma City	28 -2 	Light Fog	86	30.21	1	5	N
Mon Feb  1 01:47:09 2010	Fort Worth	36 2 	Cloudy	73	30.22	10	3	SSW
Mon Feb  1 01:47:10 2010	Phoenix	64 18 	Sunny	36	29.84	10	9	W
Mon Feb  1 01:47:11 2010	Portland	53 12 	Partly Sunny	71	29.96	10	3	NE
Mon Feb  1 01:47:12 2010	Chicago	25 -4 	Mostly Clear	60	30.31	10	8	W
Mon Feb  1 01:47:12 2010	San Antonio	36 2 	Cloudy	78	30.17	7	7	NE
Mon Feb  1 01:47:13 2010	Indianapolis	26 -3 	Clear	62	30.27	7	4	W
Mon Feb  1 01:47:14 2010	Boston	27 -3 	Clear	37	30.02	10	10	W
Mon Feb  1 01:47:15 2010	Columbus	27 -3 	Mostly Clear	50	30.26	10	10	W
Mon Feb  1 01:47:15 2010	Jacksonville	45 7 	Cloudy	70	30.25	10	10	NE
Mon Feb  1 01:47:16 2010	Dallas	38 3 	Cloudy	69	30.22	10	3	SSW
Mon Feb  1 01:47:17 2010	Houston	40 4 	Mostly Cloudy	70	30.24	10	3	SW
Mon Feb  1 01:47:18 2010	Seattle	46 8 	Cloudy	85	29.98	10	0	CLM
Mon Feb  1 01:47:19 2010	Detroit	26 -3 	Cloudy	57	30.17	10	12	W
Mon Feb  1 01:47:19 2010	Milwaukee	18 -8 	Clear	49	30.26	10	9	WNW
Mon Feb  1 01:47:20 2010	Philadelphia	26 -3 	Clear	38	30.16	10	6	WSW
Mon Feb  1 02:31:12 2010	Charlotte	31 -1 	Mostly Clear	78	30.3	10	5	SSW
Mon Feb  1 02:31:12 2010	San Jose	59 15 	Mostly Cloudy	62	29.98	10	12	WNW
Mon Feb  1 02:31:13 2010	San Diego	56 13 	Sunny	74	29.95	10	7	NW
Mon Feb  1 02:31:14 2010	Denver	31 -1 	Cloudy	63	29.9	10	3	N
Mon Feb  1 02:31:15 2010	Los Angeles	60 16 	Sunny	57	29.9	10	6	S
Mon Feb  1 02:31:15 2010	Memphis	33 1 	Mostly Clear	75	30.33	10	7	NE
Mon Feb  1 02:31:16 2010	El Paso	55 13 	Mostly Cloudy	48	29.84	10	3	N
Mon Feb  1 02:31:17 2010	New York	28 -2 	Clear	31	30.09	10	7	N
Mon Feb  1 02:31:18 2010	Baltimore	24 -4 	Clear	46	30.2	10	0	CLM
Mon Feb  1 02:31:19 2010	Las Vegas	57 14 		34	29.9	10	3	E
Mon Feb  1 02:31:19 2010	Washington	28 -2 	Clear	42	30.21	10	5	SSW
Mon Feb  1 02:31:20 2010	Austin	34 1 	Cloudy	93	30.21	5	5	E
Mon Feb  1 02:31:21 2010	San Francisco	55 13 		78	30	9	4	N
Mon Feb  1 02:31:22 2010	Oklahoma City	20 -7 	Fog	88	30.23	1	14	SSE
Mon Feb  1 02:31:23 2010	Fort Worth	35 2 		75	30.2	10	0	CLM
Mon Feb  1 02:31:23 2010	Nashville	29 -2 	Clear	78	30.35	10	3	S
Mon Feb  1 02:31:24 2010	Phoenix	63 17 	Clear	36	29.85	10	6	SW
Mon Feb  1 02:31:25 2010	Portland	50 10 	Cloudy	79	29.96	10	0	CLM
Mon Feb  1 02:31:26 2010	Chicago	24 -4 	Clear	65	30.33	10	7	WNW
Mon Feb  1 02:31:27 2010	Indianapolis	23 -5 	Clear	68	30.28	10	6	WSW
Mon Feb  1 02:31:27 2010	San Antonio	36 2 	Cloudy	81	30.18	7	6	E
Mon Feb  1 02:31:28 2010	Boston	26 -3 	Clear	38	30.03	10	14	W
Mon Feb  1 02:31:29 2010	Jacksonville	46 8 	Cloudy	70	30.25	10	14	NE
Mon Feb  1 02:31:30 2010	Columbus	26 -3 	Mostly Clear	55	30.28	10	13	W
Mon Feb  1 02:31:30 2010	Dallas	37 3 		72	30.21	10	0	CLM
Mon Feb  1 02:31:31 2010	Houston	39 4 	Partly Cloudy	75	30.25	10	6	SW
Mon Feb  1 02:31:32 2010	Seattle	46 8 	Cloudy	82	29.98	10	0	CLM
Mon Feb  1 02:31:33 2010	Milwaukee	16 -9 	Clear	57	30.27	10	6	W
Mon Feb  1 02:31:34 2010	Detroit	26 -3 	Light Snow	57	30.2	5	18	WNW
Mon Feb  1 02:31:34 2010	Philadelphia	26 -3 	Clear	40	30.16	10	8	WSW
Mon Feb  1 03:14:30 2010	San Jose	59 15 	Mostly Cloudy	62	29.98	10	12	WNW
Mon Feb  1 03:14:31 2010	Charlotte	31 -1 	Mostly Clear	78	30.3	10	5	SSW
Mon Feb  1 03:14:32 2010	San Diego	56 13 	Mostly Sunny	74	29.95	10	7	NW
Mon Feb  1 03:14:33 2010	Denver	31 -1 	Cloudy	63	29.9	10	3	N
Mon Feb  1 03:14:34 2010	Los Angeles	60 16 	Mostly Sunny	57	29.9	10	6	S
Mon Feb  1 03:14:34 2010	Memphis	33 1 	Mostly Clear	75	30.33	10	7	NE
Mon Feb  1 03:14:35 2010	El Paso	55 13 	Mostly Cloudy	48	29.84	10	3	N
Mon Feb  1 03:14:36 2010	New York	28 -2 	Clear	31	30.09	10	7	N
Mon Feb  1 03:14:37 2010	Baltimore	24 -4 	Clear	46	30.2	10	0	CLM
Mon Feb  1 03:14:38 2010	Las Vegas	57 14 		34	29.9	10	3	E
Mon Feb  1 03:14:38 2010	Washington	28 -2 	Clear	42	30.21	10	5	SSW
Mon Feb  1 03:14:39 2010	Austin	34 1 	Cloudy	93	30.21	7	6	ENE
Mon Feb  1 03:14:40 2010	San Francisco	53 12 	Mostly Cloudy	83	30	10	3	NNW
Mon Feb  1 03:14:41 2010	Oklahoma City	19 -7 	Foggy	92	30.23	1	5	N
Mon Feb  1 03:14:42 2010	Fort Worth	35 2 		75	30.2	10	0	CLM
Mon Feb  1 03:14:42 2010	Nashville	29 -2 	Clear	78	30.35	10	3	S
Mon Feb  1 03:14:43 2010	Phoenix	63 17 	Clear	36	29.85	10	6	SW
Mon Feb  1 03:14:44 2010	Portland	50 10 	Cloudy	79	29.96	10	0	CLM
Mon Feb  1 03:14:45 2010	Chicago	24 -4 	Clear	65	30.33	10	7	WNW
Mon Feb  1 03:14:45 2010	San Antonio	36 2 	Cloudy	81	30.18	7	6	E
Mon Feb  1 03:14:46 2010	Indianapolis	21 -6 	Partly Cloudy	73	30.28	10	3	WSW
Mon Feb  1 03:14:47 2010	Boston	26 -3 	Clear	38	30.03	10	14	W
Mon Feb  1 03:14:48 2010	Jacksonville	46 8 	Cloudy	70	30.25	10	14	NE
Mon Feb  1 03:14:49 2010	Columbus	26 -3 	Mostly Clear	55	30.28	10	13	W
Mon Feb  1 03:14:49 2010	Dallas	37 3 		72	30.21	10	0	CLM
Mon Feb  1 03:14:50 2010	Houston	39 4 	Partly Cloudy	75	30.25	10	6	SW
Mon Feb  1 03:14:51 2010	Seattle	46 8 	Cloudy	87	29.98	10	0	CLM
Mon Feb  1 03:14:52 2010	Milwaukee	16 -9 	Clear	57	30.27	10	6	W
Mon Feb  1 03:14:53 2010	Detroit	26 -3 	Light Snow	57	30.2	5	18	WNW
Mon Feb  1 03:14:53 2010	Philadelphia	26 -3 	Clear	40	30.16	10	8	WSW
Mon Feb  1 04:00:17 2010	San Jose	55 13 	Cloudy	76	29.99	10	9	WNW
Mon Feb  1 04:00:18 2010	Charlotte	32 0 	Mostly Clear	78	30.3	10	0	CLM
Mon Feb  1 04:00:19 2010	San Diego	55 13 	Mostly Clear	79	29.96	10	6	NW
Mon Feb  1 04:00:20 2010	Denver	30 -1 	Mostly Cloudy	69	29.92	10	0	CLM
Mon Feb  1 04:00:21 2010	Los Angeles	58 14 	Mostly Clear	64	29.92	10	0	CLM
Mon Feb  1 04:00:21 2010	Memphis	32 0 		81	30.33	10	5	ENE
Mon Feb  1 04:00:22 2010	El Paso	52 11 		56	29.86	10	0	CLM
Mon Feb  1 04:00:23 2010	New York	28 -2 	Mostly Clear	34	30.1	10	3	N
Mon Feb  1 04:00:24 2010	Baltimore	19 -7 	Partly Cloudy	56	30.2	10	0	CLM
Mon Feb  1 04:00:25 2010	Las Vegas	56 13 		35	29.92	10	0	CLM
Mon Feb  1 04:00:25 2010	Washington	28 -2 	Mostly Clear	44	30.22	10	5	SW
Mon Feb  1 04:00:26 2010	Austin	34 1 	Cloudy	93	30.22	10	5	ESE
Mon Feb  1 04:00:27 2010	San Francisco	52 11 	Cloudy	85	30	10	3	WNW
Mon Feb  1 04:00:28 2010	Oklahoma City	28 -2 	Foggy	100	30.17	1	5	N
Mon Feb  1 04:00:29 2010	Fort Worth	34 1 	Mostly Clear	75	30.2	9	3	SW
Mon Feb  1 04:00:29 2010	Nashville	28 -2 	Mostly Clear	81	30.36	9	0	CLM
Mon Feb  1 04:00:30 2010	Phoenix	60 16 	Clear	43	29.87	10	3	SW
Mon Feb  1 04:00:31 2010	Portland	47 8 	Cloudy	89	29.96	10	0	CLM
Mon Feb  1 04:00:32 2010	Chicago	23 -5 	Mostly Clear	59	30.34	10	7	WNW
Mon Feb  1 04:00:33 2010	Indianapolis	21 -6 	Clear	73	30.29	10	5	WSW
Mon Feb  1 04:00:33 2010	San Antonio	36 2 	Cloudy	81	30.19	7	6	ENE
Mon Feb  1 04:00:34 2010	Boston	25 -4 	Partly Cloudy	42	30.03	10	9	W
Mon Feb  1 04:00:35 2010	Jacksonville	46 8 	Cloudy	70	30.24	10	16	NE
Mon Feb  1 04:00:36 2010	Columbus	26 -3 	Clear	57	30.29	10	12	W
Mon Feb  1 04:00:37 2010	Dallas	36 2 		75	30.21	10	0	CLM
Mon Feb  1 04:00:37 2010	Houston	38 3 	Partly Cloudy	75	30.24	10	3	SSW
Mon Feb  1 04:00:38 2010	Seattle	46 8 	Cloudy	85	29.98	10	0	CLM
Mon Feb  1 04:00:39 2010	Milwaukee	14 -10 	Mostly Clear	62	30.29	10	6	NW
Mon Feb  1 04:00:40 2010	Detroit	24 -4 	Light Snow	57	30.24	9	15	WNW
Mon Feb  1 04:00:40 2010	Philadelphia	26 -3 	Clear	44	30.17	10	7	SW
Mon Feb  1 04:43:47 2010	Charlotte	29 -2 	Mostly Clear	85	30.31	10	0	CLM
Mon Feb  1 04:43:47 2010	San Jose	51 11 		79	29.98	10	2	N
Mon Feb  1 04:43:48 2010	San Diego	54 12 	Clear	77	29.97	9	0	CLM
Mon Feb  1 04:43:49 2010	Denver	29 -2 	Partly Cloudy	68	29.92	10	3	ENE
Mon Feb  1 04:43:50 2010	Memphis	31 -1 		82	30.33	10	6	ENE
Mon Feb  1 04:43:51 2010	El Paso	49 9 	Mostly Clear	63	29.88	10	0	CLM
Mon Feb  1 04:43:51 2010	Los Angeles	57 14 	Clear	61	29.93	10	0	CLM
Mon Feb  1 04:43:52 2010	New York	27 -3 	Partly Cloudy	35	30.1	10	3	N
Mon Feb  1 04:43:53 2010	Baltimore	18 -8 	Partly Cloudy	62	30.21	10	3	NW
Mon Feb  1 04:43:54 2010	Las Vegas	54 12 		41	29.93	10	0	CLM
Mon Feb  1 04:43:54 2010	Washington	27 -3 	Mostly Clear	53	30.22	10	7	SSW
Mon Feb  1 04:43:55 2010	Austin	34 1 	Cloudy	93	30.22	10	0	CLM
Mon Feb  1 04:43:56 2010	San Francisco	51 11 	Cloudy	84	29.99	10	2	NW
Mon Feb  1 04:43:57 2010	Oklahoma City	28 -2 	Foggy	100	30.2	1	5	N
Mon Feb  1 04:43:58 2010	Fort Worth	33 1 	Mostly Clear	78	30.2	8	3	SW
Mon Feb  1 04:43:58 2010	Nashville	27 -3 	Mostly Clear	81	30.36	9	0	CLM
Mon Feb  1 04:43:59 2010	Phoenix	58 14 	Clear	50	29.88	10	0	CLM
Mon Feb  1 04:44:00 2010	Portland	44 7 	Partly Cloudy	92	29.96	10	3	E
Mon Feb  1 04:44:01 2010	Chicago	22 -6 	Mostly Clear	60	30.35	10	9	NNW
Mon Feb  1 04:44:02 2010	Indianapolis	19 -7 	Partly Cloudy	79	30.29	10	5	WSW
Mon Feb  1 04:44:02 2010	San Antonio	36 2 	Cloudy	81	30.2	7	6	NE
Mon Feb  1 04:44:03 2010	Boston	25 -4 	Mostly Cloudy	42	30.03	10	12	W
Mon Feb  1 04:44:04 2010	Jacksonville	47 8 	Mostly Cloudy	70	30.23	10	17	NE
Mon Feb  1 04:44:05 2010	Columbus	25 -4 	Clear	62	30.31	10	10	W
Mon Feb  1 04:44:06 2010	Dallas	35 2 	Mostly Clear	78	30.21	10	0	CLM
Mon Feb  1 04:44:06 2010	Houston	38 3 	Partly Cloudy	79	30.26	8	3	SW
Mon Feb  1 04:44:07 2010	Seattle	46 8 	Cloudy	88	29.98	10	5	ESE
Mon Feb  1 04:44:08 2010	Milwaukee	14 -10 	Partly Cloudy	57	30.29	10	6	NNW
Mon Feb  1 04:44:09 2010	Detroit	22 -6 	Mostly Cloudy	57	30.27	10	8	NW
Mon Feb  1 04:44:10 2010	Philadelphia	25 -4 	Partly Cloudy	48	30.18	10	8	WSW
Mon Feb  1 05:27:26 2010	San Jose	50 10 		80	29.98	10	3	ENE
Mon Feb  1 05:27:27 2010	Charlotte	29 -2 	Mostly Clear	88	30.32	10	0	CLM
Mon Feb  1 05:27:27 2010	San Diego	53 12 	Mostly Clear	79	29.97	8	0	CLM
Mon Feb  1 05:27:28 2010	Denver	23 -5 	Partly Cloudy	87	29.93	10	8	SE
Mon Feb  1 05:27:29 2010	Memphis	30 -1 		78	30.33	9	6	ENE
Mon Feb  1 05:27:30 2010	Los Angeles	54 12 	Clear	66	29.94	10	0	CLM
Mon Feb  1 05:27:31 2010	El Paso	50 10 	Partly Cloudy	56	29.88	10	0	CLM
Mon Feb  1 05:27:31 2010	New York	27 -3 	Clear	35	30.11	10	8	SW
Mon Feb  1 05:27:32 2010	Baltimore	17 -8 	Clear	67	30.22	10	3	WSW
Mon Feb  1 05:27:33 2010	Las Vegas	50 10 	Partly Cloudy	56	29.94	10	5	W
Mon Feb  1 05:27:34 2010	Austin	34 1 	Cloudy	93	30.23	10	0	CLM
Mon Feb  1 05:27:34 2010	Washington	24 -4 	Partly Cloudy	54	30.24	10	0	CLM
Mon Feb  1 05:27:35 2010	San Francisco	51 11 	Cloudy	85	29.98	10	2	NW
Mon Feb  1 05:27:36 2010	Oklahoma City	28 -2 	Foggy	100	31.06	1	5	N
Mon Feb  1 05:27:37 2010	Nashville	26 -3 	Mostly Clear	88	30.36	7	0	CLM
Mon Feb  1 05:27:38 2010	Fort Worth	34 1 	Mostly Clear	78	30.2	6	3	SW
Mon Feb  1 05:27:38 2010	Phoenix	55 13 	Clear	61	29.9	10	0	CLM
Mon Feb  1 05:27:39 2010	Portland	42 6 	Partly Cloudy	91	29.97	10	6	E
Mon Feb  1 05:27:40 2010	Chicago	21 -6 	Mostly Clear	59	30.36	10	6	NW
Mon Feb  1 05:27:41 2010	San Antonio	36 2 	Cloudy	85	30.19	5	6	ENE
Mon Feb  1 05:27:42 2010	Boston	25 -4 	Cloudy	42	30.03	10	12	W
Mon Feb  1 05:27:42 2010	Indianapolis	18 -8 	Partly Cloudy	79	30.29	10	3	SW
Mon Feb  1 05:27:43 2010	Jacksonville	48 9 	Cloudy	70	30.23	10	16	NE
Mon Feb  1 05:27:44 2010	Columbus	24 -4 	Clear	65	30.31	10	5	WNW
Mon Feb  1 05:27:45 2010	Dallas	32 0 		88	30.22	10	0	CLM
Mon Feb  1 05:27:46 2010	Houston	38 3 	Partly Cloudy	79	30.25	8	0	CLM
Mon Feb  1 05:27:46 2010	Seattle	46 8 	Cloudy	88	29.98	10	6	ESE
Mon Feb  1 05:27:47 2010	Milwaukee	14 -10 	Partly Cloudy	57	30.3	10	5	WNW
Mon Feb  1 05:27:48 2010	Detroit	20 -7 	Partly Cloudy	62	30.28	10	9	WNW
Mon Feb  1 05:27:49 2010	Philadelphia	24 -4 	Clear	50	30.18	10	8	SW
Mon Feb  1 06:11:43 2010	San Jose	49 9 		84	29.98	9	2	SSW
Mon Feb  1 06:11:44 2010	Charlotte	29 -2 	Mostly Clear	88	30.32	10	0	CLM
Mon Feb  1 06:11:45 2010	San Diego	53 12 	Cloudy	79	29.97	8	0	CLM
Mon Feb  1 06:11:46 2010	Denver	23 -5 	Partly Cloudy	87	29.93	10	8	SE
Mon Feb  1 06:11:46 2010	Memphis	30 -1 		78	30.33	9	6	ENE
Mon Feb  1 06:11:47 2010	Los Angeles	54 12 		66	29.94	10	0	CLM
Mon Feb  1 06:11:48 2010	El Paso	50 10 	Partly Cloudy	56	29.88	10	0	CLM
Mon Feb  1 06:11:49 2010	New York	27 -3 	Clear	35	30.11	10	8	SW
Mon Feb  1 06:11:50 2010	Baltimore	17 -8 	Partly Cloudy	67	30.22	10	3	WSW
Mon Feb  1 06:11:50 2010	Las Vegas	50 10 	Partly Cloudy	56	29.94	10	5	W
Mon Feb  1 06:11:51 2010	Washington	24 -4 	Partly Cloudy	54	30.24	10	0	CLM
Mon Feb  1 06:11:52 2010	Austin	34 1 	Cloudy	93	30.21	9	0	CLM
Mon Feb  1 06:11:53 2010	San Francisco	51 11 	Cloudy	87	29.98	10	3	NNW
Mon Feb  1 06:11:54 2010	Nashville	26 -3 	Mostly Clear	88	30.36	7	0	CLM
Mon Feb  1 06:11:54 2010	Oklahoma City	28 -2 	Fog	99	31.06	1	5	N
Mon Feb  1 06:11:55 2010	Fort Worth	34 1 	Mostly Clear	78	30.2	6	3	SW
Mon Feb  1 06:11:56 2010	Phoenix	55 13 	Clear	61	29.9	10	0	CLM
Mon Feb  1 06:11:57 2010	Portland	42 6 	Partly Cloudy	91	29.97	10	6	E
Mon Feb  1 06:11:58 2010	Chicago	21 -6 	Mostly Clear	59	30.36	10	6	NW
Mon Feb  1 06:11:58 2010	San Antonio	36 2 	Cloudy	85	30.19	5	6	ENE
Mon Feb  1 06:11:59 2010	Indianapolis	16 -9 	Mostly Clear	85	30.3	10	0	CLM
Mon Feb  1 06:12:00 2010	Boston	25 -4 	Cloudy	42	30.03	10	12	W
Mon Feb  1 06:12:01 2010	Jacksonville	48 9 	Cloudy	70	30.23	10	16	NE
Mon Feb  1 06:12:05 2010	Dallas	32 0 		88	30.22	10	0	CLM
Mon Feb  1 06:12:06 2010	Houston	38 3 	Partly Cloudy	79	30.25	8	0	CLM
Mon Feb  1 06:12:07 2010	Seattle	46 8 	Cloudy	88	29.98	10	6	ESE
Mon Feb  1 06:12:08 2010	Milwaukee	11-Dec	Clear	61	30.3	10	3	NW
Mon Feb  1 06:12:09 2010	Detroit	20 -7 	Partly Cloudy	62	30.28	10	9	WNW
Mon Feb  1 06:12:10 2010	Philadelphia	24 -4 	Clear	50	30.18	10	8	SW
Mon Feb  1 06:55:34 2010	San Jose	52 11 		81	29.98	10	6	N
Mon Feb  1 06:55:35 2010	Charlotte	29 -2 	Mostly Clear	88	30.32	7	0	CLM
Mon Feb  1 06:55:36 2010	Denver	22 -6 	Partly Cloudy	84	29.92	10	12	SSE
Mon Feb  1 06:55:36 2010	San Diego	51 11 	Mostly Clear	85	29.98	7	0	CLM
Mon Feb  1 06:55:37 2010	Memphis	30 -1 		74	30.32	10	6	ENE
Mon Feb  1 06:55:38 2010	Los Angeles	53 12 	Clear	68	29.93	10	6	WNW
Mon Feb  1 06:55:39 2010	El Paso	49 9 	Partly Cloudy	60	29.88	10	5	WSW
Mon Feb  1 06:55:40 2010	Baltimore	19 -7 	Clear	59	30.22	10	3	W
Mon Feb  1 06:55:40 2010	New York	26 -3 	Partly Cloudy	38	30.11	10	8	WSW
Mon Feb  1 06:55:41 2010	Las Vegas	49 9 	Clear	60	29.95	10	5	W
Mon Feb  1 06:55:42 2010	Washington	24 -4 	Partly Cloudy	57	30.24	10	0	CLM
Mon Feb  1 06:55:43 2010	Austin	32 0 	Cloudy	100	30.22	10	5	S
Mon Feb  1 06:55:43 2010	San Francisco	51 11 	Mostly Cloudy	85	29.99	10	3	SW
Mon Feb  1 06:55:44 2010	Oklahoma City	23 -5 	Foggy	100	30.18	1	5	N
Mon Feb  1 06:55:45 2010	Nashville	24 -4 	Mostly Clear	91	30.36	5	0	CLM
Mon Feb  1 06:55:46 2010	Fort Worth	31 -1 	Mostly Clear	85	30.2	5	0	CLM
Mon Feb  1 06:55:47 2010	Phoenix	53 12 	Clear	66	29.9	10	3	NE
Mon Feb  1 06:55:47 2010	Portland	41 5 	Clear	95	29.96	10	6	E
Mon Feb  1 06:55:48 2010	Chicago	20 -7 	Mostly Clear	62	30.36	10	6	NW
Mon Feb  1 06:55:49 2010	San Antonio	36 2 	Cloudy	85	30.19	5	5	ENE
Mon Feb  1 06:55:50 2010	Indianapolis	16 -9 	Mostly Clear	92	30.31	10	0	CLM
Mon Feb  1 06:55:51 2010	Boston	25 -4 	Cloudy	40	30.03	10	15	W
Mon Feb  1 06:55:51 2010	Jacksonville	48 9 	Cloudy	70	30.23	10	16	NE
Mon Feb  1 06:55:52 2010	Columbus	23 -5 	Mostly Clear	68	30.33	10	5	WNW
Mon Feb  1 06:55:53 2010	Dallas	33 1 	Mostly Clear	84	30.22	10	0	CLM
Mon Feb  1 06:55:54 2010	Houston	37 3 	Partly Cloudy	81	30.26	8	0	CLM
Mon Feb  1 06:55:55 2010	Milwaukee	11-Dec	Clear	61	30.3	10	5	NNW
Mon Feb  1 06:55:55 2010	Seattle	46 8 	Cloudy	88	29.98	10	3	ESE
Mon Feb  1 06:55:56 2010	Detroit	19 -7 	Partly Cloudy	64	30.3	10	7	WNW
Mon Feb  1 06:55:57 2010	Philadelphia	24 -4 	Clear	48	30.18	10	10	W
Mon Feb  1 07:38:38 2010	San Jose	52 11 		81	29.98	10	6	N
Mon Feb  1 07:38:39 2010	Charlotte	27 -3 	Mostly Clear	92	30.32	7	0	CLM
Mon Feb  1 07:38:40 2010	Denver	25 -4 	Partly Cloudy	78	29.87	10	8	S
Mon Feb  1 07:38:40 2010	San Diego	51 11 	Clear	85	29.97	6	0	CLM
Mon Feb  1 07:38:41 2010	Memphis	28 -2 	Mostly Cloudy	77	30.32	10	6	E
Mon Feb  1 07:38:42 2010	Los Angeles	51 11 	Clear	73	29.93	10	0	CLM
Mon Feb  1 07:38:43 2010	El Paso	48 9 	Partly Cloudy	62	29.88	10	7	SSW
Mon Feb  1 07:38:44 2010	Baltimore	22 -6 	Clear	55	30.23	10	7	WSW
Mon Feb  1 07:38:44 2010	New York	26 -3 	Clear	42	30.11	10	6	N
Mon Feb  1 07:38:45 2010	Las Vegas	47 8 	Clear	63	29.95	10	3	SW
Mon Feb  1 07:38:46 2010	Washington	27 -3 	Partly Cloudy	53	30.25	10	0	CLM
Mon Feb  1 07:38:47 2010	Austin	34 1 	Cloudy	93	30.19	9	0	CLM
Mon Feb  1 07:38:48 2010	Oklahoma City	23 -5 	Dense Fog	100	30.18	0	5	SSE
Mon Feb  1 07:38:48 2010	San Francisco	51 11 		86	29.99	10	3	N
Mon Feb  1 07:38:49 2010	Nashville	23 -5 	Light Fog	92	30.35	3	0	CLM
Mon Feb  1 07:38:50 2010	Fort Worth	29 -2 	Partly Cloudy	88	30.19	5	3	SW
Mon Feb  1 07:38:51 2010	Phoenix	52 11 	Clear	66	29.91	10	9	NNE
Mon Feb  1 07:38:52 2010	Chicago	19 -7 	Mostly Clear	64	30.37	10	5	WNW
Mon Feb  1 07:38:52 2010	Portland	40 4 	Partly Cloudy	96	29.95	10	6	E
Mon Feb  1 07:38:53 2010	San Antonio	36 2 	Cloudy	89	30.18	4	3	E
Mon Feb  1 07:38:54 2010	Indianapolis	14 -10 	Mostly Clear	92	30.32	10	3	SW
Mon Feb  1 07:38:55 2010	Boston	25 -4 	Cloudy	44	30.01	10	13	W
Mon Feb  1 07:38:55 2010	Jacksonville	49 9 	Cloudy	70	30.23	10	15	NE
Mon Feb  1 07:38:56 2010	Columbus	22 -6 	Mostly Clear	68	30.33	10	0	CLM
Mon Feb  1 07:38:57 2010	Dallas	31 -1 	Cloudy	88	30.2	6	3	CLM
Mon Feb  1 07:38:58 2010	Houston	37 3 	Partly Cloudy	81	30.26	7	3	ENE
Mon Feb  1 07:38:59 2010	Milwaukee	11-Dec	Mostly Clear	61	30.3	10	3	NW
Mon Feb  1 07:38:59 2010	Seattle	46 8 	Cloudy	88	29.97	10	5	ESE
Mon Feb  1 07:39:00 2010	Detroit	17 -8 	Partly Cloudy	70	30.32	10	8	W
Mon Feb  1 07:39:01 2010	Philadelphia	23 -5 	Clear	52	30.19	10	8	W
Mon Feb  1 08:22:38 2010	San Jose	52 11 		81	29.98	10	6	N
Mon Feb  1 08:22:39 2010	Charlotte	27 -3 	Mostly Clear	92	30.32	7	0	CLM
Mon Feb  1 08:22:39 2010	San Diego	51 11 		85	29.97	6	0	CLM
Mon Feb  1 08:22:40 2010	Denver	25 -4 	Partly Cloudy	78	29.87	10	8	S
Mon Feb  1 08:22:41 2010	Memphis	28 -2 	Mostly Cloudy	77	30.32	10	6	E
Mon Feb  1 08:22:42 2010	Los Angeles	51 11 	Mostly Clear	73	29.93	10	0	CLM
Mon Feb  1 08:22:43 2010	El Paso	48 9 	Partly Cloudy	62	29.88	10	7	SSW
Mon Feb  1 08:22:43 2010	New York	26 -3 	Clear	42	30.11	10	6	N
Mon Feb  1 08:22:44 2010	Baltimore	22 -6 	Partly Cloudy	55	30.23	10	7	WSW
Mon Feb  1 08:22:45 2010	Las Vegas	47 8 	Clear	63	29.95	10	3	SW
Mon Feb  1 08:22:46 2010	Washington	27 -3 	Partly Cloudy	53	30.25	10	0	CLM
Mon Feb  1 08:22:47 2010	Austin	34 1 	Cloudy	93	30.2	8	0	CLM
Mon Feb  1 08:22:47 2010	San Francisco	50 10 		87	29.99	10	3	N
Mon Feb  1 08:22:48 2010	Oklahoma City	23 -5 	Dense Fog	100	30.15	0	5	SSE
Mon Feb  1 08:22:49 2010	Nashville	23 -5 	Mostly Clear	92	30.32	3	0	CLM
Mon Feb  1 08:22:50 2010	Fort Worth	29 -2 	Partly Cloudy	88	30.19	5	3	SW
Mon Feb  1 08:22:51 2010	Phoenix	52 11 		66	29.91	10	9	NNE
Mon Feb  1 08:22:51 2010	Portland	40 4 	Partly Cloudy	96	29.95	10	6	E
Mon Feb  1 08:22:52 2010	Chicago	19 -7 	Mostly Clear	64	30.37	10	5	WNW
Mon Feb  1 08:22:53 2010	San Antonio	36 2 	Cloudy	89	30.18	4	3	E
Mon Feb  1 08:22:54 2010	Indianapolis	11-Dec	Mostly Clear	92	30.32	10	0	CLM
Mon Feb  1 08:22:55 2010	Boston	25 -4 	Cloudy	44	30.01	10	13	W
Mon Feb  1 08:22:55 2010	Jacksonville	49 9 	Cloudy	70	30.23	10	15	NE
Mon Feb  1 08:22:56 2010	Columbus	22 -6 	Mostly Clear	68	30.33	10	0	CLM
Mon Feb  1 08:22:57 2010	Dallas	31 -1 	Cloudy	88	30.2	6	3	CLM
Mon Feb  1 08:22:58 2010	Houston	37 3 	Partly Cloudy	81	30.26	7	3	ENE
Mon Feb  1 08:22:59 2010	Milwaukee	12-Oct	Mostly Clear	66	30.31	10	3	W
Mon Feb  1 08:22:59 2010	Seattle	46 8 	Cloudy	88	29.97	10	5	ESE
Mon Feb  1 08:23:00 2010	Detroit	17 -8 	Partly Cloudy	70	30.32	10	8	W
Mon Feb  1 08:23:01 2010	Philadelphia	23 -5 	Clear	52	30.19	10	8	W
Mon Feb  1 09:05:41 2010	San Jose	46 8 		87	29.98	9	2	NNE
Mon Feb  1 09:05:42 2010	Charlotte	27 -3 	Mostly Clear	92	30.33	7	0	CLM
Mon Feb  1 09:05:43 2010	San Diego	51 11 	Cloudy	85	29.97	5	0	CLM
Mon Feb  1 09:05:44 2010	Denver	26 -3 	Partly Cloudy	77	29.85	10	6	W
Mon Feb  1 09:05:45 2010	Los Angeles	49 9 	Mostly Clear	79	29.93	10	0	CLM
Mon Feb  1 09:05:45 2010	Memphis	28 -2 	Cloudy	77	30.29	10	7	E
Mon Feb  1 09:05:46 2010	El Paso	47 8 	Partly Cloudy	65	29.87	10	7	WSW
Mon Feb  1 09:05:47 2010	New York	26 -3 	Clear	40	30.13	10	7	N
Mon Feb  1 09:05:48 2010	Baltimore	21 -6 	Mostly Clear	57	30.25	10	3	WSW
Mon Feb  1 09:05:49 2010	Las Vegas	46 8 	Clear	62	29.96	10	3	SSW
Mon Feb  1 09:05:49 2010	Washington	21 -6 	Clear	70	30.27	10	7	SW
Mon Feb  1 09:05:50 2010	Austin	34 1 	Cloudy	93	30.18	7	7	SE
Mon Feb  1 09:05:51 2010	San Francisco	50 10 		89	29.99	10	2	NNE
Mon Feb  1 09:05:52 2010	Oklahoma City	23 -5 	Dense Fog	100	30.17	0	5	SSE
Mon Feb  1 09:05:53 2010	Fort Worth	31 -1 	Cloudy	88	30.19	5	0	CLM
Mon Feb  1 09:05:53 2010	Nashville	23 -5 	Foggy	92	30.32	1	0	CLM
Mon Feb  1 09:05:54 2010	Phoenix	51 11 	Mostly Clear	68	29.9	10	5	NNE
Mon Feb  1 09:05:55 2010	Portland	42 6 	Partly Cloudy	88	29.95	10	5	E
Mon Feb  1 09:05:56 2010	Chicago	18 -8 	Mostly Clear	67	30.38	9	0	CLM
Mon Feb  1 09:05:57 2010	Indianapolis	11-Dec	Mostly Clear	92	30.32	10	0	CLM
Mon Feb  1 09:05:57 2010	San Antonio	36 2 	Cloudy	89	30.16	4	6	E
Mon Feb  1 09:05:58 2010	Boston	25 -4 	Cloudy	44	30.01	10	14	W
Mon Feb  1 09:05:59 2010	Jacksonville	50 10 	Mostly Cloudy	71	30.24	10	16	NE
Mon Feb  1 09:06:00 2010	Columbus	20 -7 		74	30.35	10	3	SSW
Mon Feb  1 09:06:01 2010	Dallas	34 1 	Cloudy	85	30.21	6	3	W
Mon Feb  1 09:06:01 2010	Houston	38 3 	Mostly Cloudy	82	30.23	7	6	NE
Mon Feb  1 09:06:02 2010	Seattle	46 8 	Cloudy	85	29.97	10	6	S
Mon Feb  1 09:06:03 2010	Milwaukee	12-Oct	Partly Cloudy	66	30.31	10	0	CLM
Mon Feb  1 09:06:04 2010	Detroit	17 -8 	Mostly Clear	67	30.33	10	6	WNW
Mon Feb  1 09:06:05 2010	Philadelphia	23 -5 	Clear	52	30.22	10	7	W
Mon Feb  1 09:49:03 2010	Charlotte	26 -3 	Clear	95	30.34	5	0	CLM
Mon Feb  1 09:49:03 2010	San Jose	46 8 	Mostly Cloudy	87	29.98	9	2	NE
Mon Feb  1 09:49:04 2010	San Diego	51 11 	Clear	85	29.97	7	0	CLM
Mon Feb  1 09:49:05 2010	Denver	21 -6 	Partly Cloudy	92	29.87	6	3	SW
Mon Feb  1 09:49:06 2010	Los Angeles	50 10 	Clear	76	29.94	10	0	CLM
Mon Feb  1 09:49:06 2010	Memphis	28 -2 		77	30.29	10	5	E
Mon Feb  1 09:49:07 2010	El Paso	47 8 	Partly Cloudy	68	29.86	10	6	SSW
Mon Feb  1 09:49:08 2010	New York	25 -4 	Clear	44	30.15	10	7	N
Mon Feb  1 09:49:09 2010	Baltimore	14 -10 	Clear	70	30.27	10	7	WSW
Mon Feb  1 09:49:10 2010	Las Vegas	44 7 	Clear	70	29.95	10	3	WSW
Mon Feb  1 09:49:10 2010	Washington	23 -5 	Clear	65	30.29	10	0	CLM
Mon Feb  1 09:49:11 2010	Austin	34 1 	Cloudy	93	30.17	8	0	CLM
Mon Feb  1 09:49:12 2010	San Francisco	50 10 		87	29.99	10	2	E
Mon Feb  1 09:49:13 2010	Oklahoma City	23 -5 	Dense Fog	100	30.17	0	3	SSE
Mon Feb  1 09:49:14 2010	Fort Worth	32 0 	Mostly Cloudy	85	30.18	5	0	CLM
Mon Feb  1 09:49:14 2010	Nashville	22 -6 	Foggy	100	30.34	1	0	CLM
Mon Feb  1 09:49:15 2010	Phoenix	51 11 	Clear	65	29.9	10	3	NE
Mon Feb  1 09:49:16 2010	Portland	41 5 	Partly Cloudy	88	29.94	10	10	E
Mon Feb  1 09:49:17 2010	Chicago	18 -8 		67	30.37	9	3	NW
Mon Feb  1 09:49:18 2010	Indianapolis	14 -10 	Mostly Clear	92	30.32	10	0	CLM
Mon Feb  1 09:49:18 2010	San Antonio	36 2 	Cloudy	89	30.14	4	6	NE
Mon Feb  1 09:49:19 2010	Boston	25 -4 		44	30.03	10	15	W
Mon Feb  1 09:49:20 2010	Jacksonville	50 10 	Mostly Cloudy	71	30.24	10	18	NE
Mon Feb  1 09:49:21 2010	Columbus	20 -7 	Mostly Clear	71	30.36	10	0	CLM
Mon Feb  1 09:49:22 2010	Dallas	32 0 	Partly Cloudy	88	30.19	6	0	CLM
Mon Feb  1 09:49:22 2010	Houston	38 3 	Cloudy	82	30.2	7	7	NNE
Mon Feb  1 09:49:23 2010	Seattle	46 8 	Cloudy	85	29.97	10	0	CLM
Mon Feb  1 09:49:24 2010	Milwaukee	13-Sep	Partly Cloudy	72	30.31	10	0	CLM
Mon Feb  1 09:49:25 2010	Detroit	15 -9 	Mostly Clear	73	30.34	10	5	WNW
Mon Feb  1 09:49:25 2010	Philadelphia	24 -4 	Clear	50	30.24	10	8	W
Mon Feb  1 10:32:05 2010	San Jose	45 7 	Mostly Cloudy	87	29.98	9	3	NE
Mon Feb  1 10:32:06 2010	Charlotte	26 -3 	Clear	92	30.34	5	0	CLM
Mon Feb  1 10:32:07 2010	Denver	20 -7 	Partly Cloudy	91	29.87	5	7	SW
Mon Feb  1 10:32:07 2010	San Diego	50 10 	Clear	86	29.96	6	0	CLM
Mon Feb  1 10:32:08 2010	Memphis	27 -3 		81	30.29	10	0	CLM
Mon Feb  1 10:32:09 2010	Los Angeles	47 8 	Clear	79	29.94	10	5	N
Mon Feb  1 10:32:10 2010	El Paso	45 7 	Mostly Cloudy	73	29.88	10	6	S
Mon Feb  1 10:32:11 2010	Baltimore	13 -11 	Clear	74	30.28	10	7	W
Mon Feb  1 10:32:11 2010	New York	25 -4 	Clear	44	30.16	10	8	W
Mon Feb  1 10:32:12 2010	Las Vegas	43 6 	Clear	70	29.96	10	0	CLM
Mon Feb  1 10:32:13 2010	Washington	21 -6 	Clear	68	30.3	10	0	CLM
Mon Feb  1 10:32:14 2010	Austin	34 1 	Cloudy	93	30.16	7	0	CLM
Mon Feb  1 10:32:15 2010	Oklahoma City	23 -5 	Dense Fog	100	30.17	0	3	SSE
Mon Feb  1 10:32:15 2010	San Francisco	50 10 		88	29.99	10	2	ESE
Mon Feb  1 10:32:16 2010	Nashville	20 -7 	Dense Fog	96	30.34	0	0	CLM
Mon Feb  1 10:32:17 2010	Fort Worth	30 -1 	Cloudy	88	30.18	4	0	CLM
Mon Feb  1 10:32:18 2010	Phoenix	50 10 	Clear	68	29.91	10	0	CLM
Mon Feb  1 10:32:18 2010	Portland	41 5 	Clear	88	29.94	10	8	ENE
Mon Feb  1 10:32:19 2010	Chicago	20 -7 	Cloudy	59	30.36	10	0	CLM
Mon Feb  1 10:32:20 2010	San Antonio	36 2 	Cloudy	89	30.13	4	5	N
Mon Feb  1 10:32:21 2010	Indianapolis	14 -10 	Cloudy	92	30.32	10	0	CLM
Mon Feb  1 10:32:22 2010	Boston	24 -4 	Clear	48	30.03	10	16	W
Mon Feb  1 10:32:22 2010	Jacksonville	50 10 	Clear	74	30.22	10	20	NE
Mon Feb  1 10:32:23 2010	Columbus	18 -8 	Mostly Clear	80	30.37	10	0	CLM
Mon Feb  1 10:32:24 2010	Dallas	33 1 	Cloudy	84	30.19	6	0	CLM
Mon Feb  1 10:32:25 2010	Houston	38 3 	Mostly Cloudy	82	30.18	7	8	NE
Mon Feb  1 10:32:26 2010	Milwaukee	13-Sep	Partly Cloudy	72	30.31	10	0	CLM
Mon Feb  1 10:32:26 2010	Seattle	45 7 	Cloudy	89	29.96	10	5	ESE
Mon Feb  1 10:32:27 2010	Detroit	16 -9 	Mostly Clear	70	30.35	9	3	WNW
Mon Feb  1 10:32:28 2010	Philadelphia	21 -6 	Clear	57	30.25	10	6	W
Mon Feb  1 11:15:24 2010	Charlotte	26 -3 	Partly Cloudy	92	30.34	5	0	CLM
Mon Feb  1 11:15:24 2010	San Jose	45 7 	Mostly Cloudy	89	29.98	9	2	SE
Mon Feb  1 11:15:25 2010	San Diego	50 10 		86	29.96	6	0	CLM
Mon Feb  1 11:15:26 2010	Denver	20 -7 	Partly Cloudy	91	29.87	5	7	SW
Mon Feb  1 11:15:27 2010	Memphis	27 -3 		81	30.29	10	0	CLM
Mon Feb  1 11:15:28 2010	El Paso	45 7 	Mostly Cloudy	73	29.88	10	6	S
Mon Feb  1 11:15:28 2010	Los Angeles	47 8 	Clear	79	29.94	10	5	N
Mon Feb  1 11:15:29 2010	New York	25 -4 	Clear	44	30.16	10	8	W
Mon Feb  1 11:15:30 2010	Baltimore	13 -11 	Clear	74	30.28	10	7	W
Mon Feb  1 11:15:31 2010	Las Vegas	43 6 	Clear	70	29.96	10	0	CLM
Mon Feb  1 11:15:31 2010	Washington	21 -6 	Clear	68	30.3	10	0	CLM
Mon Feb  1 11:15:32 2010	Austin	34 1 	Cloudy	93	30.17	7	0	CLM
Mon Feb  1 11:15:33 2010	San Francisco	49 9 	Cloudy	89	29.99	10	3	SSE
Mon Feb  1 11:15:34 2010	Oklahoma City	23 -5 	Dense Fog	100	30.17	0	3	SSE
Mon Feb  1 11:15:35 2010	Fort Worth	30 -1 	Cloudy	88	30.18	4	0	CLM
Mon Feb  1 11:15:35 2010	Nashville	19 -7 	Light Fog	100	30.32	2	0	CLM
Mon Feb  1 11:15:36 2010	Phoenix	50 10 	Mostly Clear	68	29.91	10	0	CLM
Mon Feb  1 11:15:37 2010	Portland	41 5 	Mostly Clear	88	29.94	10	8	ENE
Mon Feb  1 11:15:38 2010	Chicago	20 -7 	Cloudy	59	30.36	10	0	CLM
Mon Feb  1 11:15:39 2010	Indianapolis	11-Dec	Mostly Clear	92	30.3	10	0	CLM
Mon Feb  1 11:15:39 2010	San Antonio	36 2 	Cloudy	89	30.13	4	5	N
Mon Feb  1 11:15:40 2010	Boston	24 -4 	Clear	48	30.03	10	16	W
Mon Feb  1 11:15:41 2010	Jacksonville	50 10 	Mostly Clear	74	30.22	10	20	NE
Mon Feb  1 11:15:42 2010	Columbus	18 -8 	Mostly Clear	80	30.37	10	0	CLM
Mon Feb  1 11:15:43 2010	Dallas	33 1 	Cloudy	84	30.19	6	0	CLM
Mon Feb  1 11:15:43 2010	Houston	38 3 	Mostly Cloudy	82	30.18	7	8	NE
Mon Feb  1 11:15:44 2010	Seattle	45 7 	Cloudy	89	29.96	10	5	ESE
Mon Feb  1 11:15:45 2010	Milwaukee	13-Sep	Clear	72	30.31	10	0	CLM
Mon Feb  1 11:15:46 2010	Detroit	16 -9 	Mostly Clear	70	30.35	9	3	WNW
Mon Feb  1 11:15:46 2010	Philadelphia	21 -6 	Clear	57	30.25	10	6	W
Mon Feb  1 11:58:50 2010	San Jose	45 7 	Mostly Cloudy	89	29.99	9	2	NE
Mon Feb  1 11:58:51 2010	Charlotte	26 -3 	Partly Cloudy	88	30.33	6	0	CLM
Mon Feb  1 11:58:52 2010	Denver	22 -6 	Partly Cloudy	81	29.86	9	8	WNW
Mon Feb  1 11:58:52 2010	San Diego	50 10 	Cloudy	86	29.96	5	0	CLM
Mon Feb  1 11:58:53 2010	Memphis	27 -3 		81	30.29	10	0	CLM
Mon Feb  1 11:58:54 2010	Los Angeles	46 8 	Mostly Clear	82	29.94	10	5	NNW
Mon Feb  1 11:58:55 2010	El Paso	46 8 	Mostly Cloudy	70	29.87	10	0	CLM
Mon Feb  1 11:58:56 2010	Baltimore	17 -8 	Partly Cloudy	67	30.3	10	6	W
Mon Feb  1 11:58:56 2010	New York	26 -3 	Clear	42	30.18	10	16	W
Mon Feb  1 11:58:57 2010	Las Vegas	43 6 	Clear	70	29.96	10	0	CLM
Mon Feb  1 11:58:58 2010	Washington	21 -6 	Partly Cloudy	70	30.33	10	0	CLM
Mon Feb  1 11:58:59 2010	Austin	34 1 	Cloudy	93	30.15	6	0	CLM
Mon Feb  1 11:59:00 2010	Oklahoma City	25 -4 	Foggy	100	30.13	1	6	SSE
Mon Feb  1 11:59:00 2010	San Francisco	50 10 	Cloudy	90	29.99	10	2	W
Mon Feb  1 11:59:01 2010	Nashville	19 -7 	Dense Fog	100	30.31	0	0	CLM
Mon Feb  1 11:59:02 2010	Fort Worth	32 0 	Cloudy	88	30.17	5	0	CLM
Mon Feb  1 11:59:03 2010	Phoenix	48 9 	Mostly Clear	73	29.91	10	0	CLM
Mon Feb  1 11:59:03 2010	Portland	40 4 	Partly Cloudy	89	29.94	10	8	ENE
Mon Feb  1 11:59:04 2010	Chicago	20 -7 	Cloudy	65	30.36	10	3	N
Mon Feb  1 11:59:05 2010	San Antonio	36 2 	Cloudy	89	30.12	6	5	NE
Mon Feb  1 11:59:06 2010	Indianapolis	18 -8 		85	30.29	7	0	CLM
Mon Feb  1 11:59:07 2010	Boston	24 -4 	Clear	48	30.05	10	14	W
Mon Feb  1 11:59:07 2010	Jacksonville	50 10 	Mostly Clear	76	30.21	10	18	NE
Mon Feb  1 11:59:08 2010	Columbus	17 -8 		83	30.37	10	0	CLM
Mon Feb  1 11:59:09 2010	Dallas	33 1 	Mostly Cloudy	88	30.18	6	0	CLM
Mon Feb  1 11:59:10 2010	Houston	39 4 	Cloudy	82	30.18	8	6	NE
Mon Feb  1 11:59:11 2010	Milwaukee	13-Sep	Partly Cloudy	72	30.31	10	0	CLM
Mon Feb  1 11:59:11 2010	Seattle	45 7 	Cloudy	85	29.95	10	9	ESE
Mon Feb  1 11:59:12 2010	Detroit	11-Dec	Mostly Clear	76	30.36	8	3	SSW
Mon Feb  1 11:59:13 2010	Philadelphia	23 -5 	Clear	54	30.27	10	5	WSW
Mon Feb  1 12:42:17 2010	Charlotte	24 -4 	Partly Cloudy	91	30.33	6	0	CLM
Mon Feb  1 12:42:17 2010	San Jose	45 7 	Mostly Cloudy	89	29.98	9	2	NE
Mon Feb  1 12:42:18 2010	San Diego	50 10 	Clear	86	29.94	5	3	NE
Mon Feb  1 12:42:19 2010	Denver	25 -4 	Partly Cloudy	68	29.85	10	3	WSW
Mon Feb  1 12:42:20 2010	Memphis	26 -3 	Cloudy	84	30.28	9	5	E
Mon Feb  1 12:42:21 2010	El Paso	44 7 	Mostly Cloudy	78	29.87	10	0	CLM
Mon Feb  1 12:42:21 2010	Los Angeles	45 7 	Clear	82	29.93	10	0	CLM
Mon Feb  1 12:42:22 2010	New York	26 -3 	Clear	46	30.2	10	9	W
Mon Feb  1 12:42:23 2010	Baltimore	19 -7 	Mostly Clear	62	30.33	10	7	W
Mon Feb  1 12:42:24 2010	Las Vegas	42 6 	Clear	70	29.95	10	0	CLM
Mon Feb  1 12:42:25 2010	Austin	36 2 	Cloudy	86	30.14	7	3	NE
Mon Feb  1 12:42:25 2010	Washington	24 -4 	Clear	57	30.34	10	8	NNW
Mon Feb  1 12:42:26 2010	San Francisco	50 10 	Cloudy	90	30	10	2	W
Mon Feb  1 12:42:27 2010	Oklahoma City	26 -3 	Foggy	100	30.09	1	7	SSE
Mon Feb  1 12:42:28 2010	Nashville	20 -7 	Dense Fog	91	30.32	0	3	NE
Mon Feb  1 12:42:29 2010	Fort Worth	30 -1 		88	30.15	4	3	SE
Mon Feb  1 12:42:29 2010	Phoenix	48 9 	Clear	73	29.91	10	0	CLM
Mon Feb  1 12:42:30 2010	Portland	40 4 	Partly Cloudy	89	29.92	10	10	E
Mon Feb  1 12:42:31 2010	Chicago	21 -6 	Cloudy	62	30.35	10	3	NNW
Mon Feb  1 12:42:32 2010	San Antonio	37 3 	Light Fog	88	30.12	3	3	NE
Mon Feb  1 12:42:33 2010	Boston	23 -5 	Clear	52	30.07	10	16	WSW
Mon Feb  1 12:42:33 2010	Indianapolis	18 -8 		92	30.3	7	3	SSW
Mon Feb  1 12:42:34 2010	Jacksonville	52 11 	Mostly Clear	76	30.23	10	17	NE
Mon Feb  1 12:42:35 2010	Columbus	17 -8 	Cloudy	83	30.37	9	0	CLM
Mon Feb  1 12:42:36 2010	Dallas	33 1 	Mostly Cloudy	88	30.17	6	0	CLM
Mon Feb  1 12:42:37 2010	Houston	39 4 	Clear	82	30.16	7	6	NE
Mon Feb  1 12:42:37 2010	Seattle	44 7 	Partly Cloudy	82	29.94	10	7	ESE
Mon Feb  1 12:42:38 2010	Milwaukee	13-Sep	Partly Cloudy	72	30.31	10	0	CLM
Mon Feb  1 12:42:39 2010	Detroit	12-Nov	Clear	80	30.36	8	3	SSW
Mon Feb  1 12:42:40 2010	Philadelphia	23 -5 	Clear	54	30.29	10	6	WSW
Mon Feb  1 13:26:02 2010	San Jose	45 7 	Mostly Cloudy	89	29.97	9	2	SSE
Mon Feb  1 13:26:03 2010	Charlotte	24 -4 	Partly Cloudy	95	30.36	5	0	CLM
Mon Feb  1 13:26:04 2010	San Diego	50 10 	Clear	89	29.93	5	0	CLM
Mon Feb  1 13:26:05 2010	Denver	28 -2 	Partly Cloudy	58	29.84	10	15	SW
Mon Feb  1 13:26:06 2010	Los Angeles	45 7 	Clear	79	29.93	10	0	CLM
Mon Feb  1 13:26:06 2010	Memphis	25 -4 		88	30.28	9	0	CLM
Mon Feb  1 13:26:07 2010	El Paso	43 6 	Mostly Cloudy	79	29.88	10	0	CLM
Mon Feb  1 13:26:08 2010	New York	25 -4 	Clear	50	30.23	10	6	WSW
Mon Feb  1 13:26:09 2010	Baltimore	19 -7 		62	30.35	10	3	WNW
Mon Feb  1 13:26:10 2010	Las Vegas	41 5 	Clear	73	29.96	10	3	SW
Mon Feb  1 13:26:10 2010	Washington	27 -3 	Mostly Clear	48	30.36	10	13	NW
Mon Feb  1 13:26:11 2010	Austin	36 2 	Cloudy	86	30.13	7	5	NNW
Mon Feb  1 13:26:12 2010	San Francisco	49 9 	Mostly Cloudy	90	29.97	9	3	W
Mon Feb  1 13:26:13 2010	Nashville	19 -7 	Dense Fog	92	30.31	0	0	CLM
Mon Feb  1 13:26:13 2010	Oklahoma City	27 -3 	Light Fog	100	30.06	1	6	SE
Mon Feb  1 13:26:14 2010	Fort Worth	31 -1 	Mostly Cloudy	88	30.13	4	5	E
Mon Feb  1 13:26:15 2010	Phoenix	47 8 	Clear	76	29.91	10	0	CLM
Mon Feb  1 13:26:16 2010	Portland	40 4 	Partly Cloudy	85	29.9	10	14	E
Mon Feb  1 13:26:17 2010	Chicago	21 -6 	Cloudy	62	30.36	10	0	CLM
Mon Feb  1 13:26:17 2010	San Antonio	36 2 	Mist	100	30.12	2	3	NE
Mon Feb  1 13:26:18 2010	Indianapolis	19 -7 	Cloudy	92	30.3	7	0	CLM
Mon Feb  1 13:26:19 2010	Boston	23 -5 	Sunny	52	30.09	10	17	WSW
Mon Feb  1 13:26:20 2010	Jacksonville	52 11 	Mostly Clear	80	30.23	10	16	NE
Mon Feb  1 13:26:21 2010	Columbus	16 -9 	Mostly Cloudy	84	30.35	9	3	ENE
Mon Feb  1 13:26:21 2010	Dallas	32 0 	Mostly Cloudy	92	30.15	6	3	E
Mon Feb  1 13:26:22 2010	Houston	40 4 	Cloudy	79	30.17	8	6	NE
Mon Feb  1 13:26:23 2010	Seattle	43 6 	Partly Cloudy	82	29.92	10	8	ESE
Mon Feb  1 13:26:24 2010	Milwaukee	12-Oct	Cloudy	67	30.3	10	0	CLM
Mon Feb  1 13:26:25 2010	Detroit	11-Dec	Clear	80	30.35	7	0	CLM
Mon Feb  1 13:26:25 2010	Philadelphia	22 -6 	Clear	60	30.33	10	5	W
Mon Feb  1 14:10:48 2010	Charlotte	24 -4 	Partly Cloudy	95	30.36	5	0	CLM
Mon Feb  1 14:10:48 2010	San Jose	44 7 		89	29.97	9	2	N
Mon Feb  1 14:10:49 2010	San Diego	50 10 	Cloudy	89	29.93	5	0	CLM
Mon Feb  1 14:10:50 2010	Denver	28 -2 	Partly Cloudy	58	29.84	10	15	SW
Mon Feb  1 14:10:51 2010	Memphis	25 -4 		88	30.28	9	0	CLM
Mon Feb  1 14:10:52 2010	El Paso	43 6 	Mostly Cloudy	79	29.88	10	0	CLM
Mon Feb  1 14:10:52 2010	Los Angeles	45 7 	Mostly Clear	79	29.93	10	0	CLM
Mon Feb  1 14:10:53 2010	New York	25 -4 	Clear	50	30.23	10	6	WSW
Mon Feb  1 14:10:54 2010	Baltimore	19 -7 		62	30.35	10	3	WNW
Mon Feb  1 14:10:55 2010	Las Vegas	41 5 	Clear	73	29.96	10	3	SW
Mon Feb  1 14:10:56 2010	Austin	36 2 	Cloudy	86	30.14	5	0	CLM
Mon Feb  1 14:10:56 2010	Washington	27 -3 	Mostly Clear	48	30.36	10	13	NW
Mon Feb  1 14:10:57 2010	San Francisco	48 9 	Mostly Cloudy	92	29.97	9	3	E
Mon Feb  1 14:10:58 2010	Oklahoma City	27 -3 	Light Fog	100	30.06	2	14	SSE
Mon Feb  1 14:10:59 2010	Nashville	19 -7 	Foggy	92	30.31	1	0	CLM
Mon Feb  1 14:11:00 2010	Fort Worth	30 -1 	Mostly Cloudy	92	30.12	4	3	SSE
Mon Feb  1 14:11:00 2010	Phoenix	47 8 	Mostly Clear	76	29.91	10	3	CLM
Mon Feb  1 14:11:01 2010	Portland	40 4 	Cloudy	85	29.9	10	14	E
Mon Feb  1 14:11:02 2010	Chicago	21 -6 	Cloudy	62	30.36	10	0	CLM
Mon Feb  1 14:11:03 2010	San Antonio	37 3 	Mist	93	30.12	2	5	NNE
Mon Feb  1 14:11:04 2010	Boston	23 -5 	Sunny	52	30.09	10	17	WSW
Mon Feb  1 14:11:04 2010	Indianapolis	19 -7 		92	30.31	7	0	CLM
Mon Feb  1 14:11:05 2010	Jacksonville	52 11 	Cloudy	80	30.23	10	16	NE
Mon Feb  1 14:11:06 2010	Columbus	16 -9 	Mostly Cloudy	84	30.35	9	3	ENE
Mon Feb  1 14:11:07 2010	Dallas	32 0 	Mostly Cloudy	92	30.15	6	3	E
Mon Feb  1 14:11:07 2010	Houston	40 4 	Cloudy	79	30.17	8	6	NE
Mon Feb  1 14:11:08 2010	Seattle	43 6 	Partly Cloudy	82	29.92	10	8	ESE
Mon Feb  1 14:11:09 2010	Milwaukee	15 -9 	Partly Cloudy	64	30.3	8	3	NW
Mon Feb  1 14:11:10 2010	Detroit	11-Dec	Partly Cloudy	80	30.35	7	0	CLM
Mon Feb  1 14:11:11 2010	Philadelphia	22 -6 	Clear	60	30.33	10	5	W
Mon Feb  1 14:54:55 2010	San Jose	44 7 	Mostly Cloudy	90	29.96	9	2	ENE
Mon Feb  1 14:54:56 2010	Charlotte	21 -6 		92	30.39	4	3	N
Mon Feb  1 14:54:57 2010	Denver	26 -3 	Partly Cloudy	55	29.85	10	9	WSW
Mon Feb  1 14:54:57 2010	San Diego	49 9 	Clear	89	29.94	5	0	CLM
Mon Feb  1 14:54:58 2010	Memphis	26 -3 		81	30.28	7	0	CLM
Mon Feb  1 14:54:59 2010	Los Angeles	45 7 	Clear	79	29.92	10	3	WSW
Mon Feb  1 14:55:00 2010	El Paso	42 6 	Mostly Cloudy	82	29.89	10	0	CLM
Mon Feb  1 14:55:01 2010	Baltimore	19 -7 	Mostly Sunny	62	30.37	10	5	W
Mon Feb  1 14:55:01 2010	New York	26 -3 	Sunny	50	30.27	10	9	WSW
Mon Feb  1 14:55:02 2010	Las Vegas	40 4 	Clear	76	29.97	10	3	SSW
Mon Feb  1 14:55:03 2010	Washington	27 -3 		48	30.39	10	7	NNW
Mon Feb  1 14:55:04 2010	Austin	36 2 	Cloudy	86	30.14	5	0	CLM
Mon Feb  1 14:55:05 2010	Oklahoma City	27 -3 	Light Fog	100	30.06	3	14	SSE
Mon Feb  1 14:55:05 2010	San Francisco	47 8 	Mostly Cloudy	91	29.96	9	3	N
Mon Feb  1 14:55:06 2010	Nashville	19 -7 	Light Fog	85	30.3	3	0	CLM
Mon Feb  1 14:55:07 2010	Fort Worth	30 -1 	Cloudy	92	30.13	4	0	CLM
Mon Feb  1 14:55:08 2010	Phoenix	46 8 	Clear	79	29.92	10	0	CLM
Mon Feb  1 14:55:09 2010	Portland	40 4 	Cloudy	85	29.9	10	9	E
Mon Feb  1 14:55:10 2010	Chicago	22 -6 	Cloudy	62	30.36	10	0	CLM
Mon Feb  1 14:55:10 2010	San Antonio	37 3 	Mist	93	30.12	1	0	CLM
Mon Feb  1 14:55:11 2010	Indianapolis	19 -7 		92	30.32	7	0	CLM
Mon Feb  1 14:55:12 2010	Boston	23 -5 	Sunny	52	30.11	10	16	WSW
Mon Feb  1 14:55:13 2010	Columbus	18 -8 	Mostly Cloudy	80	30.36	9	0	CLM
Mon Feb  1 14:55:13 2010	Jacksonville	53 12 		79	30.24	10	16	NE
Mon Feb  1 14:55:14 2010	Dallas	34 1 	Cloudy	86	30.13	5	6	ESE
Mon Feb  1 14:55:15 2010	Houston	41 5 	Cloudy	79	30.17	8	6	ENE
Mon Feb  1 14:55:16 2010	Seattle	44 7 	Partly Cloudy	82	29.91	10	5	SSE
Mon Feb  1 14:55:17 2010	Detroit	13 -11 	Mostly Sunny	80	30.36	7	0	CLM
Mon Feb  1 14:55:17 2010	Milwaukee	12-Oct	Cloudy	66	30.32	10	0	CLM
Mon Feb  1 14:55:18 2010	Philadelphia	24 -4 	Sunny	57	30.36	10	7	W
Mon Feb  1 15:39:08 2010	San Jose	43 6 		91	29.95	9	2	SSE
Mon Feb  1 15:39:09 2010	Charlotte	30 -1 		100	30.39	4	0	CLM
Mon Feb  1 15:39:10 2010	Denver	23 -5 	Partly Cloudy	65	29.89	10	8	WSW
Mon Feb  1 15:39:10 2010	San Diego	49 9 	Clear	89	29.95	5	0	CLM
Mon Feb  1 15:39:12 2010	Los Angeles	44 7 	Clear	82	29.93	10	0	CLM
Mon Feb  1 15:39:12 2010	Memphis	28 -2 	Cloudy	88	30.28	9	0	CLM
Mon Feb  1 15:39:13 2010	El Paso	41 5 	Partly Sunny	85	29.91	10	6	SSE
Mon Feb  1 15:39:14 2010	New York	27 -3 	Sunny	48	30.28	10	7	N
Mon Feb  1 15:39:15 2010	Baltimore	27 -3 	Mostly Sunny	50	30.38	10	7	WNW
Mon Feb  1 15:39:16 2010	Las Vegas	40 4 	Mostly Clear	76	29.98	10	5	SW
Mon Feb  1 15:39:16 2010	Washington	29 -2 		49	30.39	10	10	NNW
Mon Feb  1 15:39:17 2010	Austin	36 2 	Light Fog	93	30.14	3	5	E
Mon Feb  1 15:39:18 2010	San Francisco	47 8 		92	29.96	9	3	S
Mon Feb  1 15:39:19 2010	Oklahoma City	29 -2 	Light Fog	88	30.09	3	13	SSE
Mon Feb  1 15:39:20 2010	Fort Worth	34 1 	Light Fog	86	30.13	2	7	SSW
Mon Feb  1 15:39:20 2010	Nashville	20 -7 		91	30.35	4	0	CLM
Mon Feb  1 15:39:21 2010	Phoenix	46 8 	Clear	76	29.94	10	0	CLM
Mon Feb  1 15:39:22 2010	Portland	42 6 	Light Rain	82	29.91	10	5	ENE
Mon Feb  1 15:39:23 2010	Chicago	23 -5 	Cloudy	62	30.38	10	0	CLM
Mon Feb  1 15:39:23 2010	San Antonio	37 3 	Mist	93	30.13	1	3	N
Mon Feb  1 15:39:24 2010	Indianapolis	21 -6 	Mostly Sunny	85	30.33	7	0	CLM
Mon Feb  1 15:39:25 2010	Boston	27 -3 	Sunny	46	30.12	10	17	W
Mon Feb  1 15:39:26 2010	Jacksonville	54 12 		77	30.24	10	16	NE
Mon Feb  1 15:39:27 2010	Columbus	20 -7 	Mostly Cloudy	81	30.4	8	6	SSW
Mon Feb  1 15:39:27 2010	Dallas	35 2 	Cloudy	84	30.13	5	7	SE
Mon Feb  1 15:39:28 2010	Houston	42 6 	Cloudy	78	30.15	6	8	ENE
Mon Feb  1 15:39:29 2010	Seattle	42 6 	Clear	88	29.91	10	6	ESE
Mon Feb  1 15:39:30 2010	Milwaukee	11-Dec	Cloudy	61	30.33	10	0	CLM
Mon Feb  1 15:39:31 2010	Detroit	15 -9 	Mostly Sunny	80	30.37	6	3	S
Mon Feb  1 15:39:31 2010	Philadelphia	28 -2 	Sunny	50	30.37	10	9	W
Mon Feb  1 16:24:16 2010	San Jose	43 6 		93	29.96	7	0	CLM
Mon Feb  1 16:24:17 2010	Charlotte	32 0 		92	30.4	7	0	CLM
Mon Feb  1 16:24:18 2010	San Diego	48 9 	Light Fog	89	29.96	3	3	E
Mon Feb  1 16:24:19 2010	Denver	26 -3 	Partly Sunny	57	29.89	10	8	SW
Mon Feb  1 16:24:20 2010	Los Angeles	44 7 	Sunny	82	29.94	10	0	CLM
Mon Feb  1 16:24:20 2010	Memphis	32 0 		81	30.29	10	3	E
Mon Feb  1 16:24:21 2010	El Paso	45 7 	Mostly Cloudy	79	29.93	10	3	ESE
Mon Feb  1 16:24:22 2010	New York	28 -2 	Sunny	46	30.29	10	14	W
Mon Feb  1 16:24:23 2010	Baltimore	29 -2 		49	30.36	10	5	NNW
Mon Feb  1 16:24:24 2010	Las Vegas	40 4 	Mostly Sunny	73	29.99	10	3	SW
Mon Feb  1 16:24:24 2010	Washington	31 -1 		45	30.4	10	7	NNW
Mon Feb  1 16:24:25 2010	Austin	36 2 	Light Fog	93	30.15	3	5	E
Mon Feb  1 16:24:26 2010	San Francisco	47 8 		92	29.96	9	3	S
Mon Feb  1 16:24:27 2010	Oklahoma City	29 -2 	Light Fog	88	30.1	2	9	S
Mon Feb  1 16:24:28 2010	Fort Worth	34 1 	Light Fog	88	30.14	2	0	CLM
Mon Feb  1 16:24:28 2010	Nashville	24 -4 		95	30.35	4	0	CLM
Mon Feb  1 16:24:29 2010	Phoenix	47 8 	Sunny	73	29.95	10	6	NNE
Mon Feb  1 16:24:30 2010	Portland	40 4 	Cloudy	85	29.91	10	15	E
Mon Feb  1 16:24:31 2010	Chicago	24 -4 	Cloudy	62	30.38	8	0	CLM
Mon Feb  1 16:24:32 2010	Indianapolis	23 -5 	Mostly Sunny	85	30.32	10	0	CLM
Mon Feb  1 16:24:32 2010	San Antonio	38 3 	Mist	96	30.13	1	5	NE
Mon Feb  1 16:24:33 2010	Boston	29 -2 	Partly Sunny	42	30.15	10	14	W
Mon Feb  1 16:24:34 2010	Jacksonville	55 13 	Mostly Cloudy	77	30.24	10	16	NE
Mon Feb  1 16:24:35 2010	Columbus	23 -5 		74	30.39	6	6	SSE
Mon Feb  1 16:24:36 2010	Dallas	36 2 	Cloudy	81	30.15	5	3	SSW
Mon Feb  1 16:24:36 2010	Houston	44 7 	Rain	78	30.17	5	7	ENE
Mon Feb  1 16:24:37 2010	Seattle	41 5 	Clear	85	29.91	10	5	SE
Mon Feb  1 16:24:38 2010	Milwaukee	11-Dec	Cloudy	61	30.33	10	0	CLM
Mon Feb  1 16:24:39 2010	Detroit	19 -7 	Cloudy	76	30.39	8	3	SSW
Mon Feb  1 16:24:39 2010	Philadelphia	30 -1 	Sunny	44	30.35	10	13	NW
Mon Feb  1 17:08:27 2010	San Jose	43 6 		93	29.96	7	0	CLM
Mon Feb  1 17:08:28 2010	Charlotte	32 0 		92	30.4	7	0	CLM
Mon Feb  1 17:08:29 2010	San Diego	48 9 	Light Fog	89	29.96	3	3	E
Mon Feb  1 17:08:30 2010	Denver	26 -3 	Partly Sunny	57	29.89	10	8	SW
Mon Feb  1 17:08:30 2010	Memphis	32 0 		81	30.29	10	3	E
Mon Feb  1 17:08:31 2010	Los Angeles	44 7 		82	29.94	10	0	CLM
Mon Feb  1 17:08:32 2010	El Paso	45 7 	Mostly Cloudy	79	29.93	10	3	ESE
Mon Feb  1 17:08:33 2010	New York	28 -2 	Sunny	46	30.29	10	14	W
Mon Feb  1 17:08:34 2010	Baltimore	29 -2 		49	30.36	10	5	NNW
Mon Feb  1 17:08:34 2010	Las Vegas	40 4 	Mostly Sunny	73	29.99	10	3	SW
Mon Feb  1 17:08:35 2010	Washington	31 -1 		45	30.4	10	7	NNW
Mon Feb  1 17:08:36 2010	Austin	36 2 	Cloudy	93	30.16	4	0	CLM
Mon Feb  1 17:08:37 2010	San Francisco	47 8 		92	29.96	9	3	NE
Mon Feb  1 17:08:38 2010	Nashville	24 -4 		95	30.35	4	0	CLM
Mon Feb  1 17:08:38 2010	Oklahoma City	29 -2 	Light Fog	88	30.1	2	9	S
Mon Feb  1 17:08:39 2010	Fort Worth	36 2 	Light Fog	80	30.14	2	8	SSW
Mon Feb  1 17:08:40 2010	Phoenix	47 8 	Mostly Sunny	73	29.95	10	6	NNE
Mon Feb  1 17:08:41 2010	Portland	40 4 	Cloudy	85	29.91	10	15	E
Mon Feb  1 17:08:42 2010	Chicago	24 -4 	Cloudy	62	30.38	8	0	CLM
Mon Feb  1 17:08:42 2010	San Antonio	38 3 	Mist	96	30.13	1	5	NE
Mon Feb  1 17:08:43 2010	Indianapolis	27 -3 	Mostly Sunny	74	30.33	10	0	CLM
Mon Feb  1 17:08:44 2010	Boston	29 -2 	Partly Sunny	42	30.15	10	14	W
Mon Feb  1 17:08:45 2010	Jacksonville	55 13 	Mostly Cloudy	77	30.24	10	16	NE
Mon Feb  1 17:08:46 2010	Columbus	23 -5 		74	30.39	6	6	SSE
Mon Feb  1 17:08:46 2010	Dallas	36 2 	Cloudy	81	30.15	5	3	SSW
Mon Feb  1 17:08:47 2010	Houston	44 7 	Rain	78	30.17	5	7	ENE
Mon Feb  1 17:08:48 2010	Seattle	41 5 		85	29.91	10	5	SE
Mon Feb  1 17:08:49 2010	Detroit	19 -7 	Cloudy	76	30.39	8	3	SSW
Mon Feb  1 17:08:49 2010	Milwaukee	11-Dec	Cloudy	61	30.33	10	0	CLM
Mon Feb  1 17:08:50 2010	Philadelphia	30 -1 	Mostly Sunny	44	30.35	10	13	NW
Mon Feb  1 17:51:33 2010	Charlotte	37 3 		78	30.39	8	3	SW
Mon Feb  1 17:51:33 2010	San Jose	43 6 	Mostly Cloudy	93	29.97	7	0	CLM
Mon Feb  1 17:51:34 2010	San Diego	51 11 	Light Fog	89	29.97	3	0	CLM
Mon Feb  1 17:51:35 2010	Denver	37 3 	Partly Sunny	36	29.88	10	9	WSW
Mon Feb  1 17:51:36 2010	Memphis	37 3 		72	30.27	10	7	SE
Mon Feb  1 17:51:37 2010	El Paso	48 9 	Mostly Cloudy	70	29.93	10	0	CLM
Mon Feb  1 17:51:37 2010	Los Angeles	47 8 	Sunny	76	29.96	10	0	CLM
Mon Feb  1 17:51:38 2010	New York	29 -2 	Sunny	42	30.27	10	12	W
Mon Feb  1 17:51:39 2010	Baltimore	30 -1 	Mostly Cloudy	47	30.37	10	9	WNW
Mon Feb  1 17:51:40 2010	Las Vegas	43 6 	Mostly Sunny	65	30.01	10	0	CLM
Mon Feb  1 17:51:41 2010	Austin	37 3 		93	30.16	1	0	CLM
Mon Feb  1 17:51:41 2010	Washington	32 0 		43	30.39	10	10	N
Mon Feb  1 17:51:42 2010	San Francisco	47 8 		91	29.98	9	2	NE
Mon Feb  1 17:51:43 2010	Oklahoma City	29 -2 	Light Fog	88	30.09	3	9	SSE
Mon Feb  1 17:51:44 2010	Nashville	28 -2 		88	30.33	5	0	CLM
Mon Feb  1 17:51:45 2010	Fort Worth	36 2 	Light Fog	85	30.14	2	8	S
Mon Feb  1 17:51:45 2010	Phoenix	51 11 	Sunny	65	29.96	10	5	NNE
Mon Feb  1 17:51:46 2010	Portland	41 5 	Cloudy	82	29.9	10	16	E
Mon Feb  1 17:51:47 2010	Chicago	25 -4 	Cloudy	60	30.38	9	3	S
Mon Feb  1 17:51:48 2010	San Antonio	39 4 	Mist	92	30.14	1	5	E
Mon Feb  1 17:51:49 2010	Boston	31 -1 	Partly Sunny	36	30.15	10	16	W
Mon Feb  1 17:51:49 2010	Indianapolis	28 -2 	Cloudy	68	30.32	8	2	S
Mon Feb  1 17:51:50 2010	Jacksonville	55 13 	Mostly Cloudy	74	30.24	10	14	NE
Mon Feb  1 17:51:51 2010	Columbus	26 -3 	Mostly Cloudy	63	30.39	9	5	S
Mon Feb  1 17:51:52 2010	Dallas	38 3 	Cloudy	79	30.15	6	6	S
Mon Feb  1 17:51:53 2010	Houston	44 7 	Rain	82	30.2	5	5	E
Mon Feb  1 17:51:53 2010	Seattle	41 5 	Sunny	85	29.9	10	7	ESE
Mon Feb  1 17:51:54 2010	Milwaukee	16 -9 	Cloudy	57	30.32	10	0	CLM
Mon Feb  1 17:51:55 2010	Detroit	24 -4 	Cloudy	59	30.39	10	7	SW
Mon Feb  1 17:51:56 2010	Philadelphia	31 -1 	Mostly Sunny	43	30.35	10	16	WNW
Mon Feb  1 18:35:18 2010	Charlotte	41 5 		64	30.38	10	3	N
Mon Feb  1 18:35:18 2010	San Jose	46 8 		93	29.98	7	0	CLM
Mon Feb  1 18:35:19 2010	San Diego	55 13 	Partly Sunny	86	29.98	5	3	N
Mon Feb  1 18:35:20 2010	Denver	42 6 	Partly Sunny	30	29.88	10	12	WNW
Mon Feb  1 18:35:21 2010	Memphis	40 4 	Mostly Cloudy	64	30.26	10	0	CLM
Mon Feb  1 18:35:22 2010	El Paso	51 11 		65	29.94	10	5	ESE
Mon Feb  1 18:35:22 2010	Los Angeles	50 10 	Sunny	71	29.95	9	0	CLM
Mon Feb  1 18:35:23 2010	New York	32 0 	Sunny	39	30.24	10	9	WNW
Mon Feb  1 18:35:24 2010	Baltimore	31 -1 		47	30.35	10	8	W
Mon Feb  1 18:35:25 2010	Las Vegas	47 8 	Mostly Sunny	53	30.01	10	0	CLM
Mon Feb  1 18:35:26 2010	Austin	37 3 	Light Fog	93	30.16	2	3	E
Mon Feb  1 18:35:26 2010	Washington	34 1 	Cloudy	40	30.39	10	5	WNW
Mon Feb  1 18:35:27 2010	San Francisco	48 9 	Mostly Cloudy	92	29.97	9	2	NE
Mon Feb  1 18:35:28 2010	Oklahoma City	30 -1 	Light Fog	92	30.1	2	12	S
Mon Feb  1 18:35:29 2010	Nashville	33 1 		71	30.33	10	3	S
Mon Feb  1 18:35:30 2010	Fort Worth	38 3 	Cloudy	82	30.13	6	10	S
Mon Feb  1 18:35:30 2010	Phoenix	56 13 	Sunny	54	29.97	10	0	CLM
Mon Feb  1 18:35:31 2010	Portland	42 6 	Cloudy	78	29.89	10	17	E
Mon Feb  1 18:35:32 2010	Chicago	26 -3 	Cloudy	55	30.36	8	0	CLM
Mon Feb  1 18:35:33 2010	Indianapolis	30 -1 	Cloudy	64	30.32	10	6	S
Mon Feb  1 18:35:33 2010	San Antonio	39 4 	Mist	93	30.14	1	0	CLM
Mon Feb  1 18:35:34 2010	Boston	33 1 	Partly Sunny	31	30.13	10	14	WSW
Mon Feb  1 18:35:35 2010	Jacksonville	56 13 	Cloudy	77	30.23	10	15	NE
Mon Feb  1 18:35:36 2010	Columbus	28 -2 		58	30.39	10	3	S
Mon Feb  1 18:35:37 2010	Dallas	41 5 	Mostly Cloudy	73	30.14	7	6	S
Mon Feb  1 18:35:37 2010	Houston	44 7 	Rain	85	30.19	5	7	ENE
Mon Feb  1 18:35:38 2010	Seattle	41 5 	Sunny	85	29.9	10	8	ESE
Mon Feb  1 18:35:39 2010	Milwaukee	19 -7 	Cloudy	57	30.31	10	0	CLM
Mon Feb  1 18:35:40 2010	Detroit	26 -3 	Cloudy	52	30.37	10	10	W
Mon Feb  1 18:35:41 2010	Philadelphia	33 1 	Sunny	39	30.32	10	9	W
Mon Feb  1 19:19:14 2010	San Jose	46 8 		93	29.98	7	0	CLM
Mon Feb  1 19:19:15 2010	Charlotte	41 5 		64	30.38	10	3	N
Mon Feb  1 19:19:16 2010	Denver	42 6 	Partly Sunny	30	29.88	10	12	WNW
Mon Feb  1 19:19:16 2010	San Diego	55 13 	Cloudy	86	29.98	5	3	N
Mon Feb  1 19:19:17 2010	Memphis	40 4 	Mostly Cloudy	64	30.26	10	0	CLM
Mon Feb  1 19:19:18 2010	Los Angeles	50 10 		71	29.95	9	0	CLM
Mon Feb  1 19:19:19 2010	El Paso	51 11 		65	29.94	10	5	ESE
Mon Feb  1 19:19:20 2010	Baltimore	31 -1 		47	30.35	10	8	W
Mon Feb  1 19:19:20 2010	New York	32 0 	Sunny	39	30.24	10	9	WNW
Mon Feb  1 19:19:21 2010	Las Vegas	47 8 	Mostly Sunny	53	30.01	10	0	CLM
Mon Feb  1 19:19:22 2010	Washington	34 1 	Cloudy	40	30.39	10	5	WNW
Mon Feb  1 19:19:23 2010	Austin	37 3 	Light Fog	93	30.15	1	0	CLM
Mon Feb  1 19:19:24 2010	Oklahoma City	30 -1 	Light Fog	92	30.06	1	7	S
Mon Feb  1 19:19:24 2010	San Francisco	50 10 		90	29.97	9	3	NE
Mon Feb  1 19:19:25 2010	Nashville	33 1 		71	30.33	10	3	S
Mon Feb  1 19:19:26 2010	Fort Worth	43 6 	Cloudy	70	30.11	7	10	S
Mon Feb  1 19:19:27 2010	Phoenix	56 13 	Mostly Sunny	54	29.97	10	0	CLM
Mon Feb  1 19:19:28 2010	Chicago	26 -3 	Cloudy	55	30.36	8	0	CLM
Mon Feb  1 19:19:28 2010	Portland	42 6 	Cloudy	78	29.89	10	17	E
Mon Feb  1 19:19:29 2010	San Antonio	41 5 	Mist	93	30.13	2	5	ENE
Mon Feb  1 19:19:30 2010	Indianapolis	30 -1 		64	30.3	10	5	SSE
Mon Feb  1 19:19:31 2010	Boston	33 1 	Partly Sunny	31	30.13	10	14	WSW
Mon Feb  1 19:19:32 2010	Columbus	28 -2 	Mostly Cloudy	58	30.39	10	3	S
Mon Feb  1 19:19:32 2010	Jacksonville	56 13 	Cloudy	77	30.23	10	15	NE
Mon Feb  1 19:19:33 2010	Dallas	45 7 	Cloudy	65	30.13	9	10	S
Mon Feb  1 19:19:34 2010	Houston	46 8 	Rain	87	30.15	4	6	ENE
Mon Feb  1 19:19:35 2010	Seattle	41 5 	Cloudy	85	29.9	10	8	ESE
Mon Feb  1 19:19:36 2010	Detroit	26 -3 	Cloudy	52	30.37	10	10	W
Mon Feb  1 19:19:36 2010	Milwaukee	19 -7 	Cloudy	57	30.31	10	0	CLM
Mon Feb  1 19:19:37 2010	Philadelphia	33 1 		39	30.32	10	9	W
Mon Feb  1 20:03:49 2010	San Jose	54 12 		71	29.96	7	0	CLM
Mon Feb  1 20:03:50 2010	Charlotte	42 6 	Mostly Sunny	52	30.36	10	5	SW
Mon Feb  1 20:03:51 2010	Denver	44 7 	Partly Sunny	24	29.85	10	9	NW
Mon Feb  1 20:03:51 2010	San Diego	55 13 	Mostly Cloudy	86	29.98	8	3	NNE
Mon Feb  1 20:03:52 2010	Memphis	44 7 	Mostly Cloudy	57	30.22	10	6	ESE
Mon Feb  1 20:03:53 2010	Los Angeles	54 12 	Mostly Sunny	66	29.95	9	6	S
Mon Feb  1 20:03:54 2010	El Paso	56 13 	Partly Sunny	50	29.92	10	0	CLM
Mon Feb  1 20:03:55 2010	Baltimore	32 0 		49	30.35	10	10	W
Mon Feb  1 20:03:55 2010	New York	33 1 	Mostly Sunny	36	30.23	10	12	W
Mon Feb  1 20:03:56 2010	Las Vegas	49 9 	Mostly Sunny	49	30.01	10	0	CLM
Mon Feb  1 20:03:57 2010	Washington	35 2 	Cloudy	38	30.37	10	14	WNW
Mon Feb  1 20:03:58 2010	Austin	39 4 	Light Fog	93	30.12	2	0	CLM
Mon Feb  1 20:03:59 2010	Oklahoma City	30 -1 	Foggy	92	30.04	1	10	S
Mon Feb  1 20:03:59 2010	San Francisco	53 12 		83	29.97	10	4	ESE
Mon Feb  1 20:04:00 2010	Nashville	38 3 		59	30.3	10	3	S
Mon Feb  1 20:04:01 2010	Fort Worth	43 6 	Cloudy	70	30.12	8	14	SSW
Mon Feb  1 20:04:02 2010	Phoenix	57 14 	Cloudy	50	29.98	10	7	CLM
Mon Feb  1 20:04:03 2010	Chicago	27 -3 	Cloudy	55	30.33	8	0	CLM
Mon Feb  1 20:04:03 2010	Portland	43 6 	Cloudy	79	29.88	10	20	E
Mon Feb  1 20:04:04 2010	San Antonio	43 6 	Mist	93	30.12	2	0	CLM
Mon Feb  1 20:04:05 2010	Indianapolis	32 0 	Cloudy	59	30.26	10	3	SSE
Mon Feb  1 20:04:06 2010	Boston	34 1 	Partly Sunny	33	30.1	10	13	WSW
Mon Feb  1 20:04:07 2010	Columbus	30 -1 		53	30.36	10	8	SSW
Mon Feb  1 20:04:07 2010	Jacksonville	56 13 	Cloudy	77	30.21	10	12	NNE
Mon Feb  1 20:04:08 2010	Dallas	46 8 	Cloudy	65	30.11	8	9	SSW
Mon Feb  1 20:04:09 2010	Houston	46 8 	Rain	88	30.15	4	5	E
Mon Feb  1 20:04:10 2010	Milwaukee	19 -7 	Cloudy	49	30.29	10	0	CLM
Mon Feb  1 20:04:10 2010	Seattle	43 6 	Cloudy	76	29.9	10	3	SSE
Mon Feb  1 20:04:11 2010	Detroit	27 -3 	Cloudy	53	30.35	10	9	WSW
Mon Feb  1 20:04:12 2010	Philadelphia	34 1 		38	30.28	10	8	W
Mon Feb  1 20:51:32 2010	San Jose	59 15 		62	29.96	7	7	N
Mon Feb  1 20:51:33 2010	Charlotte	45 7 	Mostly Sunny	43	30.33	10	0	CLM
Mon Feb  1 20:51:33 2010	San Diego	58 14 		77	29.96	10	0	CLM
Mon Feb  1 20:51:34 2010	Denver	45 7 	Partly Sunny	22	29.84	10	5	NW
Mon Feb  1 20:51:35 2010	Memphis	46 8 	Cloudy	53	30.19	10	0	CLM
Mon Feb  1 20:51:36 2010	Los Angeles	58 14 	Sunny	55	29.94	10	0	CLM
Mon Feb  1 20:51:37 2010	El Paso	60 16 	Partly Sunny	30	29.88	10	13	WNW
Mon Feb  1 20:51:37 2010	New York	33 1 	Mostly Sunny	36	30.2	10	7	WSW
Mon Feb  1 20:51:38 2010	Baltimore	33 1 		45	30.32	10	14	WNW
Mon Feb  1 20:51:39 2010	Las Vegas	53 12 	Mostly Sunny	39	30	10	3	N
Mon Feb  1 20:51:40 2010	Austin	39 4 	Light Fog	93	30.1	2	0	CLM
Mon Feb  1 20:51:40 2010	Washington	37 3 	Cloudy	36	30.33	10	8	WNW
Mon Feb  1 20:51:41 2010	San Francisco	54 12 	Mostly Cloudy	79	29.97	10	3	N
Mon Feb  1 20:51:42 2010	Oklahoma City	31 -1 	Foggy	92	30.06	1	10	SSW
Mon Feb  1 20:51:43 2010	Nashville	41 5 		50	30.25	10	0	CLM
Mon Feb  1 20:51:44 2010	Fort Worth	45 7 	Cloudy	70	30.08	8	12	SSW
Mon Feb  1 20:51:44 2010	Phoenix	60 16 	Sunny	45	29.96	10	5	SSW
Mon Feb  1 20:51:45 2010	Portland	44 7 	Light Rain	78	29.88	10	18	E
Mon Feb  1 20:51:46 2010	Chicago	29 -2 	Cloudy	53	30.3	7	0	CLM
Mon Feb  1 20:51:47 2010	San Antonio	43 6 	Mist	93	30.08	2	0	CLM
Mon Feb  1 20:51:48 2010	Boston	34 1 	Mostly Sunny	25	30.09	10	20	WNW
Mon Feb  1 20:51:48 2010	Indianapolis	32 0 		59	30.24	10	3	ESE
Mon Feb  1 20:51:49 2010	Jacksonville	56 13 	Cloudy	77	30.17	10	21	NNE
Mon Feb  1 20:51:50 2010	Columbus	33 1 	Cloudy	45	30.32	10	0	CLM
Mon Feb  1 20:51:51 2010	Dallas	45 7 	Cloudy	70	30.08	10	9	WSW
Mon Feb  1 20:51:52 2010	Houston	47 8 	Rain	92	30.11	3	6	ENE
Mon Feb  1 20:51:52 2010	Seattle	44 7 	Light Rain	76	29.89	10	0	CLM
Mon Feb  1 20:51:53 2010	Milwaukee	21 -6 	Cloudy	49	30.25	10	0	CLM
Mon Feb  1 20:51:54 2010	Detroit	28 -2 	Cloudy	50	30.31	10	8	WSW
Mon Feb  1 20:51:55 2010	Philadelphia	35 2 	Mostly Sunny	36	30.29	10	10	WSW
Mon Feb  1 21:35:13 2010	San Jose	61 16 		58	29.95	10	6	N
Mon Feb  1 21:35:14 2010	Charlotte	46 8 	Mostly Sunny	40	30.29	10	3	SSE
Mon Feb  1 21:35:15 2010	San Diego	61 16 	Mostly Sunny	69	29.94	10	0	CLM
Mon Feb  1 21:35:16 2010	Denver	45 7 	Partly Sunny	22	29.85	10	3	N
Mon Feb  1 21:35:16 2010	Memphis	47 8 	Cloudy	49	30.16	10	5	SSE
Mon Feb  1 21:35:17 2010	Los Angeles	61 16 	Sunny	49	29.91	10	0	CLM
Mon Feb  1 21:35:18 2010	El Paso	60 16 	Partly Sunny	34	29.85	10	13	W
Mon Feb  1 21:35:19 2010	New York	34 1 	Sunny	35	30.21	10	10	W
Mon Feb  1 21:35:20 2010	Baltimore	33 1 		45	30.3	10	7	WNW
Mon Feb  1 21:35:20 2010	Las Vegas	55 13 	Mostly Sunny	33	29.97	10	5	E
Mon Feb  1 21:35:21 2010	Washington	38 3 	Cloudy	34	30.32	10	8	W
Mon Feb  1 21:35:22 2010	Austin	41 5 	Light Fog	93	30.08	3	0	CLM
Mon Feb  1 21:35:23 2010	Oklahoma City	31 -1 	Light Fog	88	30.05	1	9	SW
Mon Feb  1 21:35:23 2010	San Francisco	54 12 	Mostly Cloudy	78	29.96	10	3	N
Mon Feb  1 21:35:24 2010	Nashville	42 6 		54	30.22	10	6	E
Mon Feb  1 21:35:25 2010	Fort Worth	45 7 	Cloudy	68	30.05	8	9	SSW
Mon Feb  1 21:35:26 2010	Phoenix	61 16 	Sunny	42	29.92	10	3	SE
Mon Feb  1 21:35:27 2010	Chicago	30 -1 	Cloudy	53	30.28	8	0	CLM
Mon Feb  1 21:35:27 2010	Portland	45 7 	Light Rain	79	29.89	10	10	E
Mon Feb  1 21:35:28 2010	San Antonio	45 7 	Mist	93	30.06	1	0	CLM
Mon Feb  1 21:35:29 2010	Indianapolis	32 0 		59	30.24	10	0	CLM
Mon Feb  1 21:35:30 2010	Boston	34 1 	Mostly Sunny	29	30.09	10	16	W
Mon Feb  1 21:35:31 2010	Columbus	33 1 		45	30.3	10	0	CLM
Mon Feb  1 21:35:31 2010	Jacksonville	55 13 	Cloudy	79	30.15	10	14	NNE
Mon Feb  1 21:35:32 2010	Dallas	46 8 	Cloudy	67	30.06	10	7	SW
Mon Feb  1 21:35:33 2010	Houston	49 9 	Cloudy	89	30.09	4	7	E
Mon Feb  1 21:35:34 2010	Seattle	46 8 	Cloudy	67	29.88	10	3	SE
Mon Feb  1 21:35:35 2010	Detroit	27 -3 	Cloudy	53	30.3	10	10	WSW
Mon Feb  1 21:35:35 2010	Milwaukee	21 -6 	Mostly Cloudy	49	30.24	10	0	CLM
Mon Feb  1 21:35:36 2010	Philadelphia	35 2 	Sunny	36	30.29	10	10	W
Mon Feb  1 22:18:23 2010	San Jose	63 17 	Cloudy	48	29.92	10	12	ESE
Mon Feb  1 22:18:24 2010	Charlotte	48 9 	Mostly Sunny	34	30.27	10	0	CLM
Mon Feb  1 22:18:25 2010	San Diego	62 17 	Mostly Sunny	67	29.9	9	0	CLM
Mon Feb  1 22:18:26 2010	Denver	47 8 	Partly Sunny	22	29.84	10	10	NNE
Mon Feb  1 22:18:26 2010	Memphis	46 8 	Cloudy	53	30.15	10	3	SE
Mon Feb  1 22:18:27 2010	Los Angeles	64 18 	Sunny	44	29.88	10	9	ESE
Mon Feb  1 22:18:28 2010	El Paso	60 16 	Partly Sunny	37	29.83	10	9	CLM
Mon Feb  1 22:18:29 2010	New York	35 2 	Sunny	33	30.21	10	9	W
Mon Feb  1 22:18:30 2010	Baltimore	34 1 		43	30.3	10	13	W
Mon Feb  1 22:18:30 2010	Las Vegas	56 13 		32	29.94	10	0	CLM
Mon Feb  1 22:18:31 2010	Washington	39 4 		32	30.32	10	7	WNW
Mon Feb  1 22:18:32 2010	Austin	43 6 	Mostly Cloudy	87	30.06	5	0	CLM
Mon Feb  1 22:18:33 2010	San Francisco	55 13 	Cloudy	74	29.92	10	3	NNE
Mon Feb  1 22:18:34 2010	Nashville	40 4 	Cloudy	62	30.21	10	5	ESE
Mon Feb  1 22:18:34 2010	Oklahoma City	30 -1 	Light Fog	92	30	2	8	SSW
Mon Feb  1 22:18:35 2010	Fort Worth	45 7 	Cloudy	70	30.03	8	9	SSW
Mon Feb  1 22:18:36 2010	Phoenix	63 17 	Sunny	39	29.89	10	5	SE
Mon Feb  1 22:18:37 2010	Portland	43 6 	Light Rain	88	29.88	10	14	E
Mon Feb  1 22:18:38 2010	Chicago	30 -1 	Cloudy	53	30.27	7	0	CLM
Mon Feb  1 22:18:38 2010	San Antonio	45 7 	Mist	93	30.05	2	0	CLM
Mon Feb  1 22:18:39 2010	Indianapolis	34 1 	Mostly Sunny	55	30.22	10	0	CLM
Mon Feb  1 22:18:40 2010	Boston	33 1 	Mostly Sunny	29	30.09	10	21	W
Mon Feb  1 22:18:41 2010	Jacksonville	55 13 	Cloudy	83	30.13	10	16	NNE
Mon Feb  1 22:18:42 2010	Columbus	34 1 	Cloudy	43	30.29	10	0	CLM
Mon Feb  1 22:18:43 2010	Dallas	46 8 	Cloudy	67	30.04	10	8	WSW
Mon Feb  1 22:18:44 2010	Houston	50 10 	Cloudy	86	30.08	5	7	E
Mon Feb  1 22:18:44 2010	Seattle	47 8 	Mostly Cloudy	70	29.87	10	3	S
Mon Feb  1 22:18:45 2010	Milwaukee	23 -5 	Cloudy	49	30.22	10	0	CLM
Mon Feb  1 22:18:46 2010	Detroit	27 -3 	Cloudy	58	30.3	10	10	SSW
Mon Feb  1 22:18:47 2010	Philadelphia	35 2 	Sunny	36	30.29	10	14	W
Mon Feb  1 23:03:16 2010	San Jose	63 17 	Cloudy	48	29.92	10	12	ESE
Mon Feb  1 23:03:17 2010	Charlotte	48 9 	Mostly Sunny	34	30.27	10	0	CLM
Mon Feb  1 23:03:18 2010	Denver	47 8 	Partly Sunny	22	29.84	10	10	NNE
Mon Feb  1 23:03:18 2010	San Diego	62 17 	Mostly Sunny	67	29.9	9	0	CLM
Mon Feb  1 23:03:19 2010	Memphis	46 8 	Cloudy	53	30.15	10	3	SE
Mon Feb  1 23:03:20 2010	Los Angeles	64 18 	Mostly Sunny	44	29.88	10	9	ESE
Mon Feb  1 23:03:21 2010	El Paso	60 16 	Partly Sunny	37	29.83	10	9	CLM
Mon Feb  1 23:03:22 2010	Baltimore	34 1 		43	30.3	10	13	W
Mon Feb  1 23:03:22 2010	New York	35 2 	Sunny	33	30.21	10	9	W
Mon Feb  1 23:03:23 2010	Las Vegas	56 13 		32	29.94	10	0	CLM
Mon Feb  1 23:03:24 2010	Washington	39 4 		32	30.32	10	7	WNW
Mon Feb  1 23:03:25 2010	Austin	43 6 	Mostly Cloudy	93	30.05	4	0	CLM
Mon Feb  1 23:03:26 2010	Oklahoma City	30 -1 	Light Fog	92	30	2	8	SSW
Mon Feb  1 23:03:26 2010	San Francisco	56 13 	Cloudy	72	29.92	10	3	NNW
Mon Feb  1 23:03:27 2010	Nashville	40 4 	Cloudy	62	30.21	10	5	ESE
Mon Feb  1 23:03:28 2010	Fort Worth	45 7 	Cloudy	70	30.03	8	9	SSW
Mon Feb  1 23:03:29 2010	Phoenix	63 17 	Cloudy	39	29.89	10	5	SE
Mon Feb  1 23:03:29 2010	Portland	43 6 	Light Rain	88	29.88	10	14	E
Mon Feb  1 23:03:30 2010	Chicago	30 -1 	Cloudy	53	30.27	7	0	CLM
Mon Feb  1 23:03:31 2010	San Antonio	45 7 	Mist	93	30.05	3	0	CLM
Mon Feb  1 23:03:32 2010	Indianapolis	34 1 	Partly Sunny	55	30.22	10	3	NNE
Mon Feb  1 23:03:33 2010	Boston	33 1 	Mostly Sunny	29	30.09	10	21	W
Mon Feb  1 23:03:33 2010	Jacksonville	55 13 	Cloudy	83	30.13	10	16	NNE
Mon Feb  1 23:03:34 2010	Columbus	34 1 	Cloudy	43	30.29	10	0	CLM
Mon Feb  1 23:03:35 2010	Dallas	46 8 	Cloudy	67	30.04	10	8	WSW
Mon Feb  1 23:03:36 2010	Houston	50 10 	Cloudy	86	30.08	5	7	E
Mon Feb  1 23:03:37 2010	Milwaukee	23 -5 	Cloudy	49	30.22	10	0	CLM
Mon Feb  1 23:03:37 2010	Seattle	47 8 	Cloudy	70	29.87	10	3	S
Mon Feb  1 23:03:38 2010	Detroit	27 -3 	Cloudy	58	30.3	10	10	SSW
Mon Feb  1 23:03:39 2010	Philadelphia	35 2 	Mostly Sunny	36	30.29	10	14	W
Mon Feb  1 23:48:31 2010	San Jose	63 17 	Cloudy	41	29.88	10	12	ESE
Mon Feb  1 23:48:32 2010	Charlotte	45 7 	Mostly Sunny	43	30.28	10	6	S
Mon Feb  1 23:48:33 2010	San Diego	62 17 	Sunny	64	29.88	10	7	SW
Mon Feb  1 23:48:34 2010	Denver	46 8 	Partly Sunny	23	29.86	10	6	N
Mon Feb  1 23:48:35 2010	Los Angeles	65 18 	Sunny	38	29.86	10	7	ESE
Mon Feb  1 23:48:35 2010	Memphis	46 8 	Cloudy	53	30.15	10	3	SE
Mon Feb  1 23:48:36 2010	El Paso	62 17 		30	29.8	10	9	W
Mon Feb  1 23:48:37 2010	New York	34 1 	Sunny	36	30.21	10	6	N
Mon Feb  1 23:48:38 2010	Baltimore	33 1 		43	30.3	10	7	WSW
Mon Feb  1 23:48:39 2010	Las Vegas	56 13 		32	29.91	10	0	CLM
Mon Feb  1 23:48:39 2010	Washington	39 4 		32	30.32	10	6	W
Mon Feb  1 23:48:40 2010	Austin	45 7 	Light Fog	87	30.06	3	0	CLM
Mon Feb  1 23:48:41 2010	San Francisco	57 14 		68	29.91	10	3	NNW
Mon Feb  1 23:48:42 2010	Oklahoma City	32 0 	Light Fog	88	30.04	2	5	SW
Mon Feb  1 23:48:43 2010	Fort Worth	46 8 	Cloudy	67	30.02	10	10	S
Mon Feb  1 23:48:43 2010	Nashville	39 4 	Partly Sunny	64	30.22	10	5	SE
Mon Feb  1 23:48:44 2010	Phoenix	64 18 	Sunny	35	29.88	10	3	S
Mon Feb  1 23:48:45 2010	Portland	43 6 	Light Rain	88	29.86	10	13	E
Mon Feb  1 23:48:46 2010	Chicago	31 -1 	Cloudy	53	30.26	6	3	SSE
Mon Feb  1 23:48:47 2010	Indianapolis	32 0 		69	30.21	10	3	ENE
Mon Feb  1 23:48:47 2010	San Antonio	45 7 	Mist	100	30.05	2	3	ENE
Mon Feb  1 23:48:48 2010	Boston	32 0 	Mostly Clear	29	30.12	10	14	W
Mon Feb  1 23:48:49 2010	Jacksonville	55 13 	Cloudy	83	30.14	10	12	NNE
Mon Feb  1 23:48:50 2010	Columbus	34 1 	Cloudy	43	30.29	10	0	CLM
Mon Feb  1 23:48:51 2010	Dallas	47 8 	Cloudy	68	30.03	10	5	WSW
Mon Feb  1 23:48:51 2010	Houston	50 10 	Cloudy	86	30.09	5	6	E
Mon Feb  1 23:48:53 2010	Milwaukee	23 -5 	Cloudy	53	30.22	10	7	E
Mon Feb  1 23:48:53 2010	Seattle	47 8 	Partly Sunny	76	29.85	10	0	CLM
Mon Feb  1 23:48:54 2010	Detroit	26 -3 	Cloudy	63	30.32	10	8	WSW
Mon Feb  1 23:48:55 2010	Philadelphia	34 1 	Mostly Sunny	38	30.28	10	10	WNW
Sat Jan 30 00:35:20 2010	Charlotte	32 0 	Snow/Fog	92	30.3	1	6	N
Sat Jan 30 00:35:20 2010	San Jose	61 16 		58	29.96	15	13	W
Sat Jan 30 00:35:21 2010	San Diego	61 16 	Sunny	72	30.02	9	8	WSW
Sat Jan 30 00:35:22 2010	Denver	43 6 	Mostly Sunny	24	30.02	10	5	NNW
Sat Jan 30 00:35:23 2010	Memphis	31 -1 	Freezing Rain	88	30.02	3	13	NE
Sat Jan 30 00:35:24 2010	El Paso	47 8 	Partly Sunny	51	30.05	10	5	N
Sat Jan 30 00:35:24 2010	Los Angeles	64 18 	Sunny	39	29.98	10	6	S
Sat Jan 30 00:35:25 2010	New York	22 -6 	Clear	38	30.26	10	9	WNW
Sat Jan 30 00:35:26 2010	Baltimore	24 -4 	Cloudy	38	30.36	10	6	NW
Sat Jan 30 00:35:27 2010	Las Vegas	57 14 		34	30.01	10	0	CLM
Sat Jan 30 00:35:28 2010	Austin	39 4 	Cloudy	65	30.07	10	17	NW
Sat Jan 30 00:35:28 2010	Washington	26 -3 	Cloudy	33	30.38	10	10	NNW
Sat Jan 30 00:35:29 2010	San Francisco	56 13 	Mostly Cloudy	74	29.97	9	6	SSW
Sat Jan 30 00:35:30 2010	Oklahoma City	23 -5 	Snow	100	30.14	1	14	N
Sat Jan 30 00:35:31 2010	Nashville	26 -3 	Light Snow/Fog	88	30.15	1	12	NE
Sat Jan 30 00:35:32 2010	Fort Worth	33 1 	Cloudy	78	30.04	10	20	NW
Sat Jan 30 00:35:32 2010	Phoenix	62 17 	Partly Sunny	47	29.97	10	3	WNW
Sat Jan 30 00:35:33 2010	Portland	46 8 	Partly Sunny	76	29.96	10	16	E
Sat Jan 30 00:35:34 2010	Chicago	18 -8 		65	30.47	10	8	ENE
Sat Jan 30 00:35:35 2010	San Antonio	46 8 	Partly Sunny	55	30.03	10	15	NNW
Sat Jan 30 00:35:36 2010	Boston	17 -8 	Partly Cloudy	29	30.06	10	25	WNW
Sat Jan 30 00:35:36 2010	Indianapolis	18 -8 	Cloudy	73	30.33	10	9	ENE
Sat Jan 30 00:35:37 2010	Jacksonville	55 13 	Cloudy	77	30.07	10	6	NE
Sat Jan 30 00:35:38 2010	Columbus	16 -9 	Cloudy	51	30.43	10	6	NNE
Sat Jan 30 00:35:39 2010	Dallas	33 1 	Cloudy	84	30.06	10	16	NW
Sat Jan 30 00:35:39 2010	Houston	48 9 	Cloudy	73	29.97	10	14	NW
Sat Jan 30 00:35:40 2010	Seattle	56 13 	Mostly Cloudy	46	29.96	10	6	S
Sat Jan 30 00:35:41 2010	Milwaukee	11-Dec	Clear	44	30.43	10	7	NE
Sat Jan 30 00:35:42 2010	Detroit	18 -8 	Mostly Clear	43	30.46	10	3	NE
Sat Jan 30 00:35:43 2010	Philadelphia	22 -6 	Clear	40	30.33	10	10	WNW
Sat Jan 30 01:18:59 2010	San Jose	61 16 	Mostly Cloudy	54	29.97	10	12	SE
Sat Jan 30 01:19:00 2010	Charlotte	34 1 	Light Snow/Fog	86	30.25	1	8	ENE
Sat Jan 30 01:19:01 2010	Denver	41 5 	Mostly Sunny	29	30.03	10	0	CLM
Sat Jan 30 01:19:01 2010	San Diego	60 16 	Sunny	69	30.02	10	7	WSW
Sat Jan 30 01:19:02 2010	Memphis	31 -1 	Freezing Rain	85	29.99	3	17	NE
Sat Jan 30 01:19:03 2010	Los Angeles	64 18 	Sunny	39	29.98	10	8	S
Sat Jan 30 01:19:04 2010	El Paso	47 8 	Partly Sunny	53	30.06	10	3	N
Sat Jan 30 01:19:04 2010	New York	21 -6 	Clear	41	30.27	10	10	W
Sat Jan 30 01:19:05 2010	Baltimore	23 -5 	Cloudy	36	30.37	10	12	WNW
Sat Jan 30 01:19:06 2010	Las Vegas	56 13 		38	30	10	0	CLM
Sat Jan 30 01:19:07 2010	Washington	26 -3 	Cloudy	33	30.39	10	12	WNW
Sat Jan 30 01:19:08 2010	Austin	37 3 	Cloudy	64	30.08	10	24	NNW
Sat Jan 30 01:19:08 2010	San Francisco	56 13 		72	29.96	9	6	SSE
Sat Jan 30 01:19:09 2010	Oklahoma City	23 -5 	Light Fog	100	30.08	2	12	N
Sat Jan 30 01:19:10 2010	Nashville	26 -3 	Light Snow/Fog	88	30.11	1	13	NE
Sat Jan 30 01:19:11 2010	Fort Worth	33 1 	Cloudy	75	30.07	10	16	NW
Sat Jan 30 01:19:12 2010	Phoenix	63 17 	Sunny	42	29.97	10	0	CLM
Sat Jan 30 01:19:12 2010	Portland	47 8 	Cloudy	70	29.96	10	21	E
Sat Jan 30 01:19:13 2010	Chicago	18 -8 	Light Snow	65	30.47	9	5	N
Sat Jan 30 01:19:14 2010	San Antonio	44 7 	Partly Sunny	53	30.05	10	17	NW
Sat Jan 30 01:19:15 2010	Indianapolis	18 -8 	Cloudy	73	30.34	10	8	ENE
Sat Jan 30 01:19:16 2010	Boston	16 -9 	Partly Cloudy	29	30.07	10	25	WNW
Sat Jan 30 01:19:16 2010	Jacksonville	54 12 	Cloudy	82	30.06	10	9	NE
Sat Jan 30 01:19:17 2010	Columbus	16 -9 	Cloudy	51	30.43	10	7	NE
Sat Jan 30 01:19:18 2010	Dallas	33 1 	Cloudy	78	30.08	10	20	NW
Sat Jan 30 01:19:19 2010	Houston	46 8 	Cloudy	76	29.98	10	21	NW
Sat Jan 30 01:19:20 2010	Milwaukee	11-Dec	Clear	48	30.43	10	5	NE
Sat Jan 30 01:19:20 2010	Seattle	54 12 	Sunny	48	29.97	10	5	ESE
Sat Jan 30 01:19:21 2010	Detroit	18 -8 	Mostly Clear	45	30.45	10	3	NNE
Sat Jan 30 01:19:22 2010	Philadelphia	22 -6 	Clear	41	30.33	10	9	NW
Sat Jan 30 02:03:31 2010	Charlotte	34 1 	Light Snow/Fog	86	30.25	1	8	ENE
Sat Jan 30 02:03:31 2010	San Jose	61 16 	Mostly Cloudy	54	29.97	10	12	SE
Sat Jan 30 02:03:32 2010	San Diego	60 16 	Cloudy	69	30.02	10	7	WSW
Sat Jan 30 02:03:33 2010	Denver	41 5 	Mostly Sunny	29	30.03	10	0	CLM
Sat Jan 30 02:03:34 2010	Memphis	31 -1 	Freezing Rain	85	29.99	3	17	NE
Sat Jan 30 02:03:35 2010	El Paso	47 8 	Partly Sunny	53	30.06	10	3	N
Sat Jan 30 02:03:35 2010	Los Angeles	64 18 	Mostly Sunny	39	29.98	10	8	S
Sat Jan 30 02:03:36 2010	New York	21 -6 	Mostly Clear	41	30.27	10	10	W
Sat Jan 30 02:03:37 2010	Baltimore	23 -5 	Cloudy	36	30.37	10	12	WNW
Sat Jan 30 02:03:38 2010	Las Vegas	56 13 		38	30	10	0	CLM
Sat Jan 30 02:03:38 2010	Washington	26 -3 	Cloudy	33	30.39	10	12	WNW
Sat Jan 30 02:03:39 2010	Austin	37 3 	Cloudy	69	30.1	10	17	NNW
Sat Jan 30 02:03:40 2010	San Francisco	55 13 		79	29.98	8	6	S
Sat Jan 30 02:03:41 2010	Oklahoma City	23 -5 	Cloudy	100	30.07	5	14	N
Sat Jan 30 02:03:42 2010	Fort Worth	33 1 	Cloudy	75	30.07	10	16	NW
Sat Jan 30 02:03:42 2010	Nashville	27 -3 	Light Snow/Fog	86	30.09	1	15	NE
Sat Jan 30 02:03:43 2010	Phoenix	63 17 	Sunny	42	29.97	10	3	CLM
Sat Jan 30 02:03:44 2010	Portland	47 8 	Cloudy	70	29.96	10	21	E
Sat Jan 30 02:03:45 2010	Chicago	18 -8 	Light Snow	65	30.47	9	5	N
Sat Jan 30 02:03:45 2010	San Antonio	44 7 	Partly Sunny	53	30.05	10	17	NW
Sat Jan 30 02:03:46 2010	Indianapolis	18 -8 	Cloudy	73	30.34	10	8	ENE
Sat Jan 30 02:03:47 2010	Boston	16 -9 	Partly Cloudy	29	30.07	10	25	WNW
Sat Jan 30 02:03:48 2010	Jacksonville	54 12 	Cloudy	82	30.06	10	9	NE
Sat Jan 30 02:03:49 2010	Columbus	16 -9 	Cloudy	51	30.43	10	7	NE
Sat Jan 30 02:03:49 2010	Dallas	33 1 	Cloudy	78	30.08	10	20	NW
Sat Jan 30 02:03:50 2010	Houston	46 8 	Cloudy	76	29.98	10	21	NW
Sat Jan 30 02:03:51 2010	Seattle	54 12 	Cloudy	48	29.97	10	5	ESE
Sat Jan 30 02:03:52 2010	Milwaukee	11-Dec	Clear	48	30.43	10	5	NE
Sat Jan 30 02:03:53 2010	Detroit	18 -8 	Mostly Clear	45	30.45	10	3	NNE
Sat Jan 30 02:03:53 2010	Philadelphia	22 -6 	Cloudy	41	30.33	10	9	NW
Sat Jan 30 02:47:19 2010	San Jose	55 13 	Rain	71	29.96	15	10	SW
Sat Jan 30 02:47:20 2010	Charlotte	32 0 	Light Snow	91	30.25	2	6	NE
Sat Jan 30 02:47:21 2010	Denver	38 3 	Mostly Clear	32	30.05	10	0	CLM
Sat Jan 30 02:47:21 2010	San Diego	59 15 	Sunny	69	30.02	9	0	CLM
Sat Jan 30 02:47:22 2010	Memphis	30 -1 	Light Snow	89	29.95	4	14	NE
Sat Jan 30 02:47:23 2010	Los Angeles	62 17 	Sunny	47	29.98	10	7	SSW
Sat Jan 30 02:47:24 2010	El Paso	44 7 	Partly Cloudy	62	30.07	10	7	WSW
Sat Jan 30 02:47:24 2010	New York	20 -7 	Clear	41	30.28	10	10	W
Sat Jan 30 02:47:25 2010	Baltimore	22 -6 	Cloudy	40	30.37	10	6	NW
Sat Jan 30 02:47:26 2010	Las Vegas	54 12 		41	30	10	0	CLM
Sat Jan 30 02:47:27 2010	Washington	25 -4 	Cloudy	35	30.39	10	14	NNW
Sat Jan 30 02:47:28 2010	Austin	36 2 	Cloudy	69	30.1	10	25	NNW
Sat Jan 30 02:47:28 2010	San Francisco	52 11 		87	29.98	7	5	SSE
Sat Jan 30 02:47:29 2010	Oklahoma City	24 -4 	Light Snow	94	30.09	5	9	N
Sat Jan 30 02:47:30 2010	Nashville	27 -3 	Snow	92	30.08	1	10	NNE
Sat Jan 30 02:47:31 2010	Fort Worth	32 0 	Cloudy	72	30.08	10	21	NW
Sat Jan 30 02:47:32 2010	Phoenix	62 17 	Clear	43	29.98	10	0	CLM
Sat Jan 30 02:47:32 2010	Portland	45 7 	Light Rain	79	29.97	10	16	E
Sat Jan 30 02:47:33 2010	Chicago	19 -7 	Light Snow	67	30.45	9	7	NNE
Sat Jan 30 02:47:34 2010	San Antonio	41 5 	Mostly Clear	62	30.06	10	15	NNW
Sat Jan 30 02:47:35 2010	Boston	15 -9 	Clear	29	30.07	10	22	WNW
Sat Jan 30 02:47:35 2010	Indianapolis	18 -8 	Cloudy	73	30.32	10	8	ENE
Sat Jan 30 02:47:36 2010	Jacksonville	55 13 	Cloudy	79	30.05	10	7	NNE
Sat Jan 30 02:47:37 2010	Columbus	15 -9 	Cloudy	55	30.43	10	5	NE
Sat Jan 30 02:47:38 2010	Dallas	32 0 	Cloudy	75	30.09	10	23	NW
Sat Jan 30 02:47:39 2010	Houston	44 7 	Cloudy	73	30	10	17	NW
Sat Jan 30 02:47:39 2010	Seattle	53 12 	Cloudy	52	29.97	10	6	ESE
Sat Jan 30 02:47:40 2010	Milwaukee	12-Oct	Clear	56	30.42	10	5	NNE
Sat Jan 30 02:47:41 2010	Detroit	15 -9 	Mostly Clear	64	30.47	10	3	SSW
Sat Jan 30 02:47:42 2010	Philadelphia	21 -6 	Mostly Clear	43	30.34	10	10	WNW
Sat Jan 30 03:31:11 2010	San Jose	57 14 	Cloudy	58	29.98	10	0	CLM
Sat Jan 30 03:31:12 2010	Charlotte	32 0 	Light Snow/Fog	92	30.23	3	7	NE
Sat Jan 30 03:31:13 2010	San Diego	58 14 	Clear	69	30.03	8	0	CLM
Sat Jan 30 03:31:14 2010	Denver	37 3 	Mostly Clear	32	30.08	10	0	CLM
Sat Jan 30 03:31:15 2010	Los Angeles	58 14 	Clear	59	29.99	10	5	S
Sat Jan 30 03:31:15 2010	Memphis	30 -1 	Freezing Rain	88	29.94	3	16	NE
Sat Jan 30 03:31:16 2010	El Paso	44 7 	Clear	62	30.09	10	5	W
Sat Jan 30 03:31:17 2010	New York	19 -7 	Clear	47	30.29	10	5	N
Sat Jan 30 03:31:18 2010	Baltimore	22 -6 	Cloudy	40	30.38	10	8	NW
Sat Jan 30 03:31:19 2010	Las Vegas	54 12 		43	30.01	10	0	CLM
Sat Jan 30 03:31:19 2010	Washington	25 -4 	Cloudy	35	30.39	10	15	N
Sat Jan 30 03:31:20 2010	Austin	36 2 	Cloudy	69	30.12	10	23	NNW
Sat Jan 30 03:31:21 2010	San Francisco	52 11 		88	29.97	8	5	SSE
Sat Jan 30 03:31:22 2010	Oklahoma City	22 -6 	Light Snow	100	30.11	5	7	NNW
Sat Jan 30 03:31:23 2010	Fort Worth	31 -1 	Cloudy	75	30.08	10	24	NW
Sat Jan 30 03:31:23 2010	Nashville	26 -3 	Light Snow/Fog	92	30.08	1	10	NE
Sat Jan 30 03:31:24 2010	Phoenix	59 15 	Clear	57	29.99	10	0	CLM
Sat Jan 30 03:31:25 2010	Portland	45 7 	Light Rain	79	29.98	10	15	E
Sat Jan 30 03:31:26 2010	Chicago	20 -7 	Light Snow	67	30.43	8	6	N
Sat Jan 30 03:31:27 2010	Indianapolis	18 -8 	Cloudy	73	30.32	10	8	ENE
Sat Jan 30 03:31:27 2010	San Antonio	40 4 	Mostly Clear	62	30.09	10	12	NNW
Sat Jan 30 03:31:28 2010	Boston	14 -10 	Clear	30	30.09	10	23	WNW
Sat Jan 30 03:31:29 2010	Jacksonville	55 13 	Cloudy	83	30.05	10	8	NE
Sat Jan 30 03:31:30 2010	Columbus	15 -9 	Cloudy	58	30.4	10	6	NE
Sat Jan 30 03:31:30 2010	Dallas	32 0 	Cloudy	75	30.1	10	17	NW
Sat Jan 30 03:31:31 2010	Houston	42 6 	Cloudy	72	30.03	10	14	WNW
Sat Jan 30 03:31:32 2010	Seattle	52 11 	Cloudy	56	29.97	10	7	ESE
Sat Jan 30 03:31:33 2010	Milwaukee	12-Oct	Partly Cloudy	61	30.39	10	5	N
Sat Jan 30 03:31:34 2010	Detroit	15 -9 	Mostly Clear	64	30.45	10	3	ESE
Sat Jan 30 03:31:34 2010	Philadelphia	20 -7 	Clear	45	30.34	10	7	WNW
Sat Jan 30 04:14:50 2010	San Jose	57 14 	Cloudy	58	29.98	10	0	CLM
Sat Jan 30 04:14:51 2010	Charlotte	32 0 	Light Snow/Fog	93	30.2	3	8	ENE
Sat Jan 30 04:14:52 2010	San Diego	58 14 	Cloudy	69	30.03	8	0	CLM
Sat Jan 30 04:14:53 2010	Denver	37 3 	Mostly Clear	32	30.08	10	0	CLM
Sat Jan 30 04:14:54 2010	Los Angeles	58 14 	Clear	59	29.99	10	5	S
Sat Jan 30 04:14:54 2010	Memphis	30 -1 	Light Snow	88	29.94	3	15	NE
Sat Jan 30 04:14:55 2010	El Paso	44 7 	Clear	62	30.09	10	5	W
Sat Jan 30 04:14:56 2010	New York	19 -7 	Clear	47	30.29	10	5	N
Sat Jan 30 04:14:57 2010	Baltimore	22 -6 	Cloudy	40	30.38	10	8	NW
Sat Jan 30 04:14:58 2010	Las Vegas	54 12 		43	30.01	10	0	CLM
Sat Jan 30 04:14:58 2010	Washington	25 -4 	Cloudy	35	30.39	10	15	N
Sat Jan 30 04:14:59 2010	Austin	36 2 	Cloudy	69	30.12	10	21	NNW
Sat Jan 30 04:15:00 2010	San Francisco	52 11 	Cloudy	91	29.97	6	6	NNE
Sat Jan 30 04:15:01 2010	Nashville	27 -3 	Light Snow/Fog	86	30.04	1	14	NE
Sat Jan 30 04:15:01 2010	Oklahoma City	23 -5 	Cloudy	100	30.11	7	9	N
Sat Jan 30 04:15:02 2010	Fort Worth	30 -1 	Cloudy	80	30.08	10	16	NNW
Sat Jan 30 04:15:03 2010	Phoenix	59 15 	Mostly Clear	57	29.99	10	0	CLM
Sat Jan 30 04:15:04 2010	Portland	45 7 	Light Rain	79	29.98	10	15	E
Sat Jan 30 04:15:05 2010	Chicago	19 -7 	Light Snow	73	30.36	3	5	NNW
Sat Jan 30 04:15:05 2010	San Antonio	40 4 	Mostly Clear	62	30.09	10	12	NNW
Sat Jan 30 04:15:06 2010	Indianapolis	18 -8 	Cloudy	73	30.29	10	9	ENE
Sat Jan 30 04:15:07 2010	Boston	14 -10 	Clear	30	30.09	10	23	WNW
Sat Jan 30 04:15:08 2010	Jacksonville	55 13 	Cloudy	83	30.05	10	8	NE
Sat Jan 30 04:15:09 2010	Columbus	15 -9 	Cloudy	58	30.4	10	6	NE
Sat Jan 30 04:15:09 2010	Dallas	32 0 	Cloudy	75	30.1	10	17	NW
Sat Jan 30 04:15:10 2010	Houston	42 6 	Cloudy	72	30.03	10	14	WNW
Sat Jan 30 04:15:11 2010	Seattle	52 11 	Cloudy	56	29.97	10	7	ESE
Sat Jan 30 04:15:12 2010	Milwaukee	12-Oct	Cloudy	61	30.38	10	5	N
Sat Jan 30 04:15:13 2010	Detroit	15 -9 	Mostly Clear	64	30.45	10	3	ESE
Sat Jan 30 04:15:13 2010	Philadelphia	20 -7 	Mostly Clear	45	30.34	10	7	WNW
Sat Jan 30 04:58:43 2010	San Jose	52 11 	Rain	93	30	4	8	NNE
Sat Jan 30 04:58:44 2010	Charlotte	32 0 	Light Snow/Fog	86	30.17	2	9	ENE
Sat Jan 30 04:58:45 2010	San Diego	57 14 	Cloudy	71	30.03	10	0	CLM
Sat Jan 30 04:58:46 2010	Denver	30 -1 	Mostly Clear	51	30.11	10	3	SSE
Sat Jan 30 04:58:47 2010	Los Angeles	57 14 	Clear	66	30	10	6	E
Sat Jan 30 04:58:47 2010	Memphis	30 -1 	Freezing Drizzle	88	29.94	3	16	NE
Sat Jan 30 04:58:48 2010	El Paso	41 5 	Clear	67	30.11	10	8	NE
Sat Jan 30 04:58:49 2010	New York	18 -8 	Clear	45	30.3	10	9	WNW
Sat Jan 30 04:58:50 2010	Baltimore	22 -6 	Cloudy	40	30.38	10	5	NW
Sat Jan 30 04:58:51 2010	Las Vegas	51 11 		51	30.02	10	0	CLM
Sat Jan 30 04:58:51 2010	Washington	24 -4 	Cloudy	34	30.39	10	17	NNW
Sat Jan 30 04:58:52 2010	Austin	32 0 	Partly Cloudy	80	30.13	10	16	N
Sat Jan 30 04:58:53 2010	San Francisco	51 11 		91	29.98	8	4	SE
Sat Jan 30 04:58:54 2010	Nashville	26 -3 	Light Snow/Fog	92	30.06	1	10	NE
Sat Jan 30 04:58:54 2010	Oklahoma City	22 -6 	Cloudy	80	30.12	7	7	NNW
Sat Jan 30 04:58:55 2010	Fort Worth	31 -1 	Light Snow	78	30.09	7	17	NW
Sat Jan 30 04:58:56 2010	Phoenix	56 13 	Mostly Clear	66	29.99	10	0	CLM
Sat Jan 30 04:58:57 2010	Portland	45 7 	Light Rain	79	29.98	10	21	E
Sat Jan 30 04:58:58 2010	Chicago	19 -7 	Light Snow	79	30.34	6	12	SE
Sat Jan 30 04:58:58 2010	San Antonio	38 3 	Mostly Clear	64	30.09	10	9	NNW
Sat Jan 30 04:58:59 2010	Indianapolis	18 -8 	Cloudy	73	30.29	10	10	E
Sat Jan 30 04:59:00 2010	Boston	13 -11 	Clear	32	30.09	10	22	WNW
Sat Jan 30 04:59:01 2010	Jacksonville	55 13 	Mostly Cloudy	83	30.03	10	7	NE
Sat Jan 30 04:59:02 2010	Columbus	15 -9 	Cloudy	58	30.38	10	7	NE
Sat Jan 30 04:59:02 2010	Dallas	31 -1 	Cloudy	75	30.11	10	15	NW
Sat Jan 30 04:59:03 2010	Houston	40 4 	Cloudy	73	30.06	10	18	NW
Sat Jan 30 04:59:04 2010	Seattle	50 10 	Cloudy	63	29.98	10	0	CLM
Sat Jan 30 04:59:05 2010	Milwaukee	12-Oct	Cloudy	52	30.38	10	3	NNW
Sat Jan 30 04:59:06 2010	Detroit	15 -9 	Mostly Clear	67	30.45	10	0	CLM
Sat Jan 30 04:59:06 2010	Philadelphia	20 -7 	Cloudy	47	30.35	10	7	WNW
Sat Jan 30 05:42:22 2010	San Jose	52 11 	Cloudy	87	29.98	7	12	ESE
Sat Jan 30 05:42:23 2010	Charlotte	32 0 	Light Snow	86	30.18	2	6	NE
Sat Jan 30 05:42:23 2010	San Diego	57 14 	Clear	68	30.03	9	0	CLM
Sat Jan 30 05:42:24 2010	Denver	31 -1 	Mostly Clear	47	30.09	10	5	SSE
Sat Jan 30 05:42:25 2010	Memphis	30 -1 	Light Freezing Drizzle	85	29.94	5	12	NE
Sat Jan 30 05:42:26 2010	Los Angeles	55 13 	Clear	74	30	10	0	CLM
Sat Jan 30 05:42:27 2010	El Paso	38 3 	Clear	72	30.11	10	3	NE
Sat Jan 30 05:42:27 2010	New York	17 -8 	Mostly Clear	46	30.29	10	10	WNW
Sat Jan 30 05:42:28 2010	Baltimore	21 -6 	Cloudy	41	30.38	10	8	NNW
Sat Jan 30 05:42:29 2010	Las Vegas	50 10 		56	30.02	10	3	WSW
Sat Jan 30 05:42:30 2010	Washington	23 -5 	Cloudy	38	30.4	10	12	NNW
Sat Jan 30 05:42:31 2010	Austin	32 0 	Partly Cloudy	80	30.14	10	15	NNW
Sat Jan 30 05:42:31 2010	San Francisco	51 11 	Mostly Cloudy	91	29.98	5	5	SW
Sat Jan 30 05:42:32 2010	Oklahoma City	22 -6 	Cloudy	87	30.12	7	8	N
Sat Jan 30 05:42:33 2010	Nashville	26 -3 	Light Snow/Fog	92	30	1	10	NE
Sat Jan 30 05:42:34 2010	Fort Worth	30 -1 	Cloudy	74	30.11	10	16	NW
Sat Jan 30 05:42:35 2010	Phoenix	54 12 	Clear	74	30	10	0	CLM
Sat Jan 30 05:42:35 2010	Portland	45 7 	Cloudy	79	29.97	10	21	E
Sat Jan 30 05:42:36 2010	Chicago	19 -7 	Light Snow	76	30.41	10	10	SE
Sat Jan 30 05:42:37 2010	San Antonio	37 3 	Clear	66	30.11	10	7	NNW
Sat Jan 30 05:42:38 2010	Boston	11-Dec	Clear	33	30.11	10	18	W
Sat Jan 30 05:42:38 2010	Indianapolis	16 -9 	Cloudy	79	30.27	10	13	ENE
Sat Jan 30 05:42:39 2010	Jacksonville	56 13 	Cloudy	83	30.03	10	7	NE
Sat Jan 30 05:42:40 2010	Columbus	15 -9 	Cloudy	58	30.37	10	8	E
Sat Jan 30 05:42:41 2010	Dallas	31 -1 	Cloudy	78	30.12	10	16	NW
Sat Jan 30 05:42:42 2010	Houston	40 4 	Cloudy	70	30.08	10	17	NW
Sat Jan 30 05:42:42 2010	Seattle	50 10 	Cloudy	63	29.97	10	6	ESE
Sat Jan 30 05:42:43 2010	Milwaukee	11-Dec	Cloudy	56	30.37	10	3	NNW
Sat Jan 30 05:42:44 2010	Detroit	15 -9 	Mostly Clear	61	30.43	10	5	E
Sat Jan 30 05:42:45 2010	Philadelphia	20 -7 	Clear	47	30.35	10	8	NW
Sat Jan 30 06:28:00 2010	San Jose	52 11 	Mostly Cloudy	93	30	7	9	S
Sat Jan 30 06:28:01 2010	Charlotte	31 -1 	Light Snow	92	30.15	2	8	ENE
Sat Jan 30 06:28:02 2010	Denver	26 -3 	Clear	60	30.09	10	5	S
Sat Jan 30 06:28:02 2010	San Diego	54 12 	Clear	71	30.03	9	0	CLM
Sat Jan 30 06:28:03 2010	Memphis	29 -2 	Light Freezing Drizzle	88	29.95	6	12	N
Sat Jan 30 06:28:04 2010	Los Angeles	52 11 	Clear	80	30.01	8	0	CLM
Sat Jan 30 06:28:05 2010	El Paso	38 3 	Clear	75	30.1	10	6	N
Sat Jan 30 06:28:06 2010	Baltimore	21 -6 	Cloudy	43	30.39	10	7	WNW
Sat Jan 30 06:28:06 2010	New York	16 -9 	Clear	44	30.29	10	5	N
Sat Jan 30 06:28:07 2010	Las Vegas	48 9 		65	30.02	10	5	W
Sat Jan 30 06:28:08 2010	Washington	23 -5 	Cloudy	38	30.39	10	12	NNW
Sat Jan 30 06:28:09 2010	Austin	32 0 	Clear	74	30.14	10	14	NNW
Sat Jan 30 06:28:09 2010	San Francisco	51 11 	Cloudy	92	30	5	4	SW
Sat Jan 30 06:28:10 2010	Oklahoma City	22 -6 	Cloudy	87	30.12	7	9	N
Sat Jan 30 06:28:11 2010	Nashville	27 -3 		92	29.98	1	12	NNE
Sat Jan 30 06:28:12 2010	Fort Worth	30 -1 	Cloudy	74	30.11	10	20	NW
Sat Jan 30 06:28:13 2010	Phoenix	54 12 	Clear	66	30	10	6	ENE
Sat Jan 30 06:28:13 2010	Portland	45 7 	Light Rain	76	29.97	10	16	E
Sat Jan 30 06:28:14 2010	Chicago	19 -7 	Light Snow	67	30.4	9	8	SE
Sat Jan 30 06:28:15 2010	San Antonio	35 2 	Clear	69	30.13	10	6	NNW
Sat Jan 30 06:28:16 2010	Indianapolis	16 -9 	Cloudy	73	30.27	10	13	ENE
Sat Jan 30 06:28:17 2010	Boston	12-Nov	Clear	36	30.11	10	17	WNW
Sat Jan 30 06:28:17 2010	Jacksonville	56 13 	Mostly Cloudy	83	30.02	10	9	NNE
Sat Jan 30 06:28:18 2010	Columbus	15 -9 	Cloudy	58	30.36	10	8	ENE
Sat Jan 30 06:28:19 2010	Dallas	30 -1 	Cloudy	78	30.13	10	14	NNW
Sat Jan 30 06:28:20 2010	Houston	40 4 	Cloudy	67	30.08	10	18	NW
Sat Jan 30 06:28:20 2010	Seattle	48 9 	Light Rain	73	29.98	10	3	S
Sat Jan 30 06:28:21 2010	Milwaukee	11-Dec	Cloudy	52	30.36	10	6	NNW
Sat Jan 30 06:28:22 2010	Detroit	16 -9 	Mostly Cloudy	62	30.38	10	5	E
Sat Jan 30 06:28:23 2010	Philadelphia	20 -7 	Clear	41	30.34	10	10	NNW
Sat Jan 30 07:11:36 2010	San Jose	52 11 	Mostly Cloudy	93	30	7	9	S
Sat Jan 30 07:11:37 2010	Charlotte	31 -1 	Light Snow	92	30.15	2	8	ENE
Sat Jan 30 07:11:38 2010	San Diego	54 12 	Clear	71	30.03	9	0	CLM
Sat Jan 30 07:11:39 2010	Denver	26 -3 	Clear	60	30.09	10	5	S
Sat Jan 30 07:11:39 2010	Memphis	29 -2 	Light Freezing Drizzle	88	29.95	6	12	N
Sat Jan 30 07:11:40 2010	Los Angeles	52 11 	Clear	80	30.01	8	0	CLM
Sat Jan 30 07:11:41 2010	El Paso	38 3 	Clear	75	30.1	10	6	N
Sat Jan 30 07:11:42 2010	New York	16 -9 		44	30.29	10	5	N
Sat Jan 30 07:11:43 2010	Baltimore	21 -6 	Cloudy	43	30.39	10	7	WNW
Sat Jan 30 07:11:44 2010	Las Vegas	48 9 		65	30.02	10	5	W
Sat Jan 30 07:11:44 2010	Washington	23 -5 	Cloudy	38	30.39	10	12	NNW
Sat Jan 30 07:11:45 2010	Austin	32 0 	Clear	80	30.14	10	10	N
Sat Jan 30 07:11:46 2010	San Francisco	51 11 	Cloudy	92	30.01	9	4	SSW
Sat Jan 30 07:11:47 2010	Nashville	27 -3 		92	29.98	1	12	NNE
Sat Jan 30 07:11:47 2010	Oklahoma City	21 -6 	Cloudy	92	30.12	7	9	N
Sat Jan 30 07:11:48 2010	Fort Worth	30 -1 	Cloudy	74	30.11	10	20	NW
Sat Jan 30 07:11:49 2010	Phoenix	54 12 		66	30	10	6	ENE
Sat Jan 30 07:11:50 2010	Portland	45 7 	Light Rain	76	29.97	10	16	E
Sat Jan 30 07:11:51 2010	Chicago	19 -7 	Light Snow	67	30.4	9	8	SE
Sat Jan 30 07:11:51 2010	San Antonio	35 2 	Clear	69	30.13	10	6	NNW
Sat Jan 30 07:11:52 2010	Indianapolis	16 -9 	Cloudy	79	30.25	10	10	ENE
Sat Jan 30 07:11:53 2010	Boston	12-Nov	Clear	36	30.11	10	17	WNW
Sat Jan 30 07:11:54 2010	Jacksonville	56 13 	Cloudy	83	30.02	10	9	NNE
Sat Jan 30 07:11:55 2010	Columbus	15 -9 	Cloudy	58	30.36	10	8	ENE
Sat Jan 30 07:11:55 2010	Dallas	30 -1 	Cloudy	78	30.13	10	14	NNW
Sat Jan 30 07:11:56 2010	Houston	40 4 	Cloudy	67	30.08	10	18	NW
Sat Jan 30 07:11:57 2010	Seattle	48 9 	Light Rain	73	29.98	10	3	S
Sat Jan 30 07:11:58 2010	Milwaukee	11-Dec	Light Snow	56	30.36	10	6	NNW
Sat Jan 30 07:11:59 2010	Detroit	16 -9 	Mostly Cloudy	62	30.38	10	5	E
Sat Jan 30 07:11:59 2010	Philadelphia	20 -7 	Cloudy	41	30.34	10	10	NNW
Sat Jan 30 07:54:45 2010	San Jose	52 11 	Cloudy	87	30	7	7	ENE
Sat Jan 30 07:54:46 2010	Charlotte	31 -1 	Light Snow/Fog	88	30.12	2	9	ENE
Sat Jan 30 07:54:47 2010	Denver	30 -1 	Partly Cloudy	48	30.08	9	6	SW
Sat Jan 30 07:54:47 2010	San Diego	53 12 	Clear	76	30.04	7	0	CLM
Sat Jan 30 07:54:48 2010	Memphis	29 -2 	Light Freezing Drizzle	85	29.95	7	10	N
Sat Jan 30 07:54:49 2010	Los Angeles	50 10 	Clear	79	30.01	8	3	N
Sat Jan 30 07:54:50 2010	El Paso	37 3 	Clear	75	30.1	10	6	N
Sat Jan 30 07:54:51 2010	Baltimore	21 -6 	Cloudy	41	30.38	10	7	N
Sat Jan 30 07:54:51 2010	New York	16 -9 	Clear	44	30.29	10	8	W
Sat Jan 30 07:54:52 2010	Las Vegas	49 9 		60	30.01	10	0	CLM
Sat Jan 30 07:54:53 2010	Washington	22 -6 	Cloudy	40	30.38	10	14	NW
Sat Jan 30 07:54:54 2010	Austin	32 0 	Clear	80	30.14	10	14	NNW
Sat Jan 30 07:54:55 2010	Oklahoma City	22 -6 	Cloudy	87	30.15	7	9	N
Sat Jan 30 07:54:55 2010	San Francisco	51 11 	Cloudy	91	30.01	9	4	S
Sat Jan 30 07:54:56 2010	Nashville	26 -3 	Sleet	92	29.98	3	13	NNE
Sat Jan 30 07:54:57 2010	Fort Worth	30 -1 	Cloudy	74	30.12	10	16	NW
Sat Jan 30 07:54:58 2010	Phoenix	53 12 	Clear	71	30	10	3	CLM
Sat Jan 30 07:54:59 2010	Chicago	19 -7 	Light Snow	67	30.39	9	7	ESE
Sat Jan 30 07:54:59 2010	Portland	45 7 	Cloudy	76	29.97	10	16	E
Sat Jan 30 07:55:00 2010	San Antonio	34 1 	Clear	72	30.14	10	7	NNW
Sat Jan 30 07:55:01 2010	Indianapolis	16 -9 	Cloudy	79	30.23	10	12	ENE
Sat Jan 30 07:55:02 2010	Boston	13-Sep	Mostly Clear	38	30.12	10	20	WNW
Sat Jan 30 07:55:02 2010	Jacksonville	56 13 	Cloudy	83	30	10	12	NNE
Sat Jan 30 07:55:03 2010	Columbus	15 -9 	Cloudy	58	30.33	10	8	ENE
Sat Jan 30 07:55:04 2010	Dallas	30 -1 	Cloudy	74	30.14	10	18	NNW
Sat Jan 30 07:55:05 2010	Houston	39 4 	Cloudy	69	30.09	10	16	NW
Sat Jan 30 07:55:06 2010	Milwaukee	11-Dec	Light Snow	56	30.36	10	8	NW
Sat Jan 30 07:55:06 2010	Seattle	47 8 	Light Rain	76	29.99	10	5	S
Sat Jan 30 07:55:07 2010	Detroit	14 -10 	Partly Cloudy	67	30.42	10	3	ESE
Sat Jan 30 07:55:08 2010	Philadelphia	19 -7 	Clear	43	30.35	10	9	NW
Sat Jan 30 08:37:41 2010	San Jose	52 11 	Cloudy	86	30	7	7	ENE
Sat Jan 30 08:37:42 2010	Charlotte	30 -1 	Light Snow/Fog	86	30.08	2	13	ENE
Sat Jan 30 08:37:43 2010	San Diego	51 11 	Clear	79	30.03	6	0	CLM
Sat Jan 30 08:37:44 2010	Denver	25 -4 	Partly Cloudy	62	30.08	10	3	SW
Sat Jan 30 08:37:44 2010	Memphis	28 -2 	Light Snow/Fog	86	29.95	6	14	N
Sat Jan 30 08:37:45 2010	Los Angeles	50 10 	Clear	79	30	9	0	CLM
Sat Jan 30 08:37:46 2010	El Paso	36 2 	Partly Cloudy	78	30.1	10	0	CLM
Sat Jan 30 08:37:47 2010	New York	16 -9 	Clear	47	30.31	10	7	N
Sat Jan 30 08:37:48 2010	Baltimore	21 -6 	Cloudy	43	30.36	10	6	NNW
Sat Jan 30 08:37:48 2010	Las Vegas	47 8 		68	30	10	3	SW
Sat Jan 30 08:37:49 2010	Washington	22 -6 	Cloudy	41	30.36	10	8	NNW
Sat Jan 30 08:37:50 2010	Austin	32 0 	Mostly Cloudy	74	30.13	10	15	NNW
Sat Jan 30 08:37:51 2010	San Francisco	51 11 	Cloudy	92	30.01	9	4	S
Sat Jan 30 08:37:52 2010	Nashville	26 -3 	Light Snow/Fog	92	29.97	3	9	NE
Sat Jan 30 08:37:52 2010	Oklahoma City	21 -6 	Cloudy	90	30.14	7	8	N
Sat Jan 30 08:37:53 2010	Fort Worth	29 -2 	Cloudy	74	30.12	10	21	NNW
Sat Jan 30 08:37:54 2010	Phoenix	52 11 	Clear	71	29.98	10	8	ENE
Sat Jan 30 08:37:55 2010	Chicago	18 -8 	Light Snow	65	30.38	9	10	ESE
Sat Jan 30 08:37:55 2010	Portland	44 7 	Light Rain	78	29.97	10	16	E
Sat Jan 30 08:37:56 2010	San Antonio	34 1 	Clear	66	30.11	10	12	N
Sat Jan 30 08:37:57 2010	Indianapolis	16 -9 	Cloudy	73	30.22	10	12	ENE
Sat Jan 30 08:37:58 2010	Boston	13-Aug	Mostly Clear	41	30.15	10	15	WNW
Sat Jan 30 08:37:59 2010	Columbus	15 -9 	Cloudy	58	30.32	10	13	ENE
Sat Jan 30 08:37:59 2010	Jacksonville	56 13 	Cloudy	83	29.98	7	10	NNE
Sat Jan 30 08:38:00 2010	Dallas	29 -2 	Cloudy	78	30.14	10	16	NW
Sat Jan 30 08:38:01 2010	Houston	38 3 	Cloudy	69	30.08	10	16	NNW
Sat Jan 30 08:38:02 2010	Seattle	47 8 	Light Rain	76	29.99	10	7	SSE
Sat Jan 30 08:38:03 2010	Detroit	13 -11 	Partly Cloudy	70	30.4	10	0	CLM
Sat Jan 30 08:38:03 2010	Milwaukee	11-Dec	Cloudy	56	30.34	10	8	N
Sat Jan 30 08:38:04 2010	Philadelphia	19 -7 	Clear	41	30.36	10	12	NNW
Sat Jan 30 11:24:02 2010	San Jose	48 9 	Mostly Cloudy	93	30.01	8	2	SSE
Sat Jan 30 11:24:03 2010	Charlotte	28 -2 		92	30	2	13	NE
Sat Jan 30 11:24:04 2010	San Diego	49 9 		83	30	3	0	CLM
Sat Jan 30 11:24:05 2010	Denver	23 -5 	Clear	62	30.05	10	6	SSW
Sat Jan 30 11:24:06 2010	Los Angeles	46 8 	Mostly Cloudy	85	29.99	7	3	W
Sat Jan 30 11:24:06 2010	Memphis	25 -4 	Cloudy	84	29.97	5	13	NNE
Sat Jan 30 11:24:07 2010	El Paso	31 -1 	Clear	88	30.09	10	3	NE
Sat Jan 30 11:24:08 2010	New York	15 -9 	Clear	46	30.29	10	12	WNW
Sat Jan 30 11:24:09 2010	Baltimore	20 -7 	Cloudy	45	30.3	10	7	N
Sat Jan 30 11:24:10 2010	Las Vegas	45 7 		68	29.98	10	5	WSW
Sat Jan 30 11:24:10 2010	Washington	22 -6 	Cloudy	41	30.31	10	8	N
Sat Jan 30 11:24:11 2010	Austin	32 0 	Cloudy	74	30.14	10	13	NNW
Sat Jan 30 11:24:12 2010	San Francisco	49 9 		93	30.02	9	3	SSW
Sat Jan 30 11:24:13 2010	Oklahoma City	20 -7 	Cloudy	85	30.14	8	12	N
Sat Jan 30 11:24:14 2010	Fort Worth	27 -3 	Cloudy	74	30.14	10	24	NNW
Sat Jan 30 11:24:14 2010	Nashville	25 -4 	Light Snow/Fog	92	29.92	3	12	N
Sat Jan 30 11:24:15 2010	Phoenix	52 11 	Clear	66	29.97	10	7	NNE
Sat Jan 30 11:24:16 2010	Portland	42 6 	Light Rain	88	29.98	10	16	E
Sat Jan 30 11:24:17 2010	Chicago	19 -7 	Cloudy	64	30.34	10	8	E
Sat Jan 30 11:24:18 2010	Indianapolis	16 -9 	Cloudy	73	30.18	10	12	ENE
Sat Jan 30 11:24:18 2010	San Antonio	32 0 	Clear	72	30.15	10	5	WNW
Sat Jan 30 11:24:19 2010	Boston	14-Jun	Clear	43	30.15	10	18	W
Sat Jan 30 11:24:20 2010	Jacksonville	56 13 	Cloudy	89	29.88	4	0	CLM
Sat Jan 30 11:24:21 2010	Columbus	15 -9 	Cloudy	58	30.23	10	13	ENE
Sat Jan 30 11:24:22 2010	Dallas	27 -3 	Cloudy	78	30.16	10	16	NNW
Sat Jan 30 11:24:22 2010	Houston	35 2 	Partly Cloudy	69	30.1	10	9	NW
Sat Jan 30 11:24:23 2010	Seattle	45 7 	Light Rain	89	29.97	10	6	SSE
Sat Jan 30 11:24:24 2010	Milwaukee	11-Dec	Cloudy	67	30.3	10	5	N
Sat Jan 30 11:24:25 2010	Detroit	11-Dec		73	30.33	10	6	NNE
Sat Jan 30 11:24:25 2010	Philadelphia	17 -8 	Clear	45	30.33	10	10	NNW
Sat Jan 30 12:08:09 2010	San Jose	47 8 		92	30.01	7	3	N
Sat Jan 30 12:08:10 2010	Charlotte	28 -2 		92	30	2	6	NE
Sat Jan 30 12:08:11 2010	San Diego	49 9 		83	30	3	0	CLM
Sat Jan 30 12:08:12 2010	Denver	23 -5 	Clear	62	30.05	10	6	SSW
Sat Jan 30 12:08:13 2010	Los Angeles	46 8 	Mostly Cloudy	85	29.99	7	3	W
Sat Jan 30 12:08:13 2010	Memphis	25 -4 	Cloudy	84	29.97	5	13	NNE
Sat Jan 30 12:08:14 2010	El Paso	31 -1 	Clear	88	30.09	10	3	NE
Sat Jan 30 12:08:15 2010	New York	15 -9 	Cloudy	46	30.29	10	12	WNW
Sat Jan 30 12:08:16 2010	Baltimore	20 -7 	Cloudy	45	30.3	10	7	N
Sat Jan 30 12:08:17 2010	Las Vegas	45 7 		68	29.98	10	5	WSW
Sat Jan 30 12:08:17 2010	Washington	22 -6 	Cloudy	41	30.31	10	8	N
Sat Jan 30 12:08:18 2010	Austin	32 0 	Cloudy	74	30.15	10	16	NNW
Sat Jan 30 12:08:19 2010	San Francisco	49 9 		94	30.02	9	3	SSW
Sat Jan 30 12:08:20 2010	Nashville	25 -4 	Light Snow/Fog	92	29.92	3	12	N
Sat Jan 30 12:08:20 2010	Oklahoma City	19 -7 	Cloudy	85	30.14	8	12	N
Sat Jan 30 12:08:21 2010	Fort Worth	27 -3 	Cloudy	74	30.14	10	24	NNW
Sat Jan 30 12:08:22 2010	Phoenix	52 11 	Cloudy	66	29.97	10	7	NNE
Sat Jan 30 12:08:23 2010	Portland	42 6 	Light Rain	88	29.98	10	16	E
Sat Jan 30 12:08:24 2010	Chicago	19 -7 	Cloudy	64	30.34	10	8	E
Sat Jan 30 12:08:24 2010	San Antonio	32 0 	Clear	72	30.15	10	5	WNW
Sat Jan 30 12:08:25 2010	Indianapolis	16 -9 	Cloudy	73	30.17	10	10	ENE
Sat Jan 30 12:08:26 2010	Boston	14-Jun	Clear	43	30.15	10	18	W
Sat Jan 30 12:08:27 2010	Jacksonville	56 13 	Cloudy	89	29.88	4	0	CLM
Sat Jan 30 12:08:28 2010	Columbus	15 -9 	Cloudy	58	30.23	10	13	ENE
Sat Jan 30 12:08:28 2010	Dallas	27 -3 	Cloudy	78	30.16	10	16	NNW
Sat Jan 30 12:08:29 2010	Houston	36 2 	Mostly Cloudy	69	30.09	10	12	NW
Sat Jan 30 12:08:30 2010	Seattle	45 7 	Light Rain	89	29.97	10	6	SSE
Sat Jan 30 12:08:31 2010	Detroit	11-Dec		73	30.33	10	6	NNE
Sat Jan 30 12:08:31 2010	Milwaukee	14 -10 	Cloudy	67	30.29	10	6	N
Sat Jan 30 12:08:32 2010	Philadelphia	17 -8 	Cloudy	45	30.33	10	10	NNW
Sat Jan 30 12:51:10 2010	San Jose	46 8 	Cloudy	92	30.01	8	2	SE
Sat Jan 30 12:51:11 2010	Charlotte	29 -2 		88	30.03	2	9	NNE
Sat Jan 30 12:51:11 2010	San Diego	46 8 	Light Fog	87	29.99	2	0	CLM
Sat Jan 30 12:51:12 2010	Denver	27 -3 	Partly Cloudy	53	30.04	10	6	SW
Sat Jan 30 12:51:13 2010	Memphis	25 -4 	Cloudy	84	29.98	7	9	N
Sat Jan 30 12:51:14 2010	Los Angeles	46 8 	Mostly Cloudy	87	30	9	3	W
Sat Jan 30 12:51:15 2010	El Paso	30 -1 	Clear	92	30.08	10	0	CLM
Sat Jan 30 12:51:15 2010	New York	15 -9 		44	30.29	10	9	W
Sat Jan 30 12:51:16 2010	Baltimore	20 -7 	Cloudy	45	30.3	10	6	N
Sat Jan 30 12:51:17 2010	Las Vegas	44 7 	Mostly Clear	70	29.97	10	3	W
Sat Jan 30 12:51:18 2010	Washington	22 -6 	Cloudy	41	30.3	10	12	NNE
Sat Jan 30 12:51:19 2010	Austin	32 0 	Cloudy	74	30.16	10	14	NNW
Sat Jan 30 12:51:19 2010	San Francisco	48 9 	Mostly Cloudy	94	30.02	9	3	S
Sat Jan 30 12:51:20 2010	Oklahoma City	19 -7 	Cloudy	87	30.16	8	13	N
Sat Jan 30 12:51:21 2010	Nashville	23 -5 	Light Snow/Fog	85	29.92	3	13	N
Sat Jan 30 12:51:22 2010	Fort Worth	27 -3 	Cloudy	71	30.15	10	20	N
Sat Jan 30 12:51:23 2010	Phoenix	53 12 	Clear	58	29.96	10	6	ENE
Sat Jan 30 12:51:23 2010	Portland	41 5 	Light Rain	92	29.98	10	17	E
Sat Jan 30 12:51:24 2010	Chicago	19 -7 	Cloudy	64	30.33	10	9	E
Sat Jan 30 12:51:25 2010	San Antonio	31 -1 	Partly Cloudy	75	30.15	10	6	NW
Sat Jan 30 12:51:26 2010	Boston	14-Jun	Mostly Clear	43	30.16	10	14	W
Sat Jan 30 12:51:26 2010	Indianapolis	14 -10 	Cloudy	78	30.16	10	9	NE
Sat Jan 30 12:51:27 2010	Jacksonville	58 14 	Cloudy	86	29.83	9	9	S
Sat Jan 30 12:51:28 2010	Columbus	16 -9 	Mostly Cloudy	56	30.22	10	9	ENE
Sat Jan 30 12:51:29 2010	Dallas	27 -3 	Cloudy	78	30.17	10	13	NNW
Sat Jan 30 12:51:30 2010	Houston	35 2 	Mostly Cloudy	69	30.11	10	13	NW
Sat Jan 30 12:51:30 2010	Seattle	45 7 	Light Rain	85	29.97	8	8	SSE
Sat Jan 30 12:51:31 2010	Milwaukee	14 -10 	Cloudy	67	30.29	10	6	N
Sat Jan 30 12:51:32 2010	Detroit	11-Dec	Mostly Cloudy	73	30.34	10	0	CLM
Sat Jan 30 12:51:33 2010	Philadelphia	17 -8 	Cloudy	45	30.31	10	13	NNW
Sat Jan 30 13:35:05 2010	San Jose	46 8 		92	30.02	8	2	ENE
Sat Jan 30 13:35:06 2010	Charlotte	29 -2 		88	30.01	1	9	NE
Sat Jan 30 13:35:07 2010	San Diego	47 8 	Light Fog	89	29.98	3	0	CLM
Sat Jan 30 13:35:08 2010	Denver	26 -3 	Partly Cloudy	55	30.05	10	7	SSW
Sat Jan 30 13:35:09 2010	Los Angeles	46 8 	Mostly Cloudy	82	29.97	10	3	WSW
Sat Jan 30 13:35:09 2010	Memphis	25 -4 	Cloudy	86	29.99	9	10	N
Sat Jan 30 13:35:10 2010	El Paso	31 -1 	Clear	85	30.07	10	3	NNE
Sat Jan 30 13:35:11 2010	New York	13 -11 	Clear	44	30.27	10	9	WNW
Sat Jan 30 13:35:12 2010	Baltimore	20 -7 	Cloudy	47	30.28	10	6	N
Sat Jan 30 13:35:12 2010	Las Vegas	43 6 	Mostly Clear	73	29.96	10	3	WSW
Sat Jan 30 13:35:13 2010	Washington	22 -6 	Cloudy	41	30.28	10	10	NNE
Sat Jan 30 13:35:14 2010	Austin	32 0 	Cloudy	74	30.17	10	15	N
Sat Jan 30 13:35:15 2010	San Francisco	47 8 	Partly Cloudy	94	30.02	9	3	S
Sat Jan 30 13:35:16 2010	Nashville	23 -5 	Light Snow/Fog	84	29.94	3	13	NNE
Sat Jan 30 13:35:16 2010	Oklahoma City	19 -7 	Cloudy	85	30.17	8	12	N
Sat Jan 30 13:35:17 2010	Fort Worth	27 -3 	Cloudy	74	30.17	10	14	NNW
Sat Jan 30 13:35:18 2010	Phoenix	52 11 	Clear	61	29.95	10	3	N
Sat Jan 30 13:35:19 2010	Portland	41 5 	Cloudy	88	29.97	10	17	E
Sat Jan 30 13:35:20 2010	Chicago	19 -7 	Cloudy	62	30.33	10	12	E
Sat Jan 30 13:35:20 2010	San Antonio	31 -1 	Partly Cloudy	75	30.16	10	7	NNW
Sat Jan 30 13:35:21 2010	Indianapolis	14 -10 	Cloudy	78	30.15	10	12	NE
Sat Jan 30 13:35:22 2010	Boston	14-Jun	Partly Cloudy	43	30.17	10	13	WNW
Sat Jan 30 13:35:23 2010	Columbus	16 -9 	Cloudy	56	30.2	10	13	ENE
Sat Jan 30 13:35:23 2010	Jacksonville	58 14 	Partly Cloudy	86	29.83	10	7	SSW
Sat Jan 30 13:35:24 2010	Dallas	27 -3 	Cloudy	74	30.18	10	16	NNW
Sat Jan 30 13:35:25 2010	Houston	34 1 	Mostly Cloudy	72	30.13	10	12	NW
Sat Jan 30 13:35:26 2010	Seattle	44 7 	Light Rain	88	29.97	9	8	S
Sat Jan 30 13:35:27 2010	Detroit	12-Nov	Mostly Cloudy	76	30.34	10	5	NNE
Sat Jan 30 13:35:27 2010	Milwaukee	14 -10 	Cloudy	67	30.28	10	6	N
Sat Jan 30 13:35:28 2010	Philadelphia	16 -9 	Clear	47	30.31	10	10	N
Sat Jan 30 14:19:09 2010	San Jose	45 7 	Partly Cloudy	92	30.02	7	2	E
Sat Jan 30 14:19:10 2010	Charlotte	28 -2 		92	30.03	1	9	NNE
Sat Jan 30 14:19:11 2010	Denver	22 -6 	Partly Cloudy	68	30.08	10	7	WSW
Sat Jan 30 14:19:11 2010	San Diego	47 8 	Light Fog	86	29.97	3	0	CLM
Sat Jan 30 14:19:12 2010	Memphis	25 -4 	Light Snow	81	30.03	4	9	N
Sat Jan 30 14:19:13 2010	Los Angeles	43 6 	Dense Fog	87	29.99	0	0	CLM
Sat Jan 30 14:19:14 2010	El Paso	30 -1 	Clear	88	30.09	10	6	N
Sat Jan 30 14:19:15 2010	Baltimore	20 -7 	Cloudy	45	30.25	10	12	NE
Sat Jan 30 14:19:15 2010	New York	13 -11 	Sunny	42	30.28	10	10	W
Sat Jan 30 14:19:16 2010	Las Vegas	42 6 	Mostly Clear	76	29.96	10	5	WSW
Sat Jan 30 14:19:17 2010	Washington	22 -6 	Cloudy	43	30.25	10	12	NNE
Sat Jan 30 14:19:18 2010	Austin	32 0 	Cloudy	74	30.19	10	13	NNW
Sat Jan 30 14:19:19 2010	Oklahoma City	20 -7 	Cloudy	85	30.18	7	12	N
Sat Jan 30 14:19:19 2010	San Francisco	47 8 	Partly Cloudy	94	30.03	9	3	NNE
Sat Jan 30 14:19:20 2010	Nashville	22 -6 	Light Snow/Fog	88	29.95	3	8	N
Sat Jan 30 14:19:21 2010	Fort Worth	26 -3 	Cloudy	74	30.19	10	16	N
Sat Jan 30 14:19:22 2010	Phoenix	52 11 	Clear	58	29.95	10	6	E
Sat Jan 30 14:19:23 2010	Chicago	18 -8 	Light Snow	62	30.33	10	9	E
Sat Jan 30 14:19:23 2010	Portland	41 5 	Cloudy	85	29.97	10	14	E
Sat Jan 30 14:19:24 2010	San Antonio	31 -1 	Partly Cloudy	75	30.18	10	3	NNW
Sat Jan 30 14:19:25 2010	Indianapolis	14 -10 	Cloudy	78	30.15	10	12	NE
Sat Jan 30 14:19:26 2010	Boston	14-Jul	Partly Sunny	43	30.18	10	15	NW
Sat Jan 30 14:19:26 2010	Jacksonville	61 16 	Partly Sunny	83	29.83	10	6	SSW
Sat Jan 30 14:19:27 2010	Columbus	16 -9 	Cloudy	58	30.19	10	13	NE
Sat Jan 30 14:19:28 2010	Dallas	27 -3 	Cloudy	74	30.2	10	10	NNW
Sat Jan 30 14:19:29 2010	Houston	35 2 	Cloudy	72	30.15	10	7	WNW
Sat Jan 30 14:19:30 2010	Milwaukee	11-Dec	Light Snow	72	30.28	10	7	N
Sat Jan 30 14:19:30 2010	Seattle	44 7 		93	29.97	7	6	SSE
Sat Jan 30 14:19:31 2010	Detroit	11-Dec	Cloudy	73	30.34	10	7	NNE
Sat Jan 30 14:19:32 2010	Philadelphia	17 -8 	Sunny	46	30.31	10	8	N
Sat Jan 30 15:03:49 2010	San Jose	44 7 		93	30.04	7	2	E
Sat Jan 30 15:03:50 2010	Charlotte	28 -2 	Sleet	86	30	1	13	NNE
Sat Jan 30 15:03:51 2010	Denver	22 -6 	Partly Cloudy	68	30.08	10	7	WSW
Sat Jan 30 15:03:51 2010	San Diego	46 8 	Light Fog	93	29.99	3	0	CLM
Sat Jan 30 15:03:52 2010	Memphis	25 -4 	Cloudy	86	30.03	8	10	NNW
Sat Jan 30 15:03:53 2010	Los Angeles	43 6 	Dense Fog	87	29.99	0	0	CLM
Sat Jan 30 15:03:54 2010	El Paso	30 -1 	Clear	88	30.09	10	6	N
Sat Jan 30 15:03:55 2010	Baltimore	20 -7 	Cloudy	45	30.25	10	12	NE
Sat Jan 30 15:03:55 2010	New York	13 -11 	Mostly Sunny	42	30.28	10	10	W
Sat Jan 30 15:03:56 2010	Las Vegas	42 6 	Mostly Clear	76	29.96	10	5	WSW
Sat Jan 30 15:03:57 2010	Washington	22 -6 	Cloudy	43	30.25	10	12	NNE
Sat Jan 30 15:03:58 2010	Austin	32 0 	Cloudy	74	30.2	10	13	NNW
Sat Jan 30 15:03:59 2010	Oklahoma City	20 -7 	Cloudy	85	30.18	7	12	N
Sat Jan 30 15:03:59 2010	San Francisco	47 8 		94	30.03	9	2	ENE
Sat Jan 30 15:04:00 2010	Nashville	21 -6 	Cloudy	85	29.96	9	12	N
Sat Jan 30 15:04:01 2010	Fort Worth	26 -3 	Cloudy	74	30.19	10	16	N
Sat Jan 30 15:04:02 2010	Phoenix	52 11 	Cloudy	58	29.95	10	6	E
Sat Jan 30 15:04:03 2010	Chicago	18 -8 	Light Snow	62	30.33	10	9	E
Sat Jan 30 15:04:03 2010	Portland	41 5 	Cloudy	85	29.97	10	14	E
Sat Jan 30 15:04:04 2010	San Antonio	31 -1 	Partly Cloudy	75	30.18	10	3	NNW
Sat Jan 30 15:04:05 2010	Indianapolis	14 -10 	Mostly Cloudy	78	30.15	10	10	NE
Sat Jan 30 15:04:06 2010	Boston	14-Jul	Partly Sunny	43	30.18	10	15	NW
Sat Jan 30 15:04:06 2010	Jacksonville	61 16 	Cloudy	83	29.83	10	6	SSW
Sat Jan 30 15:04:07 2010	Columbus	16 -9 	Cloudy	58	30.19	10	13	NE
Sat Jan 30 15:04:08 2010	Dallas	27 -3 	Cloudy	74	30.2	10	10	NNW
Sat Jan 30 15:04:09 2010	Houston	35 2 	Cloudy	72	30.15	10	7	WNW
Sat Jan 30 15:04:10 2010	Milwaukee	11-Dec	Light Snow	72	30.28	10	7	N
Sat Jan 30 15:04:10 2010	Seattle	45 7 	Rain	93	29.97	6	5	S
Sat Jan 30 15:04:11 2010	Detroit	11-Dec	Cloudy	73	30.34	10	7	NNE
Sat Jan 30 15:04:12 2010	Philadelphia	17 -8 	Cloudy	46	30.31	10	8	N
Sat Jan 30 15:49:55 2010	Charlotte	28 -2 	Sleet	88	30.02	2	14	NNE
Sat Jan 30 15:49:55 2010	San Jose	43 6 	Mostly Cloudy	93	30.05	6	2	E
Sat Jan 30 15:49:56 2010	San Diego	47 8 	Light Fog	89	29.98	3	0	CLM
Sat Jan 30 15:49:57 2010	Denver	24 -4 	Partly Cloudy	62	30.07	10	9	SSW
Sat Jan 30 15:49:58 2010	Memphis	24 -4 	Cloudy	88	30.04	9	9	N
Sat Jan 30 15:49:59 2010	El Paso	30 -1 	Clear	88	30.1	10	7	N
Sat Jan 30 15:49:59 2010	Los Angeles	41 5 	Light Fog	93	29.97	1	3	NW
Sat Jan 30 15:50:00 2010	New York	14 -10 	Sunny	40	30.29	10	12	N
Sat Jan 30 15:50:01 2010	Baltimore	20 -7 	Light Snow	43	30.25	9	8	NNE
Sat Jan 30 15:50:02 2010	Las Vegas	42 6 	Mostly Clear	72	29.97	10	5	W
Sat Jan 30 15:50:03 2010	Austin	32 0 	Cloudy	74	30.21	10	12	N
Sat Jan 30 15:50:03 2010	Washington	20 -7 	Light Snow	54	30.27	3	10	E
Sat Jan 30 15:50:04 2010	San Francisco	46 8 	Mostly Cloudy	94	30.03	9	2	S
Sat Jan 30 15:50:05 2010	Oklahoma City	20 -7 	Cloudy	85	30.2	7	12	N
Sat Jan 30 15:50:06 2010	Nashville	22 -6 	Cloudy	84	29.97	10	10	N
Sat Jan 30 15:50:07 2010	Fort Worth	26 -3 	Cloudy	74	30.22	10	16	NNW
Sat Jan 30 15:50:07 2010	Phoenix	51 11 	Clear	63	29.96	10	5	NE
Sat Jan 30 15:50:08 2010	Portland	41 5 	Cloudy	85	29.96	10	17	E
Sat Jan 30 15:50:09 2010	Chicago	18 -8 	Cloudy	62	30.33	10	13	ENE
Sat Jan 30 15:50:10 2010	San Antonio	31 -1 	Sunny	78	30.2	10	3	NNW
Sat Jan 30 15:50:11 2010	Boston	13-Sep		43	30.18	10	15	NW
Sat Jan 30 15:50:11 2010	Indianapolis	14 -10 	Mostly Cloudy	78	30.15	10	14	NE
Sat Jan 30 15:50:12 2010	Jacksonville	64 18 	Cloudy	80	29.84	10	10	SSW
Sat Jan 30 15:50:13 2010	Columbus	16 -9 	Cloudy	58	30.2	10	14	NE
Sat Jan 30 15:50:14 2010	Dallas	27 -3 	Cloudy	78	30.24	10	12	N
Sat Jan 30 15:50:14 2010	Houston	36 2 	Cloudy	69	30.17	10	14	NNW
Sat Jan 30 15:50:15 2010	Seattle	44 7 	Light Rain	92	29.97	7	5	SSE
Sat Jan 30 15:50:16 2010	Milwaukee	14 -10 	Light Snow	67	30.28	7	5	NNW
Sat Jan 30 15:50:17 2010	Detroit	14 -10 	Cloudy	67	30.34	10	7	NNE
Sat Jan 30 15:50:18 2010	Philadelphia	17 -8 	Sunny	45	30.3	10	10	N
Sat Jan 30 16:34:20 2010	Charlotte	27 -3 	Sleet	88	30.01	1	13	NNE
Sat Jan 30 16:34:20 2010	San Jose	43 6 	Ground Fog	100	30.05	9	0	CLM
Sat Jan 30 16:34:21 2010	San Diego	49 9 	Light Fog	86	29.99	2	3	N
Sat Jan 30 16:34:22 2010	Denver	28 -2 	Partly Sunny	55	30.09	10	9	SSW
Sat Jan 30 16:34:23 2010	Los Angeles	41 5 	Sunny	95	29.98	5	3	NW
Sat Jan 30 16:34:23 2010	Memphis	25 -4 	Cloudy	84	30.07	10	9	NNW
Sat Jan 30 16:34:24 2010	El Paso	33 1 	Sunny	81	30.12	10	6	NE
Sat Jan 30 16:34:25 2010	New York	13 -11 	Sunny	42	30.26	10	7	W
Sat Jan 30 16:34:26 2010	Baltimore	20 -7 	Light Snow	49	30.25	6	7	NNE
Sat Jan 30 16:34:27 2010	Las Vegas	41 5 	Mostly Sunny	75	29.99	10	3	WSW
Sat Jan 30 16:34:27 2010	Washington	20 -7 	Snow	71	30.26	1	10	NE
Sat Jan 30 16:34:28 2010	Austin	32 0 	Cloudy	74	30.23	10	13	NNW
Sat Jan 30 16:34:29 2010	San Francisco	46 8 		94	30.05	9	3	S
Sat Jan 30 16:34:30 2010	Oklahoma City	20 -7 	Cloudy	88	30.31	7	12	N
Sat Jan 30 16:34:31 2010	Fort Worth	26 -3 	Cloudy	74	30.25	10	15	N
Sat Jan 30 16:34:31 2010	Nashville	23 -5 	Cloudy	80	29.99	8	10	NNE
Sat Jan 30 16:34:32 2010	Phoenix	49 9 	Sunny	73	29.97	10	0	CLM
Sat Jan 30 16:34:33 2010	Portland	42 6 	Cloudy	82	29.97	10	15	E
Sat Jan 30 16:34:34 2010	Chicago	20 -7 	Cloudy	59	30.33	10	12	E
Sat Jan 30 16:34:35 2010	Indianapolis	18 -8 	Sunny	67	30.16	10	13	NE
Sat Jan 30 16:34:35 2010	San Antonio	34 1 	Mostly Sunny	66	30.21	10	9	N
Sat Jan 30 16:34:36 2010	Boston	11-Dec		42	30.2	10	15	NW
Sat Jan 30 16:34:37 2010	Jacksonville	63 17 	Rain	82	29.87	2	13	S
Sat Jan 30 16:34:38 2010	Columbus	17 -8 	Cloudy	59	30.2	10	12	NE
Sat Jan 30 16:34:38 2010	Dallas	27 -3 	Cloudy	74	30.27	10	13	NNW
Sat Jan 30 16:34:39 2010	Houston	36 2 	Cloudy	72	30.19	10	16	NNW
Sat Jan 30 16:34:40 2010	Seattle	44 7 	Light Rain	88	29.97	9	5	SSE
Sat Jan 30 16:34:41 2010	Milwaukee	14 -10 	Light Snow	72	30.28	3	3	NW
Sat Jan 30 16:34:42 2010	Detroit	16 -9 	Cloudy	61	30.33	10	8	NE
Sat Jan 30 16:34:42 2010	Philadelphia	18 -8 	Partly Sunny	43	30.3	10	13	N
Sat Jan 30 17:17:45 2010	Charlotte	27 -3 	Sleet	92	29.97	1	15	NE
Sat Jan 30 17:17:45 2010	San Jose	43 6 	Ground Fog	100	30.05	9	0	CLM
Sat Jan 30 17:17:46 2010	San Diego	48 9 	Light Fog	93	30	3	0	CLM
Sat Jan 30 17:17:47 2010	Denver	28 -2 	Partly Sunny	55	30.09	10	9	SSW
Sat Jan 30 17:17:48 2010	Memphis	25 -4 	Cloudy	84	30.07	10	9	NNW
Sat Jan 30 17:17:49 2010	El Paso	33 1 	Sunny	81	30.12	10	6	NE
Sat Jan 30 17:17:49 2010	Los Angeles	41 5 	Mostly Sunny	95	29.98	5	3	NW
Sat Jan 30 17:17:50 2010	New York	13 -11 		42	30.26	10	7	W
Sat Jan 30 17:17:51 2010	Baltimore	18 -8 	Snow/Fog	73	30.24	1	9	ENE
Sat Jan 30 17:17:52 2010	Las Vegas	41 5 	Mostly Sunny	75	29.99	10	3	WSW
Sat Jan 30 17:17:53 2010	Austin	32 0 	Cloudy	74	30.24	10	15	NNW
Sat Jan 30 17:17:53 2010	Washington	18 -8 	Heavy Snow	79	30.26	0	10	NE
Sat Jan 30 17:17:54 2010	San Francisco	46 8 	Mostly Cloudy	94	30.05	9	2	ENE
Sat Jan 30 17:17:55 2010	Oklahoma City	21 -6 	Cloudy	73	30.24	7	12	NNW
Sat Jan 30 17:17:56 2010	Nashville	23 -5 	Light Snow	79	29.98	2	12	N
Sat Jan 30 17:17:57 2010	Fort Worth	26 -3 	Cloudy	74	30.25	10	15	N
Sat Jan 30 17:17:57 2010	Phoenix	49 9 	Cloudy	73	29.97	10	0	CLM
Sat Jan 30 17:17:58 2010	Portland	42 6 	Cloudy	82	29.97	10	15	E
Sat Jan 30 17:17:59 2010	Chicago	19 -7 		62	30.27	10	10	ENE
Sat Jan 30 17:18:00 2010	Indianapolis	18 -8 	Mostly Sunny	73	30.17	10	14	ENE
Sat Jan 30 17:18:00 2010	San Antonio	34 1 	Mostly Sunny	66	30.21	10	9	N
Sat Jan 30 17:18:01 2010	Boston	11-Dec		42	30.2	10	15	NW
Sat Jan 30 17:18:02 2010	Jacksonville	63 17 	Rain	82	29.87	2	13	S
Sat Jan 30 17:18:03 2010	Columbus	17 -8 	Cloudy	59	30.2	10	12	NE
Sat Jan 30 17:18:04 2010	Dallas	27 -3 	Cloudy	74	30.27	10	13	NNW
Sat Jan 30 17:18:04 2010	Houston	36 2 	Cloudy	72	30.19	10	16	NNW
Sat Jan 30 17:18:05 2010	Seattle	44 7 	Light Rain	88	29.97	9	5	SSE
Sat Jan 30 17:18:06 2010	Milwaukee	14 -10 	Light Snow	72	30.28	2	3	NW
Sat Jan 30 17:18:07 2010	Detroit	16 -9 	Cloudy	61	30.33	10	8	NE
Sat Jan 30 17:18:08 2010	Philadelphia	18 -8 	Cloudy	43	30.3	10	13	N
Sat Jan 30 18:01:43 2010	San Jose	43 6 	Partly Sunny	100	30.06	13	0	CLM
Sat Jan 30 18:01:44 2010	Charlotte	27 -3 	Snow	79	29.97	2	16	NNE
Sat Jan 30 18:01:44 2010	San Diego	51 11 	Light Fog	89	30.01	3	5	NNE
Sat Jan 30 18:01:45 2010	Denver	34 1 	Partly Sunny	49	30.06	10	5	S
Sat Jan 30 18:01:46 2010	Memphis	25 -4 	Cloudy	84	30.11	9	13	NNW
Sat Jan 30 18:01:47 2010	Los Angeles	44 7 	Mostly Sunny	92	29.99	4	0	CLM
Sat Jan 30 18:01:48 2010	El Paso	36 2 	Sunny	78	30.14	10	6	NNE
Sat Jan 30 18:01:48 2010	New York	16 -9 	Cloudy	38	30.24	10	5	N
Sat Jan 30 18:01:49 2010	Baltimore	18 -8 	Snow	79	30.26	1	3	ENE
Sat Jan 30 18:01:50 2010	Las Vegas	42 6 		72	30	10	5	SSW
Sat Jan 30 18:01:51 2010	Washington	18 -8 	Snow	79	30.26	1	7	NE
Sat Jan 30 18:01:52 2010	Austin	32 0 	Cloudy	80	30.26	10	13	N
Sat Jan 30 18:01:52 2010	San Francisco	47 8 	Mostly Cloudy	94	30.06	9	3	SE
Sat Jan 30 18:01:53 2010	Oklahoma City	22 -6 	Cloudy	76	30.29	7	12	NNW
Sat Jan 30 18:01:54 2010	Nashville	23 -5 	Light Snow	79	29.99	9	14	N
Sat Jan 30 18:01:55 2010	Fort Worth	27 -3 	Cloudy	71	30.27	10	15	N
Sat Jan 30 18:01:56 2010	Phoenix	54 12 	Mostly Sunny	54	29.98	10	6	ENE
Sat Jan 30 18:01:56 2010	Portland	41 5 	Light Rain	85	29.98	10	17	E
Sat Jan 30 18:01:57 2010	Chicago	21 -6 		57	30.33	10	12	E
Sat Jan 30 18:01:58 2010	San Antonio	37 3 	Mostly Sunny	61	30.24	10	12	N
Sat Jan 30 18:01:59 2010	Boston	14 -10 	Partly Sunny	40	30.18	10	13	NW
Sat Jan 30 18:01:59 2010	Indianapolis	19 -7 	Mostly Sunny	67	30.18	10	10	NE
Sat Jan 30 18:02:00 2010	Jacksonville	63 17 	Cloudy	87	29.82	7	14	SSW
Sat Jan 30 18:02:01 2010	Columbus	19 -7 	Cloudy	54	30.2	10	15	NE
Sat Jan 30 18:02:02 2010	Dallas	27 -3 	Cloudy	74	30.29	10	13	N
Sat Jan 30 18:02:03 2010	Houston	37 3 	Cloudy	69	30.21	10	15	NNW
Sat Jan 30 18:02:03 2010	Seattle	44 7 	Light Rain	88	29.97	10	6	SSE
Sat Jan 30 18:02:04 2010	Milwaukee	16 -9 	Light Snow	73	30.28	2	5	NNW
Sat Jan 30 18:02:05 2010	Detroit	19 -7 	Light Snow	62	30.28	7	7	E
Sat Jan 30 18:02:06 2010	Philadelphia	17 -8 	Cloudy	39	30.27	10	8	N
Sat Jan 30 18:44:56 2010	Charlotte	24 -4 	Light Snow	87	29.96	2	11	NNE
Sat Jan 30 18:44:56 2010	San Jose	46 8 	Partly Sunny	100	30.07	15	0	CLM
Sat Jan 30 18:44:57 2010	San Diego	55 13 	Sunny	86	30.01	6	7	N
Sat Jan 30 18:44:58 2010	Denver	38 3 	Partly Sunny	39	30.08	10	6	SW
Sat Jan 30 18:44:59 2010	Memphis	25 -4 	Cloudy	81	30.13	6	12	NNW
Sat Jan 30 18:45:00 2010	El Paso	40 4 	Mostly Sunny	70	30.14	10	0	CLM
Sat Jan 30 18:45:00 2010	Los Angeles	49 9 	Sunny	79	29.99	6	0	CLM
Sat Jan 30 18:45:01 2010	New York	17 -8 	Cloudy	39	30.2	10	6	N
Sat Jan 30 18:45:02 2010	Baltimore	17 -8 	Snow/Fog	83	30.24	1	6	N
Sat Jan 30 18:45:03 2010	Las Vegas	46 8 		67	29.99	10	0	CLM
Sat Jan 30 18:45:04 2010	Austin	36 2 	Cloudy	69	30.26	10	13	NNW
Sat Jan 30 18:45:04 2010	Washington	18 -8 	Heavy Snow	79	30.24	0	13	N
Sat Jan 30 18:45:05 2010	San Francisco	49 9 		94	30.07	10	3	SSE
Sat Jan 30 18:45:06 2010	Oklahoma City	23 -5 	Cloudy	79	30.27	7	12	NNW
Sat Jan 30 18:45:07 2010	Nashville	24 -4 	Light Snow	77	30.02	9	11	N
Sat Jan 30 18:45:08 2010	Fort Worth	28 -2 	Cloudy	71	30.27	10	17	NNW
Sat Jan 30 18:45:08 2010	Phoenix	58 14 	Sunny	45	29.97	10	8	ENE
Sat Jan 30 18:45:09 2010	Portland	41 5 	Light Rain	85	29.99	10	14	E
Sat Jan 30 18:45:10 2010	Chicago	22 -6 	Partly Sunny	55	30.32	10	8	E
Sat Jan 30 18:45:11 2010	San Antonio	40 4 	Mostly Sunny	57	30.24	10	8	NNW
Sat Jan 30 18:45:12 2010	Boston	17 -8 		39	30.14	10	12	NNW
Sat Jan 30 18:45:12 2010	Indianapolis	19 -7 		67	30.18	10	13	NE
Sat Jan 30 18:45:13 2010	Jacksonville	64 18 	Cloudy	89	29.81	8	18	SSW
Sat Jan 30 18:45:14 2010	Columbus	20 -7 	Cloudy	52	30.19	10	10	NE
Sat Jan 30 18:45:15 2010	Dallas	28 -2 	Cloudy	74	30.29	10	13	N
Sat Jan 30 18:45:16 2010	Houston	38 3 	Cloudy	67	30.22	10	15	NNW
Sat Jan 30 18:45:16 2010	Seattle	44 7 	Light Rain	88	29.98	10	5	SSE
Sat Jan 30 18:45:17 2010	Milwaukee	18 -8 	Light Snow	79	30.27	3	7	NNW
Sat Jan 30 18:45:18 2010	Detroit	18 -8 	Light Snow	67	30.31	7	7	N
Sat Jan 30 18:45:19 2010	Philadelphia	18 -8 	Cloudy	39	30.23	10	10	NNE
Sat Jan 30 19:29:04 2010	San Jose	50 10 	Partly Sunny	87	30.08	15	0	CLM
Sat Jan 30 19:29:05 2010	Charlotte	25 -4 	Light Fog	79	29.92	2	17	N
Sat Jan 30 19:29:06 2010	Denver	41 5 	Partly Sunny	36	30.03	10	0	CLM
Sat Jan 30 19:29:06 2010	San Diego	57 14 	Sunny	77	30.01	9	0	CLM
Sat Jan 30 19:29:07 2010	Memphis	25 -4 	Cloudy	84	30.12	9	9	N
Sat Jan 30 19:29:08 2010	Los Angeles	53 12 	Sunny	73	29.99	7	0	CLM
Sat Jan 30 19:29:09 2010	El Paso	44 7 	Mostly Sunny	62	30.11	10	5	N
Sat Jan 30 19:29:10 2010	Baltimore	17 -8 	Snow	83	30.2	1	7	N
Sat Jan 30 19:29:10 2010	New York	18 -8 	Partly Sunny	39	30.18	10	6	N
Sat Jan 30 19:29:11 2010	Las Vegas	50 10 		58	29.97	10	0	CLM
Sat Jan 30 19:29:12 2010	Washington	19 -7 	Snow	76	30.2	1	12	NNE
Sat Jan 30 19:29:13 2010	Austin	37 3 	Partly Sunny	69	30.24	10	15	N
Sat Jan 30 19:29:13 2010	San Francisco	50 10 	Partly Sunny	93	30.08	10	3	SSE
Sat Jan 30 19:29:14 2010	Oklahoma City	26 -3 	Cloudy	77	30.26	7	6	N
Sat Jan 30 19:29:15 2010	Nashville	24 -4 	Cloudy	77	30	10	12	N
Sat Jan 30 19:29:16 2010	Fort Worth	29 -2 	Cloudy	72	30.27	10	13	NNW
Sat Jan 30 19:29:17 2010	Phoenix	61 16 	Sunny	37	29.97	10	5	E
Sat Jan 30 19:29:17 2010	Portland	41 5 	Light Rain	88	30	10	13	E
Sat Jan 30 19:29:18 2010	Chicago	23 -5 	Partly Sunny	54	30.3	10	10	E
Sat Jan 30 19:29:19 2010	San Antonio	44 7 	Mostly Sunny	53	30.22	10	6	NNW
Sat Jan 30 19:29:20 2010	Indianapolis	21 -6 		68	30.16	10	13	NE
Sat Jan 30 19:29:21 2010	Boston	20 -7 	Cloudy	36	30.14	10	9	NW
Sat Jan 30 19:29:21 2010	Jacksonville	66 19 	Cloudy	83	29.77	10	14	SSW
Sat Jan 30 19:29:22 2010	Columbus	22 -6 	Mostly Cloudy	45	30.16	10	15	NE
Sat Jan 30 19:29:23 2010	Dallas	30 -1 	Cloudy	71	30.28	10	15	N
Sat Jan 30 19:29:24 2010	Houston	39 4 	Cloudy	64	30.2	10	13	NNW
Sat Jan 30 19:29:25 2010	Milwaukee	19 -7 	Light Snow	73	30.25	5	6	N
Sat Jan 30 19:29:25 2010	Seattle	44 7 	Light Rain	92	29.99	10	6	S
Sat Jan 30 19:29:26 2010	Detroit	19 -7 	Cloudy	62	30.28	10	6	ESE
Sat Jan 30 19:29:27 2010	Philadelphia	18 -8 	Mostly Cloudy	39	30.21	10	7	N
Sat Jan 30 20:12:22 2010	San Jose	50 10 	Partly Sunny	87	30.08	15	0	CLM
Sat Jan 30 20:12:23 2010	Charlotte	25 -4 	Cloudy	81	29.92	2	16	NNE
Sat Jan 30 20:12:24 2010	Denver	41 5 	Partly Sunny	36	30.03	10	0	CLM
Sat Jan 30 20:12:24 2010	San Diego	57 14 	Sunny	77	30.01	9	0	CLM
Sat Jan 30 20:12:25 2010	Memphis	25 -4 	Cloudy	84	30.12	9	9	N
Sat Jan 30 20:12:26 2010	Los Angeles	53 12 	Mostly Sunny	73	29.99	7	0	CLM
Sat Jan 30 20:12:27 2010	El Paso	44 7 	Mostly Sunny	62	30.11	10	5	N
Sat Jan 30 20:12:28 2010	Baltimore	18 -8 	Light Snow/Fog	79	30.16	1	7	NNE
Sat Jan 30 20:12:28 2010	New York	18 -8 	Cloudy	39	30.18	10	6	N
Sat Jan 30 20:12:29 2010	Las Vegas	50 10 		58	29.97	10	0	CLM
Sat Jan 30 20:12:30 2010	Washington	19 -7 	Snow	73	30.18	1	13	NNE
Sat Jan 30 20:12:31 2010	Austin	37 3 	Mostly Cloudy	69	30.22	10	13	NNW
Sat Jan 30 20:12:32 2010	Oklahoma City	27 -3 	Mostly Cloudy	74	30.25	7	6	N
Sat Jan 30 20:12:32 2010	San Francisco	52 11 	Partly Sunny	89	30.08	10	3	E
Sat Jan 30 20:12:33 2010	Nashville	24 -4 	Cloudy	77	30	10	12	N
Sat Jan 30 20:12:34 2010	Fort Worth	29 -2 	Cloudy	72	30.27	10	13	NNW
Sat Jan 30 20:12:35 2010	Phoenix	61 16 	Cloudy	37	29.97	10	5	E
Sat Jan 30 20:12:35 2010	Portland	41 5 	Light Rain	88	30	10	13	E
Sat Jan 30 20:12:36 2010	Chicago	23 -5 	Partly Sunny	54	30.3	10	10	E
Sat Jan 30 20:12:37 2010	San Antonio	44 7 	Mostly Sunny	53	30.22	10	6	NNW
Sat Jan 30 20:12:38 2010	Indianapolis	21 -6 	Partly Sunny	68	30.14	10	12	ENE
Sat Jan 30 20:12:39 2010	Boston	20 -7 	Cloudy	36	30.14	10	9	NW
Sat Jan 30 20:12:39 2010	Jacksonville	66 19 	Cloudy	83	29.77	10	14	SSW
Sat Jan 30 20:12:40 2010	Columbus	22 -6 	Mostly Cloudy	45	30.16	10	15	NE
Sat Jan 30 20:12:41 2010	Dallas	30 -1 	Cloudy	71	30.28	10	15	N
Sat Jan 30 20:12:42 2010	Houston	39 4 	Cloudy	64	30.2	10	13	NNW
Sat Jan 30 20:12:43 2010	Milwaukee	19 -7 	Light Snow	73	30.25	5	6	N
Sat Jan 30 20:12:43 2010	Seattle	45 7 	Light Rain	93	29.99	9	6	S
Sat Jan 30 20:12:44 2010	Detroit	19 -7 	Cloudy	62	30.28	10	6	ESE
Sat Jan 30 20:12:45 2010	Philadelphia	18 -8 	Cloudy	39	30.21	10	7	N
Sat Jan 30 20:56:27 2010	San Jose	55 13 	Partly Sunny	71	30.08	14	0	CLM
Sat Jan 30 20:56:28 2010	Charlotte	24 -4 	Cloudy	80	29.91	8	15	NNE
Sat Jan 30 20:56:29 2010	Denver	46 8 	Partly Sunny	29	30	10	3	N
Sat Jan 30 20:56:29 2010	San Diego	62 17 	Sunny	59	29.99	10	3	W
Sat Jan 30 20:56:30 2010	Memphis	25 -4 	Cloudy	84	30.12	10	12	N
Sat Jan 30 20:56:31 2010	Los Angeles	57 14 	Sunny	66	29.98	7	0	CLM
Sat Jan 30 20:56:32 2010	El Paso	47 8 	Partly Sunny	53	30.08	10	6	CLM
Sat Jan 30 20:56:33 2010	Baltimore	18 -8 	Snow/Fog	79	30.16	1	9	N
Sat Jan 30 20:56:33 2010	New York	18 -8 	Partly Sunny	39	30.17	10	8	WNW
Sat Jan 30 20:56:34 2010	Las Vegas	51 11 		54	29.95	10	0	CLM
Sat Jan 30 20:56:35 2010	Washington	19 -7 	Snow	73	30.15	1	14	NNE
Sat Jan 30 20:56:36 2010	Austin	37 3 	Mostly Cloudy	75	30.21	10	15	N
Sat Jan 30 20:56:37 2010	Oklahoma City	27 -3 	Cloudy	82	30.24	7	5	N
Sat Jan 30 20:56:37 2010	San Francisco	53 12 		87	30.09	10	3	E
Sat Jan 30 20:56:38 2010	Nashville	25 -4 	Cloudy	74	30	10	12	N
Sat Jan 30 20:56:39 2010	Fort Worth	30 -1 	Cloudy	71	30.25	10	12	N
Sat Jan 30 20:56:40 2010	Phoenix	61 16 	Sunny	37	29.95	10	8	ESE
Sat Jan 30 20:56:40 2010	Portland	42 6 	Light Rain	88	30.01	10	15	E
Sat Jan 30 20:56:41 2010	Chicago	23 -5 	Partly Sunny	57	30.27	10	8	NE
Sat Jan 30 20:56:42 2010	San Antonio	48 9 	Mostly Sunny	49	30.18	10	12	NNW
Sat Jan 30 20:56:43 2010	Indianapolis	23 -5 	Partly Sunny	63	30.12	10	9	ENE
Sat Jan 30 20:56:44 2010	Boston	21 -6 	Cloudy	36	30.11	10	6	NW
Sat Jan 30 20:56:44 2010	Jacksonville	68 20 	Cloudy	81	29.74	10	18	SW
Sat Jan 30 20:56:45 2010	Columbus	24 -4 		40	30.13	10	14	NE
Sat Jan 30 20:56:46 2010	Dallas	30 -1 	Cloudy	74	30.27	10	13	NNW
Sat Jan 30 20:56:47 2010	Houston	41 5 	Cloudy	59	30.17	10	16	NW
Sat Jan 30 20:56:48 2010	Milwaukee	21 -6 	Mostly Cloudy	68	30.22	7	0	CLM
Sat Jan 30 20:56:48 2010	Seattle	45 7 	Cloudy	93	29.99	10	6	S
Sat Jan 30 20:56:49 2010	Detroit	21 -6 	Partly Sunny	58	30.2	10	5	E
Sat Jan 30 20:56:50 2010	Philadelphia	19 -7 	Cloudy	37	30.19	10	7	NNE
Sat Jan 30 21:39:18 2010	San Jose	57 14 	Partly Sunny	67	30.07	15	8	WSW
Sat Jan 30 21:39:19 2010	Charlotte	24 -4 	Cloudy	80	29.89	10	13	NE
Sat Jan 30 21:39:20 2010	San Diego	63 17 	Sunny	59	29.96	10	8	WNW
Sat Jan 30 21:39:21 2010	Denver	49 9 	Partly Sunny	26	29.94	10	8	E
Sat Jan 30 21:39:21 2010	Memphis	26 -3 	Cloudy	81	30.13	9	14	N
Sat Jan 30 21:39:22 2010	Los Angeles	60 16 	Partly Sunny	57	29.95	8	0	CLM
Sat Jan 30 21:39:23 2010	El Paso	50 10 	Partly Sunny	47	30.04	10	6	NNE
Sat Jan 30 21:39:24 2010	New York	20 -7 	Cloudy	39	30.14	10	6	NNE
Sat Jan 30 21:39:25 2010	Baltimore	16 -9 	Snow/Fog	85	30.11	1	7	NNE
Sat Jan 30 21:39:25 2010	Las Vegas	54 12 		48	29.92	10	0	CLM
Sat Jan 30 21:39:26 2010	Washington	19 -7 	Snow	73	30.11	1	16	NNE
Sat Jan 30 21:39:27 2010	Austin	39 4 	Partly Sunny	75	30.19	10	14	N
Sat Jan 30 21:39:28 2010	San Francisco	55 13 		82	30.08	10	4	E
Sat Jan 30 21:39:29 2010	Nashville	25 -4 	Cloudy	74	30.03	10	14	N
Sat Jan 30 21:39:29 2010	Oklahoma City	28 -2 	Partly Sunny	80	30.2	7	3	N
Sat Jan 30 21:39:30 2010	Fort Worth	29 -2 	Cloudy	74	30.25	10	9	N
Sat Jan 30 21:39:31 2010	Phoenix	63 17 	Sunny	33	29.93	10	0	CLM
Sat Jan 30 21:39:32 2010	Chicago	23 -5 	Partly Sunny	59	30.27	10	10	E
Sat Jan 30 21:39:32 2010	Portland	43 6 	Cloudy	85	30	10	14	E
Sat Jan 30 21:39:33 2010	San Antonio	50 10 	Mostly Sunny	47	30.15	10	9	N
Sat Jan 30 21:39:34 2010	Indianapolis	23 -5 	Sunny	68	30.13	10	13	NE
Sat Jan 30 21:39:35 2010	Boston	22 -6 	Cloudy	36	30.09	10	8	NNW
Sat Jan 30 21:39:36 2010	Columbus	25 -4 		42	30.11	10	12	NNE
Sat Jan 30 21:39:36 2010	Jacksonville	68 20 	Cloudy	81	29.72	10	17	SW
Sat Jan 30 21:39:37 2010	Dallas	30 -1 	Cloudy	71	30.26	10	10	N
Sat Jan 30 21:39:38 2010	Houston	42 6 	Cloudy	59	30.16	10	16	NNW
Sat Jan 30 21:39:39 2010	Seattle	46 8 	Light Rain	88	29.99	10	6	SSE
Sat Jan 30 21:39:40 2010	Detroit	21 -6 	Partly Sunny	54	30.23	10	6	N
Sat Jan 30 21:39:40 2010	Milwaukee	21 -6 	Cloudy	68	30.2	10	0	CLM
Sat Jan 30 21:39:41 2010	Philadelphia	18 -8 	Cloudy	41	30.18	10	7	N
Sat Jan 30 22:24:05 2010	San Jose	59 15 	Partly Sunny	62	30.05	10	12	WNW
Sat Jan 30 22:24:06 2010	Charlotte	25 -4 	Cloudy	81	29.89	10	12	NNE
Sat Jan 30 22:24:07 2010	San Diego	60 16 	Sunny	66	29.94	10	12	W
Sat Jan 30 22:24:08 2010	Denver	49 9 		29	29.96	10	8	ESE
Sat Jan 30 22:24:08 2010	Memphis	27 -3 	Cloudy	81	30.14	9	12	N
Sat Jan 30 22:24:09 2010	Los Angeles	62 17 	Sunny	49	29.92	10	3	N
Sat Jan 30 22:24:10 2010	El Paso	51 11 		45	30.01	10	7	N
Sat Jan 30 22:24:11 2010	New York	20 -7 	Mostly Cloudy	39	30.14	10	8	N
Sat Jan 30 22:24:12 2010	Baltimore	16 -9 	Snow/Fog	84	30.1	1	8	N
Sat Jan 30 22:24:12 2010	Las Vegas	56 13 		45	29.88	10	3	ENE
Sat Jan 30 22:24:13 2010	Washington	18 -8 	Snow	77	30.09	1	20	NNE
Sat Jan 30 22:24:14 2010	Austin	41 5 	Partly Sunny	70	30.19	10	15	N
Sat Jan 30 22:24:15 2010	San Francisco	55 13 		80	30.06	10	4	ESE
Sat Jan 30 22:24:16 2010	Nashville	25 -4 	Cloudy	74	30.05	10	15	N
Sat Jan 30 22:24:16 2010	Oklahoma City	30 -1 	Mostly Cloudy	77	30.2	7	5	N
Sat Jan 30 22:24:17 2010	Fort Worth	30 -1 	Cloudy	71	30.25	10	9	NNW
Sat Jan 30 22:24:18 2010	Phoenix	64 18 	Sunny	32	29.9	10	5	E
Sat Jan 30 22:24:19 2010	Chicago	22 -6 	Partly Sunny	62	30.26	10	6	E
Sat Jan 30 22:24:19 2010	Portland	44 7 	Light Rain	85	30	10	14	E
Sat Jan 30 22:24:20 2010	San Antonio	52 11 	Mostly Sunny	48	30.13	10	13	N
Sat Jan 30 22:24:21 2010	Indianapolis	23 -5 	Sunny	68	30.14	10	13	NE
Sat Jan 30 22:24:22 2010	Boston	22 -6 	Cloudy	36	30.11	10	7	N
Sat Jan 30 22:24:23 2010	Columbus	24 -4 		40	30.1	10	13	NNE
Sat Jan 30 22:24:23 2010	Jacksonville	69 21 	Cloudy	78	29.73	10	16	SW
Sat Jan 30 22:24:24 2010	Dallas	31 -1 	Cloudy	72	30.26	10	9	NNW
Sat Jan 30 22:24:25 2010	Houston	41 5 	Cloudy	62	30.16	10	18	N
Sat Jan 30 22:24:26 2010	Seattle	46 8 	Light Rain	88	29.98	10	7	S
Sat Jan 30 22:24:27 2010	Detroit	22 -6 	Partly Sunny	50	30.24	10	0	CLM
Sat Jan 30 22:24:27 2010	Milwaukee	21 -6 	Cloudy	62	30.19	10	0	CLM
Sat Jan 30 22:24:28 2010	Philadelphia	17 -8 	Light Snow	61	30.15	3	8	N
Sat Jan 30 23:09:41 2010	Charlotte	25 -4 	Cloudy	81	29.89	10	12	NNE
Sat Jan 30 23:09:41 2010	San Jose	59 15 	Partly Sunny	62	30.05	10	12	WNW
Sat Jan 30 23:09:42 2010	San Diego	60 16 	Mostly Sunny	66	29.94	10	12	W
Sat Jan 30 23:09:43 2010	Denver	49 9 		29	29.96	10	8	ESE
Sat Jan 30 23:09:44 2010	Memphis	27 -3 	Cloudy	81	30.14	9	12	N
Sat Jan 30 23:09:45 2010	El Paso	51 11 		45	30.01	10	7	N
Sat Jan 30 23:09:45 2010	Los Angeles	62 17 	Mostly Sunny	49	29.92	10	3	N
Sat Jan 30 23:09:46 2010	New York	20 -7 	Cloudy	39	30.14	10	8	N
Sat Jan 30 23:09:47 2010	Baltimore	16 -9 	Snow/Fog	85	30.08	1	9	N
Sat Jan 30 23:09:48 2010	Las Vegas	56 13 		45	29.88	10	3	ENE
Sat Jan 30 23:09:49 2010	Austin	41 5 	Sunny	70	30.19	10	13	N
Sat Jan 30 23:09:49 2010	Washington	18 -8 	Snow	79	30.1	1	16	NNE
Sat Jan 30 23:09:50 2010	San Francisco	56 13 		78	30.06	10	4	ENE
Sat Jan 30 23:09:51 2010	Oklahoma City	30 -1 	Cloudy	77	30.2	7	5	N
Sat Jan 30 23:09:52 2010	Nashville	25 -4 	Cloudy	74	30.05	10	15	N
Sat Jan 30 23:09:53 2010	Fort Worth	30 -1 	Cloudy	71	30.25	10	9	NNW
Sat Jan 30 23:09:53 2010	Phoenix	64 18 	Mostly Sunny	32	29.9	10	5	E
Sat Jan 30 23:09:54 2010	Portland	44 7 	Light Rain	85	30	10	14	E
Sat Jan 30 23:09:55 2010	Chicago	22 -6 	Partly Sunny	62	30.26	10	6	E
Sat Jan 30 23:09:56 2010	Indianapolis	23 -5 	Sunny	68	30.15	10	10	NNE
Sat Jan 30 23:09:56 2010	San Antonio	52 11 	Mostly Sunny	48	30.13	10	13	N
Sat Jan 30 23:09:57 2010	Boston	22 -6 	Cloudy	36	30.11	10	7	N
Sat Jan 30 23:09:58 2010	Jacksonville	69 21 	Cloudy	78	29.73	10	16	SW
Sat Jan 30 23:09:59 2010	Columbus	24 -4 		40	30.1	10	13	NNE
Sat Jan 30 23:10:00 2010	Dallas	31 -1 	Cloudy	72	30.26	10	9	NNW
Sat Jan 30 23:10:00 2010	Houston	41 5 	Cloudy	62	30.16	10	18	N
Sat Jan 30 23:10:01 2010	Seattle	46 8 	Light Rain	88	29.98	10	7	S
Sat Jan 30 23:10:02 2010	Milwaukee	21 -6 	Cloudy	62	30.19	10	0	CLM
Sat Jan 30 23:10:03 2010	Detroit	22 -6 	Partly Sunny	50	30.24	10	0	CLM
Sat Jan 30 23:10:04 2010	Philadelphia	18 -8 	Light Snow	67	30.14	9	9	N
Sat Jan 30 23:53:59 2010	San Jose	59 15 	Partly Sunny	58	30.03	10	8	W
Sat Jan 30 23:54:00 2010	Charlotte	25 -4 	Cloudy	81	29.9	10	10	NE
Sat Jan 30 23:54:00 2010	San Diego	61 16 	Sunny	66	29.94	10	9	NW
Sat Jan 30 23:54:01 2010	Denver	50 10 		27	29.92	10	9	ESE
Sat Jan 30 23:54:02 2010	Memphis	28 -2 	Cloudy	81	30.15	10	9	N
Sat Jan 30 23:54:03 2010	Los Angeles	62 17 	Sunny	53	29.91	10	0	CLM
Sat Jan 30 23:54:04 2010	El Paso	52 11 		44	30	10	3	NNE
Sat Jan 30 23:54:04 2010	New York	19 -7 	Mostly Cloudy	41	30.11	10	14	NNE
Sat Jan 30 23:54:05 2010	Baltimore	16 -9 	Heavy Snow	84	30.09	0	6	N
Sat Jan 30 23:54:06 2010	Las Vegas	57 14 		45	29.87	10	8	E
Sat Jan 30 23:54:07 2010	Austin	41 5 	Partly Sunny	70	30.19	10	15	NNE
Sat Jan 30 23:54:07 2010	Washington	18 -8 	Snow	79	30.09	1	14	NNE
Sat Jan 30 23:54:08 2010	San Francisco	57 14 		75	30.04	10	3	E
Sat Jan 30 23:54:09 2010	Oklahoma City	25 -4 	Cloudy	67	30.21	5	0	CLM
Sat Jan 30 23:54:10 2010	Nashville	25 -4 	Cloudy	74	30.08	10	15	N
Sat Jan 30 23:54:11 2010	Fort Worth	31 -1 	Cloudy	72	30.24	10	12	N
Sat Jan 30 23:54:11 2010	Phoenix	65 18 	Sunny	30	29.86	10	9	E
Sat Jan 30 23:54:12 2010	Portland	44 7 	Cloudy	85	29.99	10	10	E
Sat Jan 30 23:54:13 2010	Chicago	22 -6 		65	30.25	10	6	E
Sat Jan 30 23:54:14 2010	San Antonio	52 11 	Mostly Sunny	48	30.12	10	7	N
Sat Jan 30 23:54:15 2010	Boston	22 -6 	Cloudy	36	30.11	10	6	NW
Sat Jan 30 23:54:15 2010	Indianapolis	23 -5 	Sunny	68	30.15	10	12	NNE
Sat Jan 30 23:54:16 2010	Jacksonville	68 20 	Cloudy	83	29.74	8	12	WSW
Sat Jan 30 23:54:17 2010	Columbus	23 -5 	Mostly Cloudy	42	30.11	10	9	NNE
Sat Jan 30 23:54:18 2010	Dallas	31 -1 	Cloudy	75	30.26	10	8	N
Sat Jan 30 23:54:19 2010	Houston	39 4 	Cloudy	61	30.18	10	13	NW
Sat Jan 30 23:54:19 2010	Seattle	46 8 	Light Rain	88	29.97	7	7	S
Sat Jan 30 23:54:20 2010	Milwaukee	21 -6 	Cloudy	62	30.2	10	0	CLM
Sat Jan 30 23:54:21 2010	Detroit	21 -6 	Mostly Cloudy	53	30.22	10	2	N
Sat Jan 30 23:54:22 2010	Philadelphia	16 -9 	Light Snow	73	30.13	3	9	N
Sun Jan 31 00:44:20 2010	San Jose	59 15 	Partly Sunny	62	30.01	10	3	NW
Sun Jan 31 00:44:21 2010	Charlotte	24 -4 	Cloudy	85	29.92	9	9	NE
Sun Jan 31 00:44:21 2010	San Diego	59 15 		71	29.94	10	10	NW
Sun Jan 31 00:44:22 2010	Denver	49 9 		27	29.91	10	10	ESE
Sun Jan 31 00:44:23 2010	Memphis	27 -3 	Partly Sunny	79	30.17	10	8	N
Sun Jan 31 00:44:24 2010	Los Angeles	62 17 	Sunny	55	29.9	10	7	S
Sun Jan 31 00:44:25 2010	El Paso	52 11 	Cloudy	42	29.99	10	0	CLM
Sun Jan 31 00:44:25 2010	New York	19 -7 	Cloudy	43	30.11	10	12	NE
Sun Jan 31 00:44:26 2010	Baltimore	16 -9 	Light Snow	85	30.07	4	9	N
Sun Jan 31 00:44:27 2010	Las Vegas	58 14 		45	29.86	10	9	E
Sun Jan 31 00:44:28 2010	Washington	18 -8 	Light Snow	73	30.08	5	15	NNE
Sun Jan 31 00:44:29 2010	Austin	39 4 	Sunny	75	30.19	10	15	NNE
Sun Jan 31 00:44:29 2010	San Francisco	57 14 		75	30.03	10	4	ENE
Sun Jan 31 00:44:30 2010	Oklahoma City	23 -5 	Cloudy	73	30.21	5	0	CLM
Sun Jan 31 00:44:31 2010	Nashville	25 -4 	Cloudy	74	30.12	10	9	N
Sun Jan 31 00:44:32 2010	Fort Worth	31 -1 	Cloudy	77	30.24	10	6	NNW
Sun Jan 31 00:44:33 2010	Phoenix	66 19 	Sunny	30	29.86	10	6	ESE
Sun Jan 31 00:44:33 2010	Portland	44 7 	Cloudy	82	29.99	10	13	E
Sun Jan 31 00:44:34 2010	Chicago	22 -6 	Mostly Cloudy	65	30.26	10	0	CLM
Sun Jan 31 00:44:35 2010	San Antonio	52 11 	Mostly Sunny	48	30.13	10	10	N
Sun Jan 31 00:44:36 2010	Boston	22 -6 	Cloudy	38	30.13	10	6	NW
Sun Jan 31 00:44:36 2010	Indianapolis	22 -6 	Sunny	71	30.16	7	4	NNE
Sun Jan 31 00:44:37 2010	Jacksonville	68 20 	Cloudy	83	29.74	10	10	WSW
Sun Jan 31 00:44:38 2010	Columbus	22 -6 		43	30.13	10	14	NNE
Sun Jan 31 00:44:39 2010	Dallas	31 -1 	Cloudy	78	30.26	10	12	N
Sun Jan 31 00:44:40 2010	Houston	38 3 	Mostly Cloudy	67	30.18	10	13	N
Sun Jan 31 00:44:40 2010	Seattle	46 8 	Cloudy	88	29.97	9	5	SSE
Sun Jan 31 00:44:41 2010	Milwaukee	21 -6 	Cloudy	62	30.19	10	6	WSW
Sun Jan 31 00:44:42 2010	Detroit	19 -7 	Partly Cloudy	56	30.23	10	5	SSE
Sun Jan 31 00:44:43 2010	Philadelphia	16 -9 	Light Snow	79	30.11	2	9	NNE
Sun Jan 31 01:28:23 2010	Charlotte	24 -4 	Light Snow	84	29.94	9	10	NNE
Sun Jan 31 01:28:23 2010	San Jose	59 15 	Partly Sunny	63	30.01	10	4	WNW
Sun Jan 31 01:28:24 2010	San Diego	58 14 		71	29.94	10	8	NW
Sun Jan 31 01:28:25 2010	Denver	43 6 	Mostly Sunny	39	29.92	10	8	E
Sun Jan 31 01:28:26 2010	Memphis	26 -3 	Clear	81	30.19	10	7	N
Sun Jan 31 01:28:27 2010	El Paso	52 11 	Cloudy	42	29.99	10	0	CLM
Sun Jan 31 01:28:27 2010	Los Angeles	62 17 	Sunny	57	29.89	10	8	SE
Sun Jan 31 01:28:28 2010	New York	19 -7 	Cloudy	43	30.08	10	12	N
Sun Jan 31 01:28:29 2010	Baltimore	17 -8 	Light Snow	80	30.06	5	13	N
Sun Jan 31 01:28:30 2010	Las Vegas	58 14 		45	29.86	10	6	E
Sun Jan 31 01:28:31 2010	Austin	39 4 	Sunny	75	30.2	10	12	NNE
Sun Jan 31 01:28:31 2010	Washington	18 -8 	Light Snow	73	30.07	4	18	N
Sun Jan 31 01:28:32 2010	San Francisco	57 14 	Partly Sunny	75	30.03	10	4	NE
Sun Jan 31 01:28:33 2010	Oklahoma City	22 -6 	Cloudy	86	30.26	5	0	CLM
Sun Jan 31 01:28:34 2010	Fort Worth	30 -1 	Cloudy	78	30.26	10	9	N
Sun Jan 31 01:28:34 2010	Nashville	25 -4 	Cloudy	74	30.15	10	13	N
Sun Jan 31 01:28:35 2010	Phoenix	65 18 	Sunny	31	29.86	10	10	SE
Sun Jan 31 01:28:36 2010	Portland	44 7 	Mostly Cloudy	85	29.99	10	8	ENE
Sun Jan 31 01:28:37 2010	Chicago	22 -6 	Mostly Cloudy	65	30.27	10	3	E
Sun Jan 31 01:28:38 2010	Indianapolis	18 -8 	Clear	79	30.16	10	3	NNE
Sun Jan 31 01:28:38 2010	San Antonio	50 10 	Mostly Sunny	52	30.14	10	7	NNE
Sun Jan 31 01:28:39 2010	Boston	21 -6 	Cloudy	39	30.11	10	8	N
Sun Jan 31 01:28:40 2010	Jacksonville	67 19 	Cloudy	84	29.76	10	13	WSW
Sun Jan 31 01:28:41 2010	Columbus	20 -7 		52	30.15	10	10	NNE
Sun Jan 31 01:28:42 2010	Dallas	31 -1 	Cloudy	78	30.27	10	9	N
Sun Jan 31 01:28:42 2010	Houston	38 3 	Cloudy	67	30.2	10	13	N
Sun Jan 31 01:28:43 2010	Seattle	46 8 	Light Rain	88	29.98	10	7	S
Sun Jan 31 01:28:44 2010	Milwaukee	21 -6 	Cloudy	62	30.19	10	6	W
Sun Jan 31 01:28:45 2010	Detroit	15 -9 	Partly Cloudy	76	30.24	10	3	SSW
Sun Jan 31 01:28:46 2010	Philadelphia	16 -9 	Light Snow	80	30.1	2	12	NNE
Sun Jan 31 02:12:02 2010	San Jose	57 14 	Mostly Sunny	65	30.01	10	4	WNW
Sun Jan 31 02:12:03 2010	Charlotte	25 -4 	Light Snow	79	29.93	7	7	NNE
Sun Jan 31 02:12:03 2010	San Diego	58 14 		71	29.94	10	8	NW
Sun Jan 31 02:12:04 2010	Denver	43 6 	Mostly Sunny	39	29.92	10	8	E
Sun Jan 31 02:12:05 2010	Memphis	26 -3 	Clear	81	30.19	10	7	N
Sun Jan 31 02:12:06 2010	Los Angeles	62 17 	Sunny	57	29.89	10	8	SE
Sun Jan 31 02:12:07 2010	El Paso	52 11 	Cloudy	42	29.99	10	6	CLM
Sun Jan 31 02:12:07 2010	New York	19 -7 	Cloudy	43	30.08	10	12	N
Sun Jan 31 02:12:08 2010	Baltimore	17 -8 	Light Snow	80	30.06	5	13	N
Sun Jan 31 02:12:09 2010	Las Vegas	58 14 		45	29.86	10	6	E
Sun Jan 31 02:12:10 2010	Washington	18 -8 	Light Snow	73	30.08	3	13	N
Sun Jan 31 02:12:11 2010	Austin	37 3 	Partly Sunny	80	30.21	10	10	NNE
Sun Jan 31 02:12:11 2010	San Francisco	56 13 	Partly Sunny	76	30.03	10	4	WNW
Sun Jan 31 02:12:12 2010	Oklahoma City	22 -6 	Cloudy	86	30.26	5	0	CLM
Sun Jan 31 02:12:13 2010	Nashville	25 -4 	Cloudy	74	30.15	10	13	N
Sun Jan 31 02:12:14 2010	Fort Worth	30 -1 	Cloudy	78	30.26	10	9	N
Sun Jan 31 02:12:15 2010	Phoenix	65 18 	Sunny	31	29.86	10	10	SE
Sun Jan 31 02:12:15 2010	Portland	44 7 	Cloudy	85	29.99	10	8	ENE
Sun Jan 31 02:12:16 2010	Chicago	22 -6 	Mostly Cloudy	65	30.27	10	3	E
Sun Jan 31 02:12:17 2010	San Antonio	50 10 	Mostly Sunny	52	30.14	10	7	NNE
Sun Jan 31 02:12:18 2010	Indianapolis	16 -9 	Clear	85	30.16	10	5	N
Sun Jan 31 02:12:19 2010	Boston	21 -6 	Cloudy	39	30.11	10	8	N
Sun Jan 31 02:12:19 2010	Jacksonville	67 19 	Cloudy	84	29.76	10	13	WSW
Sun Jan 31 02:12:20 2010	Columbus	20 -7 		52	30.15	10	10	NNE
Sun Jan 31 02:12:21 2010	Dallas	31 -1 	Cloudy	78	30.27	10	9	N
Sun Jan 31 02:12:22 2010	Houston	38 3 	Cloudy	67	30.2	10	13	N
Sun Jan 31 02:12:23 2010	Milwaukee	21 -6 	Cloudy	62	30.19	10	6	W
Sun Jan 31 02:12:23 2010	Seattle	46 8 	Light Rain	88	29.98	10	7	S
Sun Jan 31 02:12:24 2010	Detroit	15 -9 	Partly Cloudy	76	30.24	10	3	SSW
Sun Jan 31 02:12:25 2010	Philadelphia	16 -9 	Light Snow	79	30.08	3	10	NNE
Sun Jan 31 02:56:06 2010	San Jose	56 13 		68	30.01	10	3	NW
Sun Jan 31 02:56:07 2010	Charlotte	25 -4 	Light Snow	73	29.95	9	12	N
Sun Jan 31 02:56:07 2010	San Diego	57 14 		74	29.96	10	9	NW
Sun Jan 31 02:56:08 2010	Denver	36 2 	Partly Cloudy	50	29.97	10	8	ESE
Sun Jan 31 02:56:09 2010	Memphis	26 -3 	Clear	77	30.2	10	3	NNW
Sun Jan 31 02:56:10 2010	Los Angeles	59 15 	Partly Sunny	64	29.91	10	7	S
Sun Jan 31 02:56:11 2010	El Paso	50 10 	Cloudy	52	30	10	6	N
Sun Jan 31 02:56:11 2010	New York	19 -7 	Cloudy	49	30.06	10	10	N
Sun Jan 31 02:56:12 2010	Baltimore	18 -8 	Light Snow	79	30.05	3	8	N
Sun Jan 31 02:56:13 2010	Las Vegas	56 13 		50	29.87	10	5	N
Sun Jan 31 02:56:14 2010	Washington	19 -7 	Light Snow	73	30.07	3	13	N
Sun Jan 31 02:56:15 2010	Austin	36 2 	Partly Cloudy	86	30.22	10	8	NE
Sun Jan 31 02:56:15 2010	San Francisco	54 12 	Partly Sunny	80	30.03	10	4	WNW
Sun Jan 31 02:56:16 2010	Oklahoma City	21 -6 	Cloudy	75	30.26	5	0	CLM
Sun Jan 31 02:56:17 2010	Nashville	26 -3 	Cloudy	71	30.16	10	8	N
Sun Jan 31 02:56:18 2010	Fort Worth	30 -1 	Cloudy	78	30.26	10	9	NNW
Sun Jan 31 02:56:19 2010	Phoenix	63 17 	Clear	35	29.87	10	3	SSE
Sun Jan 31 02:56:19 2010	Portland	44 7 	Cloudy	85	29.99	10	7	E
Sun Jan 31 02:56:20 2010	Chicago	22 -6 	Cloudy	65	30.26	10	5	ESE
Sun Jan 31 02:56:21 2010	San Antonio	46 8 	Mostly Clear	60	30.16	10	7	NNE
Sun Jan 31 02:56:22 2010	Indianapolis	14 -10 	Clear	85	30.17	10	5	NNE
Sun Jan 31 02:56:23 2010	Boston	20 -7 	Cloudy	39	30.09	10	8	NNW
Sun Jan 31 02:56:23 2010	Jacksonville	66 19 	Cloudy	72	29.78	10	7	W
Sun Jan 31 02:56:24 2010	Columbus	19 -7 	Mostly Clear	54	30.15	10	6	N
Sun Jan 31 02:56:25 2010	Dallas	31 -1 	Cloudy	78	30.28	10	8	N
Sun Jan 31 02:56:26 2010	Houston	37 3 	Cloudy	69	30.22	10	14	N
Sun Jan 31 02:56:27 2010	Milwaukee	21 -6 	Cloudy	62	30.19	10	7	W
Sun Jan 31 02:56:27 2010	Seattle	45 7 	Cloudy	93	29.97	10	6	S
Sun Jan 31 02:56:28 2010	Detroit	15 -9 	Partly Cloudy	76	30.24	10	5	SSW
Sun Jan 31 02:56:29 2010	Philadelphia	18 -8 	Light Snow	73	30.06	9	9	N
Sun Jan 31 03:38:45 2010	San Jose	54 12 	Partly Cloudy	76	30.02	10	12	W
Sun Jan 31 03:38:46 2010	Charlotte	24 -4 	Cloudy	74	29.98	10	12	NNE
Sun Jan 31 03:38:47 2010	Denver	33 1 	Mostly Clear	61	29.97	10	12	S
Sun Jan 31 03:38:47 2010	San Diego	55 13 	Partly Cloudy	79	29.95	10	6	NW
Sun Jan 31 03:38:48 2010	Memphis	25 -4 	Clear	81	30.21	10	3	N
Sun Jan 31 03:38:49 2010	Los Angeles	56 13 	Clear	71	29.91	10	5	SSE
Sun Jan 31 03:38:50 2010	El Paso	47 8 		58	30	10	7	N
Sun Jan 31 03:38:50 2010	New York	19 -7 	Cloudy	47	30.03	10	9	N
Sun Jan 31 03:38:51 2010	Baltimore	18 -8 	Light Snow	79	30.04	5	5	N
Sun Jan 31 03:38:52 2010	Las Vegas	54 12 		56	29.88	10	7	N
Sun Jan 31 03:38:53 2010	Washington	19 -7 	Light Snow	70	30.06	3	18	N
Sun Jan 31 03:38:54 2010	Austin	32 0 	Partly Cloudy	93	30.24	10	7	NE
Sun Jan 31 03:38:54 2010	San Francisco	52 11 	Partly Cloudy	86	30.03	10	5	W
Sun Jan 31 03:38:55 2010	Oklahoma City	20 -7 	Cloudy	94	30.26	6	0	CLM
Sun Jan 31 03:38:56 2010	Nashville	26 -3 	Cloudy	71	30.18	10	9	NNW
Sun Jan 31 03:38:57 2010	Fort Worth	30 -1 	Cloudy	78	30.27	10	10	N
Sun Jan 31 03:38:58 2010	Phoenix	59 15 	Clear	43	29.88	10	0	CLM
Sun Jan 31 03:38:58 2010	Portland	44 7 	Cloudy	85	30	10	3	NE
Sun Jan 31 03:38:59 2010	Chicago	21 -6 	Cloudy	68	30.26	10	3	SE
Sun Jan 31 03:39:00 2010	San Antonio	43 6 	Clear	67	30.19	10	7	NE
Sun Jan 31 03:39:01 2010	Indianapolis	17 -8 	Mostly Clear	80	30.19	7	3	NNW
Sun Jan 31 03:39:02 2010	Boston	19 -7 	Cloudy	41	30.06	10	8	NNW
Sun Jan 31 03:39:02 2010	Jacksonville	63 17 	Cloudy	77	29.83	10	5	NNE
Sun Jan 31 03:39:03 2010	Columbus	18 -8 	Mostly Clear	56	30.16	10	6	N
Sun Jan 31 03:39:04 2010	Dallas	31 -1 	Cloudy	78	30.29	10	9	NW
Sun Jan 31 03:39:05 2010	Houston	37 3 	Cloudy	69	30.23	10	15	N
Sun Jan 31 03:39:06 2010	Milwaukee	19 -7 	Cloudy	73	30.18	10	6	WNW
Sun Jan 31 03:39:06 2010	Seattle	45 7 	Cloudy	93	29.97	10	5	S
Sun Jan 31 03:39:07 2010	Detroit	14 -10 	Mostly Clear	80	30.22	10	5	SSW
Sun Jan 31 03:39:08 2010	Philadelphia	19 -7 		59	30.05	10	8	NNE
Sun Jan 31 04:23:51 2010	San Jose	54 12 	Partly Cloudy	74	30.02	10	12	W
Sun Jan 31 04:23:52 2010	Charlotte	23 -5 	Cloudy	77	30	10	13	N
Sun Jan 31 04:23:53 2010	Denver	33 1 	Mostly Clear	61	29.95	10	9	SSE
Sun Jan 31 04:23:53 2010	San Diego	54 12 	Partly Cloudy	82	29.95	10	3	NNW
Sun Jan 31 04:23:54 2010	Memphis	24 -4 	Clear	77	30.23	9	5	N
Sun Jan 31 04:23:55 2010	Los Angeles	54 12 	Clear	71	29.92	10	0	CLM
Sun Jan 31 04:23:56 2010	El Paso	44 7 		67	30	10	3	NNE
Sun Jan 31 04:23:57 2010	Baltimore	17 -8 	Light Snow	80	30.04	6	5	NNW
Sun Jan 31 04:23:57 2010	New York	19 -7 	Cloudy	47	30.02	10	7	N
Sun Jan 31 04:23:58 2010	Las Vegas	54 12 	Mostly Cloudy	54	29.88	10	6	N
Sun Jan 31 04:23:59 2010	Washington	19 -7 	Light Snow	67	30.06	5	17	N
Sun Jan 31 04:24:00 2010	Austin	32 0 	Clear	86	30.25	10	6	NE
Sun Jan 31 04:24:01 2010	Oklahoma City	20 -7 	Cloudy	94	30.27	6	5	S
Sun Jan 31 04:24:01 2010	San Francisco	51 11 	Partly Cloudy	88	30.04	10	4	W
Sun Jan 31 04:24:02 2010	Nashville	25 -4 	Partly Cloudy	71	30.19	10	6	NNW
Sun Jan 31 04:24:03 2010	Fort Worth	30 -1 	Cloudy	78	30.28	10	8	NNW
Sun Jan 31 04:24:04 2010	Phoenix	58 14 	Clear	43	29.88	10	6	E
Sun Jan 31 04:24:04 2010	Portland	44 7 	Cloudy	85	30	10	5	E
Sun Jan 31 04:24:05 2010	Chicago	21 -6 	Cloudy	70	30.25	10	3	SSE
Sun Jan 31 04:24:06 2010	San Antonio	41 5 	Clear	70	30.2	10	8	NNE
Sun Jan 31 04:24:07 2010	Indianapolis	16 -9 	Mostly Clear	85	30.19	10	0	CLM
Sun Jan 31 04:24:08 2010	Boston	18 -8 	Mostly Cloudy	43	30.04	10	9	NNW
Sun Jan 31 04:24:08 2010	Jacksonville	53 12 	Cloudy	82	29.88	10	9	N
Sun Jan 31 04:24:09 2010	Columbus	17 -8 	Mostly Clear	67	30.17	10	6	N
Sun Jan 31 04:24:10 2010	Dallas	31 -1 	Cloudy	78	30.3	10	9	N
Sun Jan 31 04:24:11 2010	Houston	37 3 	Cloudy	69	30.25	10	13	N
Sun Jan 31 04:24:12 2010	Milwaukee	18 -8 	Cloudy	73	30.18	10	5	W
Sun Jan 31 04:24:12 2010	Seattle	45 7 	Light Fog	92	29.98	2	3	S
Sun Jan 31 04:24:13 2010	Detroit	13 -11 	Mostly Clear	80	30.22	10	3	SSW
Sun Jan 31 04:24:14 2010	Philadelphia	19 -7 	Cloudy	49	30.03	10	12	N
Sun Jan 31 05:06:58 2010	San Jose	50 10 	Mostly Clear	84	30.02	10	3	W
Sun Jan 31 05:06:59 2010	Charlotte	23 -5 	Cloudy	77	30	10	13	N
Sun Jan 31 05:07:00 2010	Denver	33 1 	Mostly Clear	61	29.95	10	9	SSE
Sun Jan 31 05:07:00 2010	San Diego	54 12 	Partly Cloudy	82	29.95	10	3	NNW
Sun Jan 31 05:07:01 2010	Memphis	24 -4 	Clear	77	30.23	9	5	N
Sun Jan 31 05:07:02 2010	Los Angeles	54 12 	Clear	71	29.92	10	0	CLM
Sun Jan 31 05:07:03 2010	El Paso	44 7 		67	30	10	3	NNE
Sun Jan 31 05:07:04 2010	Baltimore	17 -8 	Light Snow	80	30.04	6	5	NNW
Sun Jan 31 05:07:04 2010	New York	19 -7 	Cloudy	47	30.02	10	7	N
Sun Jan 31 05:07:05 2010	Las Vegas	54 12 	Mostly Cloudy	54	29.88	10	6	N
Sun Jan 31 05:07:06 2010	Washington	18 -8 	Light Snow	73	30.06	3	13	N
Sun Jan 31 05:07:07 2010	Austin	32 0 	Clear	86	30.27	10	6	NE
Sun Jan 31 05:07:08 2010	Oklahoma City	20 -7 	Cloudy	94	30.27	6	5	S
Sun Jan 31 05:07:08 2010	San Francisco	51 11 	Mostly Clear	89	30.04	10	5	W
Sun Jan 31 05:07:09 2010	Nashville	25 -4 	Partly Cloudy	71	30.19	10	6	NNW
Sun Jan 31 05:07:10 2010	Fort Worth	30 -1 	Cloudy	78	30.28	10	8	NNW
Sun Jan 31 05:07:11 2010	Phoenix	58 14 	Clear	43	29.88	10	6	E
Sun Jan 31 05:07:12 2010	Chicago	21 -6 	Cloudy	70	30.25	10	3	SSE
Sun Jan 31 05:07:12 2010	Portland	44 7 	Cloudy	85	30	10	5	E
Sun Jan 31 05:07:13 2010	San Antonio	41 5 	Clear	70	30.2	10	8	NNE
Sun Jan 31 05:07:14 2010	Indianapolis	18 -8 		79	30.19	10	0	CLM
Sun Jan 31 05:07:15 2010	Boston	18 -8 	Mostly Cloudy	43	30.04	10	9	NNW
Sun Jan 31 05:07:15 2010	Jacksonville	53 12 	Cloudy	82	29.88	10	9	N
Sun Jan 31 05:07:16 2010	Columbus	17 -8 	Mostly Clear	67	30.17	10	6	N
Sun Jan 31 05:07:17 2010	Dallas	31 -1 	Cloudy	78	30.3	10	9	N
Sun Jan 31 05:07:18 2010	Houston	37 3 	Cloudy	69	30.25	10	13	N
Sun Jan 31 05:07:19 2010	Milwaukee	18 -8 	Mostly Cloudy	73	30.16	10	0	CLM
Sun Jan 31 05:07:19 2010	Seattle	45 7 	Light Fog	92	29.98	2	3	S
Sun Jan 31 05:07:20 2010	Detroit	13 -11 	Mostly Clear	80	30.22	10	3	SSW
Sun Jan 31 05:07:21 2010	Philadelphia	19 -7 	Cloudy	49	30.03	10	12	N
Sun Jan 31 05:55:07 2010	San Jose	50 10 	Partly Cloudy	87	30.04	10	5	N
Sun Jan 31 05:55:08 2010	Charlotte	24 -4 	Cloudy	71	30.01	10	9	NNE
Sun Jan 31 05:55:08 2010	San Diego	53 12 	Clear	82	29.95	10	3	NW
Sun Jan 31 05:55:09 2010	Denver	27 -3 	Mostly Clear	74	29.95	10	7	WSW
Sun Jan 31 05:55:10 2010	Memphis	24 -4 	Clear	77	30.26	10	0	CLM
Sun Jan 31 05:55:11 2010	Los Angeles	53 12 	Clear	76	29.92	9	0	CLM
Sun Jan 31 05:55:12 2010	El Paso	43 6 	Mostly Clear	65	30	10	7	NE
Sun Jan 31 05:55:12 2010	New York	19 -7 	Cloudy	47	30	10	12	NNW
Sun Jan 31 05:55:13 2010	Baltimore	18 -8 	Cloudy	71	30.03	7	5	NNW
Sun Jan 31 05:55:14 2010	Las Vegas	52 11 	Partly Cloudy	61	29.89	10	5	W
Sun Jan 31 05:55:15 2010	Washington	18 -8 	Light Snow	73	30.07	3	16	NNW
Sun Jan 31 05:55:16 2010	Austin	32 0 	Partly Cloudy	86	30.26	10	0	CLM
Sun Jan 31 05:55:16 2010	San Francisco	50 10 	Mostly Clear	89	30.05	10	5	W
Sun Jan 31 05:55:17 2010	Oklahoma City	19 -7 	Dense Fog	79	30.23	0	0	CLM
Sun Jan 31 05:55:18 2010	Nashville	23 -5 	Clear	74	30.2	10	6	NNW
Sun Jan 31 05:55:19 2010	Fort Worth	30 -1 	Cloudy	81	30.28	10	10	N
Sun Jan 31 05:55:20 2010	Phoenix	54 12 	Clear	56	29.88	10	6	E
Sun Jan 31 05:55:20 2010	Portland	44 7 	Cloudy	85	30	10	3	ENE
Sun Jan 31 05:55:21 2010	Chicago	21 -6 	Cloudy	68	30.2	10	3	SW
Sun Jan 31 05:55:22 2010	San Antonio	39 4 	Clear	75	30.21	10	6	NE
Sun Jan 31 05:55:23 2010	Boston	17 -8 	Cloudy	42	30.03	10	13	NNW
Sun Jan 31 05:55:23 2010	Indianapolis	18 -8 	Cloudy	79	30.17	10	3	ENE
Sun Jan 31 05:55:24 2010	Jacksonville	50 10 	Cloudy	81	29.93	10	6	NNW
Sun Jan 31 05:55:25 2010	Columbus	15 -9 	Clear	73	30.19	10	6	N
Sun Jan 31 05:55:26 2010	Dallas	31 -1 	Cloudy	78	30.29	10	9	NNE
Sun Jan 31 05:55:27 2010	Houston	36 2 	Cloudy	72	30.27	10	13	N
Sun Jan 31 05:55:27 2010	Seattle	45 7 	Light Fog	92	29.98	2	3	S
Sun Jan 31 05:55:28 2010	Milwaukee	18 -8 	Partly Cloudy	73	30.16	10	3	WSW
Sun Jan 31 05:55:29 2010	Detroit	13 -11 	Mostly Clear	80	30.21	9	5	WSW
Sun Jan 31 05:55:30 2010	Philadelphia	19 -7 	Cloudy	49	30.02	10	15	N
Sun Jan 31 06:38:09 2010	Charlotte	23 -5 	Partly Cloudy	74	30.03	10	8	NNE
Sun Jan 31 06:38:09 2010	San Jose	50 10 	Partly Cloudy	81	30.05	10	0	CLM
Sun Jan 31 06:38:10 2010	San Diego	52 11 	Clear	86	29.95	8	0	CLM
Sun Jan 31 06:38:11 2010	Denver	28 -2 	Mostly Clear	74	29.94	10	12	W
Sun Jan 31 06:38:12 2010	Memphis	24 -4 	Clear	77	30.28	10	0	CLM
Sun Jan 31 06:38:13 2010	El Paso	41 5 		73	30.01	10	6	NNW
Sun Jan 31 06:38:13 2010	Los Angeles	51 11 	Clear	79	29.91	10	0	CLM
Sun Jan 31 06:38:14 2010	New York	18 -8 	Cloudy	49	29.99	10	8	N
Sun Jan 31 06:38:15 2010	Baltimore	19 -7 	Cloudy	59	30.04	10	3	NW
Sun Jan 31 06:38:16 2010	Las Vegas	50 10 	Partly Cloudy	63	29.89	10	5	W
Sun Jan 31 06:38:17 2010	Austin	32 0 	Clear	86	30.26	8	7	NNE
Sun Jan 31 06:38:17 2010	Washington	18 -8 	Light Snow	73	30.07	5	9	NNW
Sun Jan 31 06:38:18 2010	San Francisco	49 9 	Mostly Clear	91	30.05	10	4	W
Sun Jan 31 06:38:19 2010	Oklahoma City	19 -7 	Dense Fog	93	30.27	0	3	S
Sun Jan 31 06:38:20 2010	Fort Worth	30 -1 	Cloudy	81	30.29	10	8	N
Sun Jan 31 06:38:20 2010	Nashville	22 -6 	Clear	77	30.21	10	5	NNW
Sun Jan 31 06:38:21 2010	Phoenix	54 12 	Clear	54	29.88	10	7	NE
Sun Jan 31 06:38:22 2010	Portland	43 6 	Cloudy	88	30	10	3	E
Sun Jan 31 06:38:23 2010	Chicago	20 -7 	Cloudy	74	30.24	10	3	SW
Sun Jan 31 06:38:24 2010	Indianapolis	18 -8 	Cloudy	79	30.19	10	0	CLM
Sun Jan 31 06:38:24 2010	San Antonio	37 3 	Clear	78	30.22	10	0	CLM
Sun Jan 31 06:38:25 2010	Boston	17 -8 	Cloudy	45	30	10	8	NNW
Sun Jan 31 06:38:26 2010	Jacksonville	49 9 	Cloudy	73	29.95	10	9	NNW
Sun Jan 31 06:38:27 2010	Columbus	14 -10 	Partly Cloudy	73	30.19	10	3	N
Sun Jan 31 06:38:28 2010	Dallas	31 -1 	Cloudy	78	30.3	10	7	NE
Sun Jan 31 06:38:28 2010	Houston	37 3 	Cloudy	72	30.27	10	13	N
Sun Jan 31 06:38:29 2010	Seattle	45 7 	Cloudy	93	29.97	6	5	SSE
Sun Jan 31 06:38:30 2010	Milwaukee	16 -9 	Cloudy	79	30.16	10	3	WSW
Sun Jan 31 06:38:31 2010	Detroit	13 -11 		80	30.21	10	7	W
Sun Jan 31 06:38:32 2010	Philadelphia	19 -7 	Cloudy	51	30.01	10	10	N
Sun Jan 31 07:21:49 2010	San Jose	48 9 	Partly Cloudy	81	30.06	10	0	CLM
Sun Jan 31 07:21:50 2010	Charlotte	22 -6 	Partly Cloudy	77	30.04	10	5	NNE
Sun Jan 31 07:21:51 2010	San Diego	51 11 	Cloudy	85	29.95	6	0	CLM
Sun Jan 31 07:21:52 2010	Denver	29 -2 	Mostly Clear	72	29.93	10	9	WSW
Sun Jan 31 07:21:52 2010	Memphis	24 -4 	Clear	77	30.28	10	0	CLM
Sun Jan 31 07:21:53 2010	Los Angeles	50 10 	Clear	79	29.93	9	0	CLM
Sun Jan 31 07:21:54 2010	El Paso	42 6 		70	30	10	5	N
Sun Jan 31 07:21:55 2010	New York	17 -8 	Mostly Cloudy	46	30	10	8	N
Sun Jan 31 07:21:56 2010	Baltimore	19 -7 	Cloudy	59	30.04	10	3	WNW
Sun Jan 31 07:21:56 2010	Las Vegas	48 9 	Clear	70	29.9	10	5	SSW
Sun Jan 31 07:21:57 2010	Washington	19 -7 	Cloudy	59	30.06	8	9	NW
Sun Jan 31 07:21:58 2010	Austin	32 0 	Cloudy	86	30.26	7	7	NNE
Sun Jan 31 07:21:59 2010	San Francisco	49 9 	Mostly Clear	92	30.06	10	4	W
Sun Jan 31 07:22:00 2010	Nashville	19 -7 	Clear	84	30.22	10	0	CLM
Sun Jan 31 07:22:00 2010	Oklahoma City	18 -8 	Dense Fog	100	30.24	0	3	S
Sun Jan 31 07:22:01 2010	Fort Worth	30 -1 	Cloudy	81	30.29	10	8	NE
Sun Jan 31 07:22:02 2010	Phoenix	54 12 	Clear	54	29.88	10	6	NE
Sun Jan 31 07:22:03 2010	Portland	43 6 	Cloudy	92	30.01	10	3	E
Sun Jan 31 07:22:04 2010	Chicago	20 -7 	Cloudy	71	30.24	10	5	SW
Sun Jan 31 07:22:04 2010	San Antonio	35 2 	Clear	84	30.23	10	6	ENE
Sun Jan 31 07:22:05 2010	Indianapolis	14 -10 	Mostly Cloudy	85	30.18	10	0	CLM
Sun Jan 31 07:22:06 2010	Boston	16 -9 	Cloudy	47	29.98	10	12	NNW
Sun Jan 31 07:22:07 2010	Columbus	14 -10 	Cloudy	77	30.19	10	0	CLM
Sun Jan 31 07:22:07 2010	Jacksonville	47 8 	Cloudy	76	29.97	10	8	NNW
Sun Jan 31 07:22:08 2010	Dallas	30 -1 	Cloudy	81	30.3	10	3	NE
Sun Jan 31 07:22:09 2010	Houston	37 3 	Cloudy	72	30.26	10	12	N
Sun Jan 31 07:22:10 2010	Seattle	45 7 	Cloudy	92	29.98	6	5	S
Sun Jan 31 07:22:11 2010	Detroit	11-Dec	Mostly Clear	80	30.2	10	5	W
Sun Jan 31 07:22:11 2010	Milwaukee	16 -9 	Partly Cloudy	79	30.15	10	3	WSW
Sun Jan 31 07:22:12 2010	Philadelphia	19 -7 	Cloudy	51	30.02	10	13	N
Sun Jan 31 08:09:16 2010	San Jose	48 9 	Partly Cloudy	81	30.06	10	0	CLM
Sun Jan 31 08:09:17 2010	Charlotte	22 -6 	Partly Cloudy	77	30.04	10	5	NNE
Sun Jan 31 08:09:18 2010	Denver	29 -2 	Mostly Clear	72	29.93	10	9	WSW
Sun Jan 31 08:09:18 2010	San Diego	50 10 	Partly Cloudy	87	29.96	6	0	CLM
Sun Jan 31 08:09:19 2010	Memphis	24 -4 	Partly Cloudy	77	30.28	10	0	CLM
Sun Jan 31 08:09:20 2010	Los Angeles	50 10 	Clear	79	29.93	9	0	CLM
Sun Jan 31 08:09:21 2010	El Paso	42 6 		70	30	10	5	N
Sun Jan 31 08:09:22 2010	Baltimore	19 -7 	Cloudy	59	30.04	10	3	WNW
Sun Jan 31 08:09:22 2010	New York	17 -8 	Cloudy	46	30	10	8	N
Sun Jan 31 08:09:23 2010	Las Vegas	48 9 	Clear	70	29.9	10	5	SSW
Sun Jan 31 08:09:24 2010	Washington	19 -7 	Cloudy	59	30.06	8	9	NW
Sun Jan 31 08:09:25 2010	Austin	32 0 	Cloudy	86	30.26	10	12	NE
Sun Jan 31 08:09:26 2010	Oklahoma City	18 -8 	Dense Fog	100	30.24	0	3	S
Sun Jan 31 08:09:26 2010	San Francisco	48 9 	Mostly Clear	92	30.06	9	4	W
Sun Jan 31 08:09:27 2010	Nashville	19 -7 	Partly Cloudy	84	30.22	10	0	CLM
Sun Jan 31 08:09:28 2010	Fort Worth	30 -1 	Cloudy	81	30.29	10	8	NE
Sun Jan 31 08:09:29 2010	Phoenix	54 12 	Clear	54	29.88	10	6	NE
Sun Jan 31 08:09:30 2010	Chicago	19 -7 	Cloudy	73	30.18	10	5	SSW
Sun Jan 31 08:09:30 2010	Portland	43 6 	Cloudy	92	30.01	10	3	E
Sun Jan 31 08:09:31 2010	San Antonio	35 2 	Clear	84	30.23	10	6	ENE
Sun Jan 31 08:09:32 2010	Indianapolis	12-Oct	Clear	92	30.18	10	0	CLM
Sun Jan 31 08:09:33 2010	Boston	16 -9 	Cloudy	47	29.98	10	12	NNW
Sun Jan 31 08:09:33 2010	Jacksonville	47 8 	Cloudy	76	29.97	10	8	NNW
Sun Jan 31 08:09:34 2010	Columbus	14 -10 	Cloudy	77	30.19	10	0	CLM
Sun Jan 31 08:09:35 2010	Dallas	30 -1 	Cloudy	81	30.3	10	3	NE
Sun Jan 31 08:09:36 2010	Houston	37 3 	Cloudy	72	30.26	10	12	N
Sun Jan 31 08:09:37 2010	Milwaukee	16 -9 	Partly Cloudy	73	30.15	10	5	WSW
Sun Jan 31 08:09:37 2010	Seattle	45 7 	Cloudy	93	29.98	5	3	S
Sun Jan 31 08:09:38 2010	Detroit	11-Dec	Mostly Clear	80	30.2	10	5	W
Sun Jan 31 08:09:39 2010	Philadelphia	19 -7 	Cloudy	51	30.02	10	13	N
Sun Jan 31 08:52:49 2010	San Jose	47 8 	Mostly Cloudy	90	30.05	9	2	NE
Sun Jan 31 08:52:50 2010	Charlotte	21 -6 	Partly Cloudy	80	30.06	10	3	N
Sun Jan 31 08:52:51 2010	San Diego	50 10 	Clear	86	29.95	6	0	CLM
Sun Jan 31 08:52:52 2010	Denver	29 -2 	Mostly Clear	68	29.91	10	10	W
Sun Jan 31 08:52:52 2010	Memphis	22 -6 	Clear	77	30.28	10	7	N
Sun Jan 31 08:52:53 2010	Los Angeles	48 9 	Clear	82	29.93	10	3	N
Sun Jan 31 08:52:54 2010	El Paso	42 6 	Cloudy	70	29.98	10	5	NE
Sun Jan 31 08:52:55 2010	New York	17 -8 	Clear	46	29.99	10	8	N
Sun Jan 31 08:52:56 2010	Baltimore	18 -8 	Cloudy	59	30.05	10	6	NW
Sun Jan 31 08:52:56 2010	Las Vegas	46 8 	Clear	73	29.9	10	3	W
Sun Jan 31 08:52:57 2010	Washington	20 -7 	Cloudy	52	30.07	10	15	NNW
Sun Jan 31 08:52:58 2010	Austin	32 0 	Cloudy	86	30.26	9	10	N
Sun Jan 31 08:52:59 2010	San Francisco	48 9 		92	30.06	9	3	WNW
Sun Jan 31 08:53:00 2010	Nashville	16 -9 	Clear	91	30.24	8	0	CLM
Sun Jan 31 08:53:00 2010	Oklahoma City	17 -8 	Dense Fog	97	30.25	0	0	CLM
Sun Jan 31 08:53:01 2010	Fort Worth	30 -1 	Cloudy	81	30.28	10	7	NNE
Sun Jan 31 08:53:02 2010	Phoenix	52 11 	Clear	58	29.87	10	10	NE
Sun Jan 31 08:53:03 2010	Portland	43 6 	Light Rain	92	30.01	10	0	CLM
Sun Jan 31 08:53:04 2010	Chicago	20 -7 	Cloudy	71	30.23	10	5	SSW
Sun Jan 31 08:53:04 2010	San Antonio	34 1 	Clear	85	30.23	10	6	ENE
Sun Jan 31 08:53:05 2010	Indianapolis	13-Sep	Clear	92	30.18	7	0	CLM
Sun Jan 31 08:53:06 2010	Boston	16 -9 	Cloudy	47	29.98	10	12	NNW
Sun Jan 31 08:53:07 2010	Jacksonville	45 7 	Mostly Cloudy	75	30	10	8	N
Sun Jan 31 08:53:08 2010	Columbus	14 -10 	Mostly Cloudy	73	30.19	10	3	NNW
Sun Jan 31 08:53:08 2010	Dallas	31 -1 	Cloudy	78	30.3	10	6	NNE
Sun Jan 31 08:53:09 2010	Houston	36 2 	Cloudy	75	30.27	10	8	NE
Sun Jan 31 08:53:10 2010	Seattle	45 7 	Cloudy	93	29.98	5	5	S
Sun Jan 31 08:53:11 2010	Milwaukee	14 -10 	Mostly Cloudy	78	30.15	10	5	SW
Sun Jan 31 08:53:12 2010	Detroit	11-Dec	Partly Cloudy	80	30.2	10	6	WSW
Sun Jan 31 08:53:12 2010	Philadelphia	18 -8 	Mostly Cloudy	54	30.02	10	14	N
Sun Jan 31 09:35:51 2010	San Jose	47 8 	Partly Cloudy	90	30.04	9	3	NW
Sun Jan 31 09:35:52 2010	Charlotte	20 -7 	Clear	84	30.08	10	5	N
Sun Jan 31 09:35:53 2010	San Diego	49 9 	Clear	89	29.96	5	0	CLM
Sun Jan 31 09:35:54 2010	Denver	29 -2 	Mostly Clear	68	29.89	10	6	WSW
Sun Jan 31 09:35:54 2010	Memphis	22 -6 	Clear	77	30.3	10	0	CLM
Sun Jan 31 09:35:55 2010	Los Angeles	48 9 	Clear	79	29.93	10	0	CLM
Sun Jan 31 09:35:56 2010	El Paso	41 5 	Cloudy	73	29.97	10	7	NNE
Sun Jan 31 09:35:57 2010	New York	17 -8 	Clear	46	30.01	10	8	NNE
Sun Jan 31 09:35:58 2010	Baltimore	18 -8 	Cloudy	56	30.06	10	6	NW
Sun Jan 31 09:35:58 2010	Las Vegas	45 7 	Partly Cloudy	73	29.9	10	3	SW
Sun Jan 31 09:35:59 2010	Washington	20 -7 	Cloudy	49	30.07	10	14	NNW
Sun Jan 31 09:36:00 2010	Austin	32 0 	Cloudy	86	30.26	8	12	NE
Sun Jan 31 09:36:01 2010	San Francisco	47 8 		93	30.05	9	3	WNW
Sun Jan 31 09:36:02 2010	Nashville	19 -7 	Clear	84	30.26	9	6	WNW
Sun Jan 31 09:36:02 2010	Oklahoma City	19 -7 	Dense Fog	96	30.28	0	5	S
Sun Jan 31 09:36:03 2010	Fort Worth	30 -1 	Cloudy	81	30.29	10	5	ENE
Sun Jan 31 09:36:04 2010	Phoenix	54 12 	Clear	52	29.86	10	10	ENE
Sun Jan 31 09:36:05 2010	Portland	43 6 	Cloudy	96	30.01	10	0	CLM
Sun Jan 31 09:36:06 2010	Chicago	18 -8 	Mostly Cloudy	77	30.24	10	6	W
Sun Jan 31 09:36:06 2010	San Antonio	32 0 	Clear	88	30.22	10	5	ENE
Sun Jan 31 09:36:07 2010	Indianapolis	13-Sep	Mostly Clear	92	30.19	10	0	CLM
Sun Jan 31 09:36:08 2010	Boston	16 -9 	Cloudy	44	29.98	10	13	NNW
Sun Jan 31 09:36:09 2010	Jacksonville	44 7 	Mostly Cloudy	76	30	10	8	N
Sun Jan 31 09:36:10 2010	Columbus	14 -10 	Mostly Cloudy	77	30.2	10	3	N
Sun Jan 31 09:36:10 2010	Dallas	31 -1 	Cloudy	82	30.3	10	6	E
Sun Jan 31 09:36:11 2010	Houston	36 2 	Cloudy	75	30.28	10	10	NE
Sun Jan 31 09:36:12 2010	Seattle	45 7 	Cloudy	92	29.98	5	5	S
Sun Jan 31 09:36:13 2010	Milwaukee	14 -10 	Partly Cloudy	78	30.15	10	6	WSW
Sun Jan 31 09:36:14 2010	Detroit	11-Dec	Partly Cloudy	76	30.2	10	7	WSW
Sun Jan 31 09:36:14 2010	Philadelphia	18 -8 	Clear	51	30.04	10	13	N
Sun Jan 31 10:19:44 2010	San Jose	46 8 	Partly Cloudy	90	30.04	9	2	NW
Sun Jan 31 10:19:45 2010	Charlotte	20 -7 	Clear	84	30.08	10	5	N
Sun Jan 31 10:19:46 2010	San Diego	49 9 	Clear	89	29.96	5	0	CLM
Sun Jan 31 10:19:47 2010	Denver	29 -2 	Mostly Clear	68	29.89	10	6	WSW
Sun Jan 31 10:19:48 2010	Los Angeles	48 9 	Clear	79	29.93	10	0	CLM
Sun Jan 31 10:19:48 2010	Memphis	22 -6 	Clear	77	30.3	10	0	CLM
Sun Jan 31 10:19:49 2010	El Paso	41 5 	Cloudy	73	29.97	10	7	NNE
Sun Jan 31 10:19:50 2010	New York	17 -8 	Cloudy	46	30.01	10	8	NNE
Sun Jan 31 10:19:51 2010	Baltimore	18 -8 	Cloudy	56	30.06	10	6	NW
Sun Jan 31 10:19:52 2010	Las Vegas	45 7 	Partly Cloudy	73	29.9	10	3	SW
Sun Jan 31 10:19:52 2010	Washington	20 -7 	Cloudy	49	30.07	10	14	NNW
Sun Jan 31 10:19:53 2010	Austin	32 0 	Cloudy	86	30.26	7	13	NE
Sun Jan 31 10:19:54 2010	San Francisco	47 8 		93	30.05	9	3	ESE
Sun Jan 31 10:19:55 2010	Oklahoma City	19 -7 	Dense Fog	96	30.28	0	5	S
Sun Jan 31 10:19:56 2010	Fort Worth	30 -1 	Cloudy	81	30.29	10	5	ENE
Sun Jan 31 10:19:56 2010	Nashville	19 -7 	Clear	84	30.26	9	6	WNW
Sun Jan 31 10:19:57 2010	Phoenix	54 12 	Clear	52	29.86	10	10	ENE
Sun Jan 31 10:19:58 2010	Portland	43 6 	Cloudy	100	30.01	10	0	CLM
Sun Jan 31 10:19:59 2010	Chicago	19 -7 	Cloudy	73	30.19	9	5	W
Sun Jan 31 10:20:00 2010	Indianapolis	13-Sep	Partly Cloudy	85	30.19	10	0	CLM
Sun Jan 31 10:20:00 2010	San Antonio	32 0 	Mostly Clear	88	30.22	10	5	ENE
Sun Jan 31 10:20:01 2010	Boston	16 -9 	Cloudy	44	29.98	10	13	NNW
Sun Jan 31 10:20:02 2010	Jacksonville	44 7 	Mostly Cloudy	76	30	10	8	N
Sun Jan 31 10:20:03 2010	Columbus	14 -10 	Mostly Cloudy	77	30.2	10	3	N
Sun Jan 31 10:20:04 2010	Dallas	31 -1 	Cloudy	82	30.3	10	6	E
Sun Jan 31 10:20:04 2010	Houston	36 2 	Cloudy	75	30.28	10	10	NE
Sun Jan 31 10:20:05 2010	Seattle	45 7 	Cloudy	92	29.98	5	5	S
Sun Jan 31 10:20:06 2010	Milwaukee	14 -10 	Partly Cloudy	78	30.15	10	5	W
Sun Jan 31 10:20:07 2010	Detroit	11-Dec	Partly Cloudy	76	30.2	10	7	WSW
Sun Jan 31 10:20:07 2010	Philadelphia	18 -8 	Cloudy	51	30.04	10	13	N
Sun Jan 31 11:02:57 2010	San Jose	47 8 		90	30.03	9	3	NE
Sun Jan 31 11:02:58 2010	Charlotte	20 -7 	Clear	84	30.1	10	3	N
Sun Jan 31 11:02:59 2010	Denver	28 -2 	Cloudy	74	29.88	10	10	W
Sun Jan 31 11:02:59 2010	San Diego	49 9 	Clear	89	29.96	5	5	NNE
Sun Jan 31 11:03:00 2010	Memphis	20 -7 	Partly Cloudy	81	30.31	9	0	CLM
Sun Jan 31 11:03:01 2010	Los Angeles	46 8 	Clear	85	29.92	8	3	N
Sun Jan 31 11:03:02 2010	El Paso	39 4 	Cloudy	79	29.97	10	7	N
Sun Jan 31 11:03:03 2010	Baltimore	17 -8 	Partly Cloudy	56	30.08	10	7	NW
Sun Jan 31 11:03:03 2010	New York	17 -8 	Mostly Clear	46	30.02	10	7	N
Sun Jan 31 11:03:04 2010	Las Vegas	45 7 	Partly Cloudy	73	29.9	10	0	CLM
Sun Jan 31 11:03:05 2010	Washington	19 -7 	Partly Cloudy	51	30.09	10	13	NNW
Sun Jan 31 11:03:06 2010	Austin	32 0 	Cloudy	86	30.27	6	8	NNE
Sun Jan 31 11:03:07 2010	Oklahoma City	21 -6 	Dense Fog	92	30.23	0	5	SSE
Sun Jan 31 11:03:07 2010	San Francisco	46 8 		93	30.04	9	2	SSE
Sun Jan 31 11:03:08 2010	Nashville	17 -8 	Mostly Clear	83	30.27	8	5	W
Sun Jan 31 11:03:09 2010	Fort Worth	31 -1 	Cloudy	78	30.29	10	0	CLM
Sun Jan 31 11:03:10 2010	Phoenix	52 11 	Clear	56	29.86	10	6	NE
Sun Jan 31 11:03:11 2010	Chicago	19 -7 	Cloudy	76	30.25	10	7	W
Sun Jan 31 11:03:11 2010	Portland	43 6 	Cloudy	93	30.01	10	0	CLM
Sun Jan 31 11:03:12 2010	San Antonio	30 -1 	Cloudy	92	30.23	6	5	NE
Sun Jan 31 11:03:13 2010	Indianapolis	13-Sep	Clear	85	30.21	10	0	CLM
Sun Jan 31 11:03:14 2010	Boston	15 -9 	Cloudy	46	29.98	10	13	NW
Sun Jan 31 11:03:15 2010	Columbus	13 -11 	Clear	80	30.21	10	0	CLM
Sun Jan 31 11:03:15 2010	Jacksonville	43 6 	Cloudy	76	30.02	10	9	N
Sun Jan 31 11:03:16 2010	Dallas	31 -1 	Cloudy	82	30.3	10	0	CLM
Sun Jan 31 11:03:17 2010	Houston	35 2 	Cloudy	78	30.28	10	7	NNE
Sun Jan 31 11:03:18 2010	Seattle	45 7 	Light Fog	93	29.98	2	5	SSE
Sun Jan 31 11:03:19 2010	Detroit	11-Dec	Mostly Clear	76	30.2	10	7	WSW
Sun Jan 31 11:03:19 2010	Milwaukee	14 -10 	Partly Cloudy	72	30.14	10	5	W
Sun Jan 31 11:03:20 2010	Philadelphia	17 -8 	Cloudy	53	30.06	10	10	NNW
Sun Jan 31 11:46:50 2010	San Jose	47 8 	Cloudy	89	30.03	8	2	N
Sun Jan 31 11:46:51 2010	Charlotte	16 -9 	Clear	91	30.12	10	0	CLM
Sun Jan 31 11:46:52 2010	Denver	26 -3 	Mostly Clear	77	29.88	10	8	W
Sun Jan 31 11:46:52 2010	San Diego	48 9 	Mostly Cloudy	87	29.95	4	0	CLM
Sun Jan 31 11:46:53 2010	Memphis	21 -6 	Clear	80	30.31	9	0	CLM
Sun Jan 31 11:46:54 2010	Los Angeles	45 7 	Clear	85	29.92	9	0	CLM
Sun Jan 31 11:46:55 2010	El Paso	39 4 	Mostly Cloudy	79	29.96	10	6	NNE
Sun Jan 31 11:46:56 2010	Baltimore	15 -9 	Partly Cloudy	58	30.11	10	6	NW
Sun Jan 31 11:46:56 2010	New York	16 -9 	Clear	47	30.06	10	7	N
Sun Jan 31 11:46:57 2010	Las Vegas	44 7 	Partly Cloudy	73	29.9	10	0	CLM
Sun Jan 31 11:46:58 2010	Washington	17 -8 	Partly Cloudy	53	30.13	10	10	NNW
Sun Jan 31 11:46:59 2010	Austin	32 0 	Cloudy	86	30.27	7	8	NE
Sun Jan 31 11:47:00 2010	Oklahoma City	21 -6 	Dense Fog	94	30.26	0	5	SSE
Sun Jan 31 11:47:00 2010	San Francisco	46 8 		93	30.04	9	2	SSE
Sun Jan 31 11:47:01 2010	Nashville	15 -9 	Clear	87	30.27	7	0	CLM
Sun Jan 31 11:47:02 2010	Fort Worth	31 -1 	Cloudy	78	30.3	10	0	CLM
Sun Jan 31 11:47:04 2010	Phoenix	52 11 	Clear	56	29.86	10	5	NE
Sun Jan 31 11:47:04 2010	Portland	43 6 	Light Rain	96	30	7	0	CLM
Sun Jan 31 11:47:05 2010	Chicago	19 -7 	Cloudy	73	30.19	10	8	W
Sun Jan 31 11:47:06 2010	San Antonio	32 0 	Cloudy	86	30.24	6	6	ENE
Sun Jan 31 11:47:07 2010	Indianapolis	15-May	Clear	92	30.21	10	0	CLM
Sun Jan 31 11:47:08 2010	Boston	14 -10 		42	30	10	13	NNW
Sun Jan 31 11:47:08 2010	Jacksonville	43 6 	Cloudy	73	30.05	10	13	N
Sun Jan 31 11:47:09 2010	Columbus	11-Dec	Clear	84	30.22	10	0	CLM
Sun Jan 31 11:47:10 2010	Dallas	31 -1 	Cloudy	82	30.3	10	3	E
Sun Jan 31 11:47:11 2010	Houston	35 2 	Cloudy	75	30.28	9	9	NE
Sun Jan 31 11:47:11 2010	Seattle	45 7 	Light Fog	93	29.98	1	5	S
Sun Jan 31 11:47:12 2010	Milwaukee	11-Dec	Mostly Clear	72	30.14	10	6	WSW
Sun Jan 31 11:47:13 2010	Detroit	12-Nov	Partly Cloudy	80	30.2	10	7	WSW
Sun Jan 31 11:47:14 2010	Philadelphia	16 -9 	Clear	51	30.08	10	13	N
Sun Jan 31 12:29:40 2010	San Jose	47 8 		90	30.02	8	3	NE
Sun Jan 31 12:29:41 2010	Charlotte	16 -9 	Clear	91	30.14	9	0	CLM
Sun Jan 31 12:29:41 2010	San Diego	49 9 	Cloudy	89	29.94	5	0	CLM
Sun Jan 31 12:29:42 2010	Denver	26 -3 	Mostly Clear	77	29.87	10	7	W
Sun Jan 31 12:29:43 2010	Memphis	21 -6 	Clear	77	30.3	9	0	CLM
Sun Jan 31 12:29:44 2010	Los Angeles	44 7 	Clear	85	29.91	9	0	CLM
Sun Jan 31 12:29:45 2010	El Paso	39 4 	Cloudy	79	29.94	10	5	N
Sun Jan 31 12:29:45 2010	New York	15 -9 	Clear	49	30.06	10	8	NNW
Sun Jan 31 12:29:46 2010	Baltimore	13 -11 	Partly Cloudy	58	30.14	10	5	NW
Sun Jan 31 12:29:47 2010	Las Vegas	42 6 	Partly Cloudy	78	29.91	10	6	SSW
Sun Jan 31 12:29:48 2010	Washington	17 -8 		51	30.16	10	10	NNW
Sun Jan 31 12:29:49 2010	Austin	30 -1 	Cloudy	92	30.27	6	9	ENE
Sun Jan 31 12:29:49 2010	San Francisco	46 8 	Mostly Cloudy	93	30.04	9	2	SSE
Sun Jan 31 12:29:50 2010	Oklahoma City	22 -6 	Dense Fog	97	30.22	0	0	CLM
Sun Jan 31 12:29:51 2010	Nashville	14 -10 	Clear	91	30.3	6	0	CLM
Sun Jan 31 12:29:52 2010	Fort Worth	31 -1 	Cloudy	78	30.3	10	0	CLM
Sun Jan 31 12:29:53 2010	Phoenix	52 11 	Clear	56	29.85	10	7	NNE
Sun Jan 31 12:29:53 2010	Portland	43 6 	Rain	100	30.01	3	0	CLM
Sun Jan 31 12:29:54 2010	Chicago	18 -8 	Cloudy	77	30.25	10	5	WSW
Sun Jan 31 12:29:55 2010	San Antonio	32 0 	Cloudy	88	30.23	6	7	ENE
Sun Jan 31 12:29:56 2010	Indianapolis	15-May	Mostly Clear	92	30.22	10	0	CLM
Sun Jan 31 12:29:57 2010	Boston	14 -10 		33	30.02	10	14	NNW
Sun Jan 31 12:29:57 2010	Jacksonville	42 6 	Cloudy	76	30.08	10	16	NNE
Sun Jan 31 12:29:58 2010	Columbus	12-Nov	Clear	80	30.24	10	0	CLM
Sun Jan 31 12:29:59 2010	Dallas	31 -1 	Cloudy	82	30.31	10	0	CLM
Sun Jan 31 12:30:00 2010	Houston	34 1 	Cloudy	78	30.27	9	12	N
Sun Jan 31 12:30:00 2010	Seattle	45 7 	Light Fog	92	29.98	1	5	S
Sun Jan 31 12:30:01 2010	Milwaukee	11-Dec	Cloudy	72	30.15	10	7	WSW
Sun Jan 31 12:30:02 2010	Detroit	12-Nov	Mostly Cloudy	80	30.2	10	7	SW
Sun Jan 31 12:30:04 2010	Philadelphia	15 -9 	Clear	53	30.1	10	9	NNW
Sun Jan 31 13:13:56 2010	San Jose	46 8 		89	30.02	7	3	NNE
Sun Jan 31 13:13:57 2010	Charlotte	16 -9 	Partly Cloudy	91	30.14	9	0	CLM
Sun Jan 31 13:13:58 2010	San Diego	50 10 	Cloudy	87	29.94	6	0	CLM
Sun Jan 31 13:13:59 2010	Denver	26 -3 	Cloudy	77	29.87	10	7	W
Sun Jan 31 13:14:00 2010	Los Angeles	44 7 	Clear	85	29.91	9	0	CLM
Sun Jan 31 13:14:00 2010	Memphis	21 -6 	Partly Cloudy	77	30.3	9	0	CLM
Sun Jan 31 13:14:01 2010	El Paso	39 4 	Cloudy	79	29.94	10	5	N
Sun Jan 31 13:14:02 2010	New York	15 -9 	Clear	49	30.06	10	8	NNW
Sun Jan 31 13:14:03 2010	Baltimore	13 -11 	Partly Cloudy	58	30.14	10	5	NW
Sun Jan 31 13:14:04 2010	Las Vegas	42 6 	Partly Cloudy	78	29.91	10	6	SSW
Sun Jan 31 13:14:04 2010	Washington	17 -8 		51	30.16	10	10	NNW
Sun Jan 31 13:14:05 2010	Austin	30 -1 	Cloudy	92	30.28	7	7	NE
Sun Jan 31 13:14:06 2010	San Francisco	46 8 	Mostly Cloudy	94	30.03	8	3	S
Sun Jan 31 13:14:07 2010	Oklahoma City	22 -6 	Dense Fog	97	30.22	0	0	CLM
Sun Jan 31 13:14:08 2010	Fort Worth	31 -1 	Cloudy	78	30.3	10	0	CLM
Sun Jan 31 13:14:08 2010	Nashville	14 -10 	Partly Cloudy	91	30.3	6	0	CLM
Sun Jan 31 13:14:09 2010	Phoenix	52 11 	Mostly Clear	56	29.85	10	7	NNE
Sun Jan 31 13:14:10 2010	Portland	43 6 	Rain	100	30.01	3	0	CLM
Sun Jan 31 13:14:11 2010	Chicago	18 -8 	Cloudy	77	30.25	10	5	WSW
Sun Jan 31 13:14:11 2010	San Antonio	32 0 	Cloudy	88	30.23	6	7	ENE
Sun Jan 31 13:14:12 2010	Indianapolis	15-May	Mostly Clear	92	30.24	10	0	CLM
Sun Jan 31 13:14:13 2010	Boston	14 -10 		33	30.02	10	14	NNW
Sun Jan 31 13:14:14 2010	Jacksonville	42 6 	Cloudy	76	30.08	10	16	NNE
Sun Jan 31 13:14:15 2010	Columbus	12-Nov	Clear	80	30.24	10	0	CLM
Sun Jan 31 13:14:15 2010	Dallas	31 -1 	Cloudy	82	30.31	10	0	CLM
Sun Jan 31 13:14:16 2010	Houston	34 1 	Cloudy	78	30.27	9	12	N
Sun Jan 31 13:14:17 2010	Seattle	45 7 	Cloudy	100	29.97	4	3	S
Sun Jan 31 13:14:18 2010	Milwaukee	11-Dec	Mostly Cloudy	72	30.15	10	6	WSW
Sun Jan 31 13:14:19 2010	Detroit	12-Nov	Mostly Cloudy	80	30.2	10	7	SW
Sun Jan 31 13:14:19 2010	Philadelphia	15 -9 	Mostly Clear	53	30.1	10	9	NNW
Sun Jan 31 13:56:42 2010	San Jose	47 8 	Mostly Cloudy	88	30.02	7	2	N
Sun Jan 31 13:56:43 2010	Charlotte	16 -9 	Partly Cloudy	87	30.17	8	0	CLM
Sun Jan 31 13:56:43 2010	San Diego	50 10 	Cloudy	86	29.93	6	3	NNE
Sun Jan 31 13:56:44 2010	Denver	26 -3 	Cloudy	77	29.88	10	7	W
Sun Jan 31 13:56:45 2010	Memphis	20 -7 	Clear	81	30.32	10	0	CLM
Sun Jan 31 13:56:46 2010	Los Angeles	43 6 	Clear	88	29.91	8	0	CLM
Sun Jan 31 13:56:47 2010	El Paso	39 4 	Cloudy	79	29.94	10	6	N
Sun Jan 31 13:56:47 2010	New York	14 -10 	Mostly Clear	51	30.07	10	6	N
Sun Jan 31 13:56:48 2010	Baltimore	13-Sep		64	30.17	10	6	WNW
Sun Jan 31 13:56:49 2010	Las Vegas	43 6 	Partly Cloudy	73	29.9	10	5	SSW
Sun Jan 31 13:56:50 2010	Washington	16 -9 		53	30.18	10	13	NNW
Sun Jan 31 13:56:51 2010	Austin	30 -1 	Cloudy	92	30.29	7	9	ENE
Sun Jan 31 13:56:51 2010	San Francisco	46 8 	Cloudy	94	30.03	8	2	SSE
Sun Jan 31 13:56:52 2010	Oklahoma City	22 -6 	Dense Fog	92	30.23	0	5	S
Sun Jan 31 13:56:53 2010	Nashville	15 -9 	Clear	87	30.32	6	0	CLM
Sun Jan 31 13:56:54 2010	Fort Worth	31 -1 	Cloudy	82	30.31	10	0	CLM
Sun Jan 31 13:56:54 2010	Phoenix	51 11 	Clear	58	29.85	10	5	ENE
Sun Jan 31 13:56:55 2010	Portland	43 6 	Cloudy	100	30	7	0	CLM
Sun Jan 31 13:56:56 2010	Chicago	17 -8 	Mostly Clear	80	30.26	7	7	WSW
Sun Jan 31 13:56:57 2010	San Antonio	32 0 	Cloudy	88	30.24	5	8	ENE
Sun Jan 31 13:56:58 2010	Boston	13 -11 	Partly Sunny	38	30.03	10	12	NNW
Sun Jan 31 13:56:58 2010	Indianapolis	13-Aug	Partly Cloudy	86	30.24	7	1	CLM
Sun Jan 31 13:56:59 2010	Jacksonville	40 4 	Cloudy	76	30.12	10	8	N
Sun Jan 31 13:57:00 2010	Columbus	12-Oct	Clear	83	30.25	10	0	CLM
Sun Jan 31 13:57:01 2010	Dallas	31 -1 	Cloudy	85	30.32	10	6	E
Sun Jan 31 13:57:02 2010	Houston	35 2 	Cloudy	78	30.3	8	9	N
Sun Jan 31 13:57:03 2010	Milwaukee	14 -10 	Mostly Cloudy	71	30.14	9	7	W
Sun Jan 31 13:57:03 2010	Seattle	45 7 	Rain	96	29.98	4	3	S
Sun Jan 31 13:57:04 2010	Detroit	11-Dec	Cloudy	80	30.2	9	9	SW
Sun Jan 31 13:57:05 2010	Philadelphia	15 -9 	Mostly Clear	51	30.13	10	7	NNW
Sun Jan 31 14:40:29 2010	San Jose	46 8 	Cloudy	89	30.02	6	2	N
Sun Jan 31 14:40:30 2010	Charlotte	17 -8 	Sunny	87	30.21	9	0	CLM
Sun Jan 31 14:40:31 2010	Denver	26 -3 		74	29.89	10	9	W
Sun Jan 31 14:40:31 2010	San Diego	47 8 	Clear	89	29.93	4	0	CLM
Sun Jan 31 14:40:32 2010	Memphis	20 -7 	Clear	81	30.34	10	0	CLM
Sun Jan 31 14:40:33 2010	Los Angeles	43 6 	Clear	88	29.91	10	3	NNW
Sun Jan 31 14:40:34 2010	El Paso	39 4 	Cloudy	79	29.94	10	6	NNE
Sun Jan 31 14:40:35 2010	Baltimore	11-Dec	Mostly Cloudy	61	30.18	10	3	WNW
Sun Jan 31 14:40:35 2010	New York	14 -10 	Sunny	51	30.11	10	3	N
Sun Jan 31 14:40:36 2010	Las Vegas	42 6 	Partly Cloudy	76	29.91	10	5	SSW
Sun Jan 31 14:40:37 2010	Washington	17 -8 		49	30.21	10	12	NW
Sun Jan 31 14:40:38 2010	Austin	30 -1 	Cloudy	92	30.3	7	6	ENE
Sun Jan 31 14:40:39 2010	Oklahoma City	21 -6 	Dense Fog	92	30.23	0	6	S
Sun Jan 31 14:40:39 2010	San Francisco	46 8 	Cloudy	94	30.04	8	3	SSE
Sun Jan 31 14:40:40 2010	Nashville	11-Dec	Sunny	87	30.33	5	3	S
Sun Jan 31 14:40:41 2010	Fort Worth	31 -1 	Cloudy	82	30.31	10	6	ESE
Sun Jan 31 14:40:42 2010	Phoenix	50 10 	Clear	60	29.86	10	3	ENE
Sun Jan 31 14:40:43 2010	Chicago	16 -9 	Clear	80	30.27	8	7	WSW
Sun Jan 31 14:40:43 2010	Portland	43 6 	Cloudy	100	30	8	0	CLM
Sun Jan 31 14:40:44 2010	San Antonio	31 -1 	Cloudy	92	30.26	6	6	NE
Sun Jan 31 14:40:45 2010	Indianapolis	15-May	Partly Sunny	84	30.25	10	3	WSW
Sun Jan 31 14:40:46 2010	Boston	13 -11 	Partly Sunny	38	30.03	10	10	NW
Sun Jan 31 14:40:46 2010	Jacksonville	40 4 	Cloudy	73	30.17	10	8	N
Sun Jan 31 14:40:47 2010	Columbus	12-Nov	Partly Sunny	83	30.28	10	0	CLM
Sun Jan 31 14:40:48 2010	Dallas	31 -1 	Cloudy	82	30.33	10	6	ESE
Sun Jan 31 14:40:49 2010	Houston	35 2 	Cloudy	75	30.31	8	8	N
Sun Jan 31 14:40:50 2010	Milwaukee	12-Oct	Cloudy	72	30.15	10	7	W
Sun Jan 31 14:40:50 2010	Seattle	45 7 	Rain	92	29.97	5	5	S
Sun Jan 31 14:40:51 2010	Detroit	13 -11 	Cloudy	80	30.22	9	9	SW
Sun Jan 31 14:40:52 2010	Philadelphia	15 -9 	Sunny	51	30.15	10	10	NNW
Sun Jan 31 15:24:08 2010	San Jose	43 6 		93	30.02	7	4	NNE
Sun Jan 31 15:24:09 2010	Charlotte	22 -6 	Sunny	92	30.25	8	3	SSW
Sun Jan 31 15:24:10 2010	San Diego	45 7 	Clear	89	29.94	4	3	E
Sun Jan 31 15:24:11 2010	Denver	26 -3 		74	29.9	10	7	W
Sun Jan 31 15:24:11 2010	Memphis	22 -6 	Sunny	84	30.37	10	0	CLM
Sun Jan 31 15:24:12 2010	Los Angeles	43 6 	Clear	82	29.92	10	0	CLM
Sun Jan 31 15:24:13 2010	El Paso	39 4 	Cloudy	79	29.96	10	6	NNE
Sun Jan 31 15:24:14 2010	Baltimore	17 -8 		46	30.2	10	9	NNW
Sun Jan 31 15:24:14 2010	New York	15 -9 	Sunny	49	30.11	10	0	CLM
Sun Jan 31 15:24:15 2010	Las Vegas	42 6 	Partly Cloudy	76	29.93	10	5	W
Sun Jan 31 15:24:16 2010	Washington	19 -7 	Mostly Sunny	47	30.22	10	14	NNW
Sun Jan 31 15:24:17 2010	Austin	32 0 	Cloudy	86	30.31	6	6	NNE
Sun Jan 31 15:24:18 2010	Oklahoma City	23 -5 	Dense Fog	97	30.25	0	6	S
Sun Jan 31 15:24:18 2010	San Francisco	46 8 	Cloudy	92	30.03	8	4	SSE
Sun Jan 31 15:24:19 2010	Nashville	14 -10 	Sunny	95	30.36	10	0	CLM
Sun Jan 31 15:24:20 2010	Fort Worth	31 -1 	Cloudy	82	30.32	10	6	ESE
Sun Jan 31 15:24:21 2010	Phoenix	50 10 	Clear	60	29.88	10	7	NE
Sun Jan 31 15:24:22 2010	Chicago	16 -9 	Partly Sunny	80	30.27	9	6	SW
Sun Jan 31 15:24:22 2010	Portland	45 7 	Rain	93	30.01	4	0	CLM
Sun Jan 31 15:24:23 2010	San Antonio	31 -1 	Cloudy	92	30.26	4	9	ENE
Sun Jan 31 15:24:24 2010	Indianapolis	12-Oct	Partly Sunny	92	30.26	10	0	CLM
Sun Jan 31 15:24:25 2010	Boston	15 -9 	Partly Sunny	35	30.04	10	13	NW
Sun Jan 31 15:24:26 2010	Columbus	13 -11 	Partly Sunny	84	30.3	10	3	W
Sun Jan 31 15:24:26 2010	Jacksonville	41 5 	Cloudy	70	30.18	10	10	N
Sun Jan 31 15:24:27 2010	Dallas	31 -1 	Cloudy	82	30.33	7	3	E
Sun Jan 31 15:24:28 2010	Houston	36 2 	Cloudy	75	30.32	10	9	N
Sun Jan 31 15:24:29 2010	Seattle	45 7 	Rain	92	29.98	6	6	S
Sun Jan 31 15:24:30 2010	Detroit	16 -9 	Cloudy	73	30.22	9	12	SW
Sun Jan 31 15:24:30 2010	Milwaukee	11-Dec	Cloudy	67	30.15	10	8	W
Sun Jan 31 15:24:31 2010	Philadelphia	17 -8 	Sunny	46	30.17	10	10	NNW
Sun Jan 31 16:13:48 2010	Charlotte	22 -6 	Sunny	92	30.25	8	3	SSW
Sun Jan 31 16:13:48 2010	San Jose	44 7 		88	30.02	7	3	NE
Sun Jan 31 16:13:49 2010	San Diego	45 7 	Clear	89	29.94	4	3	E
Sun Jan 31 16:13:50 2010	Denver	26 -3 		74	29.9	10	7	W
Sun Jan 31 16:13:51 2010	Memphis	22 -6 	Sunny	84	30.37	10	0	CLM
Sun Jan 31 16:13:52 2010	El Paso	39 4 	Cloudy	79	29.96	10	6	NNE
Sun Jan 31 16:13:52 2010	Los Angeles	43 6 	Clear	82	29.92	10	0	CLM
Sun Jan 31 16:13:53 2010	New York	15 -9 	Sunny	49	30.11	10	0	CLM
Sun Jan 31 16:13:54 2010	Baltimore	17 -8 		46	30.2	10	9	NNW
Sun Jan 31 16:13:55 2010	Las Vegas	42 6 	Partly Cloudy	76	29.93	10	5	W
Sun Jan 31 16:13:55 2010	Washington	19 -7 	Mostly Sunny	47	30.22	10	14	NNW
Sun Jan 31 16:13:56 2010	Austin	32 0 	Cloudy	86	30.3	5	9	NE
Sun Jan 31 16:13:57 2010	San Francisco	46 8 	Cloudy	94	30.05	8	3	S
Sun Jan 31 16:13:58 2010	Oklahoma City	23 -5 	Dense Fog	97	30.25	0	6	S
Sun Jan 31 16:13:59 2010	Fort Worth	31 -1 	Cloudy	82	30.32	10	6	ESE
Sun Jan 31 16:13:59 2010	Nashville	14 -10 	Sunny	95	30.36	10	0	CLM
Sun Jan 31 16:14:00 2010	Phoenix	50 10 	Partly Cloudy	60	29.88	10	7	NE
Sun Jan 31 16:14:01 2010	Portland	45 7 	Rain	93	30.01	4	0	CLM
Sun Jan 31 16:14:02 2010	Chicago	16 -9 	Partly Sunny	80	30.27	9	6	SW
Sun Jan 31 16:14:03 2010	Indianapolis	16 -9 	Partly Sunny	92	30.26	10	3	W
Sun Jan 31 16:14:03 2010	San Antonio	31 -1 	Cloudy	92	30.26	4	9	ENE
Sun Jan 31 16:14:04 2010	Boston	15 -9 	Partly Sunny	35	30.04	10	13	NW
Sun Jan 31 16:14:05 2010	Jacksonville	41 5 	Cloudy	70	30.18	10	10	N
Sun Jan 31 16:14:06 2010	Columbus	13 -11 	Partly Sunny	84	30.3	10	3	W
Sun Jan 31 16:14:07 2010	Dallas	31 -1 	Cloudy	82	30.33	7	3	E
Sun Jan 31 16:14:07 2010	Houston	36 2 	Cloudy	75	30.32	10	9	N
Sun Jan 31 16:14:08 2010	Seattle	45 7 	Rain	92	29.98	6	6	S
Sun Jan 31 16:14:09 2010	Milwaukee	11-Dec	Cloudy	67	30.15	10	8	W
Sun Jan 31 16:14:10 2010	Detroit	16 -9 	Cloudy	73	30.22	9	12	SW
Sun Jan 31 16:14:11 2010	Philadelphia	17 -8 	Sunny	46	30.17	10	10	NNW
Sun Jan 31 16:57:39 2010	San Jose	48 9 	Cloudy	81	30.05	7	0	CLM
Sun Jan 31 16:57:40 2010	Charlotte	27 -3 	Mostly Sunny	81	30.28	10	0	CLM
Sun Jan 31 16:57:41 2010	San Diego	46 8 	Light Fog	87	29.97	3	0	CLM
Sun Jan 31 16:57:42 2010	Denver	26 -3 		74	29.89	10	6	W
Sun Jan 31 16:57:42 2010	Memphis	25 -4 	Sunny	84	30.38	10	0	CLM
Sun Jan 31 16:57:43 2010	Los Angeles	42 6 	Sunny	85	29.93	8	0	CLM
Sun Jan 31 16:57:44 2010	El Paso	39 4 	Cloudy	82	29.97	10	6	NNE
Sun Jan 31 16:57:45 2010	New York	17 -8 	Sunny	45	30.12	10	9	WNW
Sun Jan 31 16:57:46 2010	Baltimore	19 -7 	Mostly Sunny	41	30.22	10	8	NW
Sun Jan 31 16:57:46 2010	Las Vegas	41 5 	Partly Sunny	79	29.94	10	5	SSW
Sun Jan 31 16:57:47 2010	Washington	22 -6 	Sunny	40	30.24	10	8	NW
Sun Jan 31 16:57:48 2010	Austin	32 0 	Cloudy	86	30.31	6	7	NE
Sun Jan 31 16:57:49 2010	San Francisco	45 7 	Cloudy	93	30.04	8	3	SSE
Sun Jan 31 16:57:50 2010	Nashville	18 -8 	Sunny	96	30.37	9	0	CLM
Sun Jan 31 16:57:50 2010	Oklahoma City	23 -5 	Dense Fog	97	30.26	0	6	S
Sun Jan 31 16:57:51 2010	Fort Worth	31 -1 	Cloudy	82	30.33	10	5	SSE
Sun Jan 31 16:57:52 2010	Phoenix	51 11 	Sunny	58	29.89	10	6	NE
Sun Jan 31 16:57:53 2010	Portland	45 7 	Cloudy	93	30.01	7	0	CLM
Sun Jan 31 16:57:54 2010	Chicago	18 -8 	Partly Sunny	71	30.27	10	10	WSW
Sun Jan 31 16:57:54 2010	San Antonio	32 0 	Cloudy	88	30.27	4	7	NE
Sun Jan 31 16:57:55 2010	Indianapolis	18 -8 	Sunny	100	30.26	10	7	WSW
Sun Jan 31 16:57:56 2010	Boston	18 -8 		37	30.04	10	12	NW
Sun Jan 31 16:57:57 2010	Jacksonville	42 6 	Cloudy	70	30.2	10	14	NNE
Sun Jan 31 16:57:58 2010	Columbus	16 -9 	Partly Sunny	80	30.29	10	0	CLM
Sun Jan 31 16:57:58 2010	Dallas	31 -1 	Cloudy	85	30.34	7	8	SE
Sun Jan 31 16:57:59 2010	Houston	36 2 	Cloudy	75	30.34	10	10	NNE
Sun Jan 31 16:58:00 2010	Seattle	45 7 	Cloudy	96	29.98	6	3	S
Sun Jan 31 16:58:01 2010	Detroit	18 -8 	Cloudy	71	30.2	10	14	SW
Sun Jan 31 16:58:01 2010	Milwaukee	11-Dec	Sunny	67	30.16	10	9	W
Sun Jan 31 16:58:02 2010	Philadelphia	19 -7 	Sunny	43	30.19	10	7	NNW
Sun Jan 31 17:42:11 2010	San Jose	46 8 	Cloudy	87	30.03	7	0	CLM
Sun Jan 31 17:42:12 2010	Charlotte	31 -1 	Mostly Sunny	69	30.3	10	3	NW
Sun Jan 31 17:42:12 2010	San Diego	50 10 	Light Fog	87	29.97	3	0	CLM
Sun Jan 31 17:42:13 2010	Denver	28 -2 		68	29.89	10	7	WNW
Sun Jan 31 17:42:14 2010	Memphis	29 -2 	Sunny	78	30.38	10	3	NE
Sun Jan 31 17:42:15 2010	Los Angeles	44 7 	Sunny	88	29.94	10	0	CLM
Sun Jan 31 17:42:16 2010	El Paso	41 5 	Cloudy	75	29.97	10	6	N
Sun Jan 31 17:42:16 2010	New York	20 -7 	Sunny	39	30.13	10	6	N
Sun Jan 31 17:42:17 2010	Baltimore	23 -5 	Mostly Sunny	33	30.23	10	8	NW
Sun Jan 31 17:42:18 2010	Las Vegas	43 6 	Partly Sunny	73	29.96	10	0	CLM
Sun Jan 31 17:42:19 2010	Austin	32 0 	Cloudy	93	30.31	7	6	NE
Sun Jan 31 17:42:19 2010	Washington	24 -4 	Sunny	34	30.26	10	13	NW
Sun Jan 31 17:42:20 2010	San Francisco	45 7 	Cloudy	94	30.05	8	3	NNE
Sun Jan 31 17:42:21 2010	Oklahoma City	25 -4 	Dense Fog	92	30.27	0	6	S
Sun Jan 31 17:42:22 2010	Nashville	24 -4 	Sunny	77	30.37	9	0	CLM
Sun Jan 31 17:42:23 2010	Fort Worth	31 -1 	Cloudy	85	30.34	10	3	SE
Sun Jan 31 17:42:23 2010	Phoenix	53 12 	Sunny	56	29.91	10	7	NNE
Sun Jan 31 17:42:24 2010	Portland	44 7 	Cloudy	95	30.02	8	0	CLM
Sun Jan 31 17:42:25 2010	Chicago	20 -7 	Partly Sunny	62	30.28	10	12	W
Sun Jan 31 17:42:26 2010	San Antonio	32 0 	Cloudy	92	30.3	4	8	ENE
Sun Jan 31 17:42:27 2010	Boston	22 -6 	Partly Sunny	34	30.03	10	9	WNW
Sun Jan 31 17:42:27 2010	Indianapolis	23 -5 	Sunny	73	30.26	10	8	WSW
Sun Jan 31 17:42:28 2010	Jacksonville	42 6 	Cloudy	70	30.24	10	13	NNE
Sun Jan 31 17:42:29 2010	Columbus	21 -6 	Partly Sunny	62	30.29	10	8	SW
Sun Jan 31 17:42:30 2010	Dallas	32 0 	Cloudy	81	30.35	6	3	SE
Sun Jan 31 17:42:31 2010	Houston	37 3 	Cloudy	75	30.33	10	10	NNE
Sun Jan 31 17:42:31 2010	Seattle	45 7 	Light Fog	100	29.99	2	5	SSW
Sun Jan 31 17:42:32 2010	Milwaukee	14 -10 	Sunny	57	30.17	10	15	W
Sun Jan 31 17:42:33 2010	Detroit	19 -7 	Light Snow	73	30.16	6	14	SW
Sun Jan 31 17:42:34 2010	Philadelphia	22 -6 	Sunny	36	30.19	10	7	N
Sun Jan 31 18:26:10 2010	San Jose	48 9 		81	30.05	7	0	CLM
Sun Jan 31 18:26:11 2010	Charlotte	32 0 	Mostly Sunny	58	30.29	10	0	CLM
Sun Jan 31 18:26:11 2010	San Diego	51 11 	Partly Sunny	96	29.97	4	0	CLM
Sun Jan 31 18:26:12 2010	Denver	30 -1 		69	29.89	10	13	NNW
Sun Jan 31 18:26:13 2010	Memphis	31 -1 	Mostly Sunny	75	30.39	10	3	ENE
Sun Jan 31 18:26:14 2010	Los Angeles	48 9 	Sunny	79	29.95	8	0	CLM
Sun Jan 31 18:26:15 2010	El Paso	44 7 	Cloudy	70	29.98	10	3	NNW
Sun Jan 31 18:26:15 2010	New York	22 -6 	Sunny	38	30.12	10	6	N
Sun Jan 31 18:26:16 2010	Baltimore	24 -4 	Sunny	34	30.22	10	13	W
Sun Jan 31 18:26:17 2010	Las Vegas	48 9 	Partly Sunny	62	29.97	10	0	CLM
Sun Jan 31 18:26:18 2010	Washington	25 -4 	Sunny	35	30.25	10	13	NNW
Sun Jan 31 18:26:19 2010	Austin	32 0 	Cloudy	93	30.3	6	8	ENE
Sun Jan 31 18:26:19 2010	San Francisco	46 8 	Mostly Cloudy	94	30.05	8	3	NE
Sun Jan 31 18:26:20 2010	Oklahoma City	25 -4 	Dense Fog	95	30.27	0	6	S
Sun Jan 31 18:26:21 2010	Nashville	28 -2 	Sunny	68	30.38	10	0	CLM
Sun Jan 31 18:26:22 2010	Fort Worth	32 0 	Cloudy	81	30.33	10	6	SSE
Sun Jan 31 18:26:23 2010	Phoenix	58 14 	Sunny	50	29.91	10	0	CLM
Sun Jan 31 18:26:23 2010	Portland	45 7 	Light Fog	96	30.02	3	3	E
Sun Jan 31 18:26:24 2010	Chicago	24 -4 	Partly Sunny	48	30.28	10	12	W
Sun Jan 31 18:26:25 2010	San Antonio	32 0 	Cloudy	92	30.3	4	7	ENE
Sun Jan 31 18:26:26 2010	Indianapolis	23 -5 	Sunny	73	30.27	10	9	WSW
Sun Jan 31 18:26:27 2010	Boston	25 -4 	Partly Sunny	33	30.01	10	13	NW
Sun Jan 31 18:26:27 2010	Jacksonville	42 6 	Mostly Cloudy	70	30.25	10	14	NNE
Sun Jan 31 18:26:28 2010	Columbus	23 -5 	Partly Sunny	57	30.27	10	10	SW
Sun Jan 31 18:26:29 2010	Dallas	32 0 	Cloudy	81	30.34	6	6	S
Sun Jan 31 18:26:30 2010	Houston	38 3 	Cloudy	75	30.33	8	8	NE
Sun Jan 31 18:26:31 2010	Milwaukee	18 -8 	Sunny	49	30.18	10	14	WSW
Sun Jan 31 18:26:31 2010	Seattle	45 7 	Cloudy	92	29.99	4	6	SSW
Sun Jan 31 18:26:32 2010	Detroit	21 -6 	Cloudy	70	30.19	6	14	SW
Sun Jan 31 18:26:33 2010	Philadelphia	25 -4 	Sunny	33	30.18	10	6	NW
Sun Jan 31 19:11:49 2010	San Jose	48 9 		81	30.05	7	0	CLM
Sun Jan 31 19:11:50 2010	Charlotte	32 0 	Mostly Sunny	58	30.29	10	0	CLM
Sun Jan 31 19:11:51 2010	Denver	30 -1 		69	29.89	10	13	NNW
Sun Jan 31 19:11:51 2010	San Diego	51 11 	Partly Sunny	96	29.97	4	0	CLM
Sun Jan 31 19:11:52 2010	Memphis	31 -1 	Mostly Sunny	75	30.39	10	3	ENE
Sun Jan 31 19:11:53 2010	Los Angeles	48 9 	Sunny	79	29.95	8	0	CLM
Sun Jan 31 19:11:54 2010	El Paso	44 7 	Cloudy	70	29.98	10	3	NNW
Sun Jan 31 19:11:54 2010	New York	22 -6 	Sunny	38	30.12	10	6	N
Sun Jan 31 19:11:55 2010	Baltimore	24 -4 	Sunny	34	30.22	10	13	W
Sun Jan 31 19:11:56 2010	Las Vegas	48 9 	Partly Sunny	62	29.97	10	0	CLM
Sun Jan 31 19:11:57 2010	Washington	25 -4 	Sunny	35	30.25	10	13	NNW
Sun Jan 31 19:11:58 2010	Austin	32 0 	Cloudy	93	30.3	5	3	ENE
Sun Jan 31 19:11:58 2010	San Francisco	48 9 	Mostly Cloudy	92	30.05	8	4	ESE
Sun Jan 31 19:11:59 2010	Oklahoma City	25 -4 	Dense Fog	95	30.27	0	6	S
Sun Jan 31 19:12:00 2010	Nashville	28 -2 	Sunny	68	30.38	10	0	CLM
Sun Jan 31 19:12:01 2010	Fort Worth	32 0 	Cloudy	81	30.33	10	6	SSE
Sun Jan 31 19:12:02 2010	Phoenix	58 14 	Sunny	50	29.91	10	0	CLM
Sun Jan 31 19:12:02 2010	Portland	45 7 	Light Fog	96	30.02	3	3	E
Sun Jan 31 19:12:03 2010	Chicago	24 -4 	Partly Sunny	48	30.28	10	12	W
Sun Jan 31 19:12:04 2010	San Antonio	32 0 	Cloudy	92	30.3	4	7	ENE
Sun Jan 31 19:12:05 2010	Indianapolis	25 -4 	Sunny	63	30.27	10	12	W
Sun Jan 31 19:12:06 2010	Boston	25 -4 	Partly Sunny	33	30.01	10	13	NW
Sun Jan 31 19:12:06 2010	Jacksonville	42 6 	Cloudy	70	30.25	10	14	NNE
Sun Jan 31 19:12:07 2010	Columbus	23 -5 	Partly Sunny	57	30.27	10	10	SW
Sun Jan 31 19:12:08 2010	Dallas	32 0 	Cloudy	81	30.34	6	6	S
Sun Jan 31 19:12:09 2010	Houston	38 3 	Cloudy	75	30.33	8	8	NE
Sun Jan 31 19:12:09 2010	Seattle	45 7 	Cloudy	92	29.99	4	6	SSW
Sun Jan 31 19:12:10 2010	Milwaukee	18 -8 	Sunny	49	30.18	10	14	WSW
Sun Jan 31 19:12:11 2010	Detroit	21 -6 	Cloudy	70	30.19	6	14	SW
Sun Jan 31 19:12:12 2010	Philadelphia	25 -4 	Sunny	33	30.18	10	6	NW
Sun Jan 31 19:54:50 2010	San Jose	52 11 		76	30.06	7	0	CLM
Sun Jan 31 19:54:51 2010	Charlotte	36 2 	Sunny	47	30.25	10	7	ENE
Sun Jan 31 19:54:52 2010	Denver	34 1 	Mostly Cloudy	56	29.87	10	13	NW
Sun Jan 31 19:54:52 2010	San Diego	56 13 	Sunny	83	29.98	7	7	NW
Sun Jan 31 19:54:53 2010	Memphis	32 0 	Partly Sunny	72	30.35	10	6	E
Sun Jan 31 19:54:54 2010	Los Angeles	54 12 	Sunny	66	29.97	10	0	CLM
Sun Jan 31 19:54:55 2010	El Paso	48 9 	Cloudy	58	29.95	10	5	CLM
Sun Jan 31 19:54:56 2010	Baltimore	26 -3 	Sunny	33	30.19	10	9	WNW
Sun Jan 31 19:54:56 2010	New York	25 -4 	Sunny	35	30.09	10	5	N
Sun Jan 31 19:54:57 2010	Las Vegas	51 11 	Partly Sunny	51	29.98	10	0	CLM
Sun Jan 31 19:54:58 2010	Washington	28 -2 	Sunny	34	30.23	10	8	WNW
Sun Jan 31 19:54:59 2010	Austin	32 0 	Cloudy	93	30.3	5	0	CLM
Sun Jan 31 19:55:00 2010	Oklahoma City	26 -3 	Dense Fog	91	30.26	0	6	S
Sun Jan 31 19:55:00 2010	San Francisco	49 9 		90	30.06	8	3	ENE
Sun Jan 31 19:55:01 2010	Nashville	32 0 	Sunny	49	30.35	10	0	CLM
Sun Jan 31 19:55:02 2010	Fort Worth	32 0 	Cloudy	81	30.31	10	0	CLM
Sun Jan 31 19:55:03 2010	Phoenix	60 16 	Sunny	47	29.91	10	3	W
Sun Jan 31 19:55:04 2010	Chicago	26 -3 	Partly Sunny	42	30.27	10	12	W
Sun Jan 31 19:55:04 2010	Portland	48 9 	Cloudy	93	30.04	9	3	CLM
Sun Jan 31 19:55:05 2010	San Antonio	33 1 	Cloudy	88	30.28	4	8	ESE
Sun Jan 31 19:55:06 2010	Indianapolis	27 -3 	Sunny	63	30.24	10	12	WSW
Sun Jan 31 19:55:07 2010	Boston	26 -3 	Partly Sunny	35	29.98	10	13	NW
Sun Jan 31 19:55:08 2010	Columbus	27 -3 	Partly Sunny	48	30.24	10	14	WSW
Sun Jan 31 19:55:08 2010	Jacksonville	42 6 	Cloudy	70	30.23	10	16	N
Sun Jan 31 19:55:09 2010	Dallas	34 1 	Cloudy	78	30.32	6	0	CLM
Sun Jan 31 19:55:10 2010	Houston	39 4 	Cloudy	72	30.31	9	5	NE
Sun Jan 31 19:55:11 2010	Milwaukee	19 -7 	Sunny	45	30.16	10	13	W
Sun Jan 31 19:55:11 2010	Seattle	45 7 	Dense Fog	93	30	0	9	SSW
Sun Jan 31 19:55:12 2010	Detroit	23 -5 	Cloudy	68	30.16	9	14	W
Sun Jan 31 19:55:13 2010	Philadelphia	27 -3 	Sunny	32	30.15	10	8	W
Sun Jan 31 20:38:50 2010	Charlotte	36 2 	Partly Sunny	47	30.24	10	0	CLM
Sun Jan 31 20:38:50 2010	San Jose	55 13 		66	30.06	10	0	CLM
Sun Jan 31 20:38:51 2010	San Diego	58 14 	Partly Sunny	74	29.97	10	7	NW
Sun Jan 31 20:38:52 2010	Denver	37 3 		52	29.84	10	8	NW
Sun Jan 31 20:38:53 2010	Memphis	34 1 	Partly Sunny	66	30.34	10	0	CLM
Sun Jan 31 20:38:54 2010	El Paso	52 11 	Cloudy	50	29.91	10	0	CLM
Sun Jan 31 20:38:54 2010	Los Angeles	58 14 	Sunny	49	29.95	10	3	S
Sun Jan 31 20:38:57 2010	New York	27 -3 	Mostly Sunny	32	30.08	10	7	W
Sun Jan 31 20:38:58 2010	Baltimore	27 -3 	Sunny	35	30.18	10	9	W
Sun Jan 31 20:38:59 2010	Las Vegas	54 12 	Partly Sunny	46	29.97	10	0	CLM
Sun Jan 31 20:38:59 2010	Washington	30 -1 	Sunny	31	30.2	10	6	N
Sun Jan 31 20:39:00 2010	Austin	32 0 	Cloudy	93	30.26	5	0	CLM
Sun Jan 31 20:39:01 2010	San Francisco	50 10 		86	30.07	9	4	NE
Sun Jan 31 20:39:02 2010	Oklahoma City	27 -3 	Foggy	87	30.23	1	6	SSE
Sun Jan 31 20:39:03 2010	Fort Worth	33 1 	Cloudy	81	30.27	10	5	E
Sun Jan 31 20:39:03 2010	Nashville	33 1 	Sunny	53	30.34	10	0	CLM
Sun Jan 31 20:39:04 2010	Phoenix	62 17 	Sunny	42	29.9	10	0	CLM
Sun Jan 31 20:39:05 2010	Portland	50 10 	Cloudy	87	30.03	10	0	CLM
Sun Jan 31 20:39:06 2010	Chicago	28 -2 	Mostly Sunny	40	30.24	10	14	W
Sun Jan 31 20:39:07 2010	Indianapolis	27 -3 	Sunny	68	30.24	10	10	WSW
Sun Jan 31 20:39:07 2010	San Antonio	33 1 	Cloudy	88	30.26	5	3	E
Sun Jan 31 20:39:08 2010	Boston	27 -3 	Partly Sunny	33	29.97	10	9	WNW
Sun Jan 31 20:39:09 2010	Jacksonville	42 6 	Mostly Cloudy	67	30.23	10	16	NNE
Sun Jan 31 20:39:10 2010	Columbus	29 -2 	Partly Sunny	46	30.23	10	10	WSW
Sun Jan 31 20:39:10 2010	Dallas	36 2 	Cloudy	74	30.26	6	3	N
Sun Jan 31 20:39:11 2010	Houston	39 4 	Cloudy	72	30.3	10	0	CLM
Sun Jan 31 20:39:12 2010	Seattle	45 7 	Cloudy	92	30.01	10	8	S
Sun Jan 31 20:39:13 2010	Milwaukee	19 -7 	Sunny	45	30.15	10	14	W
Sun Jan 31 20:39:14 2010	Detroit	24 -4 	Cloudy	65	30.14	8	16	WSW
Sun Jan 31 20:39:14 2010	Philadelphia	29 -2 		28	30.15	10	12	W
Sun Jan 31 21:22:17 2010	Charlotte	38 3 	Partly Sunny	37	30.25	10	0	CLM
Sun Jan 31 21:22:17 2010	San Jose	57 14 	Partly Sunny	62	30.04	10	0	CLM
Sun Jan 31 21:22:18 2010	San Diego	59 15 	Sunny	69	29.94	9	6	N
Sun Jan 31 21:22:19 2010	Denver	38 3 	Mostly Cloudy	54	29.82	10	9	N
Sun Jan 31 21:22:20 2010	Memphis	36 2 	Partly Sunny	67	30.33	10	0	CLM
Sun Jan 31 21:22:21 2010	El Paso	54 12 	Cloudy	44	29.86	10	3	N
Sun Jan 31 21:22:21 2010	Los Angeles	61 16 	Sunny	44	29.91	10	0	CLM
Sun Jan 31 21:22:22 2010	New York	29 -2 	Sunny	30	30.08	10	7	N
Sun Jan 31 21:22:23 2010	Baltimore	28 -2 	Sunny	35	30.17	10	10	W
Sun Jan 31 21:22:24 2010	Las Vegas	55 13 	Partly Sunny	44	29.94	10	5	ENE
Sun Jan 31 21:22:25 2010	Austin	32 0 	Cloudy	93	30.25	5	0	CLM
Sun Jan 31 21:22:25 2010	Washington	31 -1 	Sunny	30	30.2	10	0	CLM
Sun Jan 31 21:22:26 2010	San Francisco	51 11 		86	30.04	9	4	NE
Sun Jan 31 21:22:27 2010	Oklahoma City	27 -3 	Foggy	87	30.2	1	6	SSE
Sun Jan 31 21:22:28 2010	Fort Worth	34 1 	Cloudy	78	30.24	10	5	N
Sun Jan 31 21:22:28 2010	Nashville	36 2 	Sunny	47	30.32	10	0	CLM
Sun Jan 31 21:22:29 2010	Phoenix	63 17 	Sunny	41	29.87	10	5	N
Sun Jan 31 21:22:30 2010	Portland	50 10 	Cloudy	82	30.02	10	3	ENE
Sun Jan 31 21:22:31 2010	Chicago	29 -2 	Mostly Sunny	36	30.25	10	16	WSW
Sun Jan 31 21:22:32 2010	Indianapolis	27 -3 	Sunny	68	30.24	10	13	W
Sun Jan 31 21:22:32 2010	San Antonio	34 1 	Cloudy	85	30.22	5	3	E
Sun Jan 31 21:22:33 2010	Boston	28 -2 	Partly Sunny	31	29.97	10	13	NW
Sun Jan 31 21:22:34 2010	Jacksonville	43 6 	Mostly Cloudy	67	30.21	10	13	NE
Sun Jan 31 21:22:35 2010	Columbus	30 -1 	Partly Sunny	44	30.22	10	13	WSW
Sun Jan 31 21:22:36 2010	Dallas	36 2 	Cloudy	72	30.24	6	7	ENE
Sun Jan 31 21:22:36 2010	Houston	40 4 	Cloudy	70	30.27	8	0	CLM
Sun Jan 31 21:22:37 2010	Seattle	46 8 	Cloudy	88	30.01	10	9	SSW
Sun Jan 31 21:22:38 2010	Milwaukee	21 -6 	Mostly Cloudy	45	30.16	10	14	W
Sun Jan 31 21:22:39 2010	Detroit	26 -3 	Mostly Cloudy	60	30.12	9	14	WSW
Sun Jan 31 21:22:40 2010	Philadelphia	29 -2 	Sunny	28	30.15	10	9	WNW
Sun Jan 31 22:07:02 2010	Charlotte	38 3 	Partly Sunny	37	30.25	10	0	CLM
Sun Jan 31 22:07:02 2010	San Jose	57 14 	Partly Sunny	62	30.04	10	0	CLM
Sun Jan 31 22:07:03 2010	San Diego	59 15 	Sunny	69	29.94	9	6	N
Sun Jan 31 22:07:04 2010	Denver	38 3 	Mostly Cloudy	54	29.82	10	9	N
Sun Jan 31 22:07:05 2010	Memphis	36 2 	Partly Sunny	67	30.33	10	0	CLM
Sun Jan 31 22:07:06 2010	El Paso	54 12 	Cloudy	44	29.86	10	3	N
Sun Jan 31 22:07:06 2010	Los Angeles	61 16 	Sunny	44	29.91	10	0	CLM
Sun Jan 31 22:07:07 2010	New York	29 -2 	Sunny	30	30.08	10	7	N
Sun Jan 31 22:07:08 2010	Baltimore	28 -2 	Sunny	35	30.17	10	10	W
Sun Jan 31 22:07:09 2010	Las Vegas	55 13 	Partly Sunny	44	29.94	10	5	ENE
Sun Jan 31 22:07:10 2010	Austin	32 0 	Cloudy	93	30.24	5	0	CLM
Sun Jan 31 22:07:10 2010	Washington	31 -1 	Sunny	30	30.2	10	0	CLM
Sun Jan 31 22:07:11 2010	San Francisco	52 11 		80	30.04	9	4	N
Sun Jan 31 22:07:12 2010	Oklahoma City	27 -3 	Foggy	87	30.2	1	6	SSE
Sun Jan 31 22:07:13 2010	Nashville	36 2 	Sunny	47	30.32	10	0	CLM
Sun Jan 31 22:07:14 2010	Fort Worth	34 1 	Cloudy	78	30.24	10	5	N
Sun Jan 31 22:07:14 2010	Phoenix	63 17 	Sunny	41	29.87	10	5	N
Sun Jan 31 22:07:15 2010	Portland	50 10 	Cloudy	82	30.02	10	3	ENE
Sun Jan 31 22:07:16 2010	Chicago	29 -2 	Mostly Sunny	36	30.25	10	16	WSW
Sun Jan 31 22:07:17 2010	San Antonio	36 2 	Cloudy	80	30.21	6	3	ENE
Sun Jan 31 22:07:18 2010	Boston	28 -2 	Partly Sunny	31	29.97	10	13	NW
Sun Jan 31 22:07:18 2010	Indianapolis	28 -2 	Sunny	63	30.24	10	14	W
Sun Jan 31 22:07:19 2010	Jacksonville	43 6 	Mostly Cloudy	67	30.21	10	13	NE
Sun Jan 31 22:07:20 2010	Columbus	30 -1 	Partly Sunny	44	30.22	10	13	WSW
Sun Jan 31 22:07:21 2010	Dallas	36 2 	Cloudy	72	30.24	6	7	ENE
Sun Jan 31 22:07:21 2010	Houston	40 4 	Cloudy	70	30.27	8	0	CLM
Sun Jan 31 22:07:22 2010	Seattle	46 8 	Cloudy	88	30.01	10	9	SSW
Sun Jan 31 22:07:23 2010	Milwaukee	21 -6 	Mostly Cloudy	45	30.16	10	14	W
Sun Jan 31 22:07:24 2010	Detroit	26 -3 	Mostly Cloudy	60	30.12	9	14	WSW
Sun Jan 31 22:07:25 2010	Philadelphia	29 -2 	Sunny	28	30.15	10	9	WNW
Sun Jan 31 22:49:57 2010	Charlotte	40 4 	Mostly Sunny	33	30.24	10	0	CLM
Sun Jan 31 22:49:57 2010	San Jose	59 15 		58	30	10	6	N
Sun Jan 31 22:49:58 2010	San Diego	60 16 	Partly Sunny	69	29.92	10	8	NW
Sun Jan 31 22:49:59 2010	Denver	37 3 		54	29.82	10	8	N
Sun Jan 31 22:50:00 2010	Los Angeles	63 17 	Sunny	36	29.89	10	3	N
Sun Jan 31 22:50:00 2010	Memphis	37 3 	Mostly Sunny	64	30.32	10	5	NNE
Sun Jan 31 22:50:01 2010	El Paso	55 13 	Mostly Cloudy	41	29.84	10	3	WSW
Sun Jan 31 22:50:02 2010	New York	30 -1 	Sunny	28	30.07	10	7	W
Sun Jan 31 22:50:03 2010	Baltimore	29 -2 	Sunny	36	30.18	10	10	WSW
Sun Jan 31 22:50:04 2010	Las Vegas	56 13 		41	29.91	10	3	W
Sun Jan 31 22:50:04 2010	Washington	33 1 	Sunny	30	30.19	10	8	WNW
Sun Jan 31 22:50:05 2010	Austin	34 1 	Cloudy	93	30.22	5	0	CLM
Sun Jan 31 22:50:06 2010	San Francisco	54 12 		78	30.02	10	4	NNE
Sun Jan 31 22:50:07 2010	Oklahoma City	27 -3 	Light Fog	90	30.2	1	5	N
Sun Jan 31 22:50:08 2010	Fort Worth	36 2 	Cloudy	74	30.22	10	3	E
Sun Jan 31 22:50:08 2010	Nashville	38 3 	Sunny	42	30.32	10	0	CLM
Sun Jan 31 22:50:09 2010	Phoenix	64 18 	Sunny	37	29.85	10	0	CLM
Sun Jan 31 22:50:10 2010	Portland	51 11 	Cloudy	79	30	10	0	CLM
Sun Jan 31 22:50:11 2010	Chicago	29 -2 		42	30.26	10	16	W
Sun Jan 31 22:50:12 2010	Indianapolis	28 -2 	Sunny	63	30.24	10	14	W
Sun Jan 31 22:50:12 2010	San Antonio	36 2 	Cloudy	81	30.19	6	5	NE
Sun Jan 31 22:50:13 2010	Boston	29 -2 	Partly Sunny	31	29.99	10	12	NW
Sun Jan 31 22:50:14 2010	Jacksonville	43 6 	Mostly Cloudy	70	30.23	10	14	NE
Sun Jan 31 22:50:15 2010	Columbus	31 -1 	Sunny	41	30.22	10	14	W
Sun Jan 31 22:50:16 2010	Dallas	37 3 	Cloudy	72	30.24	6	7	E
Sun Jan 31 22:50:16 2010	Houston	40 4 	Cloudy	70	30.26	10	0	CLM
Sun Jan 31 22:50:17 2010	Seattle	46 8 	Cloudy	88	29.99	10	3	WSW
Sun Jan 31 22:50:18 2010	Milwaukee	21 -6 	Sunny	42	30.19	10	17	WNW
Sun Jan 31 22:50:19 2010	Detroit	29 -2 	Mostly Cloudy	53	30.12	10	14	WSW
Sun Jan 31 22:50:20 2010	Philadelphia	30 -1 	Sunny	27	30.13	10	10	W
Sun Jan 31 23:34:05 2010	San Jose	61 16 		54	29.98	10	8	NW
Sun Jan 31 23:34:06 2010	Charlotte	38 3 	Mostly Sunny	48	30.25	10	3	S
Sun Jan 31 23:34:07 2010	San Diego	60 16 	Partly Sunny	66	29.91	10	5	NW
Sun Jan 31 23:34:08 2010	Denver	37 3 		49	29.83	10	8	NNE
Sun Jan 31 23:34:08 2010	Memphis	37 3 	Mostly Sunny	64	30.33	10	3	N
Sun Jan 31 23:34:09 2010	Los Angeles	66 19 	Sunny	41	29.88	10	7	S
Sun Jan 31 23:34:10 2010	El Paso	57 14 	Mostly Cloudy	40	29.82	10	0	CLM
Sun Jan 31 23:34:11 2010	New York	29 -2 	Sunny	30	30.07	10	8	WSW
Sun Jan 31 23:34:12 2010	Baltimore	28 -2 	Sunny	37	30.17	10	6	W
Sun Jan 31 23:34:12 2010	Las Vegas	59 15 		35	29.89	10	0	CLM
Sun Jan 31 23:34:13 2010	Washington	33 1 	Sunny	27	30.18	10	5	W
Sun Jan 31 23:34:14 2010	Austin	34 1 	Cloudy	93	30.21	5	3	E
Sun Jan 31 23:34:15 2010	Oklahoma City	28 -2 	Light Fog	87	30.18	1	5	N
Sun Jan 31 23:34:15 2010	San Francisco	54 12 		77	29.99	10	4	NNE
Sun Jan 31 23:34:16 2010	Nashville	35 2 	Partly Sunny	47	30.33	10	0	CLM
Sun Jan 31 23:34:17 2010	Fort Worth	36 2 	Cloudy	72	30.23	10	3	N
Sun Jan 31 23:34:18 2010	Phoenix	65 18 	Sunny	36	29.83	10	0	CLM
Sun Jan 31 23:34:19 2010	Chicago	29 -2 		49	30.27	10	15	W
Sun Jan 31 23:34:19 2010	Portland	51 11 	Cloudy	76	29.97	10	3	NNE
Sun Jan 31 23:34:20 2010	San Antonio	37 3 	Cloudy	78	30.18	7	7	NE
Sun Jan 31 23:34:21 2010	Indianapolis	28 -2 	Sunny	63	30.24	10	12	WSW
Sun Jan 31 23:34:22 2010	Boston	28 -2 	Partly Cloudy	32	30	10	10	WNW
Sun Jan 31 23:34:23 2010	Columbus	31 -1 	Sunny	39	30.22	10	16	W
Sun Jan 31 23:34:23 2010	Jacksonville	43 6 	Mostly Cloudy	70	30.24	10	15	NE
Sun Jan 31 23:34:24 2010	Dallas	38 3 	Cloudy	69	30.24	10	0	CLM
Sun Jan 31 23:34:25 2010	Houston	42 6 	Mostly Cloudy	67	30.24	10	0	CLM
Sun Jan 31 23:34:26 2010	Seattle	45 7 	Cloudy	89	29.98	10	7	SSW
Sun Jan 31 23:34:27 2010	Detroit	29 -2 	Partly Sunny	51	30.12	10	15	WSW
Sun Jan 31 23:34:27 2010	Milwaukee	21 -6 	Partly Sunny	45	30.22	10	14	WNW
Sun Jan 31 23:34:28 2010	Philadelphia	28 -2 	Sunny	32	30.15	10	6	WSW
Thu Feb  4 00:19:09 2010	Charlotte	47 8 	Mostly Clear	55	30.17	10	0	CLM
Thu Feb  4 00:19:09 2010	San Jose	63 17 	Cloudy	48	29.78	15	7	W
Thu Feb  4 00:19:10 2010	San Diego	62 17 	Sunny	64	29.75	10	7	W
Thu Feb  4 00:19:11 2010	Denver	45 7 	Cloudy	32	29.84	10	14	ESE
Thu Feb  4 00:19:12 2010	Memphis	44 7 	Cloudy	55	30.26	10	9	N
Thu Feb  4 00:19:13 2010	El Paso	45 7 	Cloudy	85	29.62	10	14	N
Thu Feb  4 00:19:13 2010	Los Angeles	69 21 	Sunny	35	29.67	10	13	ESE
Thu Feb  4 00:19:14 2010	New York	36 2 	Cloudy	54	30.06	10	8	WNW
Thu Feb  4 00:19:15 2010	Baltimore	38 3 	Cloudy	64	30.17	10	3	WNW
Thu Feb  4 00:19:16 2010	Las Vegas	62 17 	Partly Sunny	32	29.65	10	3	N
Thu Feb  4 00:19:17 2010	Austin	46 8 	Rain	100	29.95	2	14	ENE
Thu Feb  4 00:19:17 2010	Washington	40 4 	Mostly Cloudy	62	30.18	10	8	WNW
Thu Feb  4 00:19:18 2010	San Francisco	58 14 		69	29.81	10	4	NW
Thu Feb  4 00:19:19 2010	Oklahoma City	37 3 	Cloudy	81	30.12	6	8	E
Thu Feb  4 00:19:20 2010	Nashville	42 6 	Mostly Sunny	54	30.25	10	8	NE
Thu Feb  4 00:19:21 2010	Fort Worth	44 7 	Cloudy	85	30.09	6	6	E
Thu Feb  4 00:19:21 2010	Phoenix	67 19 	Sunny	31	29.57	10	9	SSW
Thu Feb  4 00:19:22 2010	Portland	44 7 	Light Rain	85	29.71	7	17	E
Thu Feb  4 00:19:23 2010	Chicago	29 -2 	Cloudy	74	30.38	10	6	E
Thu Feb  4 00:19:24 2010	San Antonio	50 10 	Rain	92	29.86	6	8	ENE
Thu Feb  4 00:19:25 2010	Boston	32 0 	Cloudy	58	30	10	7	NNW
Thu Feb  4 00:19:25 2010	Indianapolis	28 -2 	Cloudy	86	30.32	5	0	CLM
Thu Feb  4 00:19:26 2010	Jacksonville	50 10 	Cloudy	76	30.17	10	8	N
Thu Feb  4 00:19:27 2010	Columbus	33 1 	Cloudy	66	30.32	9	7	W
Thu Feb  4 00:19:28 2010	Dallas	44 7 	Rain	85	30.1	5	7	E
Thu Feb  4 00:19:28 2010	Houston	51 11 	Light Rain	82	30	7	14	E
Thu Feb  4 00:19:29 2010	Seattle	46 8 	Light Rain	85	29.72	10	7	ESE
Thu Feb  4 00:19:30 2010	Milwaukee	25 -4 	Sunny	63	30.33	10	5	E
Thu Feb  4 00:19:31 2010	Detroit	33 1 	Cloudy	69	30.3	8	8	NNW
Thu Feb  4 00:19:32 2010	Philadelphia	37 3 	Cloudy	64	30.11	10	3	NW
Thu Feb  4 01:02:39 2010	San Jose	63 17 	Cloudy	48	29.78	15	7	W
Thu Feb  4 01:02:40 2010	Charlotte	47 8 	Mostly Clear	55	30.17	10	0	CLM
Thu Feb  4 01:02:41 2010	San Diego	62 17 	Sunny	64	29.75	10	7	W
Thu Feb  4 01:02:42 2010	Denver	45 7 	Cloudy	32	29.84	10	14	ESE
Thu Feb  4 01:02:42 2010	Memphis	44 7 	Cloudy	55	30.26	10	9	N
Thu Feb  4 01:02:43 2010	Los Angeles	69 21 	Sunny	35	29.67	10	13	ESE
Thu Feb  4 01:02:44 2010	El Paso	45 7 	Cloudy	85	29.62	10	14	N
Thu Feb  4 01:02:45 2010	New York	36 2 	Cloudy	54	30.06	10	8	WNW
Thu Feb  4 01:02:46 2010	Baltimore	38 3 	Cloudy	64	30.17	10	3	WNW
Thu Feb  4 01:02:47 2010	Las Vegas	62 17 	Partly Sunny	32	29.65	10	3	N
Thu Feb  4 01:02:47 2010	Washington	40 4 	Mostly Cloudy	62	30.18	10	8	WNW
Thu Feb  4 01:02:48 2010	Austin	46 8 	Rain	100	29.94	3	15	NE
Thu Feb  4 01:02:49 2010	San Francisco	58 14 	Mostly Cloudy	73	29.81	10	4	NNE
Thu Feb  4 01:02:50 2010	Nashville	42 6 	Mostly Sunny	54	30.25	10	8	NE
Thu Feb  4 01:02:50 2010	Oklahoma City	37 3 	Cloudy	81	30.12	6	8	E
Thu Feb  4 01:02:51 2010	Fort Worth	44 7 	Cloudy	85	30.09	6	6	E
Thu Feb  4 01:02:52 2010	Phoenix	67 19 		31	29.57	10	9	SSW
Thu Feb  4 01:02:53 2010	Portland	44 7 	Light Rain	85	29.71	7	17	E
Thu Feb  4 01:02:54 2010	Chicago	29 -2 	Cloudy	74	30.38	10	6	E
Thu Feb  4 01:02:54 2010	San Antonio	50 10 	Rain	92	29.86	6	8	ENE
Thu Feb  4 01:02:55 2010	Indianapolis	28 -2 	Partly Sunny	80	30.33	5	0	CLM
Thu Feb  4 01:02:56 2010	Boston	32 0 	Cloudy	58	30	10	7	NNW
Thu Feb  4 01:02:57 2010	Jacksonville	50 10 	Cloudy	76	30.17	10	8	N
Thu Feb  4 01:02:58 2010	Columbus	33 1 	Cloudy	66	30.32	9	7	W
Thu Feb  4 01:02:58 2010	Dallas	44 7 	Rain	85	30.1	5	7	E
Thu Feb  4 01:02:59 2010	Houston	51 11 	Light Rain	82	30	7	14	E
Thu Feb  4 01:03:00 2010	Seattle	46 8 	Light Rain	85	29.72	10	7	ESE
Thu Feb  4 01:03:01 2010	Milwaukee	25 -4 	Sunny	63	30.33	10	5	E
Thu Feb  4 01:03:02 2010	Detroit	32 0 	Cloudy	74	30.29	7	5	NNW
Thu Feb  4 01:03:02 2010	Philadelphia	37 3 	Cloudy	64	30.11	10	3	NW
Thu Feb  4 01:50:04 2010	San Jose	63 17 	Cloudy	51	29.79	10	12	W
Thu Feb  4 01:50:05 2010	Charlotte	47 8 	Mostly Clear	55	30.2	10	5	ENE
Thu Feb  4 01:50:06 2010	San Diego	61 16 	Sunny	69	29.75	10	8	W
Thu Feb  4 01:50:07 2010	Denver	41 5 	Cloudy	41	29.85	10	8	E
Thu Feb  4 01:50:07 2010	Memphis	43 6 	Cloudy	55	30.29	10	10	NE
Thu Feb  4 01:50:08 2010	Los Angeles	66 19 	Sunny	44	29.69	10	12	SSE
Thu Feb  4 01:50:09 2010	El Paso	45 7 	Cloudy	85	29.65	10	9	NNW
Thu Feb  4 01:50:10 2010	New York	35 2 	Clear	56	30.09	10	8	WNW
Thu Feb  4 01:50:11 2010	Baltimore	36 2 	Mostly Cloudy	69	30.18	10	5	WNW
Thu Feb  4 01:50:11 2010	Las Vegas	62 17 	Partly Sunny	29	29.66	10	3	NE
Thu Feb  4 01:50:12 2010	Washington	40 4 	Mostly Cloudy	59	30.21	10	7	WNW
Thu Feb  4 01:50:13 2010	Austin	46 8 	Rain	100	29.92	2	15	ENE
Thu Feb  4 01:50:14 2010	San Francisco	58 14 	Cloudy	74	29.83	10	5	W
Thu Feb  4 01:50:15 2010	Nashville	38 3 	Mostly Clear	64	30.29	10	7	NNE
Thu Feb  4 01:50:15 2010	Oklahoma City	37 3 	Cloudy	81	30.12	4	7	ENE
Thu Feb  4 01:50:16 2010	Fort Worth	43 6 	Rain	85	30.09	4	8	ENE
Thu Feb  4 01:50:17 2010	Phoenix	67 19 	Sunny	31	29.59	10	7	SSW
Thu Feb  4 01:50:18 2010	Chicago	29 -2 	Cloudy	72	30.41	10	3	E
Thu Feb  4 01:50:18 2010	Portland	44 7 	Cloudy	85	29.72	10	18	E
Thu Feb  4 01:50:19 2010	San Antonio	50 10 	Cloudy	92	29.81	6	16	E
Thu Feb  4 01:50:20 2010	Indianapolis	27 -3 	Clear	86	30.34	7	3	N
Thu Feb  4 01:50:21 2010	Boston	32 0 	Cloudy	56	30.01	10	8	NW
Thu Feb  4 01:50:22 2010	Columbus	32 0 	Cloudy	72	30.34	9	6	W
Thu Feb  4 01:50:22 2010	Jacksonville	50 10 		76	30.16	10	7	NNE
Thu Feb  4 01:50:23 2010	Dallas	44 7 	Cloudy	82	30.11	5	8	E
Thu Feb  4 01:50:24 2010	Houston	51 11 	Light Rain	82	29.97	8	15	ENE
Thu Feb  4 01:50:25 2010	Seattle	46 8 	Partly Sunny	85	29.71	10	9	E
Thu Feb  4 01:50:26 2010	Detroit	32 0 	Cloudy	75	30.32	7	5	NW
Thu Feb  4 01:50:26 2010	Milwaukee	23 -5 	Clear	68	30.35	10	0	CLM
Thu Feb  4 01:50:27 2010	Philadelphia	35 2 	Partly Cloudy	66	30.15	10	6	W
Thu Feb  4 02:34:00 2010	San Jose	59 15 	Cloudy	62	29.83	15	12	WNW
Thu Feb  4 02:34:01 2010	Charlotte	44 7 	Clear	62	30.21	10	0	CLM
Thu Feb  4 02:34:01 2010	San Diego	58 14 	Sunny	74	29.77	10	7	W
Thu Feb  4 02:34:02 2010	Denver	38 3 	Cloudy	48	29.87	10	8	SE
Thu Feb  4 02:34:03 2010	Memphis	42 6 	Cloudy	57	30.28	10	13	NE
Thu Feb  4 02:34:04 2010	El Paso	45 7 	Light Rain	85	29.66	7	10	N
Thu Feb  4 02:34:04 2010	Los Angeles	64 18 	Sunny	48	29.71	10	10	ESE
Thu Feb  4 02:34:05 2010	New York	34 1 	Clear	58	30.11	10	5	N
Thu Feb  4 02:34:06 2010	Baltimore	35 2 	Partly Cloudy	69	30.21	10	7	WNW
Thu Feb  4 02:34:07 2010	Las Vegas	60 16 	Partly Sunny	34	29.67	10	5	ESE
Thu Feb  4 02:34:08 2010	Austin	46 8 	Cloudy	100	29.92	5	15	ENE
Thu Feb  4 02:34:08 2010	Washington	40 4 	Cloudy	59	30.24	10	6	W
Thu Feb  4 02:34:09 2010	San Francisco	58 14 	Cloudy	73	29.85	10	4	W
Thu Feb  4 02:34:10 2010	Oklahoma City	36 2 	Cloudy	85	30.15	6	8	E
Thu Feb  4 02:34:11 2010	Nashville	37 3 	Mostly Clear	66	30.33	10	6	NNE
Thu Feb  4 02:34:12 2010	Fort Worth	43 6 	Cloudy	85	30.08	7	6	E
Thu Feb  4 02:34:12 2010	Phoenix	62 17 	Light Rain	53	29.64	10	13	NNW
Thu Feb  4 02:34:13 2010	Portland	44 7 	Cloudy	85	29.71	10	22	E
Thu Feb  4 02:34:14 2010	Chicago	30 -1 	Cloudy	71	30.42	9	5	ESE
Thu Feb  4 02:34:15 2010	San Antonio	50 10 	Cloudy	96	29.85	6	12	ENE
Thu Feb  4 02:34:16 2010	Boston	32 0 	Cloudy	56	30.01	10	8	NW
Thu Feb  4 02:34:16 2010	Indianapolis	27 -3 	Cloudy	92	30.37	5	3	N
Thu Feb  4 02:34:17 2010	Jacksonville	49 9 	Partly Cloudy	79	30.18	10	5	N
Thu Feb  4 02:34:18 2010	Columbus	33 1 	Cloudy	69	30.36	9	5	NW
Thu Feb  4 02:34:19 2010	Dallas	44 7 	Rain	78	30.08	6	10	E
Thu Feb  4 02:34:20 2010	Houston	51 11 	Light Rain	82	29.98	9	20	E
Thu Feb  4 02:34:20 2010	Seattle	46 8 	Partly Sunny	82	29.7	10	7	ESE
Thu Feb  4 02:34:21 2010	Milwaukee	21 -6 	Clear	79	30.36	10	0	CLM
Thu Feb  4 02:34:22 2010	Detroit	32 0 	Cloudy	75	30.35	7	7	NNW
Thu Feb  4 02:34:23 2010	Philadelphia	35 2 	Mostly Cloudy	69	30.16	10	3	NW
Thu Feb  4 03:18:29 2010	San Jose	57 14 	Cloudy	71	29.86	8	12	W
Thu Feb  4 03:18:30 2010	Charlotte	45 7 	Clear	57	30.24	10	5	E
Thu Feb  4 03:18:31 2010	San Diego	57 14 	Clear	77	29.79	10	7	WSW
Thu Feb  4 03:18:32 2010	Denver	35 2 	Cloudy	53	29.88	10	7	SE
Thu Feb  4 03:18:33 2010	Los Angeles	60 16 	Clear	55	29.74	10	10	SE
Thu Feb  4 03:18:33 2010	Memphis	40 4 	Cloudy	67	30.28	10	5	NNE
Thu Feb  4 03:18:34 2010	El Paso	44 7 	Cloudy	92	29.69	10	8	N
Thu Feb  4 03:18:35 2010	New York	34 1 	Clear	56	30.13	10	7	N
Thu Feb  4 03:18:36 2010	Baltimore	35 2 	Partly Cloudy	69	30.22	10	9	W
Thu Feb  4 03:18:37 2010	Las Vegas	59 15 	Clear	35	29.68	10	0	CLM
Thu Feb  4 03:18:37 2010	Washington	38 3 	Partly Cloudy	64	30.25	10	6	NNW
Thu Feb  4 03:18:38 2010	Austin	46 8 	Cloudy	100	29.95	6	10	ENE
Thu Feb  4 03:18:39 2010	San Francisco	56 13 	Cloudy	80	29.85	10	4	W
Thu Feb  4 03:18:40 2010	Oklahoma City	36 2 	Rain	85	30.15	5	9	E
Thu Feb  4 03:18:41 2010	Fort Worth	44 7 	Rain	78	30.08	6	8	E
Thu Feb  4 03:18:41 2010	Nashville	37 3 	Clear	66	30.34	10	6	N
Thu Feb  4 03:18:42 2010	Phoenix	59 15 	Light Rain	59	29.63	10	7	SSW
Thu Feb  4 03:18:43 2010	Portland	45 7 	Cloudy	85	29.73	10	16	E
Thu Feb  4 03:18:44 2010	Chicago	29 -2 	Cloudy	74	30.43	9	5	SE
Thu Feb  4 03:18:45 2010	Indianapolis	28 -2 	Cloudy	86	30.38	5	0	CLM
Thu Feb  4 03:18:45 2010	San Antonio	50 10 	Rain	96	29.85	2	12	ENE
Thu Feb  4 03:18:46 2010	Boston	32 0 	Cloudy	58	30.02	10	8	NW
Thu Feb  4 03:18:47 2010	Jacksonville	48 9 	Mostly Clear	82	30.2	10	3	N
Thu Feb  4 03:18:48 2010	Columbus	32 0 	Cloudy	72	30.39	8	7	NNW
Thu Feb  4 03:18:49 2010	Dallas	45 7 	Light Rain	73	30.09	7	12	E
Thu Feb  4 03:18:49 2010	Houston	51 11 	Rain	85	30	5	14	ENE
Thu Feb  4 03:18:50 2010	Seattle	46 8 	Cloudy	79	29.71	10	5	ESE
Thu Feb  4 03:18:51 2010	Milwaukee	18 -8 	Clear	79	30.37	10	0	CLM
Thu Feb  4 03:18:52 2010	Detroit	31 -1 	Cloudy	72	30.38	8	6	N
Thu Feb  4 03:18:52 2010	Philadelphia	34 1 	Partly Cloudy	66	30.18	10	6	NNW
Thu Feb  4 04:01:40 2010	San Jose	57 14 	Cloudy	71	29.86	8	12	W
Thu Feb  4 04:01:41 2010	Charlotte	45 7 	Clear	57	30.24	10	5	E
Thu Feb  4 04:01:42 2010	San Diego	57 14 	Clear	77	29.79	10	7	WSW
Thu Feb  4 04:01:43 2010	Denver	35 2 	Cloudy	53	29.88	10	7	SE
Thu Feb  4 04:01:43 2010	Memphis	40 4 	Cloudy	67	30.28	10	5	NNE
Thu Feb  4 04:01:44 2010	Los Angeles	60 16 	Mostly Clear	55	29.74	10	10	SE
Thu Feb  4 04:01:45 2010	El Paso	44 7 	Cloudy	92	29.69	10	8	N
Thu Feb  4 04:01:46 2010	New York	34 1 	Mostly Clear	56	30.13	10	7	N
Thu Feb  4 04:01:47 2010	Baltimore	35 2 	Partly Cloudy	69	30.22	10	9	W
Thu Feb  4 04:01:47 2010	Las Vegas	59 15 	Clear	35	29.68	10	0	CLM
Thu Feb  4 04:01:48 2010	Washington	38 3 	Partly Cloudy	64	30.25	10	6	NNW
Thu Feb  4 04:01:49 2010	Austin	48 9 	Cloudy	93	29.95	7	10	ENE
Thu Feb  4 04:01:51 2010	San Francisco	55 13 	Cloudy	81	29.85	10	6	SW
Thu Feb  4 04:01:52 2010	Oklahoma City	36 2 	Rain	85	30.15	5	9	E
Thu Feb  4 04:01:53 2010	Fort Worth	44 7 	Rain	78	30.08	6	8	E
Thu Feb  4 04:01:53 2010	Nashville	37 3 	Clear	66	30.34	10	6	N
Thu Feb  4 04:01:54 2010	Phoenix	59 15 	Light Rain	59	29.63	10	7	SSW
Thu Feb  4 04:01:55 2010	Portland	45 7 	Cloudy	85	29.73	10	16	E
Thu Feb  4 04:01:56 2010	Chicago	29 -2 	Cloudy	74	30.43	9	5	SE
Thu Feb  4 04:01:57 2010	San Antonio	50 10 	Rain	96	29.85	2	12	ENE
Thu Feb  4 04:01:58 2010	Indianapolis	28 -2 	Cloudy	86	30.4	5	3	N
Thu Feb  4 04:01:59 2010	Boston	32 0 	Cloudy	58	30.02	10	8	NW
Thu Feb  4 04:01:59 2010	Jacksonville	48 9 	Mostly Clear	82	30.2	10	3	N
Thu Feb  4 04:02:00 2010	Columbus	32 0 	Cloudy	72	30.39	8	7	NNW
Thu Feb  4 04:02:01 2010	Dallas	45 7 	Light Rain	73	30.09	7	12	E
Thu Feb  4 04:02:02 2010	Houston	51 11 	Rain	85	30	5	14	ENE
Thu Feb  4 04:02:03 2010	Milwaukee	18 -8 	Partly Cloudy	85	30.39	10	0	CLM
Thu Feb  4 04:02:03 2010	Seattle	46 8 	Cloudy	79	29.71	10	5	ESE
Thu Feb  4 04:02:04 2010	Detroit	31 -1 	Cloudy	72	30.38	8	6	N
Thu Feb  4 04:02:05 2010	Philadelphia	34 1 	Partly Cloudy	66	30.18	10	6	NNW
Thu Feb  4 04:44:36 2010	San Jose	55 13 	Mostly Cloudy	78	29.84	10	2	N
Thu Feb  4 04:44:37 2010	Charlotte	41 5 	Clear	70	30.29	10	5	NNE
Thu Feb  4 04:44:37 2010	San Diego	56 13 	Partly Cloudy	80	29.84	10	6	SW
Thu Feb  4 04:44:38 2010	Denver	38 3 	Cloudy	48	29.85	10	3	N
Thu Feb  4 04:44:39 2010	Memphis	40 4 	Cloudy	62	30.27	10	12	NE
Thu Feb  4 04:44:40 2010	El Paso	45 7 	Cloudy	87	29.79	10	0	CLM
Thu Feb  4 04:44:40 2010	Los Angeles	57 14 	Clear	71	29.79	10	7	SSE
Thu Feb  4 04:44:41 2010	New York	33 1 	Clear	58	30.14	10	6	N
Thu Feb  4 04:44:42 2010	Baltimore	34 1 	Mostly Cloudy	72	30.25	10	7	W
Thu Feb  4 04:44:43 2010	Las Vegas	57 14 	Clear	40	29.71	10	3	W
Thu Feb  4 04:44:44 2010	Austin	48 9 	Cloudy	93	29.97	7	9	NE
Thu Feb  4 04:44:44 2010	Washington	37 3 	Mostly Cloudy	64	30.28	10	7	NW
Thu Feb  4 04:44:45 2010	San Francisco	54 12 	Cloudy	83	29.85	10	4	WSW
Thu Feb  4 04:44:46 2010	Oklahoma City	36 2 		90	30.15	3	7	ENE
Thu Feb  4 04:44:47 2010	Nashville	34 1 	Cloudy	75	30.33	9	7	NNE
Thu Feb  4 04:44:48 2010	Fort Worth	44 7 	Cloudy	76	30.06	7	10	E
Thu Feb  4 04:44:48 2010	Phoenix	59 15 	Mostly Cloudy	57	29.65	10	8	ENE
Thu Feb  4 04:44:49 2010	Portland	45 7 	Cloudy	82	29.74	10	13	ENE
Thu Feb  4 04:44:50 2010	Chicago	30 -1 	Cloudy	71	30.45	7	5	S
Thu Feb  4 04:44:51 2010	San Antonio	50 10 	Rain	96	29.86	2	8	ENE
Thu Feb  4 04:44:52 2010	Boston	31 -1 	Partly Cloudy	56	30.04	10	10	WNW
Thu Feb  4 04:44:52 2010	Indianapolis	28 -2 	Cloudy	86	30.39	5	0	CLM
Thu Feb  4 04:44:53 2010	Jacksonville	48 9 	Mostly Cloudy	82	30.21	10	3	N
Thu Feb  4 04:44:54 2010	Columbus	32 0 	Cloudy	72	30.4	7	5	NW
Thu Feb  4 04:44:55 2010	Dallas	44 7 	Cloudy	78	30.06	7	14	E
Thu Feb  4 04:44:56 2010	Houston	50 10 	Rain	87	29.96	4	16	ENE
Thu Feb  4 04:44:56 2010	Seattle	45 7 	Cloudy	85	29.73	10	3	SSW
Thu Feb  4 04:44:57 2010	Milwaukee	19 -7 	Partly Cloudy	85	30.39	10	0	CLM
Thu Feb  4 04:44:58 2010	Detroit	31 -1 	Cloudy	66	30.39	8	7	NNW
Thu Feb  4 04:44:59 2010	Philadelphia	35 2 	Partly Cloudy	61	30.2	10	8	NW
Thu Feb  4 05:28:10 2010	San Jose	54 12 	Mostly Cloudy	79	29.84	10	4	NW
Thu Feb  4 05:28:11 2010	Charlotte	39 4 	Clear	66	30.29	10	9	NE
Thu Feb  4 05:28:12 2010	Denver	38 3 	Cloudy	48	29.82	10	5	SSW
Thu Feb  4 05:28:12 2010	San Diego	55 13 	Partly Cloudy	83	29.86	10	3	SE
Thu Feb  4 05:28:13 2010	Memphis	40 4 	Cloudy	62	30.24	10	12	NE
Thu Feb  4 05:28:14 2010	Los Angeles	56 13 	Clear	77	29.81	10	3	E
Thu Feb  4 05:28:15 2010	El Paso	44 7 	Cloudy	88	29.73	10	0	CLM
Thu Feb  4 05:28:15 2010	New York	32 0 	Clear	58	30.16	10	12	WNW
Thu Feb  4 05:28:16 2010	Baltimore	33 1 	Partly Cloudy	69	30.26	10	8	W
Thu Feb  4 05:28:17 2010	Las Vegas	52 11 	Clear	54	29.73	10	7	W
Thu Feb  4 05:28:18 2010	Washington	38 3 	Cloudy	62	30.28	10	6	W
Thu Feb  4 05:28:19 2010	Austin	46 8 	Rain	100	29.93	5	12	ENE
Thu Feb  4 05:28:19 2010	San Francisco	54 12 	Cloudy	84	29.85	10	4	WSW
Thu Feb  4 05:28:20 2010	Oklahoma City	36 2 	Light Fog	93	30.1	2	12	NE
Thu Feb  4 05:28:21 2010	Nashville	33 1 	Mostly Clear	75	30.31	8	6	NNE
Thu Feb  4 05:28:22 2010	Fort Worth	44 7 	Light Rain	76	30.08	7	8	ESE
Thu Feb  4 05:28:23 2010	Phoenix	57 14 	Clear	63	29.66	10	5	E
Thu Feb  4 05:28:23 2010	Portland	45 7 	Cloudy	82	29.74	10	14	E
Thu Feb  4 05:28:24 2010	Chicago	30 -1 	Cloudy	65	30.45	7	0	CLM
Thu Feb  4 05:28:25 2010	San Antonio	50 10 	Rain	96	29.88	2	7	ENE
Thu Feb  4 05:28:26 2010	Indianapolis	28 -2 	Cloudy	86	30.39	5	5	NE
Thu Feb  4 05:28:27 2010	Boston	30 -1 	Clear	58	30.04	10	13	WNW
Thu Feb  4 05:28:27 2010	Jacksonville	48 9 	Mostly Clear	82	30.22	10	5	N
Thu Feb  4 05:28:28 2010	Columbus	31 -1 	Cloudy	75	30.4	6	0	CLM
Thu Feb  4 05:28:29 2010	Dallas	44 7 	Light Rain	78	30.09	7	16	E
Thu Feb  4 05:28:30 2010	Houston	50 10 	Rain	89	29.98	4	14	E
Thu Feb  4 05:28:31 2010	Milwaukee	18 -8 	Partly Cloudy	85	30.39	7	0	CLM
Thu Feb  4 05:28:31 2010	Seattle	44 7 	Light Rain	92	29.74	10	8	S
Thu Feb  4 05:28:32 2010	Detroit	30 -1 	Cloudy	65	30.41	10	8	NW
Thu Feb  4 05:28:33 2010	Philadelphia	33 1 	Partly Cloudy	66	30.21	10	3	W
Thu Feb  4 06:11:11 2010	San Jose	53 12 	Mostly Cloudy	83	29.84	10	4	NW
Thu Feb  4 06:11:12 2010	Charlotte	39 4 	Clear	66	30.29	10	9	NE
Thu Feb  4 06:11:13 2010	San Diego	54 12 	Mostly Cloudy	81	29.88	9	0	CLM
Thu Feb  4 06:11:14 2010	Denver	38 3 	Cloudy	48	29.82	10	5	SSW
Thu Feb  4 06:11:15 2010	Los Angeles	56 13 	Clear	77	29.81	10	3	E
Thu Feb  4 06:11:15 2010	Memphis	40 4 	Cloudy	62	30.24	10	12	NE
Thu Feb  4 06:11:16 2010	El Paso	45 7 	Light Rain	87	29.8	10	0	CLM
Thu Feb  4 06:11:17 2010	New York	32 0 	Clear	58	30.16	10	12	WNW
Thu Feb  4 06:11:18 2010	Baltimore	33 1 	Partly Cloudy	69	30.26	10	8	W
Thu Feb  4 06:11:19 2010	Las Vegas	52 11 	Clear	54	29.73	10	7	W
Thu Feb  4 06:11:19 2010	Washington	38 3 	Cloudy	62	30.28	10	6	W
Thu Feb  4 06:11:20 2010	Austin	46 8 	Rain	100	29.97	3	8	ENE
Thu Feb  4 06:11:21 2010	San Francisco	54 12 	Cloudy	80	29.85	10	3	N
Thu Feb  4 06:11:22 2010	Oklahoma City	36 2 	Light Fog	93	30.1	2	12	NE
Thu Feb  4 06:11:23 2010	Fort Worth	44 7 	Light Rain	76	30.08	7	8	ESE
Thu Feb  4 06:11:23 2010	Nashville	33 1 	Cloudy	75	30.31	8	6	NNE
Thu Feb  4 06:11:24 2010	Phoenix	57 14 	Clear	63	29.66	10	5	E
Thu Feb  4 06:11:25 2010	Portland	45 7 	Cloudy	82	29.74	10	14	E
Thu Feb  4 06:11:26 2010	Chicago	30 -1 	Cloudy	65	30.45	7	0	CLM
Thu Feb  4 06:11:27 2010	Indianapolis	28 -2 	Cloudy	86	30.38	5	5	ENE
Thu Feb  4 06:11:27 2010	San Antonio	50 10 	Rain	96	29.88	2	7	ENE
Thu Feb  4 06:11:28 2010	Boston	30 -1 	Clear	58	30.04	10	13	WNW
Thu Feb  4 06:11:29 2010	Jacksonville	48 9 	Mostly Clear	82	30.22	10	5	N
Thu Feb  4 06:11:30 2010	Columbus	31 -1 	Cloudy	75	30.4	6	0	CLM
Thu Feb  4 06:11:31 2010	Dallas	44 7 	Light Rain	78	30.09	7	16	E
Thu Feb  4 06:11:31 2010	Houston	50 10 	Rain	89	29.98	4	14	E
Thu Feb  4 06:11:32 2010	Seattle	44 7 	Light Rain	92	29.74	10	8	S
Thu Feb  4 06:11:33 2010	Milwaukee	18 -8 	Clear	85	30.38	7	0	CLM
Thu Feb  4 06:11:34 2010	Detroit	30 -1 	Cloudy	64	30.39	10	7	NW
Thu Feb  4 06:11:35 2010	Philadelphia	33 1 	Partly Cloudy	66	30.21	10	3	W
Thu Feb  4 06:54:37 2010	Charlotte	36 2 	Mostly Clear	69	30.3	10	9	NE
Thu Feb  4 06:54:37 2010	San Jose	55 13 	Cloudy	81	29.86	15	0	CLM
Thu Feb  4 06:54:38 2010	San Diego	54 12 	Cloudy	86	29.88	9	3	SE
Thu Feb  4 06:54:39 2010	Denver	36 2 	Cloudy	56	29.78	10	9	S
Thu Feb  4 06:54:40 2010	Memphis	39 4 	Cloudy	64	30.24	10	10	ENE
Thu Feb  4 06:54:41 2010	Los Angeles	55 13 	Clear	71	29.81	10	3	ENE
Thu Feb  4 06:54:42 2010	El Paso	45 7 	Cloudy	87	29.8	10	6	CLM
Thu Feb  4 06:54:42 2010	New York	31 -1 	Clear	61	30.16	10	7	W
Thu Feb  4 06:54:43 2010	Baltimore	32 0 	Partly Cloudy	69	30.27	10	8	W
Thu Feb  4 06:54:44 2010	Las Vegas	52 11 	Clear	52	29.73	10	5	SW
Thu Feb  4 06:54:45 2010	Austin	46 8 	Rain	100	29.94	2	8	NE
Thu Feb  4 06:54:45 2010	Washington	38 3 	Partly Cloudy	59	30.29	10	7	NW
Thu Feb  4 06:54:46 2010	San Francisco	52 11 		87	29.85	10	2	N
Thu Feb  4 06:54:47 2010	Oklahoma City	36 2 	Light Fog	89	30.11	3	9	NE
Thu Feb  4 06:54:48 2010	Nashville	34 1 		72	30.29	8	7	NE
Thu Feb  4 06:54:49 2010	Fort Worth	43 6 	Cloudy	82	30.02	7	12	E
Thu Feb  4 06:54:49 2010	Phoenix	57 14 	Cloudy	61	29.68	10	0	CLM
Thu Feb  4 06:54:50 2010	Portland	45 7 	Cloudy	81	29.77	10	13	E
Thu Feb  4 06:54:51 2010	Chicago	29 -2 	Mostly Cloudy	68	30.43	7	0	CLM
Thu Feb  4 06:54:52 2010	San Antonio	50 10 	Rain	92	29.87	2	7	NE
Thu Feb  4 06:54:53 2010	Boston	29 -2 	Clear	61	30.04	10	10	WNW
Thu Feb  4 06:54:53 2010	Indianapolis	25 -4 	Mostly Clear	92	30.37	4	3	NE
Thu Feb  4 06:54:54 2010	Jacksonville	49 9 	Mostly Clear	83	30.2	10	10	NNE
Thu Feb  4 06:54:55 2010	Columbus	29 -2 	Partly Cloudy	81	30.41	6	0	CLM
Thu Feb  4 06:54:56 2010	Dallas	43 6 	Cloudy	82	30.03	7	16	E
Thu Feb  4 06:54:57 2010	Houston	50 10 	Rain	89	29.99	4	13	ENE
Thu Feb  4 06:54:57 2010	Seattle	45 7 	Light Rain	89	29.74	9	6	N
Thu Feb  4 06:54:58 2010	Milwaukee	18 -8 	Clear	85	30.37	5	0	CLM
Thu Feb  4 06:54:59 2010	Detroit	30 -1 	Cloudy	63	30.42	10	7	WNW
Thu Feb  4 06:55:00 2010	Philadelphia	32 0 	Cloudy	72	30.23	10	3	W
Thu Feb  4 07:37:19 2010	San Jose	54 12 	Mostly Cloudy	87	29.86	10	0	CLM
Thu Feb  4 07:37:20 2010	Charlotte	36 2 	Mostly Clear	67	30.3	10	10	NE
Thu Feb  4 07:37:20 2010	San Diego	53 12 	Partly Cloudy	85	29.89	8	3	ESE
Thu Feb  4 07:37:21 2010	Denver	38 3 	Cloudy	50	29.76	10	13	SSW
Thu Feb  4 07:37:22 2010	Memphis	39 4 	Cloudy	64	30.25	10	8	NE
Thu Feb  4 07:37:23 2010	Los Angeles	54 12 	Partly Cloudy	80	29.83	10	6	SE
Thu Feb  4 07:37:24 2010	El Paso	44 7 	Cloudy	88	29.73	10	5	SW
Thu Feb  4 07:37:24 2010	New York	31 -1 	Clear	63	30.17	10	8	W
Thu Feb  4 07:37:25 2010	Baltimore	31 -1 	Partly Cloudy	66	30.27	10	9	W
Thu Feb  4 07:37:26 2010	Las Vegas	50 10 	Clear	56	29.73	10	6	SSW
Thu Feb  4 07:37:27 2010	Austin	46 8 	Rain	100	29.92	3	9	NE
Thu Feb  4 07:37:27 2010	Washington	36 2 	Partly Cloudy	54	30.3	10	9	NW
Thu Feb  4 07:37:28 2010	San Francisco	52 11 		87	29.85	10	2	N
Thu Feb  4 07:37:29 2010	Oklahoma City	36 2 	Rain	89	30.11	2	6	NE
Thu Feb  4 07:37:30 2010	Nashville	33 1 	Cloudy	75	30.28	8	6	NE
Thu Feb  4 07:37:31 2010	Fort Worth	42 6 	Light Rain	85	30	7	13	E
Thu Feb  4 07:37:31 2010	Phoenix	55 13 	Clear	66	29.7	10	6	E
Thu Feb  4 07:37:32 2010	Portland	44 7 	Cloudy	88	29.77	10	15	E
Thu Feb  4 07:37:33 2010	Chicago	27 -3 	Partly Cloudy	74	30.43	6	5	SSW
Thu Feb  4 07:37:34 2010	San Antonio	49 9 	Rain	96	29.85	2	8	NE
Thu Feb  4 07:37:35 2010	Boston	28 -2 	Clear	63	30.05	10	12	WNW
Thu Feb  4 07:37:35 2010	Indianapolis	23 -5 	Mostly Clear	92	30.37	4	0	CLM
Thu Feb  4 07:37:36 2010	Jacksonville	50 10 	Mostly Clear	86	30.18	10	10	NE
Thu Feb  4 07:37:37 2010	Columbus	27 -3 	Partly Cloudy	84	30.4	5	0	CLM
Thu Feb  4 07:37:38 2010	Dallas	43 6 	Cloudy	85	30.01	7	13	E
Thu Feb  4 07:37:39 2010	Houston	49 9 	Heavy Rain	92	29.99	4	15	ENE
Thu Feb  4 07:37:39 2010	Seattle	45 7 	Light Rain	85	29.74	10	5	ESE
Thu Feb  4 07:37:40 2010	Milwaukee	14 -10 	Mostly Clear	92	30.38	5	0	CLM
Thu Feb  4 07:37:41 2010	Detroit	29 -2 	Cloudy	66	30.41	10	7	NW
Thu Feb  4 07:37:42 2010	Philadelphia	32 0 	Partly Cloudy	66	30.24	10	6	WNW
Thu Feb  4 08:20:17 2010	San Jose	54 12 	Mostly Cloudy	86	29.85	10	0	CLM
Thu Feb  4 08:20:18 2010	Charlotte	35 2 		69	30.3	10	7	NE
Thu Feb  4 08:20:19 2010	Denver	40 4 	Cloudy	62	29.7	10	5	ENE
Thu Feb  4 08:20:19 2010	San Diego	51 11 	Partly Cloudy	89	29.88	7	5	ESE
Thu Feb  4 08:20:20 2010	Memphis	40 4 	Cloudy	62	30.22	10	9	ENE
Thu Feb  4 08:20:21 2010	Los Angeles	54 12 	Cloudy	89	29.83	6	5	SE
Thu Feb  4 08:20:22 2010	El Paso	43 6 	Cloudy	92	29.74	10	8	S
Thu Feb  4 08:20:23 2010	New York	31 -1 	Clear	61	30.18	10	9	W
Thu Feb  4 08:20:24 2010	Baltimore	32 0 	Partly Cloudy	58	30.3	10	8	WNW
Thu Feb  4 08:20:24 2010	Las Vegas	49 9 	Clear	56	29.73	10	7	SSW
Thu Feb  4 08:20:25 2010	Washington	35 2 	Partly Cloudy	53	30.32	10	10	NW
Thu Feb  4 08:20:26 2010	Austin	46 8 	Rain	100	29.91	2	9	NE
Thu Feb  4 08:20:27 2010	Oklahoma City	36 2 	Cloudy	85	30.1	4	10	ENE
Thu Feb  4 08:20:27 2010	San Francisco	51 11 		88	29.85	10	1	SSW
Thu Feb  4 08:20:28 2010	Nashville	33 1 	Cloudy	75	30.3	8	3	NE
Thu Feb  4 08:20:29 2010	Fort Worth	43 6 	Rain	87	29.99	6	13	E
Thu Feb  4 08:20:30 2010	Phoenix	55 13 	Clear	71	29.72	10	9	ESE
Thu Feb  4 08:20:31 2010	Chicago	26 -3 		77	30.4	5	3	SSE
Thu Feb  4 08:20:31 2010	Portland	43 6 	Cloudy	88	29.76	10	18	E
Thu Feb  4 08:20:32 2010	San Antonio	49 9 	Rain	96	29.83	2	8	NE
Thu Feb  4 08:20:33 2010	Indianapolis	21 -6 	Light Fog	100	30.36	3	5	NNE
Thu Feb  4 08:20:34 2010	Boston	27 -3 	Clear	63	30.07	10	12	WNW
Thu Feb  4 08:20:35 2010	Columbus	26 -3 	Light Fog	84	30.4	3	0	CLM
Thu Feb  4 08:20:35 2010	Jacksonville	52 11 	Cloudy	82	30.18	10	9	NE
Thu Feb  4 08:20:36 2010	Dallas	42 6 	Rain	91	30	6	15	E
Thu Feb  4 08:20:37 2010	Houston	49 9 	Rain	92	29.97	6	12	E
Thu Feb  4 08:20:38 2010	Seattle	44 7 	Rain	92	29.76	6	6	S
Thu Feb  4 08:20:39 2010	Detroit	27 -3 	Cloudy	68	30.41	10	0	CLM
Thu Feb  4 08:20:39 2010	Milwaukee	11-Dec	Light Fog	92	30.34	1	0	CLM
Thu Feb  4 08:20:40 2010	Philadelphia	31 -1 	Clear	58	30.24	10	8	WNW
Thu Feb  4 09:04:49 2010	San Jose	49 9 	Mostly Cloudy	88	29.85	9	3	SE
Thu Feb  4 09:04:50 2010	Charlotte	35 2 	Mostly Cloudy	69	30.3	10	7	NE
Thu Feb  4 09:04:51 2010	San Diego	51 11 	Partly Cloudy	89	29.88	7	5	ESE
Thu Feb  4 09:04:52 2010	Denver	40 4 	Cloudy	62	29.7	10	5	ENE
Thu Feb  4 09:04:53 2010	Memphis	40 4 	Cloudy	62	30.22	10	9	ENE
Thu Feb  4 09:04:54 2010	El Paso	43 6 	Light Rain	87	29.81	10	9	SSE
Thu Feb  4 09:04:54 2010	Los Angeles	54 12 	Cloudy	87	29.87	7	3	SSE
Thu Feb  4 09:04:55 2010	New York	31 -1 	Clear	61	30.18	10	9	W
Thu Feb  4 09:04:56 2010	Baltimore	32 0 	Partly Cloudy	58	30.3	10	8	WNW
Thu Feb  4 09:04:57 2010	Las Vegas	49 9 	Partly Cloudy	56	29.73	10	7	SSW
Thu Feb  4 09:04:57 2010	Washington	35 2 	Partly Cloudy	53	30.32	10	10	NW
Thu Feb  4 09:04:58 2010	Austin	46 8 	Rain	100	29.89	2	12	NE
Thu Feb  4 09:04:59 2010	San Francisco	50 10 	Cloudy	90	29.85	10	2	SSW
Thu Feb  4 09:05:00 2010	Oklahoma City	36 2 	Cloudy	85	30.1	4	10	ENE
Thu Feb  4 09:05:01 2010	Fort Worth	43 6 	Rain	87	30	6	13	E
Thu Feb  4 09:05:01 2010	Nashville	33 1 	Cloudy	75	30.3	8	3	NE
Thu Feb  4 09:05:02 2010	Phoenix	55 13 	Mostly Clear	71	29.72	10	9	ESE
Thu Feb  4 09:05:03 2010	Portland	43 6 	Cloudy	88	29.76	10	18	E
Thu Feb  4 09:05:04 2010	Chicago	26 -3 		77	30.4	5	3	SSE
Thu Feb  4 09:05:05 2010	Indianapolis	23 -5 	Light Fog	92	30.35	3	3	NE
Thu Feb  4 09:05:05 2010	San Antonio	49 9 	Rain	96	29.83	2	8	NE
Thu Feb  4 09:05:06 2010	Boston	27 -3 	Clear	63	30.07	10	12	WNW
Thu Feb  4 09:05:07 2010	Jacksonville	52 11 	Cloudy	82	30.18	10	9	NE
Thu Feb  4 09:05:08 2010	Columbus	25 -4 	Light Fog	86	30.36	3	3	NE
Thu Feb  4 09:05:09 2010	Dallas	43 6 	Rain	87	29.98	6	16	E
Thu Feb  4 09:05:09 2010	Houston	49 9 	Rain	92	29.97	6	12	E
Thu Feb  4 09:05:10 2010	Seattle	44 7 	Rain	92	29.76	6	6	S
Thu Feb  4 09:05:11 2010	Milwaukee	11-Dec	Partly Cloudy	92	30.34	5	0	CLM
Thu Feb  4 09:05:12 2010	Detroit	27 -3 	Cloudy	68	30.41	10	0	CLM
Thu Feb  4 09:05:13 2010	Philadelphia	31 -1 	Clear	58	30.24	10	8	WNW
Thu Feb  4 09:48:07 2010	San Jose	49 9 	Cloudy	90	29.84	9	2	NE
Thu Feb  4 09:48:08 2010	Charlotte	35 2 		66	30.31	10	8	NNE
Thu Feb  4 09:48:08 2010	San Diego	51 11 	Clear	85	29.88	7	5	ESE
Thu Feb  4 09:48:09 2010	Denver	34 1 	Light Snow	80	29.75	8	3	SW
Thu Feb  4 09:48:10 2010	Memphis	39 4 	Cloudy	64	30.22	10	7	ENE
Thu Feb  4 09:48:11 2010	Los Angeles	52 11 	Cloudy	86	29.84	7	0	CLM
Thu Feb  4 09:48:12 2010	El Paso	43 6 	Light Rain	88	29.75	10	5	S
Thu Feb  4 09:48:12 2010	New York	31 -1 	Partly Cloudy	58	30.19	10	9	W
Thu Feb  4 09:48:13 2010	Baltimore	31 -1 	Partly Cloudy	56	30.32	10	7	WNW
Thu Feb  4 09:48:14 2010	Las Vegas	47 8 	Clear	58	29.74	10	5	S
Thu Feb  4 09:48:15 2010	Washington	33 1 	Partly Cloudy	58	30.34	10	8	NNW
Thu Feb  4 09:48:16 2010	Austin	46 8 	Rain	100	29.9	1	8	NE
Thu Feb  4 09:48:16 2010	San Francisco	50 10 		89	29.85	10	2	W
Thu Feb  4 09:48:17 2010	Oklahoma City	36 2 	Cloudy	85	30.09	7	6	NE
Thu Feb  4 09:48:18 2010	Nashville	34 1 	Clear	75	30.27	8	7	NE
Thu Feb  4 09:48:19 2010	Fort Worth	42 6 	Rain	88	29.98	4	8	E
Thu Feb  4 09:48:20 2010	Phoenix	55 13 	Cloudy	71	29.73	10	12	SE
Thu Feb  4 09:48:20 2010	Portland	43 6 	Light Rain	88	29.77	10	18	E
Thu Feb  4 09:48:21 2010	Chicago	26 -3 	Cloudy	77	30.41	5	6	S
Thu Feb  4 09:48:22 2010	San Antonio	49 9 	Rain	96	29.83	2	8	NE
Thu Feb  4 09:48:23 2010	Boston	26 -3 	Clear	65	30.08	10	9	WNW
Thu Feb  4 09:48:23 2010	Indianapolis	23 -5 	Light Fog	92	30.38	3	0	CLM
Thu Feb  4 09:48:24 2010	Jacksonville	53 12 		79	30.16	10	9	NE
Thu Feb  4 09:48:25 2010	Columbus	25 -4 	Light Fog	86	30.38	3	0	CLM
Thu Feb  4 09:48:26 2010	Dallas	42 6 	Rain	91	29.98	6	15	E
Thu Feb  4 09:48:27 2010	Houston	49 9 	Rain	92	29.94	7	12	E
Thu Feb  4 09:48:27 2010	Seattle	44 7 	Cloudy	85	29.75	10	5	N
Thu Feb  4 09:48:28 2010	Milwaukee	11-Dec	Mostly Clear	85	30.35	7	0	CLM
Thu Feb  4 09:48:29 2010	Detroit	26 -3 	Cloudy	74	30.4	9	5	N
Thu Feb  4 09:48:30 2010	Philadelphia	31 -1 	Clear	58	30.27	10	7	WNW
Thu Feb  4 10:31:24 2010	San Jose	49 9 	Mostly Cloudy	92	29.84	9	2	ENE
Thu Feb  4 10:31:25 2010	Charlotte	34 1 	Cloudy	69	30.32	10	5	NE
Thu Feb  4 10:31:26 2010	San Diego	49 9 	Clear	89	29.88	8	5	ESE
Thu Feb  4 10:31:27 2010	Denver	34 1 	Cloudy	85	29.7	10	0	CLM
Thu Feb  4 10:31:28 2010	Los Angeles	54 12 	Cloudy	80	29.83	7	5	SSE
Thu Feb  4 10:31:28 2010	Memphis	40 4 	Cloudy	64	30.22	10	8	ENE
Thu Feb  4 10:31:29 2010	El Paso	43 6 	Light Rain	92	29.74	10	3	S
Thu Feb  4 10:31:30 2010	New York	31 -1 	Partly Cloudy	56	30.19	10	10	WNW
Thu Feb  4 10:31:31 2010	Baltimore	29 -2 	Clear	61	30.33	10	5	NW
Thu Feb  4 10:31:32 2010	Las Vegas	47 8 	Clear	55	29.75	10	0	CLM
Thu Feb  4 10:31:32 2010	Washington	33 1 	Clear	56	30.34	10	10	NNW
Thu Feb  4 10:31:33 2010	Austin	46 8 	Rain	93	29.89	2	6	NE
Thu Feb  4 10:31:34 2010	San Francisco	50 10 	Mostly Cloudy	88	29.85	10	2	N
Thu Feb  4 10:31:35 2010	Oklahoma City	35 2 	Rain	88	30.07	5	9	NE
Thu Feb  4 10:31:36 2010	Fort Worth	42 6 	Rain	88	29.97	3	10	E
Thu Feb  4 10:31:36 2010	Nashville	33 1 	Cloudy	78	30.27	8	5	NE
Thu Feb  4 10:31:37 2010	Phoenix	54 12 	Clear	71	29.74	10	8	SE
Thu Feb  4 10:31:38 2010	Portland	43 6 	Cloudy	88	29.76	10	17	E
Thu Feb  4 10:31:39 2010	Chicago	26 -3 		77	30.43	6	6	S
Thu Feb  4 10:31:40 2010	Indianapolis	23 -5 	Light Fog	92	30.39	3	0	CLM
Thu Feb  4 10:31:40 2010	San Antonio	49 9 	Light Fog	96	29.82	2	7	NE
Thu Feb  4 10:31:41 2010	Boston	26 -3 	Clear	65	30.09	10	9	WNW
Thu Feb  4 10:31:42 2010	Jacksonville	54 12 	Clear	80	30.17	10	10	NNE
Thu Feb  4 10:31:43 2010	Columbus	23 -5 	Light Fog	87	30.42	3	0	CLM
Thu Feb  4 10:31:43 2010	Dallas	42 6 	Rain	91	29.98	5	14	E
Thu Feb  4 10:31:44 2010	Houston	49 9 	Rain	92	29.88	6	17	E
Thu Feb  4 10:31:45 2010	Seattle	45 7 	Cloudy	79	29.75	10	5	N
Thu Feb  4 10:31:46 2010	Milwaukee	11-Dec	Partly Cloudy	92	30.37	7	0	CLM
Thu Feb  4 10:31:47 2010	Detroit	23 -5 	Cloudy	84	30.43	8	0	CLM
Thu Feb  4 10:31:47 2010	Philadelphia	31 -1 	Partly Cloudy	56	30.28	10	7	NW
Thu Feb  4 11:18:06 2010	San Jose	49 9 	Cloudy	91	29.84	9	2	SSW
Thu Feb  4 11:18:07 2010	Charlotte	34 1 	Cloudy	69	30.32	10	5	NE
Thu Feb  4 11:18:08 2010	San Diego	49 9 	Clear	89	29.88	8	5	ESE
Thu Feb  4 11:18:09 2010	Denver	34 1 	Cloudy	85	29.7	10	0	CLM
Thu Feb  4 11:18:10 2010	Los Angeles	54 12 	Cloudy	80	29.83	7	5	SSE
Thu Feb  4 11:18:10 2010	Memphis	40 4 	Cloudy	64	30.22	10	8	ENE
Thu Feb  4 11:18:11 2010	El Paso	43 6 	Light Rain	92	29.74	10	3	S
Thu Feb  4 11:18:12 2010	New York	31 -1 	Partly Cloudy	56	30.19	10	10	WNW
Thu Feb  4 11:18:13 2010	Baltimore	29 -2 	Clear	61	30.33	10	5	NW
Thu Feb  4 11:18:14 2010	Las Vegas	47 8 	Clear	55	29.75	10	0	CLM
Thu Feb  4 11:18:14 2010	Washington	33 1 	Clear	56	30.34	10	10	NNW
Thu Feb  4 11:18:15 2010	Austin	45 7 	Rain	100	29.89	2	8	NNE
Thu Feb  4 11:18:16 2010	San Francisco	50 10 	Cloudy	91	29.85	10	2	N
Thu Feb  4 11:18:17 2010	Nashville	33 1 	Cloudy	78	30.27	8	5	NE
Thu Feb  4 11:18:17 2010	Oklahoma City	35 2 	Rain	88	30.07	5	9	NE
Thu Feb  4 11:18:18 2010	Fort Worth	42 6 	Rain	88	29.97	3	10	E
Thu Feb  4 11:18:19 2010	Phoenix	54 12 	Clear	71	29.74	10	8	SE
Thu Feb  4 11:18:20 2010	Portland	43 6 	Cloudy	88	29.76	10	17	E
Thu Feb  4 11:18:21 2010	Chicago	26 -3 		77	30.43	6	6	S
Thu Feb  4 11:18:21 2010	San Antonio	48 9 	Rain	100	29.83	4	6	ENE
Thu Feb  4 11:18:22 2010	Indianapolis	23 -5 	Light Fog	92	30.38	3	0	CLM
Thu Feb  4 11:18:23 2010	Boston	26 -3 	Clear	65	30.09	10	9	WNW
Thu Feb  4 11:18:24 2010	Jacksonville	54 12 	Cloudy	80	30.17	10	10	NNE
Thu Feb  4 11:18:25 2010	Columbus	23 -5 	Light Fog	87	30.42	3	0	CLM
Thu Feb  4 11:18:25 2010	Dallas	42 6 	Rain	91	29.98	5	14	E
Thu Feb  4 11:18:26 2010	Houston	49 9 	Rain	92	29.88	6	17	E
Thu Feb  4 11:18:27 2010	Seattle	45 7 	Cloudy	79	29.75	10	5	N
Thu Feb  4 11:18:28 2010	Milwaukee	14 -10 	Cloudy	92	30.37	7	0	CLM
Thu Feb  4 11:18:29 2010	Detroit	23 -5 	Cloudy	84	30.43	8	0	CLM
Thu Feb  4 11:18:29 2010	Philadelphia	30 -1 	Clear	55	30.31	10	5	WNW
Thu Feb  4 12:00:52 2010	San Jose	49 9 	Cloudy	90	29.83	9	2	SE
Thu Feb  4 12:00:53 2010	Charlotte	33 1 	Cloudy	71	30.33	10	5	NNE
Thu Feb  4 12:00:54 2010	San Diego	50 10 	Mostly Cloudy	87	29.89	7	0	CLM
Thu Feb  4 12:00:55 2010	Denver	31 -1 	Cloudy	88	29.69	10	7	S
Thu Feb  4 12:00:56 2010	Memphis	40 4 	Cloudy	64	30.21	10	8	ENE
Thu Feb  4 12:00:57 2010	El Paso	45 7 	Cloudy	81	29.81	10	6	SW
Thu Feb  4 12:00:57 2010	Los Angeles	54 12 	Cloudy	86	29.84	8	7	SE
Thu Feb  4 12:00:58 2010	New York	31 -1 	Clear	51	30.21	10	16	WNW
Thu Feb  4 12:00:59 2010	Baltimore	28 -2 	Clear	60	30.36	10	6	W
Thu Feb  4 12:01:00 2010	Las Vegas	45 7 	Mostly Clear	60	29.76	10	5	SW
Thu Feb  4 12:01:00 2010	Washington	32 0 	Clear	56	30.38	10	10	NNW
Thu Feb  4 12:01:01 2010	Austin	45 7 	Light Fog	100	29.87	3	9	NNE
Thu Feb  4 12:01:02 2010	San Francisco	51 11 	Cloudy	90	29.83	10	3	ESE
Thu Feb  4 12:01:03 2010	Oklahoma City	35 2 	Cloudy	88	30.05	6	10	ENE
Thu Feb  4 12:01:04 2010	Fort Worth	42 6 	Rain	91	29.95	4	8	E
Thu Feb  4 12:01:04 2010	Nashville	33 1 	Cloudy	78	30.26	9	6	NE
Thu Feb  4 12:01:05 2010	Phoenix	54 12 	Clear	71	29.75	10	8	SE
Thu Feb  4 12:01:06 2010	Portland	43 6 	Cloudy	88	29.75	10	17	E
Thu Feb  4 12:01:07 2010	Chicago	26 -3 	Cloudy	77	30.43	6	0	CLM
Thu Feb  4 12:01:08 2010	Indianapolis	25 -4 	Light Fog	92	30.36	3	3	ENE
Thu Feb  4 12:01:08 2010	San Antonio	49 9 	Rain	96	29.81	4	6	ENE
Thu Feb  4 12:01:09 2010	Boston	25 -4 	Clear	65	30.11	10	9	WNW
Thu Feb  4 12:01:10 2010	Jacksonville	54 12 	Cloudy	80	30.16	10	15	NE
Thu Feb  4 12:01:11 2010	Columbus	21 -6 	Light Fog	92	30.39	3	3	NE
Thu Feb  4 12:01:12 2010	Dallas	43 6 	Mist	87	29.96	5	12	ESE
Thu Feb  4 12:01:12 2010	Houston	50 10 	Light Rain	93	29.82	9	18	E
Thu Feb  4 12:01:13 2010	Seattle	45 7 	Cloudy	76	29.75	10	6	SSE
Thu Feb  4 12:01:14 2010	Milwaukee	14 -10 	Cloudy	85	30.38	5	0	CLM
Thu Feb  4 12:01:15 2010	Detroit	25 -4 	Cloudy	78	30.45	8	3	W
Thu Feb  4 12:01:16 2010	Philadelphia	30 -1 	Clear	55	30.31	10	5	WNW
Thu Feb  4 12:44:28 2010	San Jose	49 9 	Mostly Cloudy	89	29.83	9	3	SSE
Thu Feb  4 12:44:29 2010	Charlotte	34 1 	Cloudy	69	30.36	10	5	NE
Thu Feb  4 12:44:30 2010	Denver	32 0 	Cloudy	85	29.67	10	5	S
Thu Feb  4 12:44:30 2010	San Diego	50 10 	Cloudy	86	29.88	7	0	CLM
Thu Feb  4 12:44:31 2010	Memphis	39 4 	Cloudy	66	30.2	9	8	NE
Thu Feb  4 12:44:32 2010	Los Angeles	54 12 	Cloudy	86	29.86	10	5	ESE
Thu Feb  4 12:44:33 2010	El Paso	44 7 	Cloudy	88	29.75	10	0	CLM
Thu Feb  4 12:44:34 2010	Baltimore	28 -2 	Clear	63	30.38	10	5	WNW
Thu Feb  4 12:44:34 2010	New York	29 -2 	Clear	56	30.27	10	9	W
Thu Feb  4 12:44:35 2010	Las Vegas	44 7 	Mostly Clear	62	29.76	10	3	WSW
Thu Feb  4 12:44:36 2010	Washington	32 0 	Clear	53	30.4	10	9	N
Thu Feb  4 12:44:37 2010	Austin	45 7 	Rain	100	29.88	1	8	NNE
Thu Feb  4 12:44:37 2010	San Francisco	50 10 	Mostly Cloudy	90	29.84	10	3	NNE
Thu Feb  4 12:44:38 2010	Oklahoma City	35 2 	Cloudy	84	30.03	6	13	E
Thu Feb  4 12:44:39 2010	Nashville	34 1 	Cloudy	75	30.27	10	6	NE
Thu Feb  4 12:44:40 2010	Fort Worth	42 6 	Rain	91	29.96	5	6	ENE
Thu Feb  4 12:44:41 2010	Phoenix	52 11 	Clear	76	29.77	10	8	SE
Thu Feb  4 12:44:41 2010	Portland	43 6 	Partly Cloudy	88	29.74	10	18	E
Thu Feb  4 12:44:42 2010	Chicago	25 -4 	Cloudy	81	30.45	6	0	CLM
Thu Feb  4 12:44:43 2010	San Antonio	50 10 	Rain	92	29.82	4	7	NE
Thu Feb  4 12:44:44 2010	Indianapolis	25 -4 	Light Fog	92	30.37	3	3	E
Thu Feb  4 12:44:45 2010	Boston	26 -3 	Clear	63	30.13	10	13	WNW
Thu Feb  4 12:44:45 2010	Jacksonville	54 12 	Cloudy	81	30.2	10	12	NNE
Thu Feb  4 12:44:46 2010	Columbus	22 -6 	Light Fog	88	30.42	3	0	CLM
Thu Feb  4 12:44:47 2010	Dallas	43 6 	Rain	87	29.97	4	6	E
Thu Feb  4 12:44:48 2010	Houston	55 13 	Cloudy	81	29.87	10	13	ENE
Thu Feb  4 12:44:49 2010	Milwaukee	14 -10 	Cloudy	92	30.37	5	0	CLM
Thu Feb  4 12:44:49 2010	Seattle	44 7 	Cloudy	78	29.76	10	6	ESE
Thu Feb  4 12:44:50 2010	Detroit	24 -4 		77	30.45	7	0	CLM
Thu Feb  4 12:44:51 2010	Philadelphia	29 -2 	Clear	53	30.34	10	5	NW
Thu Feb  4 13:28:12 2010	San Jose	49 9 	Cloudy	89	29.84	9	3	SE
Thu Feb  4 13:28:13 2010	Charlotte	34 1 	Cloudy	66	30.39	10	8	NE
Thu Feb  4 13:28:13 2010	San Diego	50 10 	Mostly Cloudy	86	29.89	7	3	ESE
Thu Feb  4 13:28:14 2010	Denver	31 -1 	Cloudy	85	29.68	10	5	SE
Thu Feb  4 13:28:15 2010	Memphis	38 3 	Light Rain	69	30.2	9	8	NE
Thu Feb  4 13:28:16 2010	Los Angeles	55 13 	Cloudy	79	29.86	9	5	ESE
Thu Feb  4 13:28:17 2010	El Paso	45 7 	Cloudy	81	29.82	10	5	SSW
Thu Feb  4 13:28:17 2010	New York	28 -2 	Clear	52	30.3	10	7	N
Thu Feb  4 13:28:18 2010	Baltimore	26 -3 	Partly Cloudy	65	30.4	10	0	CLM
Thu Feb  4 13:28:19 2010	Las Vegas	43 6 	Mostly Clear	62	29.76	10	0	CLM
Thu Feb  4 13:28:20 2010	Washington	32 0 	Mostly Clear	53	30.41	10	12	NNW
Thu Feb  4 13:28:21 2010	Austin	45 7 	Rain	100	29.88	2	8	NNE
Thu Feb  4 13:28:21 2010	San Francisco	50 10 	Cloudy	91	29.84	9	3	NNE
Thu Feb  4 13:28:22 2010	Oklahoma City	36 2 	Mist	86	30	3	10	E
Thu Feb  4 13:28:23 2010	Nashville	34 1 	Cloudy	75	30.26	10	7	ENE
Thu Feb  4 13:28:24 2010	Fort Worth	41 5 	Rain	95	29.96	3	6	ENE
Thu Feb  4 13:28:24 2010	Phoenix	51 11 	Clear	79	29.79	10	6	ESE
Thu Feb  4 13:28:25 2010	Portland	43 6 	Mostly Cloudy	85	29.73	10	17	E
Thu Feb  4 13:28:26 2010	Chicago	26 -3 	Cloudy	77	30.44	6	5	S
Thu Feb  4 13:28:27 2010	San Antonio	49 9 	Rain	96	29.81	2	6	NE
Thu Feb  4 13:28:28 2010	Boston	25 -4 	Sunny	65	30.16	10	10	NW
Thu Feb  4 13:28:28 2010	Indianapolis	25 -4 	Light Fog	92	30.38	3	5	E
Thu Feb  4 13:28:29 2010	Jacksonville	54 12 		82	30.21	10	9	NNE
Thu Feb  4 13:28:30 2010	Columbus	22 -6 	Light Fog	88	30.43	3	0	CLM
Thu Feb  4 13:28:31 2010	Dallas	42 6 	Rain	91	29.97	5	0	CLM
Thu Feb  4 13:28:32 2010	Houston	54 12 	Cloudy	80	29.9	10	10	ENE
Thu Feb  4 13:28:32 2010	Seattle	44 7 	Cloudy	78	29.76	10	6	ESE
Thu Feb  4 13:28:33 2010	Milwaukee	14 -10 	Cloudy	92	30.38	5	0	CLM
Thu Feb  4 13:28:34 2010	Detroit	23 -5 		80	30.44	7	3	ENE
Thu Feb  4 13:28:35 2010	Philadelphia	29 -2 	Clear	51	30.37	10	7	NW
Thu Feb  4 14:20:53 2010	San Jose	49 9 	Cloudy	89	29.83	8	5	SSE
Thu Feb  4 14:20:54 2010	Charlotte	35 2 	Cloudy	64	30.39	10	9	NE
Thu Feb  4 14:20:54 2010	San Diego	51 11 	Cloudy	85	29.91	7	6	ESE
Thu Feb  4 14:20:55 2010	Denver	32 0 	Cloudy	85	29.69	10	6	N
Thu Feb  4 14:20:56 2010	Memphis	38 3 	Light Rain	72	30.21	8	7	NE
Thu Feb  4 14:20:57 2010	El Paso	43 6 	Cloudy	92	29.77	10	3	SSW
Thu Feb  4 14:20:57 2010	Los Angeles	55 13 	Cloudy	79	29.86	10	0	CLM
Thu Feb  4 14:20:58 2010	New York	28 -2 	Sunny	48	30.33	10	9	WNW
Thu Feb  4 14:20:59 2010	Baltimore	29 -2 		61	30.4	10	0	CLM
Thu Feb  4 14:21:00 2010	Las Vegas	43 6 	Mostly Clear	62	29.79	10	3	WSW
Thu Feb  4 14:21:01 2010	Austin	45 7 	Rain	100	29.89	2	10	NNE
Thu Feb  4 14:21:01 2010	Washington	32 0 	Mostly Sunny	53	30.42	10	8	NNW
Thu Feb  4 14:21:02 2010	San Francisco	51 11 	Cloudy	86	29.83	9	3	NE
Thu Feb  4 14:21:03 2010	Oklahoma City	35 2 	Mist	88	30.03	3	9	E
Thu Feb  4 14:21:04 2010	Nashville	34 1 	Cloudy	72	30.27	7	8	ENE
Thu Feb  4 14:21:05 2010	Fort Worth	41 5 	Light Rain	92	29.97	9	7	NE
Thu Feb  4 14:21:05 2010	Phoenix	51 11 	Clear	79	29.81	10	7	SE
Thu Feb  4 14:21:06 2010	Portland	43 6 	Cloudy	85	29.72	10	23	E
Thu Feb  4 14:21:07 2010	Chicago	26 -3 	Cloudy	77	30.45	5	5	N
Thu Feb  4 14:21:08 2010	San Antonio	48 9 	Mist	100	29.84	2	7	NNE
Thu Feb  4 14:21:09 2010	Boston	26 -3 	Sunny	52	30.18	10	13	NNW
Thu Feb  4 14:21:09 2010	Indianapolis	27 -3 	Light Fog	86	30.38	3	8	ESE
Thu Feb  4 14:21:10 2010	Jacksonville	54 12 	Mostly Cloudy	82	30.22	10	9	NNE
Thu Feb  4 14:21:11 2010	Columbus	23 -5 	Light Fog	87	30.45	2	0	CLM
Thu Feb  4 14:21:12 2010	Dallas	42 6 	Rain	91	29.97	6	5	ENE
Thu Feb  4 14:21:13 2010	Houston	51 11 	Light Rain	85	29.88	10	16	E
Thu Feb  4 14:21:13 2010	Seattle	45 7 	Cloudy	70	29.75	10	3	SE
Thu Feb  4 14:21:14 2010	Milwaukee	16 -9 	Light Fog	92	30.39	3	0	CLM
Thu Feb  4 14:21:15 2010	Detroit	23 -5 		77	30.46	5	0	CLM
Thu Feb  4 14:21:16 2010	Philadelphia	29 -2 	Sunny	56	30.39	10	7	NNW
Thu Feb  4 15:06:27 2010	Charlotte	35 2 	Cloudy	64	30.39	10	9	NE
Thu Feb  4 15:06:27 2010	San Jose	49 9 		89	29.83	8	3	N
Thu Feb  4 15:06:28 2010	San Diego	51 11 	Cloudy	85	29.91	7	6	ESE
Thu Feb  4 15:06:29 2010	Denver	30 -1 	Snow/Fog	92	29.7	1	8	N
Thu Feb  4 15:06:30 2010	Memphis	38 3 	Light Rain	72	30.21	8	7	NE
Thu Feb  4 15:06:31 2010	El Paso	45 7 	Cloudy	81	29.84	10	0	CLM
Thu Feb  4 15:06:31 2010	Los Angeles	55 13 	Cloudy	79	29.86	10	0	CLM
Thu Feb  4 15:06:32 2010	New York	28 -2 	Sunny	48	30.33	10	9	WNW
Thu Feb  4 15:06:33 2010	Baltimore	29 -2 		61	30.4	10	0	CLM
Thu Feb  4 15:06:34 2010	Las Vegas	43 6 	Mostly Clear	62	29.79	10	3	WSW
Thu Feb  4 15:06:35 2010	Austin	45 7 	Rain	100	29.89	2	9	NNE
Thu Feb  4 15:06:35 2010	Washington	32 0 	Mostly Sunny	53	30.42	10	8	NNW
Thu Feb  4 15:06:36 2010	San Francisco	51 11 	Cloudy	90	29.83	9	3	E
Thu Feb  4 15:06:37 2010	Oklahoma City	36 2 	Mist	86	30.01	3	9	E
Thu Feb  4 15:06:38 2010	Nashville	34 1 	Cloudy	72	30.27	7	8	ENE
Thu Feb  4 15:06:39 2010	Fort Worth	41 5 	Cloudy	93	29.97	9	7	ENE
Thu Feb  4 15:06:39 2010	Phoenix	51 11 	Clear	79	29.81	10	7	SE
Thu Feb  4 15:06:40 2010	Portland	43 6 	Cloudy	85	29.72	10	23	E
Thu Feb  4 15:06:41 2010	Chicago	26 -3 	Cloudy	77	30.45	5	5	N
Thu Feb  4 15:06:42 2010	San Antonio	50 10 	Mist	93	29.84	2	7	NNE
Thu Feb  4 15:06:43 2010	Boston	26 -3 	Mostly Sunny	52	30.18	10	13	NNW
Thu Feb  4 15:06:43 2010	Indianapolis	27 -3 	Light Fog	86	30.39	3	6	ESE
Thu Feb  4 15:06:44 2010	Jacksonville	54 12 	Mostly Cloudy	82	30.22	10	9	NNE
Thu Feb  4 15:06:45 2010	Columbus	23 -5 	Light Fog	87	30.45	2	0	CLM
Thu Feb  4 15:06:46 2010	Dallas	43 6 	Rain	87	29.97	4	7	ENE
Thu Feb  4 15:06:47 2010	Houston	51 11 	Light Rain	85	29.88	10	16	E
Thu Feb  4 15:06:47 2010	Seattle	45 7 	Cloudy	70	29.75	10	3	SE
Thu Feb  4 15:06:48 2010	Milwaukee	16 -9 	Light Fog	92	30.39	3	0	CLM
Thu Feb  4 15:06:49 2010	Detroit	23 -5 	Mostly Cloudy	77	30.46	5	0	CLM
Thu Feb  4 15:06:50 2010	Philadelphia	29 -2 	Sunny	56	30.39	10	7	NNW
Thu Jan 28 15:46:03 2010	San Jose	44 7 	Cloudy	91	30.08	5	2	NNE
Thu Jan 28 15:46:04 2010	Charlotte	37 3 	Mostly Sunny	69	30.26	10	0	CLM
Thu Jan 28 15:46:05 2010	San Diego	46 8 	Clear	85	29.98	8	0	CLM
Thu Jan 28 15:46:06 2010	Denver	22 -6 	Mostly Cloudy	92	30.29	10	7	SSE
Thu Jan 28 15:46:07 2010	Los Angeles	52 11 	Clear	48	29.95	10	9	NNW
Thu Jan 28 15:46:07 2010	Memphis	44 7 	Cloudy	67	30.36	10	13	N
Thu Jan 28 15:46:08 2010	El Paso	45 7 	Cloudy	89	29.81	10	3	N
Thu Jan 28 15:46:09 2010	New York	31 -1 	Snow	92	30.06	0	9	SW
Thu Jan 28 15:46:10 2010	Baltimore	35 2 	Cloudy	66	30.06	10	6	WSW
Thu Jan 28 15:46:11 2010	Las Vegas	48 9 	Mostly Cloudy	56	30.02	10	13	N
Thu Jan 28 15:46:11 2010	Washington	39 4 	Cloudy	54	30.09	10	12	SSW
Thu Jan 28 15:46:12 2010	Austin	61 16 	Cloudy	93	30.08	8	17	ESE
Thu Jan 28 15:46:13 2010	San Francisco	46 8 	Cloudy	92	30.09	7	3	SE
Thu Jan 28 15:46:14 2010	Oklahoma City	31 -1 	Freezing Rain	69	30.33	10	21	NE
Thu Jan 28 15:46:15 2010	Fort Worth	55 13 	Light Rain	87	30.15	7	13	SE
Thu Jan 28 15:46:15 2010	Nashville	43 6 		62	30.34	10	12	NNW
Thu Jan 28 15:46:16 2010	Phoenix	50 10 	Clear	86	29.86	10	3	ESE
Thu Jan 28 15:46:17 2010	Portland	45 7 	Partly Cloudy	73	30.08	10	20	E
Thu Jan 28 15:46:18 2010	Chicago	13-Aug	Partly Sunny	63	30.44	10	13	WNW
Thu Jan 28 15:46:19 2010	Indianapolis	11-Dec	Partly Sunny	78	30.35	10	12	WNW
Thu Jan 28 15:46:19 2010	San Antonio	63 17 	Rain	100	30.03	2	21	ESE
Thu Jan 28 15:46:20 2010	Boston	32 0 	Partly Sunny	58	30.04	10	13	WSW
Thu Jan 28 15:46:21 2010	Jacksonville	48 9 	Mostly Sunny	86	30.35	10	0	CLM
Thu Jan 28 15:46:22 2010	Columbus	24 -4 	Partly Sunny	65	30.22	10	21	W
Thu Jan 28 15:46:23 2010	Dallas	56 13 	Light Rain	86	30.15	8	15	ESE
Thu Jan 28 15:46:23 2010	Houston	60 16 	Cloudy	86	30.18	10	12	ESE
Thu Jan 28 15:46:24 2010	Seattle	47 8 	Cloudy	49	30.08	10	5	ESE
Thu Jan 28 15:46:25 2010	Milwaukee	16-Mar	Partly Sunny	66	30.35	10	12	WNW
Thu Jan 28 15:46:26 2010	Detroit	17 -8 	Cloudy	59	30.18	9	21	WNW
Thu Jan 28 15:46:27 2010	Philadelphia	35 2 	Cloudy	61	30.05	10	0	CLM
Thu Jan 28 16:11:01 2010	San Jose	44 7 		91	30.08	5	3	N
Thu Jan 28 16:11:02 2010	Charlotte	37 3 	Mostly Sunny	69	30.26	10	0	CLM
Thu Jan 28 16:11:02 2010	San Diego	46 8 	Clear	85	29.98	8	0	CLM
Thu Jan 28 16:11:03 2010	Denver	22 -6 	Mostly Cloudy	92	30.29	10	7	SSE
Thu Jan 28 16:11:04 2010	Memphis	44 7 	Cloudy	67	30.36	10	13	N
Thu Jan 28 16:11:05 2010	Los Angeles	52 11 	Clear	48	29.95	10	9	NNW
Thu Jan 28 16:11:06 2010	El Paso	45 7 	Cloudy	89	29.81	10	3	N
Thu Jan 28 16:11:07 2010	Baltimore	35 2 	Cloudy	66	30.06	10	6	WSW
Thu Jan 28 16:11:07 2010	New York	31 -1 	Snow	92	30.06	0	9	SW
Thu Jan 28 16:11:08 2010	Las Vegas	48 9 	Mostly Cloudy	56	30.02	10	13	N
Thu Jan 28 16:11:09 2010	Washington	39 4 	Cloudy	54	30.09	10	12	SSW
Thu Jan 28 16:11:10 2010	Austin	61 16 	Cloudy	93	30.08	8	15	SE
Thu Jan 28 16:11:11 2010	San Francisco	46 8 		93	30.09	7	4	ESE
Thu Jan 28 16:11:12 2010	Oklahoma City	31 -1 	Freezing Rain	69	30.33	10	21	NE
Thu Jan 28 16:11:13 2010	Fort Worth	55 13 	Rain	87	30.15	5	10	SE
Thu Jan 28 16:11:13 2010	Nashville	39 4 	Cloudy	75	30.37	10	14	N
Thu Jan 28 16:11:14 2010	Phoenix	50 10 	Mostly Cloudy	86	29.86	10	3	ESE
Thu Jan 28 16:11:15 2010	Portland	45 7 	Cloudy	73	30.08	10	20	E
Thu Jan 28 16:11:16 2010	Chicago	13-Aug	Partly Sunny	63	30.44	10	13	WNW
Thu Jan 28 16:11:17 2010	San Antonio	63 17 	Rain	100	30.02	3	22	SE
Thu Jan 28 16:11:18 2010	Indianapolis	11-Dec	Partly Sunny	78	30.36	10	16	WNW
Thu Jan 28 16:11:19 2010	Boston	32 0 	Partly Sunny	58	30.04	10	13	WSW
Thu Jan 28 16:11:20 2010	Jacksonville	48 9 	Mostly Sunny	86	30.35	10	0	CLM
Thu Jan 28 16:11:21 2010	Columbus	24 -4 	Partly Sunny	65	30.22	10	21	W
Thu Jan 28 16:11:22 2010	Dallas	56 13 	Light Rain	86	30.15	8	15	ESE
Thu Jan 28 16:11:23 2010	Houston	60 16 	Cloudy	86	30.18	10	12	ESE
Thu Jan 28 16:11:24 2010	Seattle	47 8 	Cloudy	49	30.08	10	5	ESE
Thu Jan 28 16:11:25 2010	Milwaukee	16-Mar	Partly Sunny	66	30.35	10	12	WNW
Thu Jan 28 16:11:26 2010	Detroit	17 -8 	Cloudy	59	30.18	9	21	WNW
Thu Jan 28 16:11:27 2010	Philadelphia	35 2 	Cloudy	61	30.05	10	0	CLM
Thu Jan 28 16:59:37 2010	San Jose	46 8 		87	30.09	6	0	CLM
Thu Jan 28 16:59:38 2010	Charlotte	40 4 		67	30.25	10	0	CLM
Thu Jan 28 16:59:38 2010	San Diego	45 7 	Sunny	89	29.99	7	0	CLM
Thu Jan 28 16:59:39 2010	Denver	24 -4 	Partly Sunny	84	30.27	10	7	SE
Thu Jan 28 16:59:40 2010	Memphis	42 6 	Cloudy	72	30.4	10	10	N
Thu Jan 28 16:59:41 2010	Los Angeles	54 12 	Sunny	41	29.97	10	13	NNW
Thu Jan 28 16:59:42 2010	El Paso	46 8 	Light Rain	87	29.95	10	6	NNW
Thu Jan 28 16:59:43 2010	Baltimore	37 3 	Cloudy	61	30.05	10	6	SW
Thu Jan 28 16:59:43 2010	New York	36 2 	Cloudy	86	30.01	8	0	CLM
Thu Jan 28 16:59:44 2010	Las Vegas	46 8 	Partly Sunny	60	30.03	10	9	NNE
Thu Jan 28 16:59:45 2010	Washington	40 4 	Cloudy	52	30.07	10	13	SSW
Thu Jan 28 16:59:46 2010	Austin	63 17 	Cloudy	87	30.07	9	16	SE
Thu Jan 28 16:59:47 2010	Oklahoma City	30 -1 	Freezing Rain	64	30.33	6	22	NNE
Thu Jan 28 16:59:47 2010	San Francisco	45 7 		93	30.1	5	4	ESE
Thu Jan 28 16:59:48 2010	Nashville	39 4 	Cloudy	72	30.39	10	17	NNW
Thu Jan 28 16:59:49 2010	Fort Worth	55 13 	Light Rain	93	30.14	8	8	E
Thu Jan 28 16:59:50 2010	Phoenix	52 11 	Cloudy	87	29.93	8	3	E
Thu Jan 28 16:59:51 2010	Chicago	13-Sep	Partly Sunny	60	30.47	10	10	WNW
Thu Jan 28 16:59:51 2010	Portland	45 7 	Cloudy	70	30.08	10	21	E
Thu Jan 28 16:59:52 2010	San Antonio	64 18 	Rain	93	30.01	2	28	SE
Thu Jan 28 16:59:53 2010	Indianapolis	11-Dec	Sunny	72	30.38	10	14	WNW
Thu Jan 28 16:59:54 2010	Boston	33 1 	Partly Sunny	56	30.01	10	9	SW
Thu Jan 28 16:59:55 2010	Jacksonville	53 12 	Mostly Sunny	66	30.36	10	0	CLM
Thu Jan 28 16:59:56 2010	Columbus	23 -5 	Partly Sunny	68	30.27	10	18	NW
Thu Jan 28 16:59:56 2010	Dallas	55 13 	Cloudy	87	30.15	10	12	ESE
Thu Jan 28 16:59:57 2010	Houston	60 16 	Cloudy	86	30.18	10	13	E
Thu Jan 28 16:59:58 2010	Seattle	47 8 	Cloudy	49	30.07	10	8	ESE
Thu Jan 28 16:59:59 2010	Milwaukee	16-Mar	Partly Sunny	55	30.37	10	12	NW
Thu Jan 28 17:00:00 2010	Detroit	18 -8 	Light Snow	45	30.21	8	25	NW
Thu Jan 28 17:00:00 2010	Philadelphia	36 2 	Cloudy	59	30.06	10	5	WSW
Thu Jan 28 17:21:34 2010	San Jose	46 8 	Mostly Cloudy	93	30.11	7	9	ENE
Thu Jan 28 17:21:35 2010	Charlotte	47 8 		49	30.24	10	0	CLM
Thu Jan 28 17:21:36 2010	Denver	28 -2 	Partly Sunny	74	30.26	10	6	S
Thu Jan 28 17:21:36 2010	San Diego	51 11 	Sunny	82	30.01	10	0	CLM
Thu Jan 28 17:21:37 2010	Memphis	41 5 	Cloudy	70	30.43	10	15	NNE
Thu Jan 28 17:21:38 2010	Los Angeles	57 14 	Sunny	35	29.99	10	13	N
Thu Jan 28 17:21:39 2010	El Paso	45 7 	Light Rain	93	29.96	8	12	NNW
Thu Jan 28 17:21:40 2010	New York	35 2 	Cloudy	88	29.99	10	9	WSW
Thu Jan 28 17:21:41 2010	Baltimore	40 4 	Cloudy	55	30.03	10	9	WSW
Thu Jan 28 17:21:41 2010	Las Vegas	49 9 	Partly Sunny	51	30.04	10	14	N
Thu Jan 28 17:21:42 2010	Washington	44 7 	Cloudy	45	30.04	10	14	SSW
Thu Jan 28 17:21:43 2010	Austin	63 17 	Cloudy	87	30.07	9	20	SE
Thu Jan 28 17:21:44 2010	San Francisco	45 7 		93	30.11	5	4	ESE
Thu Jan 28 17:21:45 2010	Nashville	38 3 	Cloudy	72	30.42	10	12	NNW
Thu Jan 28 17:21:45 2010	Oklahoma City	29 -2 	Freezing Rain	66	30.35	10	20	NE
Thu Jan 28 17:21:46 2010	Fort Worth	56 13 	Cloudy	86	30.11	10	9	E
Thu Jan 28 17:21:47 2010	Phoenix	51 11 	Cloudy	92	29.91	5	3	E
Thu Jan 28 17:21:48 2010	Portland	45 7 	Sunny	70	30.08	10	23	E
Thu Jan 28 17:21:49 2010	Chicago	12-Oct	Partly Sunny	58	30.48	10	16	NW
Thu Jan 28 17:21:49 2010	San Antonio	64 18 	Rain	96	29.99	2	18	SE
Thu Jan 28 17:21:50 2010	Indianapolis	14 -10 	Sunny	72	30.4	10	8	WNW
Thu Jan 28 17:21:51 2010	Boston	35 2 	Mostly Cloudy	49	29.97	10	14	SW
Thu Jan 28 17:21:52 2010	Jacksonville	57 14 		50	30.35	10	5	NE
Thu Jan 28 17:21:53 2010	Columbus	27 -3 		42	30.28	10	14	WNW
Thu Jan 28 17:21:53 2010	Dallas	56 13 	Cloudy	86	30.12	10	12	E
Thu Jan 28 17:21:54 2010	Houston	61 16 	Cloudy	86	30.19	10	10	ESE
Thu Jan 28 17:21:55 2010	Seattle	47 8 	Cloudy	49	30.08	10	3	ESE
Thu Jan 28 17:21:56 2010	Milwaukee	16-Mar	Sunny	55	30.39	10	14	WNW
Thu Jan 28 17:21:57 2010	Detroit	17 -8 	Partly Sunny	46	30.24	10	21	WNW
Thu Jan 28 17:21:57 2010	Philadelphia	40 4 	Cloudy	55	30.01	10	9	SSW
Thu Jan 28 17:39:43 2010	San Jose	43 6 	Mostly Cloudy	91	30.11	5	3	NW
Thu Jan 28 17:39:44 2010	Charlotte	47 8 		49	30.24	10	0	CLM
Thu Jan 28 17:39:45 2010	Denver	28 -2 	Partly Sunny	74	30.26	10	6	S
Thu Jan 28 17:39:45 2010	San Diego	51 11 	Sunny	82	30.01	10	0	CLM
Thu Jan 28 17:39:46 2010	Memphis	41 5 	Cloudy	70	30.43	10	15	NNE
Thu Jan 28 17:39:47 2010	Los Angeles	57 14 	Sunny	35	29.99	10	13	N
Thu Jan 28 17:39:48 2010	El Paso	45 7 	Light Rain	93	29.96	8	12	NNW
Thu Jan 28 17:39:49 2010	New York	34 1 	Cloudy	86	30.01	6	5	N
Thu Jan 28 17:39:51 2010	Baltimore	40 4 	Cloudy	55	30.03	10	9	WSW
Thu Jan 28 17:39:51 2010	Las Vegas	49 9 	Partly Sunny	51	30.04	10	14	N
Thu Jan 28 17:39:52 2010	Washington	44 7 	Cloudy	45	30.04	10	14	SSW
Thu Jan 28 17:39:53 2010	Austin	63 17 	Cloudy	87	30.05	8	20	SE
Thu Jan 28 17:39:54 2010	San Francisco	45 7 	Mostly Cloudy	92	30.13	5	4	SE
Thu Jan 28 17:39:55 2010	Nashville	38 3 	Cloudy	72	30.42	10	12	NNW
Thu Jan 28 17:39:55 2010	Oklahoma City	29 -2 	Freezing Rain	66	30.35	10	20	NE
Thu Jan 28 17:39:56 2010	Fort Worth	55 13 	Rain	87	30.11	9	7	ENE
Thu Jan 28 17:39:57 2010	Phoenix	51 11 	Cloudy	92	29.91	5	3	E
Thu Jan 28 17:39:58 2010	Portland	45 7 	Sunny	70	30.08	10	23	E
Thu Jan 28 17:39:59 2010	Chicago	12-Oct	Partly Sunny	58	30.48	10	16	NW
Thu Jan 28 17:40:00 2010	Indianapolis	14 -10 	Sunny	67	30.4	10	14	WNW
Thu Jan 28 17:40:00 2010	San Antonio	64 18 	Rain	97	29.99	2	18	SE
Thu Jan 28 17:40:01 2010	Boston	35 2 	Mostly Cloudy	49	29.97	10	14	SW
Thu Jan 28 17:40:02 2010	Jacksonville	57 14 		50	30.35	10	5	NE
Thu Jan 28 17:40:03 2010	Columbus	27 -3 		42	30.28	10	14	WNW
Thu Jan 28 17:40:04 2010	Dallas	56 13 	Cloudy	86	30.12	10	12	E
Thu Jan 28 17:40:04 2010	Houston	61 16 	Cloudy	86	30.19	10	10	ESE
Thu Jan 28 17:40:05 2010	Seattle	47 8 	Cloudy	49	30.08	10	3	ESE
Thu Jan 28 17:40:06 2010	Milwaukee	16-Mar	Sunny	55	30.39	10	14	WNW
Thu Jan 28 17:40:07 2010	Detroit	17 -8 	Partly Sunny	46	30.24	10	21	WNW
Thu Jan 28 17:40:08 2010	Philadelphia	40 4 	Cloudy	55	30.01	10	9	SSW
Tue Feb  2 00:36:44 2010	San Jose	63 17 	Cloudy	44	29.89	10	12	SE
Tue Feb  2 00:36:45 2010	Charlotte	43 6 	Mostly Clear	48	30.28	10	3	SSE
Tue Feb  2 00:36:45 2010	San Diego	61 16 	Sunny	69	29.88	10	7	WSW
Tue Feb  2 00:36:46 2010	Denver	45 7 	Partly Sunny	23	29.87	10	6	N
Tue Feb  2 00:36:47 2010	Memphis	44 7 	Cloudy	59	30.15	10	3	S
Tue Feb  2 00:36:48 2010	El Paso	61 16 		30	29.81	10	8	W
Tue Feb  2 00:36:48 2010	Los Angeles	65 18 	Sunny	39	29.85	10	3	S
Tue Feb  2 00:36:49 2010	New York	33 1 	Clear	38	30.22	10	3	N
Tue Feb  2 00:36:50 2010	Baltimore	29 -2 		51	30.3	10	0	CLM
Tue Feb  2 00:36:51 2010	Las Vegas	57 14 		30	29.91	10	3	ENE
Tue Feb  2 00:36:52 2010	Austin	45 7 	Light Fog	87	30.07	2	0	CLM
Tue Feb  2 00:36:52 2010	Washington	38 3 		34	30.31	10	5	W
Tue Feb  2 00:36:53 2010	San Francisco	56 13 	Cloudy	71	29.9	10	3	NNW
Tue Feb  2 00:36:54 2010	Oklahoma City	32 0 	Light Fog	88	30.04	2	5	WSW
Tue Feb  2 00:36:55 2010	Nashville	39 4 	Cloudy	64	30.21	10	5	SE
Tue Feb  2 00:36:56 2010	Fort Worth	45 7 	Cloudy	70	30.03	10	10	S
Tue Feb  2 00:36:56 2010	Phoenix	63 17 	Sunny	36	29.87	10	0	CLM
Tue Feb  2 00:36:57 2010	Portland	44 7 	Light Rain	85	29.86	10	15	E
Tue Feb  2 00:36:58 2010	Chicago	30 -1 	Cloudy	58	30.24	6	8	SE
Tue Feb  2 00:36:59 2010	San Antonio	45 7 	Mist	96	30.03	1	0	CLM
Tue Feb  2 00:37:00 2010	Boston	31 -1 	Mostly Clear	28	30.14	10	18	W
Tue Feb  2 00:37:00 2010	Indianapolis	32 0 		69	30.19	10	3	ENE
Tue Feb  2 00:37:01 2010	Jacksonville	55 13 	Cloudy	83	30.14	7	12	NNE
Tue Feb  2 00:37:02 2010	Columbus	32 0 	Mostly Cloudy	49	30.28	10	3	SSE
Tue Feb  2 00:37:03 2010	Dallas	47 8 	Cloudy	68	30.04	10	10	SSE
Tue Feb  2 00:37:04 2010	Houston	50 10 	Cloudy	89	30.09	5	6	ENE
Tue Feb  2 00:37:04 2010	Seattle	49 9 	Cloudy	63	29.84	10	6	S
Tue Feb  2 00:37:05 2010	Milwaukee	23 -5 	Cloudy	55	30.2	10	7	E
Tue Feb  2 00:37:06 2010	Detroit	26 -3 	Cloudy	63	30.31	10	5	WSW
Tue Feb  2 00:37:07 2010	Philadelphia	32 0 	Clear	41	30.29	10	9	W
Tue Feb  2 01:20:20 2010	San Jose	63 17 	Cloudy	44	29.89	10	12	SE
Tue Feb  2 01:20:21 2010	Charlotte	43 6 	Mostly Clear	48	30.28	10	3	SSE
Tue Feb  2 01:20:22 2010	Denver	45 7 	Partly Sunny	23	29.87	10	6	N
Tue Feb  2 01:20:22 2010	San Diego	61 16 	Mostly Sunny	69	29.88	10	7	WSW
Tue Feb  2 01:20:23 2010	Memphis	44 7 	Cloudy	59	30.15	10	3	S
Tue Feb  2 01:20:24 2010	Los Angeles	65 18 	Cloudy	39	29.85	10	3	S
Tue Feb  2 01:20:25 2010	El Paso	61 16 		30	29.81	10	8	W
Tue Feb  2 01:20:26 2010	Baltimore	29 -2 		51	30.3	10	0	CLM
Tue Feb  2 01:20:26 2010	New York	33 1 	Clear	38	30.22	10	3	N
Tue Feb  2 01:20:27 2010	Las Vegas	57 14 		30	29.91	10	3	ENE
Tue Feb  2 01:20:28 2010	Washington	38 3 		34	30.31	10	5	W
Tue Feb  2 01:20:29 2010	Austin	45 7 	Light Fog	93	30.05	3	0	CLM
Tue Feb  2 01:20:30 2010	Oklahoma City	32 0 	Light Fog	86	30.01	2	6	SW
Tue Feb  2 01:20:30 2010	San Francisco	56 13 	Cloudy	70	29.9	10	3	WSW
Tue Feb  2 01:20:31 2010	Nashville	39 4 	Cloudy	64	30.21	10	5	SE
Tue Feb  2 01:20:32 2010	Fort Worth	45 7 	Cloudy	70	30.03	10	10	S
Tue Feb  2 01:20:33 2010	Phoenix	63 17 	Cloudy	36	29.87	10	0	CLM
Tue Feb  2 01:20:34 2010	Chicago	30 -1 	Cloudy	58	30.24	6	8	SE
Tue Feb  2 01:20:34 2010	Portland	44 7 	Light Rain	85	29.86	10	15	E
Tue Feb  2 01:20:35 2010	San Antonio	45 7 	Mist	96	30.03	1	0	CLM
Tue Feb  2 01:20:36 2010	Indianapolis	32 0 	Mostly Cloudy	64	30.18	10	0	CLM
Tue Feb  2 01:20:37 2010	Boston	31 -1 	Mostly Clear	28	30.14	10	18	W
Tue Feb  2 01:20:37 2010	Jacksonville	55 13 	Cloudy	83	30.14	7	12	NNE
Tue Feb  2 01:20:38 2010	Columbus	32 0 	Mostly Cloudy	49	30.28	10	3	SSE
Tue Feb  2 01:20:39 2010	Dallas	47 8 	Cloudy	68	30.04	10	10	SSE
Tue Feb  2 01:20:40 2010	Houston	50 10 	Cloudy	89	30.09	5	6	ENE
Tue Feb  2 01:20:41 2010	Milwaukee	25 -4 	Cloudy	66	30.2	10	3	SW
Tue Feb  2 01:20:41 2010	Seattle	49 9 	Cloudy	63	29.84	10	6	S
Tue Feb  2 01:20:42 2010	Detroit	26 -3 	Cloudy	63	30.31	10	5	WSW
Tue Feb  2 01:20:43 2010	Philadelphia	32 0 	Clear	41	30.29	10	9	W
Tue Feb  2 02:04:23 2010	Charlotte	42 6 	Mostly Clear	46	30.29	10	6	SE
Tue Feb  2 02:04:23 2010	San Jose	63 17 	Cloudy	44	29.89	10	12	ESE
Tue Feb  2 02:04:24 2010	San Diego	62 17 	Mostly Sunny	67	29.88	10	6	WSW
Tue Feb  2 02:04:25 2010	Denver	41 5 	Partly Sunny	29	29.9	10	9	NW
Tue Feb  2 02:04:26 2010	Memphis	44 7 	Cloudy	59	30.15	10	3	SE
Tue Feb  2 02:04:27 2010	Los Angeles	65 18 	Cloudy	46	29.85	10	7	S
Tue Feb  2 02:04:30 2010	El Paso	60 16 		31	29.83	10	10	WNW
Tue Feb  2 02:04:31 2010	New York	33 1 	Mostly Cloudy	38	30.23	10	5	N
Tue Feb  2 02:04:32 2010	Baltimore	27 -3 	Mostly Clear	55	30.3	10	0	CLM
Tue Feb  2 02:04:33 2010	Las Vegas	57 14 		31	29.91	10	3	ENE
Tue Feb  2 02:04:34 2010	Austin	45 7 	Cloudy	93	30.06	4	3	ESE
Tue Feb  2 02:04:34 2010	Washington	35 2 	Mostly Clear	47	30.31	10	5	N
Tue Feb  2 02:04:35 2010	San Francisco	55 13 	Cloudy	76	29.91	10	3	W
Tue Feb  2 02:04:36 2010	Oklahoma City	32 0 	Light Fog	93	30.04	2	3	SW
Tue Feb  2 02:04:37 2010	Nashville	38 3 	Cloudy	69	30.2	10	0	CLM
Tue Feb  2 02:04:38 2010	Fort Worth	45 7 	Cloudy	73	30.03	8	9	S
Tue Feb  2 02:04:38 2010	Phoenix	63 17 	Cloudy	35	29.88	10	5	S
Tue Feb  2 02:04:39 2010	Portland	44 7 	Light Rain	85	29.86	10	14	E
Tue Feb  2 02:04:40 2010	Chicago	29 -2 	Cloudy	63	30.24	6	7	E
Tue Feb  2 02:04:41 2010	Indianapolis	32 0 	Mostly Cloudy	64	30.18	10	5	E
Tue Feb  2 02:04:41 2010	San Antonio	46 8 	Mist	92	30.03	1	5	E
Tue Feb  2 02:04:42 2010	Boston	30 -1 	Mostly Clear	31	30.16	10	15	W
Tue Feb  2 02:04:43 2010	Jacksonville	55 13 	Cloudy	86	30.14	9	12	NNE
Tue Feb  2 02:04:44 2010	Columbus	31 -1 		51	30.27	10	0	CLM
Tue Feb  2 02:04:45 2010	Dallas	46 8 	Cloudy	70	30.04	10	8	S
Tue Feb  2 02:04:45 2010	Houston	50 10 	Cloudy	89	30.08	5	7	E
Tue Feb  2 02:04:46 2010	Seattle	48 9 	Cloudy	62	29.84	10	8	S
Tue Feb  2 02:04:47 2010	Milwaukee	23 -5 	Cloudy	63	30.22	10	5	E
Tue Feb  2 02:04:48 2010	Detroit	25 -4 	Cloudy	68	30.3	10	6	S
Tue Feb  2 02:04:49 2010	Philadelphia	30 -1 	Clear	47	30.3	10	7	W
Tue Feb  2 02:47:30 2010	San Jose	59 15 	Cloudy	58	29.9	10	12	WNW
Tue Feb  2 02:47:31 2010	Charlotte	39 4 	Mostly Clear	52	30.3	10	3	SSE
Tue Feb  2 02:47:32 2010	Denver	36 2 	Partly Cloudy	37	29.96	10	6	W
Tue Feb  2 02:47:32 2010	San Diego	59 15 	Sunny	74	29.89	9	5	NW
Tue Feb  2 02:47:33 2010	Memphis	42 6 	Cloudy	67	30.16	10	0	CLM
Tue Feb  2 02:47:34 2010	Los Angeles	63 17 	Sunny	53	29.86	9	6	S
Tue Feb  2 02:47:35 2010	El Paso	58 14 	Cloudy	37	29.85	10	10	WNW
Tue Feb  2 02:47:36 2010	Baltimore	25 -4 		60	30.3	10	0	CLM
Tue Feb  2 02:47:36 2010	New York	32 0 	Clear	41	30.24	10	6	N
Tue Feb  2 02:47:37 2010	Las Vegas	56 13 		32	29.91	10	3	ENE
Tue Feb  2 02:47:38 2010	Washington	33 1 		56	30.31	10	3	SSE
Tue Feb  2 02:47:39 2010	Austin	45 7 	Cloudy	93	30.06	4	0	CLM
Tue Feb  2 02:47:40 2010	Oklahoma City	32 0 	Freezing Drizzle	93	30.05	2	5	S
Tue Feb  2 02:47:40 2010	San Francisco	55 13 	Cloudy	78	29.92	10	3	NW
Tue Feb  2 02:47:41 2010	Nashville	37 3 	Cloudy	75	30.19	10	0	CLM
Tue Feb  2 02:47:42 2010	Fort Worth	45 7 	Cloudy	73	30.06	9	6	S
Tue Feb  2 02:47:43 2010	Phoenix	63 17 	Clear	33	29.88	10	0	CLM
Tue Feb  2 02:47:44 2010	Chicago	29 -2 	Cloudy	68	30.24	7	7	E
Tue Feb  2 02:47:44 2010	Portland	43 6 	Light Rain	88	29.86	10	16	E
Tue Feb  2 02:47:45 2010	San Antonio	45 7 	Mist	96	30.03	1	3	E
Tue Feb  2 02:47:46 2010	Indianapolis	32 0 	Cloudy	64	30.18	10	3	E
Tue Feb  2 02:47:47 2010	Boston	28 -2 	Mostly Clear	35	30.18	10	12	WNW
Tue Feb  2 02:47:47 2010	Jacksonville	55 13 	Cloudy	86	30.13	9	12	NNE
Tue Feb  2 02:47:48 2010	Columbus	27 -3 		63	30.27	10	3	E
Tue Feb  2 02:47:49 2010	Dallas	45 7 	Cloudy	76	30.06	10	6	S
Tue Feb  2 02:47:50 2010	Houston	50 10 	Cloudy	89	30.09	6	8	ENE
Tue Feb  2 02:47:51 2010	Milwaukee	23 -5 	Cloudy	58	30.21	10	5	E
Tue Feb  2 02:47:51 2010	Seattle	46 8 	Cloudy	76	29.85	10	5	SSW
Tue Feb  2 02:47:52 2010	Detroit	23 -5 	Cloudy	74	30.28	10	5	S
Tue Feb  2 02:47:53 2010	Philadelphia	29 -2 	Clear	51	30.3	10	6	WSW
Tue Feb  2 03:31:38 2010	San Jose	57 14 	Cloudy	62	29.91	7	9	W
Tue Feb  2 03:31:39 2010	Charlotte	41 5 	Mostly Clear	48	30.27	10	5	ENE
Tue Feb  2 03:31:40 2010	San Diego	57 14 	Partly Cloudy	80	29.9	8	7	NW
Tue Feb  2 03:31:41 2010	Denver	36 2 	Partly Cloudy	37	30	10	6	WNW
Tue Feb  2 03:31:41 2010	Memphis	40 4 	Cloudy	73	30.14	10	0	CLM
Tue Feb  2 03:31:42 2010	Los Angeles	60 16 	Clear	64	29.87	7	5	S
Tue Feb  2 03:31:43 2010	El Paso	57 14 	Cloudy	38	29.87	10	5	WNW
Tue Feb  2 03:31:44 2010	New York	32 0 	Clear	41	30.23	10	8	W
Tue Feb  2 03:31:45 2010	Baltimore	25 -4 		62	30.31	10	0	CLM
Tue Feb  2 03:31:45 2010	Las Vegas	54 12 	Mostly Cloudy	38	29.92	10	0	CLM
Tue Feb  2 03:31:46 2010	Washington	34 1 		54	30.32	10	0	CLM
Tue Feb  2 03:31:47 2010	Austin	45 7 	Light Fog	87	30.06	3	0	CLM
Tue Feb  2 03:31:48 2010	Oklahoma City	32 0 	Freezing Drizzle	88	30.08	1	3	SW
Tue Feb  2 03:31:48 2010	San Francisco	54 12 	Cloudy	78	29.92	10	3	NW
Tue Feb  2 03:31:49 2010	Nashville	35 2 	Cloudy	81	30.17	10	0	CLM
Tue Feb  2 03:31:50 2010	Fort Worth	44 7 	Cloudy	78	30.06	8	5	S
Tue Feb  2 03:31:51 2010	Phoenix	59 15 	Clear	45	29.89	10	0	CLM
Tue Feb  2 03:31:52 2010	Chicago	29 -2 	Cloudy	72	30.23	8	5	E
Tue Feb  2 03:31:52 2010	Portland	43 6 	Light Rain	88	29.86	9	15	E
Tue Feb  2 03:31:53 2010	San Antonio	45 7 	Mist	96	30.03	1	3	E
Tue Feb  2 03:31:54 2010	Indianapolis	30 -1 	Cloudy	75	30.2	10	3	E
Tue Feb  2 03:31:55 2010	Boston	27 -3 	Partly Cloudy	40	30.18	10	15	WNW
Tue Feb  2 03:31:56 2010	Columbus	26 -3 		68	30.25	10	5	E
Tue Feb  2 03:31:56 2010	Jacksonville	55 13 	Cloudy	86	30.13	9	5	NNE
Tue Feb  2 03:31:57 2010	Dallas	45 7 	Cloudy	79	30.07	10	7	SSE
Tue Feb  2 03:31:58 2010	Houston	50 10 	Cloudy	89	30.09	6	6	NE
Tue Feb  2 03:31:59 2010	Seattle	45 7 	Light Rain	85	29.85	10	6	SSW
Tue Feb  2 03:32:00 2010	Detroit	24 -4 	Mostly Cloudy	71	30.28	8	3	S
Tue Feb  2 03:32:00 2010	Milwaukee	23 -5 	Cloudy	63	30.19	10	0	CLM
Tue Feb  2 03:32:01 2010	Philadelphia	30 -1 	Clear	51	30.3	10	3	SW
Tue Feb  2 04:14:55 2010	San Jose	57 14 	Cloudy	62	29.91	7	9	W
Tue Feb  2 04:14:56 2010	Charlotte	41 5 	Mostly Clear	48	30.27	10	5	ENE
Tue Feb  2 04:14:56 2010	San Diego	57 14 	Partly Cloudy	80	29.9	8	7	NW
Tue Feb  2 04:14:57 2010	Denver	36 2 	Partly Cloudy	37	30	10	6	WNW
Tue Feb  2 04:14:58 2010	Memphis	40 4 	Cloudy	73	30.14	10	0	CLM
Tue Feb  2 04:14:59 2010	Los Angeles	60 16 	Mostly Cloudy	64	29.87	7	5	S
Tue Feb  2 04:15:00 2010	El Paso	57 14 	Cloudy	38	29.87	10	5	WNW
Tue Feb  2 04:15:00 2010	New York	32 0 	Partly Cloudy	41	30.23	10	8	W
Tue Feb  2 04:15:01 2010	Baltimore	25 -4 	Mostly Cloudy	62	30.31	10	0	CLM
Tue Feb  2 04:15:02 2010	Las Vegas	54 12 	Mostly Cloudy	38	29.92	10	0	CLM
Tue Feb  2 04:15:03 2010	Washington	34 1 		54	30.32	10	0	CLM
Tue Feb  2 04:15:04 2010	Austin	45 7 	Light Fog	93	30.07	3	0	CLM
Tue Feb  2 04:15:04 2010	San Francisco	53 12 	Cloudy	82	29.92	10	3	WNW
Tue Feb  2 04:15:05 2010	Oklahoma City	32 0 	Freezing Drizzle	93	30.06	1	3	SW
Tue Feb  2 04:15:06 2010	Nashville	35 2 	Cloudy	81	30.17	10	0	CLM
Tue Feb  2 04:15:07 2010	Fort Worth	44 7 	Cloudy	78	30.06	8	5	S
Tue Feb  2 04:15:08 2010	Phoenix	59 15 	Mostly Cloudy	45	29.89	10	0	CLM
Tue Feb  2 04:15:08 2010	Portland	43 6 	Light Rain	88	29.86	9	15	E
Tue Feb  2 04:15:09 2010	Chicago	29 -2 	Cloudy	72	30.23	8	5	E
Tue Feb  2 04:15:10 2010	San Antonio	45 7 	Mist	96	30.03	1	3	E
Tue Feb  2 04:15:11 2010	Indianapolis	32 0 	Cloudy	69	30.18	10	3	E
Tue Feb  2 04:15:12 2010	Boston	27 -3 	Partly Cloudy	40	30.18	10	15	WNW
Tue Feb  2 04:15:12 2010	Jacksonville	55 13 	Cloudy	87	30.12	8	7	NNE
Tue Feb  2 04:15:13 2010	Columbus	26 -3 		68	30.25	10	5	E
Tue Feb  2 04:15:14 2010	Dallas	45 7 	Cloudy	79	30.07	10	7	SSE
Tue Feb  2 04:15:15 2010	Houston	50 10 	Cloudy	89	30.09	6	6	NE
Tue Feb  2 04:15:16 2010	Milwaukee	23 -5 	Cloudy	68	30.19	10	0	CLM
Tue Feb  2 04:15:16 2010	Seattle	45 7 	Light Rain	85	29.85	10	6	SSW
Tue Feb  2 04:15:17 2010	Detroit	24 -4 	Mostly Cloudy	71	30.28	8	3	S
Tue Feb  2 04:15:18 2010	Philadelphia	30 -1 		51	30.3	10	3	SW
Tue Feb  2 04:58:41 2010	San Jose	55 13 	Cloudy	66	29.92	7	7	W
Tue Feb  2 04:58:42 2010	Charlotte	36 2 	Mostly Clear	64	30.26	10	3	ESE
Tue Feb  2 04:58:43 2010	Denver	35 2 	Partly Cloudy	38	30.01	10	10	WNW
Tue Feb  2 04:58:43 2010	San Diego	55 13 	Partly Cloudy	86	29.91	7	3	WNW
Tue Feb  2 04:58:44 2010	Memphis	40 4 	Cloudy	73	30.13	10	0	CLM
Tue Feb  2 04:58:45 2010	Los Angeles	58 14 	Cloudy	69	29.88	7	0	CLM
Tue Feb  2 04:58:46 2010	El Paso	54 12 	Cloudy	46	29.87	10	6	N
Tue Feb  2 04:58:47 2010	Baltimore	23 -5 		68	30.3	10	0	CLM
Tue Feb  2 04:58:47 2010	New York	31 -1 	Partly Cloudy	45	30.23	10	6	N
Tue Feb  2 04:58:48 2010	Las Vegas	53 12 		41	29.92	10	5	N
Tue Feb  2 04:58:49 2010	Washington	32 0 		60	30.31	10	3	S
Tue Feb  2 04:58:50 2010	Austin	45 7 	Light Fog	93	30.07	2	0	CLM
Tue Feb  2 04:58:50 2010	San Francisco	51 11 	Mostly Cloudy	87	29.93	10	3	WSW
Tue Feb  2 04:58:51 2010	Oklahoma City	32 0 	Freezing Drizzle	86	30.06	2	0	CLM
Tue Feb  2 04:58:52 2010	Nashville	36 2 	Cloudy	78	30.17	10	0	CLM
Tue Feb  2 04:58:53 2010	Fort Worth	44 7 	Cloudy	78	30.07	8	0	CLM
Tue Feb  2 04:58:54 2010	Phoenix	57 14 	Mostly Cloudy	52	29.89	10	5	N
Tue Feb  2 04:58:54 2010	Portland	42 6 	Light Rain	91	29.86	9	14	E
Tue Feb  2 04:58:55 2010	Chicago	30 -1 	Cloudy	65	30.23	8	6	SSE
Tue Feb  2 04:58:56 2010	San Antonio	45 7 	Mist	96	30.04	1	0	CLM
Tue Feb  2 04:58:57 2010	Indianapolis	32 0 	Cloudy	69	30.15	10	5	E
Tue Feb  2 04:58:58 2010	Boston	26 -3 	Mostly Clear	44	30.19	10	9	WNW
Tue Feb  2 04:58:58 2010	Jacksonville	55 13 	Cloudy	86	30.11	7	7	NE
Tue Feb  2 04:58:59 2010	Columbus	27 -3 	Cloudy	66	30.24	10	3	ENE
Tue Feb  2 04:59:00 2010	Dallas	45 7 	Cloudy	79	30.08	7	0	CLM
Tue Feb  2 04:59:01 2010	Houston	49 9 	Cloudy	89	30.08	5	7	ENE
Tue Feb  2 04:59:02 2010	Milwaukee	23 -5 	Light Snow	85	30.17	4	0	CLM
Tue Feb  2 04:59:02 2010	Seattle	44 7 	Light Rain	92	29.85	10	5	S
Tue Feb  2 04:59:03 2010	Detroit	23 -5 	Cloudy	74	30.26	7	3	SE
Tue Feb  2 04:59:04 2010	Philadelphia	29 -2 	Mostly Clear	56	30.3	10	7	WSW
Tue Feb  2 05:41:30 2010	San Jose	55 13 	Partly Cloudy	71	29.92	10	7	W
Tue Feb  2 05:41:31 2010	Charlotte	38 3 		57	30.24	10	5	SE
Tue Feb  2 05:41:32 2010	San Diego	55 13 	Clear	83	29.91	6	0	CLM
Tue Feb  2 05:41:33 2010	Denver	31 -1 	Partly Cloudy	47	29.99	10	6	N
Tue Feb  2 05:41:34 2010	Los Angeles	57 14 	Clear	74	29.87	6	3	SSE
Tue Feb  2 05:41:34 2010	Memphis	41 5 	Cloudy	73	30.11	10	5	SE
Tue Feb  2 05:41:35 2010	El Paso	53 12 		46	29.88	10	3	NNW
Tue Feb  2 05:41:36 2010	New York	31 -1 	Clear	45	30.24	10	6	N
Tue Feb  2 05:41:37 2010	Baltimore	22 -6 		71	30.3	10	0	CLM
Tue Feb  2 05:41:38 2010	Las Vegas	53 12 	Cloudy	41	29.92	10	3	N
Tue Feb  2 05:41:38 2010	Washington	31 -1 		66	30.3	10	0	CLM
Tue Feb  2 05:41:39 2010	Austin	45 7 	Light Fog	93	30.06	2	0	CLM
Tue Feb  2 05:41:40 2010	San Francisco	52 11 	Mostly Cloudy	82	29.93	10	3	NNW
Tue Feb  2 05:41:41 2010	Oklahoma City	32 0 	Freezing Drizzle	93	30.07	2	0	CLM
Tue Feb  2 05:41:42 2010	Fort Worth	43 6 	Cloudy	81	30.09	7	6	N
Tue Feb  2 05:41:42 2010	Nashville	35 2 	Cloudy	81	30.17	9	0	CLM
Tue Feb  2 05:41:43 2010	Phoenix	54 12 	Clear	58	29.88	10	10	NNE
Tue Feb  2 05:41:44 2010	Portland	43 6 	Light Rain	87	29.88	8	16	E
Tue Feb  2 05:41:45 2010	Chicago	30 -1 	Cloudy	65	30.2	9	8	SE
Tue Feb  2 05:41:45 2010	San Antonio	45 7 	Mist	96	30.04	1	3	N
Tue Feb  2 05:41:46 2010	Indianapolis	32 0 	Cloudy	69	30.14	10	6	E
Tue Feb  2 05:41:47 2010	Boston	27 -3 	Partly Cloudy	42	30.18	10	14	W
Tue Feb  2 05:41:48 2010	Jacksonville	55 13 	Light Rain	86	30.08	8	5	N
Tue Feb  2 05:41:49 2010	Columbus	26 -3 	Cloudy	68	30.22	10	5	E
Tue Feb  2 05:41:49 2010	Dallas	44 7 	Cloudy	82	30.09	5	0	CLM
Tue Feb  2 05:41:50 2010	Houston	48 9 	Cloudy	93	30.06	5	5	E
Tue Feb  2 05:41:51 2010	Seattle	45 7 	Cloudy	89	29.85	10	0	CLM
Tue Feb  2 05:41:52 2010	Milwaukee	23 -5 	Light Snow	85	30.17	3	0	CLM
Tue Feb  2 05:41:53 2010	Detroit	22 -6 	Mostly Cloudy	77	30.26	8	0	CLM
Tue Feb  2 05:41:53 2010	Philadelphia	27 -3 	Clear	63	30.31	10	7	W
Tue Feb  2 06:29:09 2010	San Jose	54 12 		81	29.93	7	6	W
Tue Feb  2 06:29:10 2010	Charlotte	37 3 	Cloudy	59	30.24	10	0	CLM
Tue Feb  2 06:29:11 2010	Denver	33 1 	Clear	43	29.97	10	6	N
Tue Feb  2 06:29:11 2010	San Diego	54 12 		82	29.9	5	0	CLM
Tue Feb  2 06:29:12 2010	Memphis	41 5 	Cloudy	75	30.12	10	6	S
Tue Feb  2 06:29:13 2010	Los Angeles	55 13 	Clear	79	29.87	6	0	CLM
Tue Feb  2 06:29:14 2010	El Paso	46 8 	Cloudy	65	29.88	10	5	NE
Tue Feb  2 06:29:15 2010	Baltimore	23 -5 	Cloudy	71	30.29	10	0	CLM
Tue Feb  2 06:29:15 2010	New York	30 -1 	Clear	47	30.25	10	7	N
Tue Feb  2 06:29:16 2010	Las Vegas	52 11 		46	29.92	10	0	CLM
Tue Feb  2 06:29:17 2010	Washington	31 -1 		66	30.3	10	0	CLM
Tue Feb  2 06:29:18 2010	Austin	45 7 	Light Fog	100	30.08	2	0	CLM
Tue Feb  2 06:29:19 2010	Oklahoma City	32 0 	Light Fog	88	30.1	2	0	CLM
Tue Feb  2 06:29:19 2010	San Francisco	51 11 	Mostly Cloudy	83	29.92	10	3	NNW
Tue Feb  2 06:29:20 2010	Nashville	35 2 	Rain	84	30.17	6	0	CLM
Tue Feb  2 06:29:21 2010	Fort Worth	42 6 	Cloudy	85	30.09	6	8	N
Tue Feb  2 06:29:22 2010	Phoenix	54 12 	Clear	56	29.88	10	10	NNE
Tue Feb  2 06:29:23 2010	Chicago	30 -1 	Cloudy	63	30.18	9	6	ESE
Tue Feb  2 06:29:23 2010	Portland	42 6 	Cloudy	91	29.88	5	14	E
Tue Feb  2 06:29:24 2010	San Antonio	46 8 	Mist	95	30.04	0	0	CLM
Tue Feb  2 06:29:25 2010	Indianapolis	30 -1 	Cloudy	74	30.14	10	0	CLM
Tue Feb  2 06:29:26 2010	Boston	27 -3 	Cloudy	44	30.19	10	15	W
Tue Feb  2 06:29:26 2010	Jacksonville	55 13 	Rain	89	30.06	5	3	ENE
Tue Feb  2 06:29:27 2010	Columbus	28 -2 	Cloudy	65	30.21	10	6	E
Tue Feb  2 06:29:28 2010	Dallas	45 7 	Cloudy	82	30.1	6	0	CLM
Tue Feb  2 06:29:29 2010	Houston	49 9 	Cloudy	89	30.08	5	5	E
Tue Feb  2 06:29:30 2010	Milwaukee	23 -5 	Snow	92	30.16	1	0	CLM
Tue Feb  2 06:29:30 2010	Seattle	44 7 	Light Rain	92	29.85	10	3	SSE
Tue Feb  2 06:29:31 2010	Detroit	21 -6 	Mostly Cloudy	77	30.25	7	0	CLM
Tue Feb  2 06:29:32 2010	Philadelphia	27 -3 	Clear	60	30.3	10	5	W
Tue Feb  2 07:12:09 2010	San Jose	54 12 		81	29.93	7	6	W
Tue Feb  2 07:12:10 2010	Charlotte	37 3 	Cloudy	59	30.24	10	0	CLM
Tue Feb  2 07:12:10 2010	San Diego	54 12 		82	29.9	5	0	CLM
Tue Feb  2 07:12:11 2010	Denver	33 1 	Mostly Clear	43	29.97	10	6	N
Tue Feb  2 07:12:12 2010	Memphis	41 5 	Cloudy	75	30.12	10	6	S
Tue Feb  2 07:12:13 2010	Los Angeles	55 13 	Mostly Cloudy	79	29.87	6	0	CLM
Tue Feb  2 07:12:14 2010	El Paso	46 8 	Cloudy	65	29.88	10	5	NE
Tue Feb  2 07:12:14 2010	New York	30 -1 	Clear	47	30.25	10	7	N
Tue Feb  2 07:12:15 2010	Baltimore	23 -5 	Cloudy	71	30.29	10	0	CLM
Tue Feb  2 07:12:16 2010	Las Vegas	52 11 	Cloudy	46	29.92	10	0	CLM
Tue Feb  2 07:12:17 2010	Washington	31 -1 		66	30.3	10	0	CLM
Tue Feb  2 07:12:18 2010	Austin	45 7 	Light Fog	100	30.08	2	5	NNE
Tue Feb  2 07:12:18 2010	San Francisco	51 11 	Cloudy	87	29.92	10	3	NE
Tue Feb  2 07:12:19 2010	Oklahoma City	32 0 	Light Fog	86	30.09	2	3	WSW
Tue Feb  2 07:12:20 2010	Nashville	35 2 	Rain	84	30.17	6	0	CLM
Tue Feb  2 07:12:21 2010	Fort Worth	41 5 	Cloudy	86	30.1	6	7	N
Tue Feb  2 07:12:22 2010	Phoenix	54 12 	Cloudy	56	29.88	10	10	NNE
Tue Feb  2 07:12:22 2010	Portland	42 6 	Cloudy	91	29.88	5	14	E
Tue Feb  2 07:12:23 2010	Chicago	30 -1 	Cloudy	63	30.18	9	6	ESE
Tue Feb  2 07:12:24 2010	San Antonio	46 8 	Mist	95	30.04	0	0	CLM
Tue Feb  2 07:12:25 2010	Boston	27 -3 	Cloudy	44	30.19	10	15	W
Tue Feb  2 07:12:25 2010	Indianapolis	30 -1 	Cloudy	74	30.14	10	0	CLM
Tue Feb  2 07:12:26 2010	Jacksonville	55 13 	Rain	93	30.05	3	0	CLM
Tue Feb  2 07:12:27 2010	Columbus	28 -2 	Cloudy	65	30.21	10	6	E
Tue Feb  2 07:12:28 2010	Dallas	45 7 	Cloudy	82	30.1	6	0	CLM
Tue Feb  2 07:12:29 2010	Houston	49 9 	Cloudy	89	30.08	5	5	E
Tue Feb  2 07:12:29 2010	Seattle	44 7 	Light Rain	92	29.85	10	3	SSE
Tue Feb  2 07:12:30 2010	Milwaukee	23 -5 	Snow	92	30.16	1	0	CLM
Tue Feb  2 07:12:31 2010	Detroit	21 -6 	Mostly Cloudy	77	30.25	7	0	CLM
Tue Feb  2 07:12:32 2010	Philadelphia	27 -3 	Clear	60	30.3	10	5	W
Tue Feb  2 07:55:19 2010	San Jose	52 11 	Mostly Clear	87	29.92	7	0	CLM
Tue Feb  2 07:55:20 2010	Charlotte	36 2 	Cloudy	69	30.22	10	3	ENE
Tue Feb  2 07:55:21 2010	Denver	24 -4 	Clear	65	30	10	7	S
Tue Feb  2 07:55:21 2010	San Diego	52 11 	Clear	86	29.9	4	0	CLM
Tue Feb  2 07:55:22 2010	Memphis	41 5 	Cloudy	75	30.1	10	6	SE
Tue Feb  2 07:55:23 2010	Los Angeles	53 12 	Partly Cloudy	76	29.87	7	0	CLM
Tue Feb  2 07:55:24 2010	El Paso	46 8 	Cloudy	65	29.89	10	0	CLM
Tue Feb  2 07:55:25 2010	Baltimore	22 -6 		77	30.27	10	0	CLM
Tue Feb  2 07:55:25 2010	New York	30 -1 	Clear	47	30.25	10	3	N
Tue Feb  2 07:55:26 2010	Las Vegas	50 10 		53	29.92	10	5	W
Tue Feb  2 07:55:27 2010	Washington	29 -2 		66	30.27	10	5	ENE
Tue Feb  2 07:55:28 2010	Austin	45 7 	Light Fog	100	30.09	1	5	N
Tue Feb  2 07:55:28 2010	San Francisco	51 11 	Cloudy	85	29.93	10	4	NNE
Tue Feb  2 07:55:29 2010	Oklahoma City	32 0 	Light Fog	88	30.13	3	3	WSW
Tue Feb  2 07:55:30 2010	Nashville	34 1 	Rain	96	30.15	4	0	CLM
Tue Feb  2 07:55:31 2010	Fort Worth	41 5 	Cloudy	85	30.1	5	6	NNE
Tue Feb  2 07:55:32 2010	Phoenix	54 12 	Clear	54	29.88	10	10	NNE
Tue Feb  2 07:55:32 2010	Portland	43 6 	Cloudy	87	29.89	10	17	E
Tue Feb  2 07:55:33 2010	Chicago	30 -1 	Cloudy	66	30.17	10	5	SE
Tue Feb  2 07:55:34 2010	San Antonio	46 8 	Mist	93	30.07	0	0	CLM
Tue Feb  2 07:55:35 2010	Indianapolis	30 -1 	Cloudy	74	30.12	10	0	CLM
Tue Feb  2 07:55:36 2010	Boston	27 -3 	Cloudy	44	30.2	10	13	WNW
Tue Feb  2 07:55:36 2010	Jacksonville	57 14 	Rain	89	30.04	4	8	E
Tue Feb  2 07:55:37 2010	Columbus	29 -2 	Cloudy	63	30.2	10	3	ESE
Tue Feb  2 07:55:38 2010	Dallas	42 6 	Cloudy	85	30.11	6	6	NNW
Tue Feb  2 07:55:39 2010	Houston	49 9 	Cloudy	89	30.09	5	5	E
Tue Feb  2 07:55:40 2010	Milwaukee	23 -5 	Light Snow	100	30.15	2	5	SE
Tue Feb  2 07:55:40 2010	Seattle	44 7 	Cloudy	92	29.85	10	6	S
Tue Feb  2 07:55:41 2010	Detroit	21 -6 	Cloudy	77	30.24	7	0	CLM
Tue Feb  2 07:55:42 2010	Philadelphia	26 -3 	Clear	63	30.3	10	0	CLM
Tue Feb  2 08:38:38 2010	San Jose	48 9 	Mostly Cloudy	85	29.92	9	3	NW
Tue Feb  2 08:38:39 2010	Charlotte	36 2 	Cloudy	69	30.23	10	3	NNW
Tue Feb  2 08:38:40 2010	San Diego	52 11 	Clear	86	29.9	4	0	CLM
Tue Feb  2 08:38:41 2010	Denver	26 -3 	Clear	63	30	10	12	S
Tue Feb  2 08:38:42 2010	Los Angeles	53 12 	Mostly Cloudy	73	29.87	8	0	CLM
Tue Feb  2 08:38:42 2010	Memphis	41 5 	Cloudy	79	30.11	10	0	CLM
Tue Feb  2 08:38:43 2010	El Paso	44 7 		67	29.89	10	5	E
Tue Feb  2 08:38:44 2010	New York	31 -1 	Clear	45	30.26	10	3	W
Tue Feb  2 08:38:45 2010	Baltimore	20 -7 		84	30.27	10	0	CLM
Tue Feb  2 08:38:46 2010	Las Vegas	49 9 		56	29.91	10	0	CLM
Tue Feb  2 08:38:46 2010	Washington	28 -2 		68	30.27	10	5	ENE
Tue Feb  2 08:38:47 2010	Austin	45 7 	Light Fog	100	30.1	1	5	NNE
Tue Feb  2 08:38:48 2010	San Francisco	51 11 	Cloudy	86	29.93	9	4	ENE
Tue Feb  2 08:38:49 2010	Oklahoma City	32 0 	Light Fog	92	30.13	3	0	CLM
Tue Feb  2 08:38:50 2010	Fort Worth	40 4 	Cloudy	89	30.11	6	7	NNE
Tue Feb  2 08:38:50 2010	Nashville	34 1 	Rain	100	30.13	3	0	CLM
Tue Feb  2 08:38:51 2010	Phoenix	53 12 	Clear	56	29.88	10	6	NE
Tue Feb  2 08:38:52 2010	Portland	43 6 	Cloudy	87	29.9	10	14	E
Tue Feb  2 08:38:53 2010	Chicago	28 -2 	Light Snow/Fog	86	30.13	1	0	CLM
Tue Feb  2 08:38:54 2010	Indianapolis	30 -1 	Cloudy	74	30.12	10	0	CLM
Tue Feb  2 08:38:54 2010	San Antonio	47 8 	Mist	92	30.05	0	0	CLM
Tue Feb  2 08:38:55 2010	Boston	26 -3 	Mostly Cloudy	48	30.21	10	12	W
Tue Feb  2 08:38:56 2010	Jacksonville	57 14 	Light Rain	93	30.01	10	9	E
Tue Feb  2 08:38:57 2010	Columbus	29 -2 	Cloudy	63	30.19	10	5	ESE
Tue Feb  2 08:38:57 2010	Dallas	43 6 	Cloudy	81	30.13	5	8	N
Tue Feb  2 08:38:58 2010	Houston	49 9 	Cloudy	89	30.09	5	7	E
Tue Feb  2 08:38:59 2010	Seattle	45 7 	Cloudy	89	29.86	10	7	SSE
Tue Feb  2 08:39:00 2010	Milwaukee	23 -5 	Snow	92	30.14	1	0	CLM
Tue Feb  2 08:39:01 2010	Detroit	20 -7 	Cloudy	81	30.24	6	0	CLM
Tue Feb  2 08:39:01 2010	Philadelphia	27 -3 	Clear	60	30.3	10	5	NW
Tue Feb  2 09:22:14 2010	Charlotte	36 2 	Cloudy	69	30.2	10	5	N
Tue Feb  2 09:22:14 2010	San Jose	48 9 	Mostly Cloudy	85	29.91	9	3	NW
Tue Feb  2 09:22:15 2010	San Diego	52 11 	Mostly Cloudy	89	29.9	4	0	CLM
Tue Feb  2 09:22:16 2010	Denver	22 -6 	Clear	71	30.01	10	12	S
Tue Feb  2 09:22:17 2010	Memphis	40 4 	Cloudy	79	30.11	10	0	CLM
Tue Feb  2 09:22:18 2010	El Paso	45 7 		62	29.88	10	3	NE
Tue Feb  2 09:22:18 2010	Los Angeles	51 11 	Clear	79	29.86	8	0	CLM
Tue Feb  2 09:22:19 2010	New York	30 -1 	Clear	47	30.27	10	6	W
Tue Feb  2 09:22:20 2010	Baltimore	20 -7 		81	30.26	10	0	CLM
Tue Feb  2 09:22:21 2010	Las Vegas	48 9 	Cloudy	60	29.91	10	3	SSW
Tue Feb  2 09:22:22 2010	Austin	45 7 	Light Fog	100	30.1	1	6	NNE
Tue Feb  2 09:22:22 2010	Washington	28 -2 		65	30.27	10	5	ENE
Tue Feb  2 09:22:23 2010	San Francisco	51 11 	Cloudy	86	29.92	9	4	ENE
Tue Feb  2 09:22:24 2010	Oklahoma City	32 0 	Light Fog	92	30.13	3	0	CLM
Tue Feb  2 09:22:25 2010	Nashville	35 2 	Rain	95	30.13	3	0	CLM
Tue Feb  2 09:22:26 2010	Fort Worth	39 4 	Cloudy	86	30.12	7	6	NNE
Tue Feb  2 09:22:26 2010	Phoenix	53 12 	Clear	56	29.87	10	8	NNE
Tue Feb  2 09:22:27 2010	Portland	42 6 	Cloudy	88	29.89	10	15	E
Tue Feb  2 09:22:28 2010	Chicago	27 -3 	Light Snow/Fog	92	30.12	2	5	ESE
Tue Feb  2 09:22:29 2010	San Antonio	47 8 	Mist	96	30.05	0	3	N
Tue Feb  2 09:22:30 2010	Boston	26 -3 	Partly Cloudy	48	30.22	10	12	W
Tue Feb  2 09:22:30 2010	Indianapolis	32 0 	Cloudy	74	30.11	10	5	SE
Tue Feb  2 09:22:31 2010	Jacksonville	57 14 	Light Rain	93	29.98	9	8	E
Tue Feb  2 09:22:32 2010	Columbus	30 -1 	Cloudy	60	30.18	10	5	ESE
Tue Feb  2 09:22:33 2010	Dallas	41 5 	Cloudy	80	30.13	5	6	NNE
Tue Feb  2 09:22:34 2010	Houston	49 9 	Cloudy	86	30.09	5	6	E
Tue Feb  2 09:22:34 2010	Seattle	44 7 	Light Rain	92	29.87	9	9	SSE
Tue Feb  2 09:22:35 2010	Milwaukee	23 -5 	Light Snow	100	30.13	2	0	CLM
Tue Feb  2 09:22:36 2010	Detroit	21 -6 	Cloudy	80	30.24	5	3	E
Tue Feb  2 09:22:37 2010	Philadelphia	24 -4 	Clear	68	30.3	10	3	NNW
Tue Feb  2 10:05:43 2010	San Jose	48 9 	Mostly Cloudy	85	29.91	9	3	SSW
Tue Feb  2 10:05:44 2010	Charlotte	36 2 	Cloudy	69	30.2	10	5	N
Tue Feb  2 10:05:45 2010	San Diego	52 11 	Cloudy	89	29.9	4	0	CLM
Tue Feb  2 10:05:46 2010	Denver	22 -6 	Clear	71	30.01	10	12	S
Tue Feb  2 10:05:47 2010	Los Angeles	51 11 		79	29.86	8	0	CLM
Tue Feb  2 10:05:47 2010	Memphis	40 4 	Cloudy	79	30.11	10	0	CLM
Tue Feb  2 10:05:48 2010	El Paso	45 7 		62	29.88	10	3	NE
Tue Feb  2 10:05:49 2010	New York	30 -1 	Clear	47	30.27	10	6	W
Tue Feb  2 10:05:50 2010	Baltimore	20 -7 		81	30.26	10	0	CLM
Tue Feb  2 10:05:51 2010	Las Vegas	48 9 	Cloudy	60	29.91	10	3	SSW
Tue Feb  2 10:05:51 2010	Washington	28 -2 		65	30.27	10	5	ENE
Tue Feb  2 10:05:52 2010	Austin	45 7 	Light Fog	100	30.1	1	8	NNE
Tue Feb  2 10:05:53 2010	San Francisco	50 10 	Mostly Cloudy	88	29.92	10	4	ENE
Tue Feb  2 10:05:54 2010	Oklahoma City	32 0 	Light Fog	92	30.13	3	0	CLM
Tue Feb  2 10:05:55 2010	Fort Worth	39 4 	Cloudy	86	30.12	7	6	NNE
Tue Feb  2 10:05:55 2010	Nashville	36 2 	Rain	93	30.12	3	3	SSE
Tue Feb  2 10:05:56 2010	Phoenix	53 12 	Cloudy	56	29.87	10	8	NNE
Tue Feb  2 10:05:57 2010	Portland	43 6 	Cloudy	87	29.9	10	9	E
Tue Feb  2 10:05:58 2010	Chicago	27 -3 	Light Snow/Fog	92	30.12	1	6	ESE
Tue Feb  2 10:05:59 2010	Indianapolis	32 0 	Light Snow	80	30.11	5	5	S
Tue Feb  2 10:05:59 2010	San Antonio	47 8 	Mist	96	30.05	0	3	N
Tue Feb  2 10:06:00 2010	Boston	26 -3 	Partly Cloudy	48	30.22	10	12	W
Tue Feb  2 10:06:01 2010	Jacksonville	57 14 	Rain	87	29.97	6	8	ENE
Tue Feb  2 10:06:02 2010	Columbus	30 -1 	Cloudy	60	30.18	10	5	ESE
Tue Feb  2 10:06:02 2010	Dallas	41 5 	Cloudy	80	30.13	5	6	NNE
Tue Feb  2 10:06:03 2010	Houston	49 9 	Cloudy	86	30.09	5	6	E
Tue Feb  2 10:06:04 2010	Seattle	44 7 	Light Rain	92	29.87	9	9	SSE
Tue Feb  2 10:06:05 2010	Milwaukee	23 -5 	Light Snow	92	30.11	2	0	CLM
Tue Feb  2 10:06:06 2010	Detroit	21 -6 	Cloudy	80	30.24	5	3	E
Tue Feb  2 10:06:06 2010	Philadelphia	24 -4 	Clear	68	30.3	10	3	NNW
Tue Feb  2 10:49:56 2010	Charlotte	36 2 	Cloudy	72	30.18	10	6	N
Tue Feb  2 10:49:56 2010	San Jose	47 8 		86	29.9	9	3	NNW
Tue Feb  2 10:49:57 2010	San Diego	54 12 	Cloudy	86	29.89	6	0	CLM
Tue Feb  2 10:49:58 2010	Denver	22 -6 	Clear	71	30.01	10	9	SSE
Tue Feb  2 10:49:59 2010	Memphis	39 4 	Mostly Cloudy	79	30.11	10	0	CLM
Tue Feb  2 10:50:00 2010	El Paso	44 7 		65	29.89	10	0	CLM
Tue Feb  2 10:50:00 2010	Los Angeles	51 11 	Partly Cloudy	73	29.86	9	0	CLM
Tue Feb  2 10:50:01 2010	New York	29 -2 	Clear	46	30.26	10	3	W
Tue Feb  2 10:50:02 2010	Baltimore	20 -7 	Mostly Clear	81	30.27	10	0	CLM
Tue Feb  2 10:50:03 2010	Las Vegas	47 8 		63	29.9	10	3	SSW
Tue Feb  2 10:50:04 2010	Austin	45 7 	Light Fog	100	30.11	2	8	NNE
Tue Feb  2 10:50:04 2010	Washington	27 -3 		74	30.28	10	3	ENE
Tue Feb  2 10:50:05 2010	San Francisco	49 9 		88	29.92	9	4	ENE
Tue Feb  2 10:50:06 2010	Oklahoma City	32 0 	Light Fog	92	30.14	3	6	NW
Tue Feb  2 10:50:07 2010	Nashville	36 2 	Mist	93	30.12	2	0	CLM
Tue Feb  2 10:50:08 2010	Fort Worth	39 4 	Cloudy	93	30.13	7	3	NNE
Tue Feb  2 10:50:08 2010	Phoenix	54 12 	Clear	54	29.87	10	7	NE
Tue Feb  2 10:50:09 2010	Portland	42 6 	Cloudy	88	29.89	10	12	E
Tue Feb  2 10:50:10 2010	Chicago	27 -3 	Light Snow/Fog	92	30.16	1	5	SE
Tue Feb  2 10:50:11 2010	Indianapolis	32 0 	Light Snow	80	30.09	5	5	SSE
Tue Feb  2 10:50:11 2010	San Antonio	47 8 	Mist	96	30.05	0	5	N
Tue Feb  2 10:50:12 2010	Boston	25 -4 	Partly Cloudy	50	30.24	10	8	W
Tue Feb  2 10:50:13 2010	Jacksonville	60 16 	Rain	96	29.96	4	6	ENE
Tue Feb  2 10:50:14 2010	Columbus	30 -1 	Cloudy	60	30.18	10	5	SE
Tue Feb  2 10:50:15 2010	Dallas	42 6 	Cloudy	82	30.14	5	3	NNE
Tue Feb  2 10:50:15 2010	Houston	49 9 	Cloudy	83	30.09	7	9	E
Tue Feb  2 10:50:16 2010	Seattle	45 7 	Light Rain	87	29.86	10	9	SSE
Tue Feb  2 10:50:17 2010	Milwaukee	23 -5 	Light Fog	92	30.1	2	0	CLM
Tue Feb  2 10:50:18 2010	Detroit	21 -6 	Cloudy	80	30.22	5	3	E
Tue Feb  2 10:50:19 2010	Philadelphia	25 -4 	Clear	65	30.29	10	5	NNW
Tue Feb  2 11:32:58 2010	San Jose	47 8 		86	29.89	9	3	ESE
Tue Feb  2 11:32:59 2010	Charlotte	38 3 	Cloudy	57	30.16	10	7	NE
Tue Feb  2 11:33:00 2010	San Diego	55 13 	Cloudy	83	29.89	7	0	CLM
Tue Feb  2 11:33:01 2010	Denver	21 -6 	Mostly Clear	70	30.01	10	10	S
Tue Feb  2 11:33:01 2010	Memphis	38 3 	Mostly Cloudy	82	30.11	10	0	CLM
Tue Feb  2 11:33:02 2010	Los Angeles	52 11 	Clear	76	29.86	7	0	CLM
Tue Feb  2 11:33:03 2010	El Paso	42 6 		70	29.9	10	8	N
Tue Feb  2 11:33:04 2010	New York	28 -2 	Clear	50	30.27	10	3	N
Tue Feb  2 11:33:05 2010	Baltimore	19 -7 		84	30.27	9	0	CLM
Tue Feb  2 11:33:05 2010	Las Vegas	46 8 		62	29.89	10	0	CLM
Tue Feb  2 11:33:06 2010	Washington	27 -3 		71	30.27	10	7	NE
Tue Feb  2 11:33:07 2010	Austin	45 7 	Rain	100	30.1	1	8	NNE
Tue Feb  2 11:33:08 2010	San Francisco	49 9 		89	29.91	9	5	ENE
Tue Feb  2 11:33:09 2010	Nashville	35 2 	Mist	95	30.11	1	0	CLM
Tue Feb  2 11:33:09 2010	Oklahoma City	34 1 	Light Fog	86	30.13	3	0	CLM
Tue Feb  2 11:33:10 2010	Fort Worth	41 5 	Cloudy	85	30.13	6	3	N
Tue Feb  2 11:33:11 2010	Phoenix	54 12 	Clear	54	29.86	10	5	NE
Tue Feb  2 11:33:12 2010	Portland	42 6 	Cloudy	88	29.9	10	13	E
Tue Feb  2 11:33:13 2010	Chicago	27 -3 	Light Snow/Fog	92	30.09	2	7	ESE
Tue Feb  2 11:33:13 2010	San Antonio	47 8 	Mist	100	30.05	0	3	NNE
Tue Feb  2 11:33:14 2010	Indianapolis	32 0 	Light Snow	86	30.08	7	5	SSE
Tue Feb  2 11:33:15 2010	Boston	25 -4 	Clear	52	30.24	10	9	W
Tue Feb  2 11:33:16 2010	Jacksonville	57 14 	Rain	93	29.94	3	3	NE
Tue Feb  2 11:33:17 2010	Columbus	30 -1 	Light Snow	63	30.16	5	3	NNE
Tue Feb  2 11:33:17 2010	Dallas	42 6 	Cloudy	82	30.14	6	5	N
Tue Feb  2 11:33:18 2010	Houston	49 9 	Cloudy	86	30.09	5	7	NE
Tue Feb  2 11:33:19 2010	Seattle	44 7 	Rain	88	29.86	4	7	N
Tue Feb  2 11:33:20 2010	Milwaukee	23 -5 	Light Snow	100	30.09	2	0	CLM
Tue Feb  2 11:33:21 2010	Detroit	21 -6 	Cloudy	84	30.21	5	0	CLM
Tue Feb  2 11:33:21 2010	Philadelphia	23 -5 	Clear	68	30.3	10	0	CLM
Tue Feb  2 12:17:54 2010	San Jose	46 8 	Mostly Cloudy	87	29.89	9	3	ENE
Tue Feb  2 12:17:55 2010	Charlotte	38 3 	Cloudy	57	30.16	10	7	NE
Tue Feb  2 12:17:56 2010	Denver	21 -6 	Mostly Clear	70	30.01	10	10	S
Tue Feb  2 12:17:56 2010	San Diego	55 13 	Cloudy	83	29.89	7	0	CLM
Tue Feb  2 12:17:57 2010	Memphis	38 3 	Mostly Cloudy	82	30.11	10	0	CLM
Tue Feb  2 12:17:58 2010	Los Angeles	52 11 	Mostly Cloudy	76	29.86	7	0	CLM
Tue Feb  2 12:17:59 2010	El Paso	42 6 		70	29.9	10	8	N
Tue Feb  2 12:18:00 2010	Baltimore	19 -7 	Mostly Cloudy	84	30.27	9	0	CLM
Tue Feb  2 12:18:00 2010	New York	28 -2 	Mostly Clear	50	30.27	10	3	N
Tue Feb  2 12:18:01 2010	Las Vegas	46 8 		62	29.89	10	0	CLM
Tue Feb  2 12:18:02 2010	Washington	27 -3 	Cloudy	71	30.27	10	7	NE
Tue Feb  2 12:18:03 2010	Austin	45 7 	Light Fog	100	30.1	2	7	NNE
Tue Feb  2 12:18:04 2010	Oklahoma City	34 1 	Light Fog	86	30.13	3	0	CLM
Tue Feb  2 12:18:04 2010	San Francisco	49 9 	Mostly Cloudy	88	29.91	10	4	NNE
Tue Feb  2 12:18:05 2010	Nashville	35 2 	Mist	95	30.11	1	0	CLM
Tue Feb  2 12:18:06 2010	Fort Worth	41 5 	Cloudy	85	30.13	6	3	N
Tue Feb  2 12:18:07 2010	Phoenix	54 12 		54	29.86	10	5	NE
Tue Feb  2 12:18:08 2010	Chicago	27 -3 	Light Snow/Fog	92	30.07	3	7	ESE
Tue Feb  2 12:18:08 2010	Portland	41 5 	Cloudy	93	29.9	10	14	E
Tue Feb  2 12:18:09 2010	San Antonio	47 8 	Mist	100	30.05	0	3	NNE
Tue Feb  2 12:18:10 2010	Indianapolis	32 0 	Cloudy	86	30.08	10	0	CLM
Tue Feb  2 12:18:11 2010	Boston	24 -4 	Partly Cloudy	54	30.24	10	9	WNW
Tue Feb  2 12:18:12 2010	Jacksonville	57 14 	Rain	93	29.94	5	5	NNE
Tue Feb  2 12:18:13 2010	Columbus	28 -2 	Snow	80	30.14	1	0	CLM
Tue Feb  2 12:18:13 2010	Dallas	42 6 	Cloudy	85	30.15	7	3	N
Tue Feb  2 12:18:14 2010	Houston	48 9 	Rain	87	30.09	4	9	NE
Tue Feb  2 12:18:15 2010	Seattle	44 7 	Cloudy	88	29.86	10	7	N
Tue Feb  2 12:18:16 2010	Detroit	22 -6 	Cloudy	81	30.2	5	3	E
Tue Feb  2 12:18:16 2010	Milwaukee	23 -5 	Light Snow	100	30.08	2	0	CLM
Tue Feb  2 12:18:17 2010	Philadelphia	23 -5 	Clear	68	30.31	10	0	CLM
Tue Feb  2 13:01:05 2010	San Jose	46 8 	Mostly Cloudy	88	29.88	9	3	SSW
Tue Feb  2 13:01:06 2010	Charlotte	37 3 	Cloudy	60	30.11	10	9	ENE
Tue Feb  2 13:01:06 2010	San Diego	54 12 	Cloudy	86	29.88	7	0	CLM
Tue Feb  2 13:01:07 2010	Denver	19 -7 	Mostly Clear	73	30.03	10	9	S
Tue Feb  2 13:01:08 2010	Memphis	36 2 	Partly Cloudy	85	30.12	10	5	W
Tue Feb  2 13:01:09 2010	Los Angeles	49 9 		83	29.85	6	0	CLM
Tue Feb  2 13:01:10 2010	El Paso	42 6 		70	29.9	10	9	N
Tue Feb  2 13:01:10 2010	New York	28 -2 	Mostly Clear	44	30.27	10	9	NNW
Tue Feb  2 13:01:11 2010	Baltimore	22 -6 	Cloudy	77	30.24	9	0	CLM
Tue Feb  2 13:01:12 2010	Las Vegas	46 8 		60	29.88	10	3	WNW
Tue Feb  2 13:01:13 2010	Washington	28 -2 	Cloudy	71	30.24	10	6	NE
Tue Feb  2 13:01:14 2010	Austin	45 7 	Light Fog	100	30.11	2	6	NNE
Tue Feb  2 13:01:14 2010	San Francisco	48 9 	Cloudy	89	29.89	10	4	SE
Tue Feb  2 13:01:15 2010	Oklahoma City	33 1 	Light Fog	88	30.17	3	5	NW
Tue Feb  2 13:01:16 2010	Nashville	36 2 	Light Fog	93	30.09	2	0	CLM
Tue Feb  2 13:01:17 2010	Fort Worth	41 5 	Cloudy	85	30.14	7	5	N
Tue Feb  2 13:01:18 2010	Phoenix	54 12 	Cloudy	52	29.85	10	7	NE
Tue Feb  2 13:01:18 2010	Portland	41 5 	Mostly Cloudy	88	29.9	10	12	E
Tue Feb  2 13:01:19 2010	Chicago	28 -2 	Light Snow/Fog	86	30.06	2	6	E
Tue Feb  2 13:01:20 2010	San Antonio	48 9 	Mist	96	30.06	0	0	CLM
Tue Feb  2 13:01:21 2010	Boston	24 -4 	Partly Cloudy	54	30.24	10	9	WNW
Tue Feb  2 13:01:21 2010	Indianapolis	32 0 	Cloudy	86	30.07	10	3	E
Tue Feb  2 13:01:22 2010	Jacksonville	57 14 	Rain	93	29.94	4	3	WSW
Tue Feb  2 13:01:23 2010	Columbus	28 -2 	Light Snow/Fog	86	30.13	3	6	ENE
Tue Feb  2 13:01:24 2010	Dallas	42 6 	Cloudy	85	30.15	7	3	N
Tue Feb  2 13:01:25 2010	Houston	48 9 	Rain	93	30.09	4	8	NNE
Tue Feb  2 13:01:25 2010	Seattle	44 7 	Cloudy	88	29.86	10	7	N
Tue Feb  2 13:01:26 2010	Milwaukee	23 -5 	Light Snow	100	30.06	2	0	CLM
Tue Feb  2 13:01:27 2010	Detroit	22 -6 	Cloudy	81	30.2	5	3	E
Tue Feb  2 13:01:28 2010	Philadelphia	23 -5 	Mostly Clear	68	30.31	10	0	CLM
Tue Feb  2 13:44:47 2010	San Jose	46 8 	Cloudy	88	29.88	9	3	SE
Tue Feb  2 13:44:48 2010	Charlotte	37 3 	Light Rain	64	30.12	9	6	NE
Tue Feb  2 13:44:49 2010	San Diego	53 12 	Mostly Cloudy	85	29.86	7	5	N
Tue Feb  2 13:44:50 2010	Denver	22 -6 	Mostly Clear	62	30.02	10	10	S
Tue Feb  2 13:44:51 2010	Los Angeles	48 9 	Mostly Cloudy	81	29.88	8	0	CLM
Tue Feb  2 13:44:51 2010	Memphis	36 2 	Mostly Cloudy	89	30.12	9	0	CLM
Tue Feb  2 13:44:52 2010	El Paso	41 5 	Mostly Cloudy	73	29.91	10	8	N
Tue Feb  2 13:44:53 2010	New York	28 -2 	Clear	44	30.28	10	6	CLM
Tue Feb  2 13:44:54 2010	Baltimore	27 -3 	Cloudy	81	30.24	6	0	CLM
Tue Feb  2 13:44:54 2010	Las Vegas	46 8 		60	29.88	10	0	CLM
Tue Feb  2 13:44:55 2010	Washington	28 -2 	Cloudy	74	30.24	10	0	CLM
Tue Feb  2 13:44:56 2010	Austin	45 7 	Light Fog	100	30.12	2	7	NNE
Tue Feb  2 13:44:57 2010	San Francisco	48 9 	Cloudy	88	29.88	10	3	NNE
Tue Feb  2 13:44:58 2010	Nashville	34 1 	Light Fog	100	30.1	1	3	S
Tue Feb  2 13:44:58 2010	Oklahoma City	34 1 	Cloudy	81	30.19	9	8	NNW
Tue Feb  2 13:44:59 2010	Fort Worth	42 6 	Cloudy	82	30.15	8	6	N
Tue Feb  2 13:45:00 2010	Phoenix	53 12 	Clear	54	29.84	10	7	NE
Tue Feb  2 13:45:01 2010	Portland	41 5 	Cloudy	92	29.89	10	14	E
Tue Feb  2 13:45:02 2010	Chicago	28 -2 	Light Snow/Fog	86	30.05	3	9	ESE
Tue Feb  2 13:45:02 2010	San Antonio	48 9 	Mist	96	30.06	0	5	NNE
Tue Feb  2 13:45:03 2010	Indianapolis	32 0 	Cloudy	86	30.06	10	5	ESE
Tue Feb  2 13:45:04 2010	Boston	24 -4 	Partly Sunny	54	30.26	10	7	WNW
Tue Feb  2 13:45:05 2010	Jacksonville	58 14 	Rain	93	29.95	3	3	WNW
Tue Feb  2 13:45:06 2010	Columbus	28 -2 	Light Fog	88	30.14	3	3	ENE
Tue Feb  2 13:45:06 2010	Dallas	42 6 	Cloudy	82	30.16	7	3	NNW
Tue Feb  2 13:45:07 2010	Houston	48 9 	Rain	93	30.11	5	8	NE
Tue Feb  2 13:45:08 2010	Seattle	44 7 	Cloudy	88	29.86	10	7	N
Tue Feb  2 13:45:09 2010	Milwaukee	28 -2 	Light Snow	92	30.05	2	3	SSE
Tue Feb  2 13:45:10 2010	Detroit	23 -5 	Cloudy	77	30.18	6	0	CLM
Tue Feb  2 13:45:10 2010	Philadelphia	21 -6 	Partly Cloudy	74	30.3	10	0	CLM
Tue Feb  2 14:28:56 2010	San Jose	45 7 	Mostly Cloudy	88	29.87	9	3	SE
Tue Feb  2 14:28:57 2010	Charlotte	35 2 	Rain	81	30.12	4	5	N
Tue Feb  2 14:28:58 2010	San Diego	52 11 	Clear	86	29.85	5	3	N
Tue Feb  2 14:28:59 2010	Denver	24 -4 	Mostly Clear	59	30.02	10	10	S
Tue Feb  2 14:29:00 2010	Los Angeles	50 10 	Cloudy	87	29.87	4	5	NNE
Tue Feb  2 14:29:00 2010	Memphis	37 3 	Cloudy	85	30.12	9	0	CLM
Tue Feb  2 14:29:01 2010	El Paso	41 5 		67	29.93	10	10	N
Tue Feb  2 14:29:02 2010	New York	28 -2 	Sunny	44	30.28	10	0	CLM
Tue Feb  2 14:29:03 2010	Baltimore	28 -2 	Cloudy	81	30.27	7	3	ENE
Tue Feb  2 14:29:04 2010	Las Vegas	45 7 		62	29.88	10	0	CLM
Tue Feb  2 14:29:04 2010	Washington	30 -1 	Cloudy	69	30.26	10	0	CLM
Tue Feb  2 14:29:05 2010	Austin	45 7 	Light Fog	100	30.14	2	7	NNE
Tue Feb  2 14:29:06 2010	San Francisco	48 9 	Cloudy	89	29.88	10	4	NNE
Tue Feb  2 14:29:07 2010	Oklahoma City	34 1 	Cloudy	81	30.2	9	7	NNW
Tue Feb  2 14:29:08 2010	Fort Worth	42 6 	Cloudy	78	30.18	10	7	N
Tue Feb  2 14:29:08 2010	Nashville	36 2 	Mist	96	30.12	1	0	CLM
Tue Feb  2 14:29:09 2010	Phoenix	54 12 	Clear	50	29.84	10	6	NE
Tue Feb  2 14:29:10 2010	Portland	41 5 	Mostly Cloudy	88	29.88	10	15	E
Tue Feb  2 14:29:11 2010	Chicago	28 -2 	Light Snow/Fog	92	30.07	3	6	ESE
Tue Feb  2 14:29:12 2010	Indianapolis	32 0 	Cloudy	86	30.07	10	3	ESE
Tue Feb  2 14:29:12 2010	San Antonio	48 9 	Mist	96	30.09	0	5	NE
Tue Feb  2 14:29:13 2010	Boston	25 -4 	Partly Sunny	55	30.28	10	7	WNW
Tue Feb  2 14:29:14 2010	Jacksonville	57 14 	Rain	93	29.95	4	5	W
Tue Feb  2 14:29:15 2010	Columbus	29 -2 	Cloudy	85	30.14	8	0	CLM
Tue Feb  2 14:29:16 2010	Dallas	43 6 	Cloudy	76	30.19	7	8	N
Tue Feb  2 14:29:17 2010	Houston	49 9 	Cloudy	86	30.12	6	10	NE
Tue Feb  2 14:29:17 2010	Seattle	45 7 	Cloudy	87	29.86	10	9	SSE
Tue Feb  2 14:29:18 2010	Milwaukee	25 -4 	Snow	92	30.04	1	0	CLM
Tue Feb  2 14:29:19 2010	Detroit	23 -5 	Light Snow	80	30.18	3	3	ESE
Tue Feb  2 14:29:20 2010	Philadelphia	22 -6 	Sunny	77	30.3	10	0	CLM
Tue Feb  2 15:14:37 2010	San Jose	45 7 	Mostly Cloudy	88	29.87	9	3	WSW
Tue Feb  2 15:14:38 2010	Charlotte	35 2 	Rain	81	30.12	4	5	N
Tue Feb  2 15:14:38 2010	San Diego	52 11 	Mostly Clear	86	29.85	5	3	N
Tue Feb  2 15:14:39 2010	Denver	24 -4 	Mostly Clear	59	30.02	10	10	S
Tue Feb  2 15:14:40 2010	Memphis	37 3 	Cloudy	85	30.12	9	0	CLM
Tue Feb  2 15:14:41 2010	Los Angeles	48 9 	Partly Cloudy	93	29.87	4	5	NW
Tue Feb  2 15:14:42 2010	El Paso	41 5 		67	29.93	10	10	N
Tue Feb  2 15:14:42 2010	New York	28 -2 		44	30.28	10	0	CLM
Tue Feb  2 15:14:43 2010	Baltimore	28 -2 	Cloudy	81	30.27	7	3	ENE
Tue Feb  2 15:14:44 2010	Las Vegas	45 7 		62	29.88	10	0	CLM
Tue Feb  2 15:14:45 2010	Washington	30 -1 	Cloudy	69	30.26	10	0	CLM
Tue Feb  2 15:14:46 2010	Austin	45 7 	Light Fog	100	30.14	1	6	NE
Tue Feb  2 15:14:46 2010	San Francisco	47 8 		90	29.88	9	3	NNE
Tue Feb  2 15:14:47 2010	Oklahoma City	34 1 	Cloudy	81	30.2	9	7	NNW
Tue Feb  2 15:14:48 2010	Nashville	36 2 	Mist	96	30.12	1	0	CLM
Tue Feb  2 15:14:49 2010	Fort Worth	42 6 	Cloudy	78	30.18	10	7	N
Tue Feb  2 15:14:50 2010	Phoenix	54 12 	Cloudy	50	29.84	10	6	NE
Tue Feb  2 15:14:50 2010	Portland	41 5 	Mostly Cloudy	88	29.88	10	15	E
Tue Feb  2 15:14:51 2010	Chicago	28 -2 	Light Snow/Fog	92	30.04	1	7	ESE
Tue Feb  2 15:14:52 2010	San Antonio	48 9 	Mist	96	30.09	0	5	NE
Tue Feb  2 15:14:53 2010	Indianapolis	32 0 	Cloudy	86	30.06	7	3	ESE
Tue Feb  2 15:14:54 2010	Boston	25 -4 	Partly Sunny	55	30.28	10	7	WNW
Tue Feb  2 15:14:54 2010	Jacksonville	57 14 	Rain	93	29.95	4	5	W
Tue Feb  2 15:14:55 2010	Columbus	29 -2 	Cloudy	85	30.14	8	0	CLM
Tue Feb  2 15:14:56 2010	Dallas	43 6 	Cloudy	76	30.19	7	8	N
Tue Feb  2 15:14:57 2010	Houston	48 9 	Cloudy	87	30.13	5	9	NNE
Tue Feb  2 15:14:58 2010	Milwaukee	25 -4 	Snow	92	30.04	1	0	CLM
Tue Feb  2 15:14:58 2010	Seattle	45 7 	Cloudy	87	29.86	10	5	N
Tue Feb  2 15:14:59 2010	Detroit	23 -5 	Light Snow	80	30.18	3	3	ESE
Tue Feb  2 15:15:00 2010	Philadelphia	22 -6 		77	30.3	10	0	CLM
Tue Feb  2 15:59:59 2010	San Jose	47 8 		88	29.87	9	4	SSE
Tue Feb  2 16:00:00 2010	Charlotte	34 1 	Rain	86	30.12	2	14	N
Tue Feb  2 16:00:01 2010	San Diego	52 11 		86	29.85	5	3	N
Tue Feb  2 16:00:02 2010	Denver	25 -4 	Mostly Clear	60	30.01	10	13	SSW
Tue Feb  2 16:00:03 2010	Los Angeles	49 9 		86	29.84	5	3	NW
Tue Feb  2 16:00:03 2010	Memphis	39 4 	Mostly Cloudy	82	30.13	9	0	CLM
Tue Feb  2 16:00:04 2010	El Paso	41 5 		64	29.94	10	10	N
Tue Feb  2 16:00:05 2010	New York	29 -2 	Cloudy	45	30.29	10	3	N
Tue Feb  2 16:00:06 2010	Baltimore	29 -2 	Cloudy	81	30.26	6	5	ENE
Tue Feb  2 16:00:07 2010	Las Vegas	46 8 	Mostly Cloudy	60	29.89	10	0	CLM
Tue Feb  2 16:00:07 2010	Washington	30 -1 	Cloudy	78	30.26	10	6	ENE
Tue Feb  2 16:00:08 2010	Austin	45 7 	Light Fog	100	30.16	2	8	NNE
Tue Feb  2 16:00:09 2010	San Francisco	47 8 		89	29.88	9	2	NNE
Tue Feb  2 16:00:10 2010	Oklahoma City	34 1 	Cloudy	81	30.2	8	8	NNW
Tue Feb  2 16:00:11 2010	Fort Worth	42 6 	Cloudy	76	30.19	10	8	N
Tue Feb  2 16:00:11 2010	Nashville	36 2 	Mist	100	30.12	1	5	NW
Tue Feb  2 16:00:12 2010	Phoenix	53 12 	Mostly Cloudy	54	29.84	10	7	NNE
Tue Feb  2 16:00:13 2010	Portland	42 6 	Cloudy	85	29.88	10	16	E
Tue Feb  2 16:00:14 2010	Chicago	28 -2 	Light Snow/Fog	86	30.04	3	8	SE
Tue Feb  2 16:00:14 2010	San Antonio	48 9 	Mist	96	30.1	1	8	NE
Tue Feb  2 16:00:15 2010	Indianapolis	32 0 	Cloudy	86	30.06	7	6	ESE
Tue Feb  2 16:00:16 2010	Boston	26 -3 	Partly Sunny	52	30.29	10	7	NW
Tue Feb  2 16:00:17 2010	Jacksonville	57 14 	Rain	93	29.97	5	5	W
Tue Feb  2 16:00:18 2010	Columbus	30 -1 	Cloudy	74	30.12	10	7	E
Tue Feb  2 16:00:18 2010	Dallas	42 6 	Cloudy	78	30.2	9	9	N
Tue Feb  2 16:00:19 2010	Houston	50 10 	Cloudy	82	30.15	5	8	NNE
Tue Feb  2 16:00:20 2010	Seattle	45 7 	Cloudy	81	29.87	10	8	SSE
Tue Feb  2 16:00:21 2010	Milwaukee	25 -4 	Snow	100	30.04	1	0	CLM
Tue Feb  2 16:00:22 2010	Detroit	24 -4 	Light Snow	80	30.18	4	2	E
Tue Feb  2 16:00:22 2010	Philadelphia	27 -3 	Cloudy	58	30.3	10	9	NE
Tue Feb  2 16:53:06 2010	San Jose	46 8 		93	29.88	8	0	CLM
Tue Feb  2 16:53:07 2010	Charlotte	34 1 	Rain	92	30.13	2	10	N
Tue Feb  2 16:53:08 2010	Denver	27 -3 	Mostly Sunny	60	30.02	10	10	S
Tue Feb  2 16:53:08 2010	San Diego	51 11 	Mostly Sunny	85	29.84	4	5	N
Tue Feb  2 16:53:09 2010	Memphis	39 4 	Cloudy	82	30.15	8	5	W
Tue Feb  2 16:53:10 2010	Los Angeles	48 9 	Light Fog	87	29.87	3	0	CLM
Tue Feb  2 16:53:11 2010	El Paso	44 7 	Partly Sunny	55	29.95	10	10	N
Tue Feb  2 16:53:12 2010	Baltimore	31 -1 	Cloudy	82	30.23	6	8	ENE
Tue Feb  2 16:53:12 2010	New York	29 -2 	Sunny	46	30.28	10	0	CLM
Tue Feb  2 16:53:13 2010	Las Vegas	47 8 	Mostly Cloudy	53	29.9	10	0	CLM
Tue Feb  2 16:53:14 2010	Washington	33 1 	Cloudy	69	30.23	9	5	NNE
Tue Feb  2 16:53:15 2010	Austin	46 8 	Light Fog	100	30.18	2	8	NNE
Tue Feb  2 16:53:16 2010	Oklahoma City	34 1 	Cloudy	81	30.23	7	6	NNW
Tue Feb  2 16:53:16 2010	San Francisco	47 8 	Mostly Cloudy	89	29.88	9	2	E
Tue Feb  2 16:53:17 2010	Nashville	37 3 		96	30.14	1	3	NNW
Tue Feb  2 16:53:18 2010	Fort Worth	42 6 	Cloudy	72	30.21	10	13	N
Tue Feb  2 16:53:19 2010	Phoenix	53 12 	Sunny	52	29.85	10	6	NNE
Tue Feb  2 16:53:20 2010	Chicago	29 -2 	Light Snow	85	30.07	3	8	SE
Tue Feb  2 16:53:20 2010	Portland	41 5 	Partly Cloudy	88	29.87	10	15	E
Tue Feb  2 16:53:21 2010	San Antonio	48 9 	Light Fog	93	30.15	1	7	NE
Tue Feb  2 16:53:22 2010	Indianapolis	34 1 	Cloudy	80	30.05	10	5	SE
Tue Feb  2 16:53:23 2010	Boston	28 -2 	Partly Sunny	42	30.28	10	13	NNW
Tue Feb  2 16:53:23 2010	Jacksonville	57 14 		93	29.97	3	0	CLM
Tue Feb  2 16:53:24 2010	Columbus	32 0 	Cloudy	66	30.12	10	3	ESE
Tue Feb  2 16:53:25 2010	Dallas	43 6 	Cloudy	70	30.23	10	9	N
Tue Feb  2 16:53:26 2010	Houston	50 10 	Cloudy	86	30.16	6	12	NNE
Tue Feb  2 16:53:27 2010	Milwaukee	27 -3 	Snow	92	30.03	2	0	CLM
Tue Feb  2 16:53:27 2010	Seattle	44 7 	Cloudy	85	29.87	10	7	N
Tue Feb  2 16:53:28 2010	Detroit	26 -3 	Light Snow	77	30.16	3	6	ESE
Tue Feb  2 16:53:29 2010	Philadelphia	30 -1 	Partly Sunny	47	30.3	10	8	ENE
Tue Feb  2 17:41:01 2010	San Jose	48 9 	Cloudy	93	29.88	10	0	CLM
Tue Feb  2 17:41:02 2010	Charlotte	36 2 	Rain	93	30.09	1	12	N
Tue Feb  2 17:41:02 2010	San Diego	51 11 	Mostly Sunny	85	29.84	4	0	CLM
Tue Feb  2 17:41:03 2010	Denver	34 1 	Mostly Sunny	43	30	10	15	SW
Tue Feb  2 17:41:04 2010	Memphis	41 5 	Cloudy	75	30.15	9	3	W
Tue Feb  2 17:41:05 2010	Los Angeles	49 9 	Partly Sunny	86	29.84	4	0	CLM
Tue Feb  2 17:41:06 2010	El Paso	49 9 	Mostly Sunny	45	29.96	10	10	N
Tue Feb  2 17:41:06 2010	New York	31 -1 	Mostly Cloudy	43	30.27	10	9	ESE
Tue Feb  2 17:41:07 2010	Baltimore	33 1 	Cloudy	78	30.22	8	8	ENE
Tue Feb  2 17:41:08 2010	Las Vegas	48 9 		51	29.9	10	0	CLM
Tue Feb  2 17:41:09 2010	Washington	35 2 	Cloudy	61	30.22	10	0	CLM
Tue Feb  2 17:41:10 2010	Austin	48 9 	Light Fog	93	30.2	3	9	NE
Tue Feb  2 17:41:10 2010	San Francisco	48 9 	Cloudy	87	29.89	9	2	ENE
Tue Feb  2 17:41:11 2010	Oklahoma City	34 1 	Cloudy	81	30.25	7	0	CLM
Tue Feb  2 17:41:12 2010	Nashville	37 3 	Dense Fog	100	30.14	0	0	CLM
Tue Feb  2 17:41:13 2010	Fort Worth	43 6 	Cloudy	67	30.23	10	8	N
Tue Feb  2 17:41:14 2010	Phoenix	55 13 	Mostly Cloudy	50	29.85	10	5	NNE
Tue Feb  2 17:41:14 2010	Portland	41 5 	Partly Sunny	85	29.88	10	17	E
Tue Feb  2 17:41:15 2010	Chicago	29 -2 	Light Snow/Fog	88	30.07	1	5	S
Tue Feb  2 17:41:16 2010	San Antonio	48 9 	Mist	96	30.15	1	9	NNE
Tue Feb  2 17:41:17 2010	Indianapolis	36 2 	Cloudy	69	30.04	10	7	SSE
Tue Feb  2 17:41:18 2010	Boston	29 -2 		41	30.27	10	6	N
Tue Feb  2 17:41:18 2010	Jacksonville	57 14 	Cloudy	93	29.96	5	0	CLM
Tue Feb  2 17:41:19 2010	Columbus	34 1 	Cloudy	58	30.11	10	3	N
Tue Feb  2 17:41:20 2010	Dallas	43 6 	Cloudy	70	30.24	10	8	N
Tue Feb  2 17:41:21 2010	Houston	51 11 	Cloudy	82	30.18	8	12	NE
Tue Feb  2 17:41:22 2010	Milwaukee	27 -3 	Snow	100	30.02	1	0	CLM
Tue Feb  2 17:41:22 2010	Seattle	44 7 	Cloudy	85	29.88	10	0	CLM
Tue Feb  2 17:41:23 2010	Detroit	27 -3 	Light Snow	78	30.15	3	6	ESE
Tue Feb  2 17:41:24 2010	Philadelphia	32 0 	Partly Sunny	41	30.28	10	8	E
Tue Feb  2 18:25:10 2010	San Jose	48 9 	Rain	93	29.89	5	0	CLM
Tue Feb  2 18:25:11 2010	Charlotte	35 2 	Rain	92	30.08	2	10	NNE
Tue Feb  2 18:25:12 2010	San Diego	55 13 	Mostly Sunny	86	29.84	4	0	CLM
Tue Feb  2 18:25:13 2010	Denver	38 3 	Mostly Sunny	32	29.97	10	12	WSW
Tue Feb  2 18:25:14 2010	Los Angeles	51 11 	Light Fog	85	29.84	3	3	WNW
Tue Feb  2 18:25:14 2010	Memphis	44 7 	Cloudy	70	30.17	10	7	NW
Tue Feb  2 18:25:15 2010	El Paso	52 11 	Partly Sunny	44	29.96	10	6	N
Tue Feb  2 18:25:16 2010	New York	32 0 	Mostly Cloudy	43	30.24	10	5	N
Tue Feb  2 18:25:17 2010	Baltimore	33 1 	Cloudy	78	30.2	9	6	ENE
Tue Feb  2 18:25:18 2010	Las Vegas	50 10 		46	29.9	10	0	CLM
Tue Feb  2 18:25:18 2010	Washington	36 2 	Cloudy	54	30.21	10	0	CLM
Tue Feb  2 18:25:19 2010	Austin	48 9 	Light Fog	93	30.22	2	8	NNE
Tue Feb  2 18:25:20 2010	San Francisco	48 9 	Mostly Cloudy	87	29.9	9	2	ENE
Tue Feb  2 18:25:21 2010	Oklahoma City	35 2 	Cloudy	81	30.26	7	0	CLM
Tue Feb  2 18:25:22 2010	Fort Worth	43 6 	Cloudy	70	30.23	10	9	N
Tue Feb  2 18:25:22 2010	Nashville	38 3 	Foggy	96	30.11	1	0	CLM
Tue Feb  2 18:25:23 2010	Phoenix	60 16 	Partly Sunny	40	29.85	10	3	N
Tue Feb  2 18:25:24 2010	Portland	42 6 	Sunny	85	29.87	10	18	E
Tue Feb  2 18:25:25 2010	Chicago	30 -1 	Light Snow/Fog	88	30.06	3	0	CLM
Tue Feb  2 18:25:26 2010	Indianapolis	36 2 	Cloudy	69	30.03	10	7	S
Tue Feb  2 18:25:26 2010	San Antonio	49 9 	Light Fog	96	30.15	1	7	NE
Tue Feb  2 18:25:27 2010	Boston	29 -2 	Cloudy	41	30.24	10	5	N
Tue Feb  2 18:25:28 2010	Jacksonville	58 14 	Cloudy	90	29.96	4	7	N
Tue Feb  2 18:25:29 2010	Columbus	35 2 	Cloudy	53	30.09	10	5	E
Tue Feb  2 18:25:30 2010	Dallas	45 7 	Cloudy	65	30.24	10	9	N
Tue Feb  2 18:25:30 2010	Houston	53 12 	Light Rain	76	30.2	8	3	ENE
Tue Feb  2 18:25:31 2010	Seattle	45 7 	Partly Sunny	82	29.89	10	5	N
Tue Feb  2 18:25:32 2010	Milwaukee	28 -2 	Light Snow	86	30.01	2	6	S
Tue Feb  2 18:25:33 2010	Detroit	29 -2 	Light Snow	78	30.12	2	6	ESE
Tue Feb  2 18:25:34 2010	Philadelphia	33 1 	Mostly Cloudy	41	30.25	10	9	ESE
Tue Feb  2 19:13:32 2010	San Jose	48 9 	Rain	93	29.89	5	0	CLM
Tue Feb  2 19:13:33 2010	Charlotte	36 2 	Light Fog	93	30.04	2	12	N
Tue Feb  2 19:13:33 2010	San Diego	55 13 	Mostly Sunny	86	29.84	4	0	CLM
Tue Feb  2 19:13:34 2010	Denver	38 3 	Mostly Sunny	32	29.97	10	12	WSW
Tue Feb  2 19:13:35 2010	Memphis	44 7 	Cloudy	70	30.17	10	7	NW
Tue Feb  2 19:13:36 2010	Los Angeles	51 11 	Light Fog	85	29.84	3	3	WNW
Tue Feb  2 19:13:37 2010	El Paso	52 11 	Partly Sunny	44	29.96	10	6	N
Tue Feb  2 19:13:37 2010	New York	32 0 	Cloudy	43	30.24	10	5	N
Tue Feb  2 19:13:38 2010	Baltimore	33 1 	Cloudy	78	30.2	9	6	ENE
Tue Feb  2 19:13:39 2010	Las Vegas	50 10 		46	29.9	10	0	CLM
Tue Feb  2 19:13:40 2010	Austin	46 8 	Light Fog	100	30.2	1	9	NE
Tue Feb  2 19:13:40 2010	Washington	36 2 	Cloudy	54	30.21	10	0	CLM
Tue Feb  2 19:13:41 2010	San Francisco	49 9 	Mostly Cloudy	81	29.9	9	2	E
Tue Feb  2 19:13:42 2010	Oklahoma City	35 2 	Cloudy	81	30.26	7	0	CLM
Tue Feb  2 19:13:43 2010	Nashville	39 4 	Foggy	93	30.09	1	0	CLM
Tue Feb  2 19:13:44 2010	Fort Worth	43 6 	Cloudy	70	30.23	10	9	N
Tue Feb  2 19:13:44 2010	Phoenix	60 16 	Mostly Cloudy	40	29.85	10	3	N
Tue Feb  2 19:13:45 2010	Portland	42 6 	Mostly Sunny	85	29.87	10	18	E
Tue Feb  2 19:13:46 2010	Chicago	30 -1 	Light Snow/Fog	86	30.01	3	3	S
Tue Feb  2 19:13:47 2010	San Antonio	50 10 	Light Fog	93	30.17	2	8	NE
Tue Feb  2 19:13:48 2010	Boston	29 -2 	Cloudy	41	30.24	10	5	N
Tue Feb  2 19:13:48 2010	Indianapolis	36 2 	Cloudy	69	30	10	7	SSW
Tue Feb  2 19:13:49 2010	Jacksonville	59 15 	Mostly Cloudy	87	29.93	6	7	WNW
Tue Feb  2 19:13:50 2010	Columbus	35 2 	Cloudy	53	30.09	10	5	E
Tue Feb  2 19:13:51 2010	Dallas	45 7 	Mostly Cloudy	65	30.24	10	8	NNW
Tue Feb  2 19:13:52 2010	Houston	53 12 	Light Rain	76	30.2	8	3	ENE
Tue Feb  2 19:13:52 2010	Seattle	45 7 		82	29.89	10	5	N
Tue Feb  2 19:13:53 2010	Milwaukee	28 -2 	Light Snow	86	30.01	2	6	S
Tue Feb  2 19:13:54 2010	Detroit	29 -2 	Light Snow	78	30.12	2	6	ESE
Tue Feb  2 19:13:55 2010	Philadelphia	33 1 	Cloudy	41	30.25	10	9	ESE
Tue Feb  2 20:05:15 2010	Charlotte	36 2 	Rain	93	30	3	8	N
Tue Feb  2 20:05:15 2010	San Jose	48 9 	Rain	93	29.91	5	0	CLM
Tue Feb  2 20:05:16 2010	San Diego	58 14 	Cloudy	74	29.85	6	3	N
Tue Feb  2 20:05:17 2010	Denver	42 6 	Mostly Sunny	25	29.99	10	3	WSW
Tue Feb  2 20:05:18 2010	Memphis	45 7 	Cloudy	68	30.16	10	9	WNW
Tue Feb  2 20:05:19 2010	El Paso	55 13 	Partly Sunny	39	29.94	10	7	NNE
Tue Feb  2 20:05:19 2010	Los Angeles	55 13 		71	29.84	4	3	N
Tue Feb  2 20:05:20 2010	New York	33 1 	Cloudy	36	30.22	10	7	SSE
Tue Feb  2 20:05:21 2010	Baltimore	34 1 	Cloudy	75	30.18	9	5	ENE
Tue Feb  2 20:05:22 2010	Las Vegas	53 12 		36	29.9	10	9	NE
Tue Feb  2 20:05:23 2010	Austin	48 9 	Light Fog	93	30.17	1	14	NNE
Tue Feb  2 20:05:23 2010	Washington	37 3 	Cloudy	54	30.18	10	0	CLM
Tue Feb  2 20:05:24 2010	San Francisco	51 11 	Cloudy	81	29.9	9	4	E
Tue Feb  2 20:05:25 2010	Oklahoma City	35 2 	Cloudy	81	30.25	6	3	WNW
Tue Feb  2 20:05:26 2010	Fort Worth	45 7 		65	30.23	10	6	CLM
Tue Feb  2 20:05:26 2010	Nashville	43 6 	Mostly Cloudy	81	30.07	7	7	WNW
Tue Feb  2 20:05:27 2010	Phoenix	61 16 	Mostly Cloudy	42	29.85	10	5	SW
Tue Feb  2 20:05:28 2010	Portland	46 8 		75	29.86	1	15	E
Tue Feb  2 20:05:29 2010	Chicago	31 -1 	Cloudy	78	30.03	5	6	SSW
Tue Feb  2 20:05:30 2010	Indianapolis	36 2 	Cloudy	69	29.99	10	6	SW
Tue Feb  2 20:05:30 2010	San Antonio	51 11 	Light Fog	92	30.11	2	9	NE
Tue Feb  2 20:05:31 2010	Boston	30 -1 	Cloudy	39	30.22	10	0	CLM
Tue Feb  2 20:05:32 2010	Jacksonville	59 15 	Cloudy	87	29.92	10	7	W
Tue Feb  2 20:05:33 2010	Columbus	38 3 	Cloudy	50	30.05	10	6	E
Tue Feb  2 20:05:34 2010	Dallas	46 8 	Mostly Cloudy	62	30.24	10	5	N
Tue Feb  2 20:05:34 2010	Houston	54 12 	Light Rain	76	30.15	7	8	ENE
Tue Feb  2 20:05:35 2010	Seattle	45 7 	Cloudy	82	29.89	10	7	SSE
Tue Feb  2 20:05:36 2010	Milwaukee	28 -2 	Light Snow	86	30	2	6	S
Tue Feb  2 20:05:37 2010	Detroit	30 -1 	Light Snow	80	30.04	2	3	N
Tue Feb  2 20:05:38 2010	Philadelphia	33 1 	Cloudy	43	30.24	10	5	SE
Tue Feb  2 20:52:14 2010	San Jose	52 11 	Cloudy	87	29.89	7	0	CLM
Tue Feb  2 20:52:15 2010	Charlotte	36 2 	Rain	93	29.99	2	9	N
Tue Feb  2 20:52:16 2010	Denver	45 7 	Mostly Sunny	22	29.94	10	7	NW
Tue Feb  2 20:52:16 2010	San Diego	61 16 		64	29.84	10	6	WSW
Tue Feb  2 20:52:17 2010	Memphis	45 7 	Cloudy	65	30.16	10	12	NNW
Tue Feb  2 20:52:18 2010	Los Angeles	58 14 	Partly Sunny	64	29.82	5	0	CLM
Tue Feb  2 20:52:19 2010	El Paso	59 15 	Partly Sunny	33	29.89	10	9	NNE
Tue Feb  2 20:52:20 2010	Baltimore	35 2 	Cloudy	72	30.16	9	8	ENE
Tue Feb  2 20:52:20 2010	New York	33 1 	Cloudy	39	30.2	10	8	SSE
Tue Feb  2 20:52:21 2010	Las Vegas	55 13 		35	29.88	10	14	NE
Tue Feb  2 20:52:22 2010	Washington	40 4 	Cloudy	46	30.15	10	0	CLM
Tue Feb  2 20:52:23 2010	Austin	49 9 	Cloudy	86	30.15	4	8	NNE
Tue Feb  2 20:52:24 2010	Oklahoma City	37 3 	Cloudy	78	30.23	6	0	CLM
Tue Feb  2 20:52:24 2010	San Francisco	52 11 	Mostly Cloudy	77	29.89	9	4	ENE
Tue Feb  2 20:52:25 2010	Nashville	44 7 	Mostly Cloudy	73	30.07	7	5	N
Tue Feb  2 20:52:26 2010	Fort Worth	47 8 		60	30.22	10	7	NNE
Tue Feb  2 20:52:27 2010	Phoenix	64 18 	Sunny	35	29.81	10	0	CLM
Tue Feb  2 20:52:27 2010	Portland	46 8 	Sunny	76	29.85	10	17	E
Tue Feb  2 20:52:28 2010	Chicago	32 0 	Cloudy	69	30.01	5	6	SW
Tue Feb  2 20:52:29 2010	San Antonio	52 11 	Cloudy	89	30.09	5	10	NE
Tue Feb  2 20:52:30 2010	Indianapolis	36 2 	Cloudy	69	29.98	10	7	WSW
Tue Feb  2 20:52:31 2010	Boston	30 -1 	Cloudy	43	30.2	10	7	S
Tue Feb  2 20:52:31 2010	Jacksonville	60 16 	Cloudy	83	29.91	10	7	W
Tue Feb  2 20:52:32 2010	Columbus	41 5 	Cloudy	44	30.01	10	0	CLM
Tue Feb  2 20:52:33 2010	Dallas	48 9 		58	30.23	10	6	N
Tue Feb  2 20:52:34 2010	Houston	54 12 	Rain	81	30.13	3	8	N
Tue Feb  2 20:52:35 2010	Milwaukee	28 -2 	Cloudy	86	29.98	7	6	S
Tue Feb  2 20:52:35 2010	Seattle	47 8 	Sunny	76	29.89	10	3	N
Tue Feb  2 20:52:36 2010	Detroit	30 -1 	Snow	86	30.03	1	6	SE
Tue Feb  2 20:52:37 2010	Philadelphia	34 1 	Cloudy	45	30.21	10	3	E
Tue Feb  2 21:39:06 2010	San Jose	54 12 	Cloudy	81	29.87	8	0	CLM
Tue Feb  2 21:39:07 2010	Charlotte	36 2 	Mist	96	29.99	2	9	N
Tue Feb  2 21:39:08 2010	San Diego	63 17 	Mostly Sunny	57	29.81	10	3	N
Tue Feb  2 21:39:09 2010	Denver	45 7 	Mostly Sunny	26	29.91	10	8	N
Tue Feb  2 21:39:09 2010	Memphis	45 7 	Cloudy	62	30.15	10	8	WNW
Tue Feb  2 21:39:10 2010	Los Angeles	61 16 	Sunny	51	29.79	8	5	SSE
Tue Feb  2 21:39:11 2010	El Paso	61 16 	Partly Sunny	30	29.84	10	12	ESE
Tue Feb  2 21:39:12 2010	New York	33 1 	Mostly Cloudy	47	30.21	10	6	N
Tue Feb  2 21:39:13 2010	Baltimore	36 2 	Cloudy	64	30.13	10	6	E
Tue Feb  2 21:39:14 2010	Las Vegas	56 13 		35	29.84	10	6	N
Tue Feb  2 21:39:14 2010	Washington	41 5 	Cloudy	44	30.13	10	0	CLM
Tue Feb  2 21:39:15 2010	Austin	50 10 	Light Fog	93	30.13	3	13	NE
Tue Feb  2 21:39:16 2010	San Francisco	52 11 	Cloudy	78	29.87	10	5	ENE
Tue Feb  2 21:39:17 2010	Oklahoma City	35 2 	Cloudy	81	30.22	5	5	SSW
Tue Feb  2 21:39:18 2010	Nashville	45 7 	Mostly Cloudy	68	30.07	8	5	W
Tue Feb  2 21:39:19 2010	Fort Worth	50 10 		53	30.19	10	6	NNE
Tue Feb  2 21:39:20 2010	Phoenix	68 20 	Sunny	29	29.77	10	0	CLM
Tue Feb  2 21:39:20 2010	Portland	48 9 	Sunny	70	29.83	10	18	E
Tue Feb  2 21:39:21 2010	Chicago	32 0 	Cloudy	72	30	6	8	WSW
Tue Feb  2 21:39:22 2010	San Antonio	53 12 	Cloudy	85	30.07	6	9	NNE
Tue Feb  2 21:39:23 2010	Indianapolis	36 2 	Cloudy	69	29.98	10	7	SW
Tue Feb  2 21:39:24 2010	Boston	30 -1 		44	30.2	10	7	SE
Tue Feb  2 21:39:25 2010	Columbus	42 6 	Cloudy	39	29.99	10	6	SE
Tue Feb  2 21:39:25 2010	Jacksonville	61 16 	Cloudy	75	29.91	10	9	WNW
Tue Feb  2 21:39:26 2010	Dallas	49 9 	Mostly Sunny	56	30.19	10	7	N
Tue Feb  2 21:39:27 2010	Houston	55 13 	Cloudy	83	30.12	7	9	NNE
Tue Feb  2 21:39:28 2010	Seattle	49 9 	Sunny	68	29.88	10	7	SSE
Tue Feb  2 21:39:29 2010	Milwaukee	28 -2 	Light Snow	86	29.96	3	0	CLM
Tue Feb  2 21:39:30 2010	Detroit	30 -1 	Light Snow/Fog	85	30.05	1	5	SE
Tue Feb  2 21:39:31 2010	Philadelphia	35 2 	Mostly Cloudy	43	30.21	10	3	E
Tue Feb  2 22:24:55 2010	San Jose	54 12 	Cloudy	80	29.83	8	0	CLM
Tue Feb  2 22:24:56 2010	Charlotte	37 3 	Mist	92	29.99	2	10	N
Tue Feb  2 22:24:57 2010	San Diego	63 17 	Mostly Sunny	57	29.79	9	5	WNW
Tue Feb  2 22:24:58 2010	Denver	47 8 	Partly Sunny	25	29.89	10	8	N
Tue Feb  2 22:24:59 2010	Los Angeles	63 17 	Sunny	46	29.77	8	7	S
Tue Feb  2 22:24:59 2010	Memphis	44 7 	Cloudy	65	30.15	10	10	NW
Tue Feb  2 22:25:00 2010	El Paso	62 17 	Partly Sunny	29	29.82	10	10	E
Tue Feb  2 22:25:01 2010	New York	33 1 	Mostly Cloudy	47	30.21	10	5	S
Tue Feb  2 22:25:02 2010	Baltimore	35 2 	Cloudy	69	30.13	8	7	ENE
Tue Feb  2 22:25:03 2010	Las Vegas	58 14 		34	29.81	10	5	E
Tue Feb  2 22:25:03 2010	Washington	40 4 	Cloudy	48	30.13	10	8	ESE
Tue Feb  2 22:25:04 2010	Austin	50 10 	Cloudy	87	30.11	6	14	NE
Tue Feb  2 22:25:05 2010	San Francisco	55 13 	Cloudy	75	29.84	9	3	ENE
Tue Feb  2 22:25:06 2010	Nashville	46 8 	Mostly Cloudy	57	30.07	10	7	WNW
Tue Feb  2 22:25:06 2010	Oklahoma City	35 2 	Cloudy	84	30.21	5	0	CLM
Tue Feb  2 22:25:07 2010	Fort Worth	50 10 		56	30.18	10	9	NE
Tue Feb  2 22:25:08 2010	Phoenix	68 20 	Mostly Cloudy	29	29.75	10	3	N
Tue Feb  2 22:25:09 2010	Portland	50 10 	Sunny	68	29.79	10	22	E
Tue Feb  2 22:25:10 2010	Chicago	32 0 	Cloudy	74	29.98	6	8	W
Tue Feb  2 22:25:10 2010	San Antonio	53 12 	Cloudy	85	30.07	6	9	ENE
Tue Feb  2 22:25:11 2010	Indianapolis	36 2 	Cloudy	69	29.98	10	6	WSW
Tue Feb  2 22:25:12 2010	Boston	30 -1 	Cloudy	44	30.21	10	6	S
Tue Feb  2 22:25:13 2010	Jacksonville	59 15 	Cloudy	77	29.92	10	9	WNW
Tue Feb  2 22:25:14 2010	Columbus	42 6 	Cloudy	39	29.97	10	6	SSE
Tue Feb  2 22:25:14 2010	Dallas	50 10 	Mostly Sunny	56	30.19	10	0	CLM
Tue Feb  2 22:25:15 2010	Houston	57 14 	Cloudy	77	30.13	10	10	NE
Tue Feb  2 22:25:16 2010	Seattle	50 10 	Sunny	65	29.86	10	6	SSE
Tue Feb  2 22:25:17 2010	Milwaukee	28 -2 	Light Snow	86	29.96	3	0	CLM
Tue Feb  2 22:25:18 2010	Detroit	30 -1 	Light Snow/Fog	86	30.02	1	0	CLM
Tue Feb  2 22:25:18 2010	Philadelphia	35 2 	Cloudy	47	30.19	10	6	E
Tue Feb  2 23:09:56 2010	San Jose	58 14 	Mostly Cloudy	69	29.83	9	3	SSW
Tue Feb  2 23:09:57 2010	Charlotte	37 3 	Rain	93	30	1	8	N
Tue Feb  2 23:09:58 2010	San Diego	63 17 		57	29.79	9	5	WNW
Tue Feb  2 23:09:59 2010	Denver	47 8 	Partly Sunny	25	29.89	10	8	N
Tue Feb  2 23:10:00 2010	Los Angeles	63 17 	Cloudy	46	29.77	8	7	S
Tue Feb  2 23:10:00 2010	Memphis	44 7 	Cloudy	65	30.15	10	10	NW
Tue Feb  2 23:10:01 2010	El Paso	62 17 	Partly Sunny	29	29.82	10	10	E
Tue Feb  2 23:10:02 2010	New York	33 1 	Cloudy	47	30.21	10	5	S
Tue Feb  2 23:10:03 2010	Baltimore	35 2 	Cloudy	69	30.13	8	7	ENE
Tue Feb  2 23:10:04 2010	Las Vegas	58 14 		34	29.81	10	5	E
Tue Feb  2 23:10:04 2010	Washington	40 4 	Cloudy	48	30.13	10	8	ESE
Tue Feb  2 23:10:05 2010	Austin	50 10 	Cloudy	87	30.13	5	10	NE
Tue Feb  2 23:10:06 2010	San Francisco	55 13 	Cloudy	72	29.84	10	3	N
Tue Feb  2 23:10:07 2010	Oklahoma City	35 2 	Cloudy	84	30.21	5	0	CLM
Tue Feb  2 23:10:08 2010	Fort Worth	50 10 		56	30.18	10	9	NE
Tue Feb  2 23:10:08 2010	Nashville	46 8 	Mostly Cloudy	57	30.07	10	7	WNW
Tue Feb  2 23:10:09 2010	Phoenix	68 20 	Cloudy	29	29.75	10	3	N
Tue Feb  2 23:10:10 2010	Portland	50 10 	Mostly Sunny	68	29.79	10	22	E
Tue Feb  2 23:10:11 2010	Chicago	32 0 	Cloudy	74	29.98	6	8	W
Tue Feb  2 23:10:12 2010	Indianapolis	36 2 	Cloudy	69	29.99	10	9	W
Tue Feb  2 23:10:12 2010	San Antonio	53 12 	Cloudy	85	30.07	6	9	ENE
Tue Feb  2 23:10:13 2010	Boston	30 -1 	Cloudy	44	30.21	10	6	S
Tue Feb  2 23:10:14 2010	Jacksonville	59 15 	Cloudy	77	29.92	10	9	WNW
Tue Feb  2 23:10:15 2010	Columbus	42 6 	Cloudy	39	29.97	10	6	SSE
Tue Feb  2 23:10:15 2010	Dallas	50 10 	Mostly Sunny	56	30.19	10	0	CLM
Tue Feb  2 23:10:16 2010	Houston	57 14 	Cloudy	77	30.13	10	10	NE
Tue Feb  2 23:10:17 2010	Seattle	50 10 	Mostly Sunny	65	29.86	10	6	SSE
Tue Feb  2 23:10:18 2010	Milwaukee	28 -2 	Light Snow	86	29.96	3	0	CLM
Tue Feb  2 23:10:19 2010	Detroit	30 -1 	Light Fog	86	30.02	2	5	SE
Tue Feb  2 23:10:19 2010	Philadelphia	35 2 	Cloudy	47	30.19	10	6	E
Tue Feb  2 23:55:07 2010	Charlotte	37 3 	Rain	92	30.01	2	8	N
Tue Feb  2 23:55:07 2010	San Jose	57 14 	Cloudy	71	29.81	8	6	NW
Tue Feb  2 23:55:08 2010	San Diego	63 17 	Sunny	55	29.78	10	9	SSW
Tue Feb  2 23:55:09 2010	Denver	48 9 	Partly Sunny	24	29.88	10	7	N
Tue Feb  2 23:55:10 2010	Memphis	43 6 	Cloudy	67	30.16	10	8	NNW
Tue Feb  2 23:55:11 2010	El Paso	63 17 		29	29.8	10	13	E
Tue Feb  2 23:55:11 2010	Los Angeles	63 17 	Mostly Cloudy	46	29.76	10	8	SSE
Tue Feb  2 23:55:12 2010	New York	33 1 	Mostly Cloudy	53	30.19	10	6	N
Tue Feb  2 23:55:13 2010	Baltimore	35 2 	Cloudy	69	30.13	8	7	E
Tue Feb  2 23:55:14 2010	Las Vegas	58 14 		34	29.8	10	7	ENE
Tue Feb  2 23:55:14 2010	Washington	38 3 	Cloudy	64	30.13	10	7	E
Tue Feb  2 23:55:15 2010	Austin	50 10 	Cloudy	87	30.15	5	7	ENE
Tue Feb  2 23:55:16 2010	San Francisco	54 12 	Cloudy	73	29.84	10	4	N
Tue Feb  2 23:55:17 2010	Oklahoma City	35 2 	Mostly Cloudy	81	30.2	5	0	CLM
Tue Feb  2 23:55:18 2010	Fort Worth	50 10 		53	30.17	10	9	NNE
Tue Feb  2 23:55:18 2010	Nashville	45 7 	Cloudy	57	30.09	10	6	WNW
Tue Feb  2 23:55:19 2010	Phoenix	69 21 	Sunny	29	29.73	10	8	S
Tue Feb  2 23:55:20 2010	Portland	50 10 	Sunny	65	29.77	10	23	E
Tue Feb  2 23:55:21 2010	Chicago	31 -1 	Light Snow	82	30.03	3	7	W
Tue Feb  2 23:55:22 2010	Indianapolis	34 1 	Cloudy	80	30	10	9	WSW
Tue Feb  2 23:55:22 2010	San Antonio	52 11 	Cloudy	89	30.08	6	9	ENE
Tue Feb  2 23:55:23 2010	Boston	29 -2 	Cloudy	53	30.22	10	10	SE
Tue Feb  2 23:55:24 2010	Jacksonville	58 14 	Cloudy	77	29.95	10	8	NNW
Tue Feb  2 23:55:25 2010	Columbus	41 5 	Cloudy	42	29.99	10	3	SSE
Tue Feb  2 23:55:26 2010	Dallas	51 11 		54	30.17	10	10	NNE
Tue Feb  2 23:55:26 2010	Houston	57 14 	Cloudy	77	30.13	10	9	NNE
Tue Feb  2 23:55:27 2010	Seattle	52 11 	Sunny	58	29.83	10	5	S
Tue Feb  2 23:55:28 2010	Milwaukee	30 -1 	Light Snow	80	29.97	4	0	CLM
Tue Feb  2 23:55:29 2010	Detroit	30 -1 	Light Snow/Fog	86	30.02	2	5	SE
Tue Feb  2 23:55:29 2010	Philadelphia	35 2 	Cloudy	49	30.18	10	6	E
Wed Feb  3 00:38:55 2010	San Jose	57 14 	Cloudy	71	29.82	8	7	N
Wed Feb  3 00:38:56 2010	Charlotte	37 3 	Rain	95	30	2	7	NE
Wed Feb  3 00:38:57 2010	Denver	45 7 		29	29.91	10	9	N
Wed Feb  3 00:38:57 2010	San Diego	61 16 	Sunny	66	29.78	10	8	W
Wed Feb  3 00:38:58 2010	Memphis	41 5 	Cloudy	70	30.18	10	8	NNW
Wed Feb  3 00:38:59 2010	Los Angeles	64 18 	Partly Sunny	42	29.76	10	6	SSE
Wed Feb  3 00:39:00 2010	El Paso	63 17 		31	29.78	10	9	ESE
Wed Feb  3 00:39:01 2010	Baltimore	34 1 	Light Snow	74	30.13	5	5	ENE
Wed Feb  3 00:39:01 2010	New York	33 1 	Cloudy	56	30.18	10	3	N
Wed Feb  3 00:39:02 2010	Las Vegas	59 15 		34	29.78	10	0	CLM
Wed Feb  3 00:39:03 2010	Washington	37 3 	Light Snow	69	30.12	10	9	NE
Wed Feb  3 00:39:04 2010	Austin	50 10 	Cloudy	87	30.15	5	7	NE
Wed Feb  3 00:39:04 2010	San Francisco	56 13 	Cloudy	74	29.85	9	2	NNW
Wed Feb  3 00:39:05 2010	Oklahoma City	35 2 	Cloudy	81	30.22	4	3	S
Wed Feb  3 00:39:06 2010	Nashville	44 7 	Cloudy	59	30.1	10	5	WNW
Wed Feb  3 00:39:07 2010	Fort Worth	49 9 		56	30.17	10	10	N
Wed Feb  3 00:39:08 2010	Phoenix	69 21 	Sunny	30	29.71	10	3	SSE
Wed Feb  3 00:39:08 2010	Portland	50 10 	Sunny	65	29.76	10	20	E
Wed Feb  3 00:39:09 2010	Chicago	31 -1 	Light Snow/Fog	85	30.03	3	6	W
Wed Feb  3 00:39:10 2010	San Antonio	51 11 	Mist	92	30.11	5	9	NE
Wed Feb  3 00:39:11 2010	Indianapolis	36 2 	Cloudy	70	30.02	7	5	W
Wed Feb  3 00:39:12 2010	Boston	29 -2 	Cloudy	46	30.22	10	8	SSW
Wed Feb  3 00:39:12 2010	Jacksonville	57 14 	Cloudy	77	29.97	10	7	NNW
Wed Feb  3 00:39:13 2010	Columbus	40 4 	Cloudy	42	30	10	3	SW
Wed Feb  3 00:39:14 2010	Dallas	50 10 		56	30.17	10	10	NNE
Wed Feb  3 00:39:15 2010	Houston	57 14 	Cloudy	74	30.15	10	9	NE
Wed Feb  3 00:39:16 2010	Milwaukee	28 -2 	Light Snow	92	29.98	3	0	CLM
Wed Feb  3 00:39:16 2010	Seattle	52 11 	Sunny	58	29.82	10	3	E
Wed Feb  3 00:39:17 2010	Detroit	28 -2 	Light Snow	91	30.02	2	3	SE
Wed Feb  3 00:39:18 2010	Philadelphia	34 1 	Cloudy	56	30.18	10	8	E
Wed Feb  3 01:25:58 2010	San Jose	59 15 	Cloudy	62	29.83	10	7	WNW
Wed Feb  3 01:25:59 2010	Charlotte	37 3 	Rain	93	29.99	2	3	N
Wed Feb  3 01:26:00 2010	San Diego	60 16 	Sunny	66	29.78	10	7	WNW
Wed Feb  3 01:26:01 2010	Denver	39 4 		40	29.93	10	7	N
Wed Feb  3 01:26:02 2010	Memphis	41 5 	Cloudy	70	30.2	10	5	NW
Wed Feb  3 01:26:03 2010	El Paso	61 16 	Mostly Cloudy	34	29.78	10	13	E
Wed Feb  3 01:26:03 2010	Los Angeles	63 17 	Sunny	44	29.75	10	7	SSW
Wed Feb  3 01:26:04 2010	New York	32 0 	Cloudy	60	30.17	10	7	N
Wed Feb  3 01:26:05 2010	Baltimore	33 1 	Light Snow	75	30.12	5	7	NE
Wed Feb  3 01:26:06 2010	Las Vegas	58 14 		35	29.78	10	5	NE
Wed Feb  3 01:26:07 2010	Austin	50 10 	Cloudy	87	30.17	5	3	ENE
Wed Feb  3 01:26:07 2010	Washington	34 1 	Light Snow	80	30.13	3	9	NE
Wed Feb  3 01:26:08 2010	San Francisco	56 13 	Mostly Cloudy	76	29.85	9	3	NNE
Wed Feb  3 01:26:09 2010	Oklahoma City	33 1 	Light Fog	84	30.21	3	7	S
Wed Feb  3 01:26:10 2010	Fort Worth	46 8 	Cloudy	65	30.16	10	10	NNE
Wed Feb  3 01:26:10 2010	Nashville	43 6 	Cloudy	62	30.12	10	5	WNW
Wed Feb  3 01:26:11 2010	Phoenix	69 21 	Sunny	30	29.71	10	7	SSE
Wed Feb  3 01:26:12 2010	Portland	49 9 	Sunny	68	29.76	10	18	E
Wed Feb  3 01:26:13 2010	Chicago	31 -1 	Light Snow/Fog	85	30.05	4	7	W
Wed Feb  3 01:26:14 2010	Indianapolis	32 0 	Cloudy	93	30.03	10	7	WSW
Wed Feb  3 01:26:14 2010	San Antonio	51 11 	Mist	89	30.11	3	10	NE
Wed Feb  3 01:26:15 2010	Boston	28 -2 		48	30.2	10	5	SSW
Wed Feb  3 01:26:16 2010	Jacksonville	56 13 	Cloudy	80	30	10	5	WNW
Wed Feb  3 01:26:17 2010	Columbus	41 5 	Cloudy	39	30	10	0	CLM
Wed Feb  3 01:26:18 2010	Dallas	49 9 		58	30.17	10	6	N
Wed Feb  3 01:26:18 2010	Houston	57 14 	Cloudy	74	30.17	10	7	NE
Wed Feb  3 01:26:19 2010	Seattle	51 11 	Sunny	65	29.81	10	3	WNW
Wed Feb  3 01:26:20 2010	Milwaukee	28 -2 	Light Snow	96	29.99	3	0	CLM
Wed Feb  3 01:26:21 2010	Detroit	29 -2 	Light Fog	88	30.05	2	0	CLM
Wed Feb  3 01:26:21 2010	Philadelphia	34 1 	Cloudy	58	30.18	10	6	ESE
Wed Feb  3 02:15:37 2010	San Jose	59 15 	Cloudy	62	29.83	10	7	WNW
Wed Feb  3 02:15:38 2010	Charlotte	37 3 	Rain	93	29.99	2	3	N
Wed Feb  3 02:15:39 2010	San Diego	60 16 	Cloudy	66	29.78	10	7	WNW
Wed Feb  3 02:15:40 2010	Denver	39 4 		40	29.93	10	7	N
Wed Feb  3 02:15:41 2010	Los Angeles	63 17 	Mostly Sunny	44	29.75	10	7	SSW
Wed Feb  3 02:15:41 2010	Memphis	41 5 	Cloudy	70	30.2	10	5	NW
Wed Feb  3 02:15:42 2010	El Paso	61 16 	Mostly Cloudy	34	29.78	10	13	E
Wed Feb  3 02:15:43 2010	New York	32 0 	Cloudy	60	30.17	10	7	N
Wed Feb  3 02:15:44 2010	Baltimore	32 0 	Light Snow	80	30.12	2	7	NE
Wed Feb  3 02:15:45 2010	Las Vegas	58 14 		35	29.78	10	5	NE
Wed Feb  3 02:15:45 2010	Washington	34 1 	Light Snow/Fog	80	30.12	2	7	NNE
Wed Feb  3 02:15:46 2010	Austin	50 10 	Cloudy	87	30.16	5	0	CLM
Wed Feb  3 02:15:47 2010	San Francisco	56 13 	Cloudy	75	29.85	9	3	E
Wed Feb  3 02:15:48 2010	Oklahoma City	34 1 	Light Fog	86	30.19	3	3	S
Wed Feb  3 02:15:49 2010	Fort Worth	46 8 	Cloudy	65	30.16	10	10	NNE
Wed Feb  3 02:15:49 2010	Nashville	43 6 	Cloudy	62	30.12	10	5	WNW
Wed Feb  3 02:15:50 2010	Phoenix	69 21 	Mostly Sunny	30	29.71	10	7	SSE
Wed Feb  3 02:15:51 2010	Portland	49 9 		68	29.76	10	18	E
Wed Feb  3 02:15:52 2010	Chicago	31 -1 	Light Snow/Fog	85	30.05	4	7	W
Wed Feb  3 02:15:52 2010	San Antonio	51 11 	Mist	89	30.11	3	10	NE
Wed Feb  3 02:15:53 2010	Indianapolis	32 0 	Cloudy	93	30.04	7	8	WSW
Wed Feb  3 02:15:54 2010	Boston	28 -2 		48	30.2	10	5	SSW
Wed Feb  3 02:15:55 2010	Jacksonville	56 13 	Cloudy	80	30	10	5	WNW
Wed Feb  3 02:15:56 2010	Columbus	41 5 	Cloudy	39	30	10	0	CLM
Wed Feb  3 02:15:56 2010	Dallas	49 9 	Cloudy	58	30.17	10	6	N
Wed Feb  3 02:15:57 2010	Houston	57 14 	Cloudy	74	30.17	10	7	NE
Wed Feb  3 02:15:58 2010	Seattle	51 11 	Mostly Sunny	65	29.81	10	3	WNW
Wed Feb  3 02:15:59 2010	Milwaukee	32 0 	Light Snow	82	29.99	4	5	W
Wed Feb  3 02:16:00 2010	Detroit	28 -2 	Light Snow/Fog	92	30.03	1	0	CLM
Wed Feb  3 02:16:00 2010	Philadelphia	34 1 	Cloudy	58	30.18	10	6	ESE
Wed Feb  3 03:02:42 2010	San Jose	57 14 	Cloudy	71	29.84	8	12	W
Wed Feb  3 03:02:43 2010	Charlotte	37 3 	Light Fog	93	30	2	5	N
Wed Feb  3 03:02:44 2010	Denver	36 2 		46	29.94	10	5	NNW
Wed Feb  3 03:02:44 2010	San Diego	58 14 		71	29.78	10	8	WNW
Wed Feb  3 03:02:46 2010	Los Angeles	63 17 	Partly Sunny	46	29.76	10	5	SSW
Wed Feb  3 03:02:46 2010	Memphis	39 4 	Cloudy	72	30.22	10	3	NW
Wed Feb  3 03:02:47 2010	El Paso	57 14 	Cloudy	41	29.8	10	10	ENE
Wed Feb  3 03:02:48 2010	New York	32 0 	Cloudy	63	30.17	9	8	SE
Wed Feb  3 03:02:49 2010	Baltimore	30 -1 	Snow/Fog	92	30.11	1	7	NE
Wed Feb  3 03:02:49 2010	Las Vegas	57 14 		38	29.78	10	5	E
Wed Feb  3 03:02:50 2010	Washington	34 1 	Light Snow/Fog	80	30.12	1	6	NNE
Wed Feb  3 03:02:51 2010	Austin	48 9 	Cloudy	93	30.16	5	0	CLM
Wed Feb  3 03:02:52 2010	San Francisco	55 13 	Cloudy	82	29.85	10	3	ESE
Wed Feb  3 03:02:53 2010	Nashville	42 6 	Cloudy	62	30.14	10	8	WNW
Wed Feb  3 03:02:53 2010	Oklahoma City	34 1 	Light Fog	86	30.22	3	5	SSE
Wed Feb  3 03:02:54 2010	Fort Worth	44 7 	Cloudy	67	30.2	10	6	N
Wed Feb  3 03:02:55 2010	Phoenix	67 19 	Mostly Sunny	33	29.71	10	6	SSE
Wed Feb  3 03:02:56 2010	Portland	46 8 	Partly Sunny	73	29.75	10	23	E
Wed Feb  3 03:02:57 2010	Chicago	32 0 	Light Snow	81	30.07	4	12	W
Wed Feb  3 03:02:57 2010	San Antonio	51 11 	Mist	89	30.1	3	8	ENE
Wed Feb  3 03:02:58 2010	Indianapolis	32 0 	Cloudy	93	30.06	7	9	W
Wed Feb  3 03:02:59 2010	Boston	26 -3 		55	30.2	10	6	S
Wed Feb  3 03:03:00 2010	Columbus	39 4 	Cloudy	48	30.01	10	3	N
Wed Feb  3 03:03:00 2010	Jacksonville	55 13 	Cloudy	76	30.01	10	5	NNW
Wed Feb  3 03:03:01 2010	Dallas	48 9 		60	30.21	10	0	CLM
Wed Feb  3 03:03:02 2010	Houston	56 13 	Cloudy	77	30.17	10	6	ENE
Wed Feb  3 03:03:03 2010	Seattle	49 9 	Mostly Sunny	68	29.81	10	0	CLM
Wed Feb  3 03:03:04 2010	Detroit	28 -2 	Light Snow/Fog	92	30.06	2	5	SE
Wed Feb  3 03:03:04 2010	Milwaukee	31 -1 	Cloudy	89	30.01	8	2	SW
Wed Feb  3 03:03:05 2010	Philadelphia	33 1 	Cloudy	63	30.17	10	6	E
Wed Feb  3 03:50:50 2010	Charlotte	37 3 	Light Fog	95	30.01	2	3	N
Wed Feb  3 03:50:50 2010	San Jose	55 13 	Cloudy	76	29.83	10	0	CLM
Wed Feb  3 03:50:51 2010	San Diego	57 14 		77	29.79	10	8	W
Wed Feb  3 03:50:52 2010	Denver	37 3 		44	29.94	10	6	WNW
Wed Feb  3 03:50:53 2010	Memphis	37 3 	Clear	75	30.24	10	3	WNW
Wed Feb  3 03:50:54 2010	El Paso	54 12 	Cloudy	46	29.8	10	9	ENE
Wed Feb  3 03:50:54 2010	Los Angeles	61 16 	Clear	47	29.76	10	3	SW
Wed Feb  3 03:50:55 2010	New York	30 -1 	Light Snow	80	30.17	3	6	ENE
Wed Feb  3 03:50:56 2010	Baltimore	30 -1 	Snow/Fog	95	30.11	1	3	NNE
Wed Feb  3 03:50:57 2010	Las Vegas	56 13 		40	29.78	10	5	NNE
Wed Feb  3 03:50:57 2010	Washington	33 1 	Light Snow/Fog	88	30.11	2	7	NNE
Wed Feb  3 03:50:58 2010	Austin	48 9 	Cloudy	93	30.17	5	5	NE
Wed Feb  3 03:50:59 2010	San Francisco	54 12 	Cloudy	83	29.85	10	2	NNW
Wed Feb  3 03:51:00 2010	Oklahoma City	33 1 	Light Fog	88	30.24	3	0	CLM
Wed Feb  3 03:51:01 2010	Fort Worth	41 5 		75	30.19	10	7	N
Wed Feb  3 03:51:01 2010	Nashville	41 5 	Cloudy	64	30.15	10	5	WNW
Wed Feb  3 03:51:02 2010	Phoenix	64 18 	Clear	39	29.7	10	0	CLM
Wed Feb  3 03:51:03 2010	Portland	45 7 	Cloudy	76	29.76	10	20	E
Wed Feb  3 03:51:04 2010	Chicago	30 -1 	Light Snow	78	30.09	5	13	W
Wed Feb  3 03:51:05 2010	Indianapolis	32 0 	Cloudy	93	30.07	7	12	W
Wed Feb  3 03:51:05 2010	San Antonio	52 11 	Cloudy	81	30.12	6	12	NE
Wed Feb  3 03:51:06 2010	Boston	27 -3 		55	30.2	10	7	S
Wed Feb  3 03:51:07 2010	Jacksonville	55 13 	Cloudy	77	30.02	10	5	NNW
Wed Feb  3 03:51:08 2010	Columbus	37 3 	Cloudy	56	30.02	10	5	N
Wed Feb  3 03:51:09 2010	Dallas	44 7 		73	30.2	10	5	NE
Wed Feb  3 03:51:09 2010	Houston	56 13 	Cloudy	77	30.18	10	6	ENE
Wed Feb  3 03:51:10 2010	Seattle	47 8 	Clear	68	29.8	10	0	CLM
Wed Feb  3 03:51:11 2010	Milwaukee	28 -2 	Light Snow	92	30.03	3	6	W
Wed Feb  3 03:51:14 2010	Detroit	28 -2 	Light Snow/Fog	92	30.03	2	3	S
Wed Feb  3 03:51:14 2010	Philadelphia	33 1 	Cloudy	63	30.15	10	5	NE
Wed Feb  3 04:34:23 2010	Charlotte	37 3 	Light Fog	95	30.02	2	0	CLM
Wed Feb  3 04:34:23 2010	San Jose	54 12 	Cloudy	81	29.84	10	7	WNW
Wed Feb  3 04:34:24 2010	San Diego	56 13 	Mostly Cloudy	80	29.8	9	6	NW
Wed Feb  3 04:34:25 2010	Denver	37 3 		44	29.94	10	3	WSW
Wed Feb  3 04:34:26 2010	Memphis	36 2 	Clear	78	30.25	10	0	CLM
Wed Feb  3 04:34:27 2010	El Paso	53 12 	Cloudy	50	29.8	10	12	E
Wed Feb  3 04:34:27 2010	Los Angeles	58 14 	Clear	57	29.76	10	0	CLM
Wed Feb  3 04:34:28 2010	New York	30 -1 	Light Snow	81	30.13	2	5	NE
Wed Feb  3 04:34:29 2010	Baltimore	30 -1 	Snow/Fog	100	30.1	1	5	N
Wed Feb  3 04:34:30 2010	Las Vegas	53 12 		48	29.79	10	6	N
Wed Feb  3 04:34:31 2010	Austin	50 10 	Cloudy	87	30.17	5	7	NNE
Wed Feb  3 04:34:31 2010	Washington	32 0 	Light Snow/Fog	92	30.1	1	6	N
Wed Feb  3 04:34:32 2010	San Francisco	54 12 	Cloudy	84	29.86	10	2	NNW
Wed Feb  3 04:34:33 2010	Oklahoma City	32 0 	Foggy	86	30.21	1	5	ESE
Wed Feb  3 04:34:34 2010	Fort Worth	41 5 		75	30.22	10	0	CLM
Wed Feb  3 04:34:34 2010	Nashville	40 4 	Cloudy	67	30.18	10	8	WNW
Wed Feb  3 04:34:35 2010	Phoenix	60 16 	Clear	49	29.71	10	0	CLM
Wed Feb  3 04:34:36 2010	Portland	45 7 	Partly Cloudy	76	29.77	10	24	E
Wed Feb  3 04:34:37 2010	Chicago	28 -2 	Light Snow	77	30.11	5	10	W
Wed Feb  3 04:34:38 2010	Indianapolis	32 0 	Cloudy	93	30.07	7	12	W
Wed Feb  3 04:34:38 2010	San Antonio	51 11 	Cloudy	85	30.11	9	10	NE
Wed Feb  3 04:34:39 2010	Boston	26 -3 		60	30.18	10	8	SSW
Wed Feb  3 04:34:40 2010	Jacksonville	54 12 	Cloudy	77	30.03	10	7	NNW
Wed Feb  3 04:34:41 2010	Columbus	37 3 	Cloudy	56	30.02	10	3	N
Wed Feb  3 04:34:42 2010	Dallas	44 7 	Mostly Clear	73	30.22	10	7	E
Wed Feb  3 04:34:42 2010	Houston	56 13 	Cloudy	77	30.19	10	6	ENE
Wed Feb  3 04:34:43 2010	Seattle	48 9 	Clear	65	29.79	10	3	ENE
Wed Feb  3 04:34:44 2010	Milwaukee	28 -2 	Light Snow	92	30.03	4	5	W
Wed Feb  3 04:34:45 2010	Detroit	28 -2 	Light Snow/Fog	92	30.06	2	3	S
Wed Feb  3 04:34:46 2010	Philadelphia	33 1 	Cloudy	63	30.13	10	5	NNE
Wed Feb  3 05:23:07 2010	Charlotte	37 3 	Light Fog	95	30.05	2	3	NW
Wed Feb  3 05:23:07 2010	San Jose	54 12 	Mostly Cloudy	87	29.84	10	0	CLM
Wed Feb  3 05:23:08 2010	San Diego	56 13 	Cloudy	83	29.81	8	5	NNW
Wed Feb  3 05:23:09 2010	Denver	34 1 		51	29.92	10	5	SW
Wed Feb  3 05:23:10 2010	Memphis	36 2 	Clear	75	30.25	10	0	CLM
Wed Feb  3 05:23:11 2010	El Paso	50 10 	Cloudy	60	29.78	10	12	E
Wed Feb  3 05:23:11 2010	Los Angeles	56 13 	Clear	69	29.77	10	3	NW
Wed Feb  3 05:23:12 2010	New York	29 -2 	Light Snow/Fog	88	30.12	2	3	NNE
Wed Feb  3 05:23:13 2010	Baltimore	30 -1 	Light Snow/Fog	100	30.07	1	5	N
Wed Feb  3 05:23:14 2010	Las Vegas	52 11 		48	29.79	10	3	W
Wed Feb  3 05:23:15 2010	Austin	50 10 	Cloudy	87	30.17	7	10	NE
Wed Feb  3 05:23:15 2010	Washington	33 1 	Light Snow/Fog	88	30.09	1	5	NNE
Wed Feb  3 05:23:16 2010	San Francisco	53 12 	Cloudy	85	29.85	10	2	WNW
Wed Feb  3 05:23:17 2010	Oklahoma City	31 -1 	Dense Fog	92	30.24	0	3	SSE
Wed Feb  3 05:23:18 2010	Nashville	39 4 	Cloudy	66	30.21	10	7	NW
Wed Feb  3 05:23:19 2010	Fort Worth	38 3 		82	30.21	10	3	ENE
Wed Feb  3 05:23:19 2010	Phoenix	60 16 	Clear	47	29.7	10	9	NNE
Wed Feb  3 05:23:20 2010	Portland	44 7 	Cloudy	78	29.77	10	21	E
Wed Feb  3 05:23:21 2010	Chicago	27 -3 	Cloudy	78	30.12	6	12	W
Wed Feb  3 05:23:22 2010	San Antonio	51 11 	Light Rain	85	30.1	8	9	NE
Wed Feb  3 05:23:23 2010	Boston	26 -3 	Cloudy	60	30.15	10	5	S
Wed Feb  3 05:23:23 2010	Indianapolis	32 0 	Cloudy	93	30.09	7	7	WNW
Wed Feb  3 05:23:24 2010	Jacksonville	52 11 	Cloudy	76	30.06	10	10	NNW
Wed Feb  3 05:23:25 2010	Columbus	37 3 	Light Snow	59	30.03	9	10	WNW
Wed Feb  3 05:23:26 2010	Dallas	42 6 	Mostly Clear	76	30.22	10	3	E
Wed Feb  3 05:23:27 2010	Houston	54 12 	Cloudy	80	30.17	10	9	NE
Wed Feb  3 05:23:27 2010	Seattle	47 8 	Clear	73	29.78	10	0	CLM
Wed Feb  3 05:23:28 2010	Milwaukee	28 -2 	Light Snow	86	30.04	4	6	W
Wed Feb  3 05:23:29 2010	Detroit	28 -2 	Light Snow/Fog	88	30.05	2	0	CLM
Wed Feb  3 05:23:30 2010	Philadelphia	33 1 	Cloudy	69	30.12	10	6	NNE
Wed Feb  3 06:08:41 2010	Charlotte	37 3 	Light Fog	93	30.05	2	3	NW
Wed Feb  3 06:08:41 2010	San Jose	54 12 	Mostly Cloudy	87	29.84	10	0	CLM
Wed Feb  3 06:08:42 2010	San Diego	56 13 	Cloudy	83	29.81	8	5	NNW
Wed Feb  3 06:08:43 2010	Denver	34 1 		51	29.92	10	5	SW
Wed Feb  3 06:08:44 2010	Memphis	36 2 	Clear	75	30.25	10	0	CLM
Wed Feb  3 06:08:45 2010	El Paso	50 10 	Cloudy	60	29.78	10	12	E
Wed Feb  3 06:08:45 2010	Los Angeles	56 13 	Mostly Clear	69	29.77	10	3	NW
Wed Feb  3 06:08:46 2010	New York	28 -2 	Light Snow/Fog	92	30.13	2	5	N
Wed Feb  3 06:08:47 2010	Baltimore	30 -1 	Snow/Fog	100	30.07	1	5	NE
Wed Feb  3 06:08:48 2010	Las Vegas	52 11 		48	29.79	10	3	W
Wed Feb  3 06:08:49 2010	Austin	48 9 	Cloudy	87	30.17	7	8	NE
Wed Feb  3 06:08:49 2010	Washington	32 0 	Snow/Fog	86	30.08	1	7	NNE
Wed Feb  3 06:08:50 2010	San Francisco	53 12 	Mostly Cloudy	87	29.85	10	2	S
Wed Feb  3 06:08:51 2010	Oklahoma City	30 -1 	Dense Fog	92	30.22	0	5	S
Wed Feb  3 06:08:52 2010	Nashville	39 4 	Cloudy	66	30.21	10	7	NW
Wed Feb  3 06:08:53 2010	Fort Worth	38 3 	Mostly Cloudy	82	30.21	10	3	ENE
Wed Feb  3 06:08:53 2010	Phoenix	60 16 	Cloudy	47	29.7	10	9	NNE
Wed Feb  3 06:08:54 2010	Portland	44 7 	Cloudy	78	29.77	10	21	E
Wed Feb  3 06:08:55 2010	Chicago	25 -4 	Cloudy	79	30.09	4	9	W
Wed Feb  3 06:08:56 2010	Indianapolis	32 0 	Cloudy	86	30.09	7	7	WNW
Wed Feb  3 06:08:56 2010	San Antonio	51 11 	Light Rain	85	30.1	8	9	NE
Wed Feb  3 06:08:57 2010	Boston	26 -3 	Cloudy	60	30.15	10	5	S
Wed Feb  3 06:08:58 2010	Jacksonville	52 11 	Cloudy	76	30.06	10	10	NNW
Wed Feb  3 06:08:59 2010	Columbus	37 3 	Light Snow	59	30.03	9	10	WNW
Wed Feb  3 06:09:00 2010	Dallas	42 6 	Mostly Clear	76	30.22	10	3	E
Wed Feb  3 06:09:00 2010	Houston	54 12 	Cloudy	80	30.17	10	9	NE
Wed Feb  3 06:09:01 2010	Seattle	47 8 	Cloudy	73	29.78	10	0	CLM
Wed Feb  3 06:09:02 2010	Milwaukee	27 -3 	Light Snow	92	30.04	4	3	W
Wed Feb  3 06:12:03 2010	Philadelphia	30 -1 	Light Snow/Fog	86	30.11	3	5	NNE
Wed Feb  3 06:56:46 2010	San Jose	52 11 	Partly Cloudy	93	29.86	10	0	CLM
Wed Feb  3 06:56:47 2010	Charlotte	37 3 	Light Fog	95	30.06	2	0	CLM
Wed Feb  3 06:56:48 2010	San Diego	56 13 	Cloudy	83	29.81	8	5	NW
Wed Feb  3 06:56:49 2010	Denver	33 1 		51	29.9	10	6	SW
Wed Feb  3 06:56:50 2010	Los Angeles	54 12 	Clear	74	29.77	10	3	WNW
Wed Feb  3 06:56:50 2010	Memphis	32 0 	Clear	81	30.25	10	0	CLM
Wed Feb  3 06:56:51 2010	El Paso	50 10 	Cloudy	56	29.8	10	16	E
Wed Feb  3 06:56:52 2010	New York	28 -2 	Light Snow/Fog	92	30.12	1	3	N
Wed Feb  3 06:56:53 2010	Baltimore	30 -1 	Snow/Fog	100	30.07	1	5	NE
Wed Feb  3 06:56:53 2010	Las Vegas	51 11 		51	29.78	10	3	W
Wed Feb  3 06:56:54 2010	Washington	32 0 	Light Snow	94	30.07	1	5	NNE
Wed Feb  3 06:56:55 2010	Austin	48 9 	Mostly Cloudy	87	30.17	7	6	NE
Wed Feb  3 06:56:56 2010	San Francisco	53 12 	Mostly Cloudy	87	29.85	10	2	N
Wed Feb  3 06:56:57 2010	Nashville	38 3 	Cloudy	69	30.21	10	7	NNW
Wed Feb  3 06:56:57 2010	Oklahoma City	31 -1 	Dense Fog	92	30.25	0	6	SSE
Wed Feb  3 06:56:58 2010	Fort Worth	39 4 		82	30.22	10	5	NE
Wed Feb  3 06:56:59 2010	Phoenix	59 15 	Clear	49	29.68	10	8	NNE
Wed Feb  3 06:57:00 2010	Portland	44 7 	Cloudy	82	29.76	10	17	E
Wed Feb  3 06:57:01 2010	Chicago	25 -4 	Cloudy	81	30.14	4	8	W
Wed Feb  3 06:57:01 2010	San Antonio	50 10 	Rain	92	30.09	7	9	NE
Wed Feb  3 06:57:02 2010	Indianapolis	32 0 	Cloudy	86	30.11	7	7	WNW
Wed Feb  3 06:57:03 2010	Boston	27 -3 	Cloudy	63	30.14	10	3	S
Wed Feb  3 06:57:04 2010	Jacksonville	52 11 	Cloudy	76	30.07	10	7	NNW
Wed Feb  3 06:57:05 2010	Columbus	36 2 	Cloudy	67	30.04	10	9	W
Wed Feb  3 06:57:05 2010	Dallas	41 5 		79	30.22	10	3	ENE
Wed Feb  3 06:57:06 2010	Houston	53 12 		82	30.17	10	7	ENE
Wed Feb  3 06:57:07 2010	Seattle	45 7 	Mostly Cloudy	79	29.77	10	5	NNE
Wed Feb  3 06:57:08 2010	Detroit	27 -3 	Light Snow/Fog	92	30.03	2	0	CLM
Wed Feb  3 06:57:08 2010	Milwaukee	27 -3 	Cloudy	92	30.06	4	3	W
Wed Feb  3 06:57:09 2010	Philadelphia	30 -1 	Light Snow	89	30.09	3	3	NNE
Wed Feb  3 07:39:51 2010	San Jose	48 9 	Partly Cloudy	100	29.86	8	0	CLM
Wed Feb  3 07:39:52 2010	Charlotte	37 3 	Light Fog	95	30.06	2	0	CLM
Wed Feb  3 07:39:53 2010	San Diego	56 13 	Cloudy	83	29.8	8	5	N
Wed Feb  3 07:39:54 2010	Denver	30 -1 	Mostly Clear	58	29.9	10	5	SW
Wed Feb  3 07:39:54 2010	Memphis	31 -1 	Clear	82	30.26	10	0	CLM
Wed Feb  3 07:39:55 2010	Los Angeles	52 11 	Clear	71	29.76	10	3	NW
Wed Feb  3 07:39:56 2010	El Paso	47 8 	Light Rain	73	29.8	10	0	CLM
Wed Feb  3 07:39:57 2010	New York	28 -2 	Light Snow/Fog	92	30.09	2	5	N
Wed Feb  3 07:39:58 2010	Baltimore	30 -1 	Light Snow/Fog	100	30.04	1	3	CLM
Wed Feb  3 07:39:58 2010	Las Vegas	50 10 		56	29.78	10	3	W
Wed Feb  3 07:39:59 2010	Washington	32 0 	Snow/Fog	92	30.06	1	6	N
Wed Feb  3 07:40:00 2010	Austin	48 9 	Cloudy	87	30.17	7	6	NE
Wed Feb  3 07:40:01 2010	Oklahoma City	30 -1 	Dense Fog	92	30.24	0	3	S
Wed Feb  3 07:40:01 2010	San Francisco	52 11 	Mostly Cloudy	90	29.85	10	1	CLM
Wed Feb  3 07:40:02 2010	Nashville	37 3 	Cloudy	69	30.22	10	8	NW
Wed Feb  3 07:40:03 2010	Fort Worth	40 4 		79	30.22	10	0	CLM
Wed Feb  3 07:40:04 2010	Phoenix	58 14 	Partly Cloudy	50	29.67	10	3	CLM
Wed Feb  3 07:40:05 2010	Chicago	25 -4 	Cloudy	81	30.15	4	12	W
Wed Feb  3 07:40:05 2010	Portland	44 7 	Light Rain	82	29.76	10	15	E
Wed Feb  3 07:40:06 2010	San Antonio	50 10 	Rain	93	30.1	4	13	ENE
Wed Feb  3 07:40:07 2010	Indianapolis	32 0 	Cloudy	86	30.1	7	9	W
Wed Feb  3 07:40:08 2010	Boston	27 -3 	Cloudy	66	30.13	10	3	S
Wed Feb  3 07:40:09 2010	Columbus	35 2 	Cloudy	69	30.06	10	13	W
Wed Feb  3 07:40:09 2010	Jacksonville	51 11 	Cloudy	76	30.08	10	5	NNW
Wed Feb  3 07:40:10 2010	Dallas	41 5 	Cloudy	79	30.23	10	0	CLM
Wed Feb  3 07:40:11 2010	Houston	53 12 		79	30.16	10	6	ENE
Wed Feb  3 07:40:12 2010	Seattle	45 7 	Mostly Cloudy	79	29.77	10	0	CLM
Wed Feb  3 07:40:13 2010	Detroit	26 -3 	Light Snow/Fog	95	30.06	2	0	CLM
Wed Feb  3 07:40:13 2010	Milwaukee	28 -2 	Cloudy	86	30.07	5	7	WNW
Wed Feb  3 07:40:14 2010	Philadelphia	30 -1 	Light Snow/Fog	92	30.08	3	7	N
Wed Feb  3 08:23:19 2010	San Jose	48 9 	Partly Cloudy	100	29.85	8	0	CLM
Wed Feb  3 08:23:20 2010	Charlotte	37 3 	Light Fog	95	30.04	2	5	N
Wed Feb  3 08:23:21 2010	San Diego	55 13 	Clear	86	29.79	8	5	N
Wed Feb  3 08:23:22 2010	Denver	29 -2 	Mostly Clear	63	29.89	10	7	WSW
Wed Feb  3 08:23:23 2010	Los Angeles	51 11 	Clear	79	29.77	10	0	CLM
Wed Feb  3 08:23:23 2010	Memphis	33 1 	Clear	78	30.26	10	3	NNE
Wed Feb  3 08:23:24 2010	El Paso	47 8 	Cloudy	70	29.74	10	10	NE
Wed Feb  3 08:23:25 2010	New York	28 -2 	Light Snow/Fog	92	30.09	2	5	NNE
Wed Feb  3 08:23:26 2010	Baltimore	31 -1 	Light Snow/Fog	92	30.05	1	3	N
Wed Feb  3 08:23:26 2010	Las Vegas	49 9 	Cloudy	58	29.78	10	0	CLM
Wed Feb  3 08:23:27 2010	Washington	32 0 	Light Snow/Fog	88	30.06	2	6	N
Wed Feb  3 08:23:28 2010	Austin	46 8 	Cloudy	93	30.14	5	0	CLM
Wed Feb  3 08:23:29 2010	San Francisco	51 11 		90	29.86	9	2	NNW
Wed Feb  3 08:23:30 2010	Oklahoma City	30 -1 	Dense Fog	92	30.23	0	7	S
Wed Feb  3 08:23:31 2010	Fort Worth	37 3 		85	30.2	10	3	NNE
Wed Feb  3 08:23:31 2010	Nashville	37 3 	Cloudy	72	30.23	10	8	N
Wed Feb  3 08:23:32 2010	Phoenix	57 14 	Mostly Cloudy	52	29.66	10	5	NNE
Wed Feb  3 08:23:33 2010	Portland	44 7 	Cloudy	82	29.73	10	21	E
Wed Feb  3 08:23:34 2010	Chicago	24 -4 	Cloudy	80	30.17	4	8	W
Wed Feb  3 08:23:34 2010	San Antonio	50 10 	Rain	92	30.06	3	9	E
Wed Feb  3 08:23:35 2010	Indianapolis	32 0 	Cloudy	86	30.12	5	6	W
Wed Feb  3 08:23:36 2010	Boston	27 -3 	Cloudy	66	30.13	7	3	NNE
Wed Feb  3 08:23:37 2010	Jacksonville	50 10 	Cloudy	76	30.09	10	10	N
Wed Feb  3 08:23:38 2010	Columbus	34 1 	Cloudy	72	30.07	8	8	W
Wed Feb  3 08:23:38 2010	Dallas	38 3 	Cloudy	85	30.22	10	3	NE
Wed Feb  3 08:23:39 2010	Houston	53 12 		79	30.16	10	5	ENE
Wed Feb  3 08:23:40 2010	Seattle	43 6 	Clear	85	29.77	10	0	CLM
Wed Feb  3 08:23:41 2010	Milwaukee	27 -3 	Cloudy	86	30.08	5	9	NW
Wed Feb  3 08:23:42 2010	Detroit	27 -3 	Light Snow/Fog	92	30.06	2	0	CLM
Wed Feb  3 08:23:42 2010	Philadelphia	31 -1 	Light Snow/Fog	92	30.07	3	6	NNE
Wed Feb  3 09:09:51 2010	San Jose	47 8 		89	29.85	8	2	NE
Wed Feb  3 09:09:52 2010	Charlotte	37 3 	Light Fog	93	30.06	1	6	NNW
Wed Feb  3 09:09:53 2010	San Diego	55 13 		86	29.79	8	5	N
Wed Feb  3 09:09:54 2010	Denver	29 -2 	Mostly Clear	63	29.89	10	7	WSW
Wed Feb  3 09:09:55 2010	Los Angeles	51 11 	Mostly Clear	79	29.77	10	0	CLM
Wed Feb  3 09:09:55 2010	Memphis	33 1 	Clear	78	30.26	10	3	NNE
Wed Feb  3 09:09:56 2010	El Paso	47 8 	Cloudy	70	29.74	10	10	NE
Wed Feb  3 09:09:57 2010	New York	28 -2 	Light Snow/Fog	92	30.08	3	6	NE
Wed Feb  3 09:09:58 2010	Baltimore	31 -1 	Light Snow/Fog	92	30.05	1	3	N
Wed Feb  3 09:09:59 2010	Las Vegas	49 9 	Cloudy	58	29.78	10	0	CLM
Wed Feb  3 09:09:59 2010	Washington	32 0 	Light Snow/Fog	86	30.07	3	5	NNE
Wed Feb  3 09:10:00 2010	Austin	46 8 	Cloudy	93	30.11	5	9	NE
Wed Feb  3 09:10:01 2010	San Francisco	50 10 	Mostly Cloudy	90	29.86	9	1	CLM
Wed Feb  3 09:10:02 2010	Oklahoma City	30 -1 	Dense Fog	92	30.23	0	7	S
Wed Feb  3 09:10:03 2010	Fort Worth	37 3 	Mostly Cloudy	85	30.2	10	3	NNE
Wed Feb  3 09:10:03 2010	Nashville	37 3 	Cloudy	72	30.23	10	8	N
Wed Feb  3 09:10:04 2010	Phoenix	57 14 	Cloudy	52	29.66	10	5	NNE
Wed Feb  3 09:10:05 2010	Portland	44 7 	Cloudy	82	29.73	10	21	E
Wed Feb  3 09:10:06 2010	Chicago	25 -4 	Cloudy	79	30.13	4	10	W
Wed Feb  3 09:10:07 2010	Indianapolis	30 -1 	Cloudy	92	30.14	4	6	WNW
Wed Feb  3 09:10:07 2010	San Antonio	50 10 	Rain	93	30.06	4	8	ENE
Wed Feb  3 09:10:08 2010	Boston	27 -3 	Light Snow	68	30.13	3	0	CLM
Wed Feb  3 09:10:09 2010	Jacksonville	50 10 	Cloudy	76	30.09	10	10	N
Wed Feb  3 09:10:10 2010	Columbus	34 1 	Cloudy	72	30.07	8	8	W
Wed Feb  3 09:10:10 2010	Dallas	38 3 	Cloudy	85	30.22	10	3	NE
Wed Feb  3 09:10:11 2010	Houston	53 12 	Cloudy	79	30.16	10	5	ENE
Wed Feb  3 09:10:12 2010	Seattle	43 6 	Mostly Clear	85	29.77	10	0	CLM
Wed Feb  3 09:10:13 2010	Milwaukee	27 -3 	Cloudy	86	30.09	7	8	WNW
Wed Feb  3 09:10:14 2010	Detroit	27 -3 	Light Snow/Fog	92	30.05	2	3	N
Wed Feb  3 09:10:15 2010	Philadelphia	31 -1 	Light Snow/Fog	92	30.07	3	6	NNE
Wed Feb  3 09:53:37 2010	San Jose	46 8 		91	29.85	8	2	ENE
Wed Feb  3 09:53:38 2010	Charlotte	36 2 	Foggy	100	30.07	1	0	CLM
Wed Feb  3 09:53:38 2010	San Diego	54 12 	Clear	82	29.78	6	0	CLM
Wed Feb  3 09:53:39 2010	Denver	30 -1 	Mostly Clear	58	29.87	10	8	SW
Wed Feb  3 09:53:40 2010	Memphis	30 -1 	Clear	85	30.26	9	0	CLM
Wed Feb  3 09:53:41 2010	Los Angeles	49 9 	Clear	86	29.77	9	0	CLM
Wed Feb  3 09:53:42 2010	El Paso	46 8 	Cloudy	73	29.75	10	9	N
Wed Feb  3 09:53:42 2010	New York	29 -2 	Light Snow	90	30.06	5	4	ENE
Wed Feb  3 09:53:43 2010	Baltimore	30 -1 	Light Snow/Fog	95	30.05	2	0	CLM
Wed Feb  3 09:53:44 2010	Las Vegas	48 9 	Cloudy	60	29.76	10	3	WSW
Wed Feb  3 09:53:45 2010	Austin	46 8 	Cloudy	93	30.09	5	10	NNE
Wed Feb  3 09:53:45 2010	Washington	34 1 	Light Snow/Fog	86	30.06	3	3	NE
Wed Feb  3 09:53:46 2010	San Francisco	50 10 	Mostly Cloudy	90	29.86	9	2	SSW
Wed Feb  3 09:53:47 2010	Oklahoma City	30 -1 	Cloudy	93	30.19	0	6	S
Wed Feb  3 09:53:48 2010	Nashville	36 2 	Cloudy	64	30.26	10	9	NW
Wed Feb  3 09:53:49 2010	Fort Worth	37 3 	Partly Cloudy	88	30.16	10	8	NE
Wed Feb  3 09:53:49 2010	Phoenix	57 14 	Mostly Cloudy	52	29.64	10	0	CLM
Wed Feb  3 09:53:50 2010	Portland	44 7 	Cloudy	82	29.72	10	22	E
Wed Feb  3 09:53:51 2010	Chicago	24 -4 	Cloudy	80	30.19	4	12	W
Wed Feb  3 09:53:52 2010	San Antonio	50 10 	Rain	92	30.02	3	10	ENE
Wed Feb  3 09:53:53 2010	Boston	27 -3 	Light Snow	74	30.12	3	0	CLM
Wed Feb  3 09:53:53 2010	Indianapolis	30 -1 	Cloudy	86	30.15	4	10	WNW
Wed Feb  3 09:53:54 2010	Jacksonville	50 10 	Cloudy	74	30.08	10	9	N
Wed Feb  3 09:53:55 2010	Columbus	34 1 	Light Snow	74	30.07	6	9	W
Wed Feb  3 09:53:56 2010	Dallas	38 3 	Cloudy	85	30.18	10	7	ENE
Wed Feb  3 09:53:57 2010	Houston	52 11 	Cloudy	76	30.14	10	9	E
Wed Feb  3 09:53:57 2010	Seattle	43 6 	Partly Cloudy	73	29.77	10	6	ESE
Wed Feb  3 09:53:58 2010	Milwaukee	27 -3 	Cloudy	80	30.09	7	8	NW
Wed Feb  3 09:53:59 2010	Detroit	26 -3 	Light Snow/Fog	92	30.07	2	3	SSW
Wed Feb  3 09:54:00 2010	Philadelphia	30 -1 	Light Snow/Fog	92	30.07	3	0	CLM
Wed Feb  3 10:37:13 2010	San Jose	46 8 	Partly Cloudy	91	29.85	8	2	NE
Wed Feb  3 10:37:14 2010	Charlotte	36 2 	Foggy	96	30.08	1	5	NNW
Wed Feb  3 10:37:15 2010	Denver	31 -1 	Mostly Clear	49	29.86	10	13	SSW
Wed Feb  3 10:37:15 2010	San Diego	54 12 	Mostly Cloudy	86	29.76	5	3	NNW
Wed Feb  3 10:37:16 2010	Memphis	29 -2 	Clear	85	30.27	9	3	SSW
Wed Feb  3 10:37:17 2010	Los Angeles	49 9 	Partly Cloudy	73	29.76	10	6	NW
Wed Feb  3 10:37:18 2010	El Paso	45 7 	Light Rain	79	29.73	8	5	ENE
Wed Feb  3 10:37:18 2010	New York	28 -2 	Light Snow/Fog	92	30.07	2	6	NE
Wed Feb  3 10:37:19 2010	Baltimore	30 -1 	Light Snow/Fog	95	30.05	2	0	CLM
Wed Feb  3 10:37:20 2010	Las Vegas	48 9 	Cloudy	62	29.76	10	0	CLM
Wed Feb  3 10:37:21 2010	Washington	32 0 	Light Snow/Fog	88	30.06	4	3	N
Wed Feb  3 10:37:22 2010	Austin	46 8 	Cloudy	87	30.07	6	9	NNE
Wed Feb  3 10:37:22 2010	San Francisco	49 9 	Partly Cloudy	91	29.86	9	1	CLM
Wed Feb  3 10:37:23 2010	Oklahoma City	30 -1 	Dense Fog	92	30.18	0	3	S
Wed Feb  3 10:37:24 2010	Nashville	36 2 	Cloudy	64	30.26	10	7	N
Wed Feb  3 10:37:25 2010	Fort Worth	36 2 		89	30.16	10	6	N
Wed Feb  3 10:37:26 2010	Phoenix	58 14 	Clear	49	29.62	10	0	CLM
Wed Feb  3 10:37:26 2010	Portland	44 7 	Light Rain	82	29.7	10	15	E
Wed Feb  3 10:37:27 2010	Chicago	24 -4 	Cloudy	84	30.2	4	10	W
Wed Feb  3 10:37:28 2010	San Antonio	50 10 	Rain	92	30.01	4	9	E
Wed Feb  3 10:37:29 2010	Indianapolis	28 -2 	Cloudy	80	30.16	5	7	WNW
Wed Feb  3 10:37:30 2010	Boston	25 -4 	Light Snow/Fog	81	30.1	3	0	CLM
Wed Feb  3 10:37:30 2010	Jacksonville	50 10 	Cloudy	74	30.09	10	8	NNW
Wed Feb  3 10:37:31 2010	Columbus	34 1 	Light Snow	75	30.1	5	9	W
Wed Feb  3 10:37:32 2010	Dallas	38 3 		85	30.17	10	3	ENE
Wed Feb  3 10:37:33 2010	Houston	52 11 		76	30.11	10	10	E
Wed Feb  3 10:37:34 2010	Milwaukee	27 -3 	Cloudy	79	30.12	7	7	WNW
Wed Feb  3 10:37:34 2010	Seattle	45 7 	Partly Cloudy	62	29.76	10	3	E
Wed Feb  3 10:37:35 2010	Detroit	25 -4 	Light Fog	86	30.06	1	5	SW
Wed Feb  3 10:37:36 2010	Philadelphia	30 -1 	Light Snow/Fog	92	30.06	2	3	NNE
Wed Feb  3 11:25:12 2010	Charlotte	36 2 	Foggy	96	30.11	1	3	WNW
Wed Feb  3 11:25:12 2010	San Jose	45 7 		90	29.84	8	2	SSW
Wed Feb  3 11:25:13 2010	San Diego	54 12 	Mostly Cloudy	86	29.75	5	5	NNW
Wed Feb  3 11:25:14 2010	Denver	30 -1 	Mostly Clear	47	29.85	10	8	SSW
Wed Feb  3 11:25:15 2010	Memphis	29 -2 	Clear	88	30.26	9	0	CLM
Wed Feb  3 11:25:16 2010	El Paso	45 7 	Light Rain	82	29.71	7	8	E
Wed Feb  3 11:25:16 2010	Los Angeles	48 9 	Clear	73	29.74	10	0	CLM
Wed Feb  3 11:25:17 2010	New York	29 -2 	Light Snow/Fog	92	30.04	3	5	NE
Wed Feb  3 11:25:18 2010	Baltimore	30 -1 	Light Fog	95	30.05	3	0	CLM
Wed Feb  3 11:25:19 2010	Las Vegas	47 8 	Mostly Cloudy	63	29.75	10	0	CLM
Wed Feb  3 11:25:20 2010	Austin	46 8 	Rain	87	30.07	5	9	NNE
Wed Feb  3 11:25:20 2010	Washington	32 0 	Light Snow/Fog	88	30.07	4	8	NNW
Wed Feb  3 11:25:21 2010	San Francisco	49 9 	Mostly Cloudy	91	29.85	9	2	SW
Wed Feb  3 11:25:22 2010	Oklahoma City	29 -2 	Dense Fog	92	30.22	0	5	SSW
Wed Feb  3 11:25:23 2010	Fort Worth	36 2 		89	30.15	8	8	NNE
Wed Feb  3 11:25:23 2010	Nashville	35 2 	Cloudy	69	30.25	10	3	NE
Wed Feb  3 11:25:24 2010	Phoenix	58 14 	Clear	47	29.6	10	5	NNE
Wed Feb  3 11:25:25 2010	Portland	45 7 	Cloudy	79	29.7	10	17	E
Wed Feb  3 11:25:26 2010	Chicago	24 -4 	Cloudy	80	30.21	4	10	W
Wed Feb  3 11:25:27 2010	Indianapolis	27 -3 	Cloudy	86	30.18	4	8	WNW
Wed Feb  3 11:25:27 2010	San Antonio	49 9 	Rain	96	29.99	4	8	ENE
Wed Feb  3 11:25:28 2010	Boston	26 -3 	Light Snow/Fog	84	30.09	5	5	N
Wed Feb  3 11:25:29 2010	Jacksonville	48 9 	Clear	76	30.09	10	0	CLM
Wed Feb  3 11:25:30 2010	Columbus	33 1 	Light Snow	81	30.13	5	13	W
Wed Feb  3 11:25:31 2010	Dallas	38 3 		85	30.16	10	7	NE
Wed Feb  3 11:25:31 2010	Houston	51 11 		76	30.1	10	10	E
Wed Feb  3 11:25:32 2010	Seattle	45 7 	Cloudy	62	29.75	10	5	E
Wed Feb  3 11:25:33 2010	Milwaukee	27 -3 	Cloudy	79	30.14	7	8	WNW
Wed Feb  3 11:25:34 2010	Detroit	27 -3 	Light Fog	92	30.1	2	3	W
Wed Feb  3 11:25:35 2010	Philadelphia	30 -1 	Light Snow/Fog	95	30.06	2	0	CLM
Wed Feb  3 12:08:27 2010	Charlotte	36 2 	Foggy	96	30.11	1	3	WNW
Wed Feb  3 12:08:27 2010	San Jose	44 7 		91	29.84	7	2	W
Wed Feb  3 12:08:28 2010	San Diego	54 12 	Cloudy	87	29.76	6	3	NNW
Wed Feb  3 12:08:29 2010	Denver	30 -1 	Mostly Clear	47	29.85	10	8	SSW
Wed Feb  3 12:08:30 2010	Memphis	29 -2 	Clear	88	30.26	9	0	CLM
Wed Feb  3 12:08:31 2010	El Paso	45 7 	Light Rain	82	29.71	7	8	E
Wed Feb  3 12:08:31 2010	Los Angeles	48 9 	Clear	73	29.74	10	0	CLM
Wed Feb  3 12:08:32 2010	New York	28 -2 	Light Snow/Fog	92	30.07	3	5	NNE
Wed Feb  3 12:08:33 2010	Baltimore	30 -1 	Light Fog	95	30.05	3	0	CLM
Wed Feb  3 12:08:34 2010	Las Vegas	47 8 	Mostly Cloudy	63	29.75	10	0	CLM
Wed Feb  3 12:08:35 2010	Austin	45 7 	Rain	100	30.07	3	8	NE
Wed Feb  3 12:08:35 2010	Washington	32 0 	Light Snow/Fog	86	30.08	4	7	NNW
Wed Feb  3 12:08:36 2010	San Francisco	48 9 		92	29.85	9	2	NNE
Wed Feb  3 12:08:37 2010	Oklahoma City	29 -2 	Dense Fog	92	30.22	0	5	SSW
Wed Feb  3 12:08:38 2010	Nashville	35 2 	Cloudy	69	30.25	10	3	NE
Wed Feb  3 12:08:39 2010	Fort Worth	36 2 	Cloudy	89	30.15	8	8	NNE
Wed Feb  3 12:08:39 2010	Phoenix	58 14 	Cloudy	47	29.6	10	5	NNE
Wed Feb  3 12:08:40 2010	Portland	45 7 	Cloudy	79	29.7	10	17	E
Wed Feb  3 12:08:41 2010	Chicago	24 -4 	Cloudy	80	30.21	4	10	W
Wed Feb  3 12:08:42 2010	Indianapolis	23 -5 	Cloudy	92	30.19	4	9	WNW
Wed Feb  3 12:08:42 2010	San Antonio	49 9 	Rain	96	29.99	4	8	ENE
Wed Feb  3 12:08:43 2010	Boston	26 -3 	Light Snow/Fog	84	30.09	5	0	CLM
Wed Feb  3 12:08:44 2010	Jacksonville	48 9 	Mostly Clear	76	30.09	10	0	CLM
Wed Feb  3 12:08:45 2010	Columbus	34 1 	Light Snow	80	30.14	4	9	WNW
Wed Feb  3 12:08:46 2010	Dallas	38 3 	Cloudy	85	30.16	10	7	NE
Wed Feb  3 12:08:46 2010	Houston	51 11 		76	30.1	10	10	E
Wed Feb  3 12:08:47 2010	Seattle	45 7 	Cloudy	62	29.75	10	5	E
Wed Feb  3 12:08:48 2010	Milwaukee	23 -5 	Cloudy	85	30.16	10	13	NW
Wed Feb  3 12:08:49 2010	Detroit	28 -2 	Light Snow/Fog	86	30.09	2	5	W
Wed Feb  3 12:08:50 2010	Philadelphia	28 -2 	Light Fog	100	30.07	3	0	CLM
Wed Feb  3 12:52:02 2010	San Jose	45 7 	Cloudy	91	29.84	7	2	SE
Wed Feb  3 12:52:03 2010	Charlotte	34 1 	Dense Fog	100	30.11	0	3	WNW
Wed Feb  3 12:52:04 2010	San Diego	54 12 	Cloudy	86	29.75	6	3	NNW
Wed Feb  3 12:52:05 2010	Denver	28 -2 	Mostly Clear	50	29.87	10	10	SSW
Wed Feb  3 12:52:05 2010	Memphis	29 -2 	Partly Cloudy	85	30.25	9	0	CLM
Wed Feb  3 12:52:06 2010	Los Angeles	47 8 	Clear	73	29.73	10	0	CLM
Wed Feb  3 12:52:07 2010	El Paso	44 7 	Light Rain	82	29.67	10	15	E
Wed Feb  3 12:52:08 2010	New York	29 -2 	Cloudy	92	30.05	4	0	CLM
Wed Feb  3 12:52:09 2010	Baltimore	30 -1 	Cloudy	96	30.07	3	2	N
Wed Feb  3 12:52:09 2010	Las Vegas	46 8 	Partly Cloudy	65	29.73	10	0	CLM
Wed Feb  3 12:52:10 2010	Washington	32 0 	Cloudy	86	30.08	4	0	CLM
Wed Feb  3 12:52:11 2010	Austin	45 7 	Rain	100	30.08	2	9	NE
Wed Feb  3 12:52:12 2010	San Francisco	48 9 	Mostly Cloudy	92	29.85	8	2	NNE
Wed Feb  3 12:52:13 2010	Nashville	34 1 	Cloudy	75	30.24	10	0	CLM
Wed Feb  3 12:52:13 2010	Oklahoma City	28 -2 	Dense Fog	92	30.19	0	0	CLM
Wed Feb  3 12:52:14 2010	Fort Worth	36 2 		89	30.14	9	0	CLM
Wed Feb  3 12:52:15 2010	Phoenix	56 13 	Partly Cloudy	54	29.59	10	0	CLM
Wed Feb  3 12:52:16 2010	Portland	45 7 	Cloudy	76	29.7	10	17	E
Wed Feb  3 12:52:17 2010	Chicago	24 -4 	Cloudy	80	30.24	5	7	WSW
Wed Feb  3 12:52:17 2010	San Antonio	49 9 	Rain	96	29.98	4	9	E
Wed Feb  3 12:52:18 2010	Indianapolis	23 -5 	Cloudy	92	30.19	5	10	NW
Wed Feb  3 12:52:19 2010	Boston	26 -3 	Light Snow/Fog	84	30.08	4	0	CLM
Wed Feb  3 12:52:20 2010	Jacksonville	46 8 		81	30.12	10	3	NW
Wed Feb  3 12:52:21 2010	Columbus	33 1 	Light Snow	81	30.17	4	8	WNW
Wed Feb  3 12:52:21 2010	Dallas	39 4 	Cloudy	82	30.15	10	0	CLM
Wed Feb  3 12:52:22 2010	Houston	50 10 	Cloudy	79	30.12	9	9	E
Wed Feb  3 12:52:23 2010	Seattle	43 6 	Mostly Cloudy	70	29.74	10	3	E
Wed Feb  3 12:52:24 2010	Milwaukee	23 -5 	Cloudy	85	30.18	7	9	WNW
Wed Feb  3 12:52:25 2010	Detroit	28 -2 	Light Snow/Fog	88	30.12	2	5	WSW
Wed Feb  3 12:52:25 2010	Philadelphia	30 -1 	Cloudy	92	30.07	4	3	NNW
Wed Feb  3 13:37:23 2010	San Jose	45 7 		91	29.83	7	2	SSW
Wed Feb  3 13:37:24 2010	Charlotte	34 1 	Dense Fog	96	30.13	0	0	CLM
Wed Feb  3 13:37:25 2010	San Diego	54 12 	Cloudy	86	29.75	6	0	CLM
Wed Feb  3 13:37:26 2010	Denver	31 -1 	Mostly Clear	41	29.91	10	13	SW
Wed Feb  3 13:37:26 2010	Memphis	28 -2 	Partly Cloudy	84	30.3	9	0	CLM
Wed Feb  3 13:37:27 2010	Los Angeles	47 8 	Clear	73	29.72	10	6	W
Wed Feb  3 13:37:28 2010	El Paso	43 6 	Light Rain	85	29.64	10	14	ENE
Wed Feb  3 13:37:29 2010	New York	30 -1 	Cloudy	88	30.05	6	0	CLM
Wed Feb  3 13:37:30 2010	Baltimore	29 -2 	Light Fog	96	30.09	3	3	WNW
Wed Feb  3 13:37:30 2010	Las Vegas	44 7 	Mostly Clear	70	29.73	10	0	CLM
Wed Feb  3 13:37:31 2010	Washington	33 1 	Cloudy	84	30.1	4	0	CLM
Wed Feb  3 13:37:32 2010	Austin	45 7 	Rain	100	30.08	2	9	NE
Wed Feb  3 13:37:33 2010	San Francisco	48 9 	Partly Cloudy	92	29.84	8	2	ENE
Wed Feb  3 13:37:34 2010	Nashville	34 1 	Cloudy	75	30.25	7	0	CLM
Wed Feb  3 13:37:34 2010	Oklahoma City	28 -2 	Dense Fog	88	30.19	0	7	E
Wed Feb  3 13:37:35 2010	Fort Worth	36 2 	Cloudy	89	30.15	10	6	NNE
Wed Feb  3 13:37:36 2010	Phoenix	56 13 	Partly Cloudy	54	29.58	10	0	CLM
Wed Feb  3 13:37:37 2010	Chicago	24 -4 	Cloudy	80	30.24	4	8	W
Wed Feb  3 13:37:37 2010	Portland	45 7 	Cloudy	79	29.72	10	16	E
Wed Feb  3 13:37:38 2010	San Antonio	50 10 	Rain	93	29.99	3	16	ENE
Wed Feb  3 13:37:39 2010	Indianapolis	23 -5 	Cloudy	92	30.21	5	10	NW
Wed Feb  3 13:37:40 2010	Boston	26 -3 	Light Snow/Fog	84	30.07	5	0	CLM
Wed Feb  3 13:37:41 2010	Columbus	32 0 	Light Snow/Fog	88	30.17	4	10	W
Wed Feb  3 13:37:41 2010	Jacksonville	46 8 		79	30.12	10	5	NW
Wed Feb  3 13:37:42 2010	Dallas	39 4 	Cloudy	82	30.16	10	3	E
Wed Feb  3 13:37:43 2010	Houston	50 10 	Light Rain	79	30.13	9	13	E
Wed Feb  3 13:37:44 2010	Seattle	44 7 	Cloudy	65	29.73	10	7	E
Wed Feb  3 13:37:45 2010	Detroit	28 -2 	Light Snow/Fog	92	30.13	2	5	SW
Wed Feb  3 13:37:45 2010	Milwaukee	23 -5 	Cloudy	85	30.18	7	9	WNW
Wed Feb  3 13:37:46 2010	Philadelphia	30 -1 	Cloudy	95	30.08	5	3	N
Wed Feb  3 14:23:02 2010	San Jose	44 7 	Partly Cloudy	91	29.83	7	3	ESE
Wed Feb  3 14:23:03 2010	Charlotte	34 1 	Dense Fog	100	30.14	0	0	CLM
Wed Feb  3 14:23:03 2010	San Diego	54 12 	Cloudy	86	29.75	6	7	NW
Wed Feb  3 14:23:04 2010	Denver	29 -2 	Mostly Clear	45	29.95	10	12	SW
Wed Feb  3 14:23:05 2010	Memphis	28 -2 	Mostly Sunny	88	30.33	5	0	CLM
Wed Feb  3 14:23:06 2010	Los Angeles	46 8 	Clear	73	29.72	10	0	CLM
Wed Feb  3 14:23:07 2010	El Paso	43 6 	Rain	85	29.63	7	14	E
Wed Feb  3 14:23:07 2010	New York	30 -1 	Cloudy	88	30.06	6	0	CLM
Wed Feb  3 14:23:08 2010	Baltimore	29 -2 	Light Fog	96	30.11	3	3	W
Wed Feb  3 14:23:09 2010	Las Vegas	44 7 	Mostly Clear	67	29.74	10	0	CLM
Wed Feb  3 14:23:10 2010	Washington	34 1 	Light Fog	86	30.13	3	0	CLM
Wed Feb  3 14:23:11 2010	Austin	45 7 	Rain	100	30.07	2	12	ENE
Wed Feb  3 14:23:11 2010	San Francisco	47 8 	Partly Cloudy	93	29.84	9	2	SE
Wed Feb  3 14:23:12 2010	Oklahoma City	28 -2 	Dense Fog	92	30.2	0	3	E
Wed Feb  3 14:23:13 2010	Nashville	35 2 	Cloudy	69	30.29	7	0	CLM
Wed Feb  3 14:23:14 2010	Fort Worth	38 3 	Cloudy	85	30.16	9	0	CLM
Wed Feb  3 14:23:15 2010	Phoenix	58 14 	Partly Cloudy	47	29.58	10	0	CLM
Wed Feb  3 14:23:16 2010	Chicago	23 -5 	Cloudy	80	30.25	5	7	WNW
Wed Feb  3 14:23:16 2010	Portland	45 7 	Light Rain	79	29.73	10	17	E
Wed Feb  3 14:23:17 2010	San Antonio	50 10 	Rain	96	29.94	5	10	ENE
Wed Feb  3 14:23:18 2010	Indianapolis	23 -5 	Cloudy	92	30.21	4	3	NW
Wed Feb  3 14:23:19 2010	Boston	26 -3 	Light Snow/Fog	88	30.08	2	0	CLM
Wed Feb  3 14:23:19 2010	Jacksonville	45 7 		82	30.15	10	5	NNW
Wed Feb  3 14:23:20 2010	Columbus	32 0 	Light Snow/Fog	85	30.18	4	9	WNW
Wed Feb  3 14:23:21 2010	Dallas	40 4 	Cloudy	82	30.15	10	9	E
Wed Feb  3 14:23:22 2010	Houston	50 10 	Light Rain	79	30.17	9	12	E
Wed Feb  3 14:23:23 2010	Seattle	44 7 	Cloudy	62	29.73	10	6	E
Wed Feb  3 14:23:24 2010	Detroit	29 -2 	Light Snow/Fog	88	30.15	1	6	W
Wed Feb  3 14:23:24 2010	Milwaukee	21 -6 	Cloudy	85	30.2	7	9	NW
Wed Feb  3 14:23:25 2010	Philadelphia	30 -1 	Cloudy	95	30.1	4	6	NNW
Wed Feb  3 15:08:42 2010	Charlotte	34 1 	Dense Fog	100	30.14	0	0	CLM
Wed Feb  3 15:08:42 2010	San Jose	43 6 		92	29.87	6	2	NE
Wed Feb  3 15:08:43 2010	San Diego	54 12 	Cloudy	87	29.75	7	0	CLM
Wed Feb  3 15:08:44 2010	Denver	29 -2 	Mostly Clear	45	29.95	10	12	SW
Wed Feb  3 15:08:45 2010	Memphis	28 -2 	Mostly Sunny	88	30.33	5	0	CLM
Wed Feb  3 15:08:46 2010	El Paso	43 6 	Rain	85	29.63	7	14	E
Wed Feb  3 15:08:46 2010	Los Angeles	46 8 	Clear	73	29.72	10	0	CLM
Wed Feb  3 15:08:47 2010	New York	30 -1 	Cloudy	88	30.06	6	0	CLM
Wed Feb  3 15:08:48 2010	Baltimore	30 -1 	Light Fog	92	30.12	3	0	CLM
Wed Feb  3 15:08:49 2010	Las Vegas	44 7 	Mostly Clear	67	29.74	10	0	CLM
Wed Feb  3 15:08:49 2010	Washington	34 1 	Light Fog	80	30.15	2	6	W
Wed Feb  3 15:08:50 2010	Austin	46 8 	Rain	100	30.06	3	13	ENE
Wed Feb  3 15:08:51 2010	San Francisco	47 8 	Partly Cloudy	93	29.84	8	2	SE
Wed Feb  3 15:08:52 2010	Oklahoma City	28 -2 	Dense Fog	92	30.18	0	3	ESE
Wed Feb  3 15:08:53 2010	Fort Worth	38 3 	Cloudy	85	30.16	9	0	CLM
Wed Feb  3 15:08:53 2010	Nashville	35 2 	Cloudy	69	30.29	7	0	CLM
Wed Feb  3 15:08:54 2010	Phoenix	58 14 		47	29.58	10	0	CLM
Wed Feb  3 15:08:55 2010	Portland	45 7 	Light Rain	79	29.73	10	17	E
Wed Feb  3 15:08:56 2010	Chicago	23 -5 	Cloudy	80	30.25	5	7	WNW
Wed Feb  3 15:08:57 2010	Indianapolis	23 -5 	Light Fog	92	30.24	3	5	NW
Wed Feb  3 15:08:57 2010	San Antonio	50 10 	Rain	93	29.99	3	12	ENE
Wed Feb  3 15:08:58 2010	Boston	27 -3 	Light Snow/Fog	92	30.08	2	0	CLM
Wed Feb  3 15:08:59 2010	Jacksonville	48 9 	Cloudy	76	30.15	10	9	N
Wed Feb  3 15:09:00 2010	Columbus	32 0 	Light Snow/Fog	86	30.18	3	14	W
Wed Feb  3 15:09:00 2010	Dallas	40 4 	Cloudy	82	30.15	10	9	E
Wed Feb  3 15:09:01 2010	Houston	50 10 	Light Rain	79	30.17	9	12	E
Wed Feb  3 15:09:02 2010	Seattle	44 7 	Cloudy	62	29.73	10	6	E
Wed Feb  3 15:09:03 2010	Milwaukee	21 -6 	Cloudy	85	30.21	7	9	NW
Wed Feb  3 15:09:04 2010	Detroit	29 -2 	Light Snow/Fog	88	30.15	1	6	W
Wed Feb  3 15:09:04 2010	Philadelphia	30 -1 	Cloudy	95	30.1	4	6	NNW
Wed Feb  3 15:54:27 2010	Charlotte	34 1 	Dense Fog	100	30.15	0	0	CLM
Wed Feb  3 15:54:27 2010	San Jose	43 6 	Cloudy	92	29.87	5	2	ENE
Wed Feb  3 15:54:28 2010	San Diego	54 12 	Cloudy	86	29.76	7	3	NNW
Wed Feb  3 15:54:29 2010	Denver	32 0 	Mostly Clear	36	29.92	10	12	SW
Wed Feb  3 15:54:30 2010	Memphis	31 -1 	Mostly Sunny	85	30.31	5	0	CLM
Wed Feb  3 15:54:31 2010	Los Angeles	43 6 	Clear	82	29.73	10	0	CLM
Wed Feb  3 15:54:32 2010	El Paso	43 6 	Rain	87	29.74	5	7	E
Wed Feb  3 15:54:32 2010	New York	30 -1 	Cloudy	92	30.07	5	0	CLM
Wed Feb  3 15:54:33 2010	Baltimore	30 -1 	Cloudy	95	30.13	2	3	W
Wed Feb  3 15:54:34 2010	Las Vegas	43 6 	Mostly Clear	70	29.74	10	0	CLM
Wed Feb  3 15:54:35 2010	Washington	33 1 	Light Fog	84	30.14	3	3	W
Wed Feb  3 15:54:36 2010	Austin	46 8 	Rain	100	30.06	2	14	E
Wed Feb  3 15:54:36 2010	San Francisco	46 8 	Mostly Cloudy	93	29.87	8	2	S
Wed Feb  3 15:54:37 2010	Oklahoma City	28 -2 	Dense Fog	92	30.21	0	3	E
Wed Feb  3 15:54:38 2010	Nashville	37 3 	Cloudy	64	30.31	10	0	CLM
Wed Feb  3 15:54:39 2010	Fort Worth	40 4 	Cloudy	85	30.17	9	5	E
Wed Feb  3 15:54:39 2010	Phoenix	58 14 	Partly Cloudy	45	29.58	10	9	NNW
Wed Feb  3 15:54:40 2010	Portland	45 7 	Light Rain	81	29.74	9	15	E
Wed Feb  3 15:54:41 2010	Chicago	24 -4 	Cloudy	80	30.29	3	7	WNW
Wed Feb  3 15:54:42 2010	San Antonio	50 10 	Rain	96	29.97	3	8	ENE
Wed Feb  3 15:54:43 2010	Boston	27 -3 	Light Snow	87	30.07	3	1	CLM
Wed Feb  3 15:54:43 2010	Indianapolis	25 -4 	Light Fog	86	30.27	3	6	WNW
Wed Feb  3 15:54:44 2010	Jacksonville	47 8 	Cloudy	79	30.15	10	9	N
Wed Feb  3 15:54:45 2010	Columbus	32 0 	Light Snow/Fog	80	30.19	3	8	WNW
Wed Feb  3 15:54:46 2010	Dallas	41 5 	Cloudy	82	30.18	9	9	E
Wed Feb  3 15:54:47 2010	Houston	49 9 	Cloudy	83	30.11	8	18	ENE
Wed Feb  3 15:54:47 2010	Seattle	45 7 	Cloudy	57	29.73	10	7	E
Wed Feb  3 15:54:48 2010	Milwaukee	21 -6 	Cloudy	85	30.23	7	9	WNW
Wed Feb  3 15:54:49 2010	Detroit	30 -1 	Light Snow/Fog	86	30.15	1	5	WNW
Wed Feb  3 15:54:50 2010	Philadelphia	31 -1 	Cloudy	96	30.11	4	3	WNW
Wed Feb  3 16:41:30 2010	San Jose	43 6 	Mostly Cloudy	93	29.89	7	0	CLM
Wed Feb  3 16:41:31 2010	Charlotte	36 2 	Dense Fog	100	30.19	0	3	WNW
Wed Feb  3 16:41:32 2010	Denver	33 1 	Cloudy	36	29.92	10	10	SW
Wed Feb  3 16:41:32 2010	San Diego	54 12 	Cloudy	86	29.76	5	3	ENE
Wed Feb  3 16:41:33 2010	Memphis	37 3 		81	30.33	6	6	NNE
Wed Feb  3 16:41:34 2010	Los Angeles	43 6 	Sunny	85	29.74	9	0	CLM
Wed Feb  3 16:41:35 2010	El Paso	43 6 	Cloudy	82	29.66	10	17	E
Wed Feb  3 16:41:36 2010	Baltimore	32 0 	Cloudy	86	30.12	5	6	W
Wed Feb  3 16:41:36 2010	New York	31 -1 	Cloudy	85	30.07	5	3	N
Wed Feb  3 16:41:37 2010	Las Vegas	42 6 	Mostly Sunny	72	29.75	10	3	SW
Wed Feb  3 16:41:38 2010	Washington	34 1 	Light Fog	85	30.14	3	6	N
Wed Feb  3 16:41:39 2010	Austin	46 8 	Rain	100	30.07	2	14	ENE
Wed Feb  3 16:41:40 2010	Oklahoma City	30 -1 	Cloudy	93	30.22	2	3	ESE
Wed Feb  3 16:41:40 2010	San Francisco	46 8 	Mostly Cloudy	94	29.89	8	2	NNE
Wed Feb  3 16:41:41 2010	Nashville	38 3 	Cloudy	62	30.31	10	5	N
Wed Feb  3 16:41:42 2010	Fort Worth	42 6 	Cloudy	82	30.19	9	6	ESE
Wed Feb  3 16:41:43 2010	Phoenix	57 14 	Sunny	47	29.59	10	7	E
Wed Feb  3 16:41:44 2010	Chicago	24 -4 	Cloudy	80	30.32	4	6	W
Wed Feb  3 16:41:44 2010	Portland	43 6 	Light Rain	88	29.74	10	16	E
Wed Feb  3 16:41:45 2010	San Antonio	50 10 	Rain	96	29.99	3	10	ENE
Wed Feb  3 16:41:46 2010	Indianapolis	27 -3 	Light Fog	79	30.28	3	5	NW
Wed Feb  3 16:41:47 2010	Boston	28 -2 	Light Snow	80	30.07	4	7	N
Wed Feb  3 16:41:47 2010	Jacksonville	50 10 	Cloudy	74	30.16	10	10	NNE
Wed Feb  3 16:41:48 2010	Columbus	33 1 	Cloudy	71	30.23	5	10	W
Wed Feb  3 16:41:49 2010	Dallas	43 6 	Cloudy	79	30.2	8	10	ESE
Wed Feb  3 16:41:50 2010	Houston	49 9 	Cloudy	79	30.08	10	16	E
Wed Feb  3 16:41:51 2010	Milwaukee	21 -6 	Cloudy	85	30.25	6	9	WNW
Wed Feb  3 16:41:51 2010	Seattle	45 7 	Cloudy	60	29.71	10	7	E
Wed Feb  3 16:41:52 2010	Detroit	30 -1 	Light Snow	80	30.17	3	10	NNW
Wed Feb  3 16:41:53 2010	Philadelphia	33 1 	Cloudy	91	30.11	6	2	WNW
Wed Feb  3 17:30:05 2010	San Jose	45 7 	Partly Sunny	93	29.91	8	0	CLM
Wed Feb  3 17:30:06 2010	Charlotte	37 3 	Foggy	95	30.2	1	0	CLM
Wed Feb  3 17:30:06 2010	San Diego	54 12 	Cloudy	87	29.78	5	0	CLM
Wed Feb  3 17:30:07 2010	Denver	37 3 	Partly Sunny	33	29.92	10	10	SW
Wed Feb  3 17:30:08 2010	Memphis	40 4 		67	30.34	10	7	NE
Wed Feb  3 17:30:09 2010	El Paso	43 6 	Rain	82	29.67	6	12	E
Wed Feb  3 17:30:09 2010	Los Angeles	47 8 	Sunny	79	29.75	9	0	CLM
Wed Feb  3 17:30:10 2010	New York	33 1 	Cloudy	81	30.06	9	6	N
Wed Feb  3 17:30:11 2010	Baltimore	33 1 	Mostly Cloudy	84	30.11	6	6	WNW
Wed Feb  3 17:30:12 2010	Las Vegas	43 6 	Mostly Sunny	70	29.75	10	5	SW
Wed Feb  3 17:30:13 2010	Austin	46 8 	Rain	93	30.08	3	13	ENE
Wed Feb  3 17:30:13 2010	Washington	35 2 	Cloudy	78	30.13	4	5	N
Wed Feb  3 17:30:14 2010	San Francisco	46 8 		94	29.9	8	2	NNE
Wed Feb  3 17:30:15 2010	Oklahoma City	31 -1 	Light Fog	92	30.23	2	8	SE
Wed Feb  3 17:30:16 2010	Nashville	39 4 	Mostly Cloudy	59	30.34	10	6	N
Wed Feb  3 17:30:17 2010	Fort Worth	45 7 	Cloudy	76	30.18	10	10	ESE
Wed Feb  3 17:30:17 2010	Phoenix	58 14 	Sunny	47	29.6	10	8	N
Wed Feb  3 17:30:18 2010	Portland	43 6 	Mostly Cloudy	85	29.74	10	15	E
Wed Feb  3 17:30:19 2010	Chicago	24 -4 	Cloudy	80	30.35	4	8	W
Wed Feb  3 17:30:20 2010	San Antonio	50 10 	Rain	96	29.97	4	13	ENE
Wed Feb  3 17:30:21 2010	Boston	28 -2 	Light Snow	80	30.05	5	6	NW
Wed Feb  3 17:30:21 2010	Indianapolis	27 -3 	Light Fog	86	30.28	3	6	NW
Wed Feb  3 17:30:22 2010	Jacksonville	48 9 	Cloudy	73	30.2	10	10	NNE
Wed Feb  3 17:30:23 2010	Columbus	33 1 	Cloudy	69	30.25	7	10	W
Wed Feb  3 17:30:24 2010	Dallas	44 7 	Cloudy	78	30.19	8	10	ESE
Wed Feb  3 17:30:25 2010	Houston	49 9 	Cloudy	79	30.11	10	16	E
Wed Feb  3 17:30:25 2010	Seattle	45 7 	Cloudy	65	29.73	10	0	CLM
Wed Feb  3 17:30:26 2010	Milwaukee	23 -5 	Cloudy	79	30.29	10	9	WNW
Wed Feb  3 17:30:27 2010	Detroit	32 0 	Partly Sunny	75	30.22	5	8	NNW
Wed Feb  3 17:30:28 2010	Philadelphia	32 0 	Cloudy	88	30.1	8	6	WNW
Wed Feb  3 18:13:27 2010	San Jose	45 7 	Partly Sunny	93	29.91	8	0	CLM
Wed Feb  3 18:13:28 2010	Charlotte	39 4 	Partly Sunny	93	30.2	7	3	N
Wed Feb  3 18:13:29 2010	San Diego	55 13 	Cloudy	81	29.79	5	0	CLM
Wed Feb  3 18:13:30 2010	Denver	37 3 	Partly Sunny	33	29.92	10	10	SW
Wed Feb  3 18:13:31 2010	Los Angeles	47 8 	Sunny	79	29.75	9	0	CLM
Wed Feb  3 18:13:31 2010	Memphis	40 4 		67	30.34	10	7	NE
Wed Feb  3 18:13:32 2010	El Paso	43 6 	Rain	82	29.67	6	12	E
Wed Feb  3 18:13:33 2010	New York	33 1 	Cloudy	81	30.06	9	6	N
Wed Feb  3 18:13:34 2010	Baltimore	33 1 	Mostly Cloudy	84	30.11	6	6	WNW
Wed Feb  3 18:13:35 2010	Las Vegas	43 6 	Mostly Sunny	70	29.75	10	5	SW
Wed Feb  3 18:13:35 2010	Washington	35 2 	Cloudy	78	30.13	4	5	N
Wed Feb  3 18:13:36 2010	Austin	46 8 	Rain	93	30.08	3	13	E
Wed Feb  3 18:13:37 2010	San Francisco	48 9 		93	29.9	8	3	ENE
Wed Feb  3 18:13:38 2010	Oklahoma City	31 -1 	Light Fog	92	30.23	2	8	SE
Wed Feb  3 18:13:39 2010	Fort Worth	45 7 	Cloudy	76	30.18	10	10	ESE
Wed Feb  3 18:13:39 2010	Nashville	39 4 	Mostly Cloudy	59	30.34	10	6	N
Wed Feb  3 18:13:40 2010	Phoenix	58 14 	Mostly Cloudy	47	29.6	10	8	N
Wed Feb  3 18:13:41 2010	Portland	43 6 	Cloudy	85	29.74	10	15	E
Wed Feb  3 18:13:42 2010	Chicago	25 -4 	Cloudy	79	30.32	4	7	W
Wed Feb  3 18:13:43 2010	Indianapolis	27 -3 	Cloudy	86	30.29	4	6	NW
Wed Feb  3 18:13:43 2010	San Antonio	50 10 	Rain	96	29.97	4	13	ENE
Wed Feb  3 18:13:44 2010	Boston	28 -2 	Light Snow	80	30.05	5	6	NW
Wed Feb  3 18:13:45 2010	Jacksonville	48 9 	Cloudy	73	30.2	10	10	NNE
Wed Feb  3 18:13:46 2010	Columbus	33 1 	Cloudy	69	30.25	7	10	W
Wed Feb  3 18:13:46 2010	Dallas	44 7 	Cloudy	78	30.19	8	10	ESE
Wed Feb  3 18:13:47 2010	Houston	49 9 	Cloudy	79	30.11	10	16	E
Wed Feb  3 18:13:48 2010	Seattle	45 7 	Cloudy	65	29.73	10	0	CLM
Wed Feb  3 18:13:49 2010	Milwaukee	23 -5 	Cloudy	79	30.29	10	9	WNW
Wed Feb  3 18:13:50 2010	Detroit	32 0 	Partly Sunny	75	30.22	5	8	NNW
Wed Feb  3 18:13:50 2010	Philadelphia	32 0 	Cloudy	88	30.1	8	6	WNW
Wed Feb  3 18:57:09 2010	San Jose	46 8 		92	29.9	7	2	N
Wed Feb  3 18:57:10 2010	Charlotte	41 5 	Partly Sunny	88	30.21	7	3	NW
Wed Feb  3 18:57:11 2010	San Diego	55 13 	Cloudy	83	29.79	5	0	CLM
Wed Feb  3 18:57:12 2010	Denver	41 5 	Mostly Sunny	29	29.92	10	6	WSW
Wed Feb  3 18:57:13 2010	Los Angeles	52 11 	Sunny	68	29.77	10	0	CLM
Wed Feb  3 18:57:13 2010	Memphis	43 6 	Mostly Sunny	60	30.32	10	5	NNE
Wed Feb  3 18:57:14 2010	El Paso	44 7 	Light Rain	82	29.67	10	10	ENE
Wed Feb  3 18:57:15 2010	New York	34 1 	Partly Sunny	80	30.05	10	7	W
Wed Feb  3 18:57:16 2010	Baltimore	36 2 	Partly Sunny	78	30.11	8	6	W
Wed Feb  3 18:57:17 2010	Las Vegas	48 9 	Mostly Sunny	58	29.75	10	0	CLM
Wed Feb  3 18:57:17 2010	Washington	38 3 	Cloudy	72	30.14	7	8	W
Wed Feb  3 18:57:18 2010	Austin	46 8 	Cloudy	93	30.06	8	12	E
Wed Feb  3 18:57:19 2010	San Francisco	49 9 		92	29.91	9	3	SE
Wed Feb  3 18:57:20 2010	Oklahoma City	32 0 	Light Fog	92	30.22	2	8	SE
Wed Feb  3 18:57:21 2010	Fort Worth	45 7 	Cloudy	76	30.18	10	9	ESE
Wed Feb  3 18:57:21 2010	Nashville	41 5 	Partly Sunny	57	30.34	10	5	NNW
Wed Feb  3 18:57:22 2010	Phoenix	62 17 	Partly Sunny	39	29.61	10	5	NNE
Wed Feb  3 18:57:23 2010	Portland	44 7 	Mostly Cloudy	82	29.73	10	17	E
Wed Feb  3 18:57:24 2010	Chicago	26 -3 	Cloudy	77	30.37	4	7	WNW
Wed Feb  3 18:57:25 2010	Indianapolis	27 -3 	Cloudy	81	30.33	3	4	WNW
Wed Feb  3 18:57:25 2010	San Antonio	50 10 	Rain	93	29.98	2	12	E
Wed Feb  3 18:57:26 2010	Boston	31 -1 	Cloudy	75	30.02	8	5	NNE
Wed Feb  3 18:57:27 2010	Jacksonville	49 9 	Cloudy	77	30.18	10	10	NNE
Wed Feb  3 18:57:28 2010	Columbus	34 1 	Cloudy	66	30.25	6	10	WNW
Wed Feb  3 18:57:29 2010	Dallas	45 7 	Cloudy	76	30.19	7	7	E
Wed Feb  3 18:57:29 2010	Houston	51 11 	Cloudy	73	30.12	10	17	E
Wed Feb  3 18:57:30 2010	Seattle	46 8 	Cloudy	57	29.73	10	3	E
Wed Feb  3 18:57:31 2010	Milwaukee	25 -4 	Mostly Cloudy	68	30.3	10	8	NW
Wed Feb  3 18:57:32 2010	Detroit	33 1 	Mostly Cloudy	71	30.24	7	7	WNW
Wed Feb  3 18:57:33 2010	Philadelphia	34 1 	Mostly Cloudy	85	30.08	9	8	WNW
Wed Feb  3 19:40:56 2010	San Jose	54 12 	Mostly Sunny	81	29.91	10	0	CLM
Wed Feb  3 19:40:57 2010	Charlotte	45 7 	Partly Sunny	73	30.19	10	0	CLM
Wed Feb  3 19:40:58 2010	San Diego	57 14 	Mostly Cloudy	77	29.81	7	6	CLM
Wed Feb  3 19:40:59 2010	Denver	44 7 	Cloudy	25	29.92	10	5	W
Wed Feb  3 19:40:59 2010	Memphis	45 7 	Mostly Sunny	55	30.3	10	7	NNE
Wed Feb  3 19:41:00 2010	Los Angeles	58 14 	Sunny	55	29.77	10	0	CLM
Wed Feb  3 19:41:01 2010	El Paso	44 7 	Light Rain	82	29.66	7	8	NE
Wed Feb  3 19:41:02 2010	New York	36 2 	Mostly Cloudy	69	30	10	3	W
Wed Feb  3 19:41:03 2010	Baltimore	39 4 	Partly Sunny	69	30.09	10	10	W
Wed Feb  3 19:41:03 2010	Las Vegas	54 12 	Mostly Sunny	44	29.73	10	0	CLM
Wed Feb  3 19:41:04 2010	Washington	41 5 	Partly Sunny	67	30.12	6	6	WNW
Wed Feb  3 19:41:05 2010	Austin	48 9 	Rain	87	30.04	6	10	S
Wed Feb  3 19:41:06 2010	San Francisco	53 12 		87	29.92	9	4	ESE
Wed Feb  3 19:41:07 2010	Nashville	43 6 	Partly Sunny	53	30.31	10	7	W
Wed Feb  3 19:41:07 2010	Oklahoma City	33 1 	Light Fog	91	30.22	3	5	SSE
Wed Feb  3 19:41:08 2010	Fort Worth	46 8 	Mostly Cloudy	73	30.14	10	12	E
Wed Feb  3 19:41:09 2010	Phoenix	64 18 	Sunny	37	29.61	10	0	CLM
Wed Feb  3 19:41:10 2010	Portland	46 8 	Mostly Cloudy	79	29.73	10	17	E
Wed Feb  3 19:41:11 2010	Chicago	30 -1 	Cloudy	69	30.35	4	7	NNW
Wed Feb  3 19:41:11 2010	San Antonio	50 10 	Rain	96	29.91	2	16	E
Wed Feb  3 19:41:12 2010	Indianapolis	28 -2 	Cloudy	84	30.33	3	4	WNW
Wed Feb  3 19:41:13 2010	Boston	31 -1 	Cloudy	72	29.99	10	5	NE
Wed Feb  3 19:41:14 2010	Jacksonville	50 10 	Cloudy	76	30.17	10	7	N
Wed Feb  3 19:41:15 2010	Columbus	35 2 	Cloudy	58	30.24	9	9	W
Wed Feb  3 19:41:15 2010	Dallas	46 8 	Cloudy	73	30.15	7	12	E
Wed Feb  3 19:41:16 2010	Houston	52 11 	Cloudy	71	30.11	10	16	E
Wed Feb  3 19:41:17 2010	Seattle	47 8 	Cloudy	60	29.74	10	3	S
Wed Feb  3 19:41:18 2010	Milwaukee	25 -4 	Mostly Cloudy	68	30.32	10	6	NNW
Wed Feb  3 19:41:19 2010	Detroit	33 1 	Cloudy	71	30.25	7	8	NW
Wed Feb  3 19:41:19 2010	Philadelphia	37 3 	Partly Sunny	75	30.06	10	10	W
Wed Feb  3 20:25:44 2010	San Jose	57 14 	Partly Sunny	71	29.9	10	0	CLM
Wed Feb  3 20:25:45 2010	Charlotte	48 9 	Partly Sunny	62	30.16	10	0	CLM
Wed Feb  3 20:25:46 2010	San Diego	61 16 	Mostly Cloudy	66	29.82	10	7	WNW
Wed Feb  3 20:25:47 2010	Denver	48 9 		21	29.89	10	9	ESE
Wed Feb  3 20:25:47 2010	Memphis	48 9 		49	30.27	10	8	NNE
Wed Feb  3 20:25:48 2010	Los Angeles	65 18 	Sunny	35	29.75	10	13	W
Wed Feb  3 20:25:49 2010	El Paso	44 7 	Rain	88	29.64	5	9	N
Wed Feb  3 20:25:50 2010	New York	38 3 	Mostly Cloudy	64	29.99	10	9	WNW
Wed Feb  3 20:25:51 2010	Baltimore	42 6 	Mostly Cloudy	54	30.07	10	12	WNW
Wed Feb  3 20:25:51 2010	Las Vegas	57 14 	Partly Sunny	38	29.72	10	5	NNE
Wed Feb  3 20:25:52 2010	Washington	42 6 	Partly Sunny	62	30.11	10	10	NW
Wed Feb  3 20:25:53 2010	Austin	48 9 	Rain	87	30	3	16	E
Wed Feb  3 20:25:54 2010	San Francisco	54 12 		85	29.91	9	3	E
Wed Feb  3 20:25:55 2010	Nashville	44 7 	Mostly Sunny	50	30.27	10	5	NE
Wed Feb  3 20:25:55 2010	Oklahoma City	34 1 	Cloudy	92	30.18	4	0	CLM
Wed Feb  3 20:25:56 2010	Fort Worth	46 8 	Cloudy	70	30.08	10	10	E
Wed Feb  3 20:25:57 2010	Phoenix	64 18 	Sunny	37	29.59	10	5	SSW
Wed Feb  3 20:25:58 2010	Portland	45 7 	Cloudy	79	29.74	10	18	E
Wed Feb  3 20:25:59 2010	Chicago	30 -1 	Cloudy	69	30.34	5	5	WNW
Wed Feb  3 20:25:59 2010	San Antonio	48 9 	Heavy Rain	100	29.92	1	16	E
Wed Feb  3 20:26:00 2010	Indianapolis	28 -2 	Cloudy	86	30.31	4	6	WNW
Wed Feb  3 20:26:01 2010	Boston	32 0 	Cloudy	69	29.97	10	7	NNW
Wed Feb  3 20:26:02 2010	Jacksonville	52 11 	Cloudy	71	30.15	10	5	NNE
Wed Feb  3 20:26:03 2010	Columbus	35 2 	Cloudy	56	30.25	10	12	W
Wed Feb  3 20:26:03 2010	Dallas	46 8 	Cloudy	70	30.08	9	13	E
Wed Feb  3 20:26:04 2010	Houston	54 12 	Cloudy	69	30.05	10	18	E
Wed Feb  3 20:26:05 2010	Seattle	47 8 	Cloudy	65	29.76	10	10	S
Wed Feb  3 20:26:06 2010	Milwaukee	25 -4 	Partly Sunny	63	30.31	10	7	WNW
Wed Feb  3 20:26:07 2010	Detroit	34 1 	Cloudy	69	30.24	7	8	WNW
Wed Feb  3 20:26:07 2010	Philadelphia	38 3 	Partly Sunny	67	30.06	10	13	NW
Wed Feb  3 21:13:28 2010	San Jose	57 14 	Partly Sunny	71	29.9	10	0	CLM
Wed Feb  3 21:13:29 2010	Charlotte	48 9 	Partly Sunny	62	30.16	10	0	CLM
Wed Feb  3 21:13:30 2010	San Diego	61 16 	Mostly Cloudy	66	29.82	10	7	WNW
Wed Feb  3 21:13:31 2010	Denver	48 9 		21	29.89	10	9	ESE
Wed Feb  3 21:13:31 2010	Memphis	48 9 	Cloudy	49	30.27	10	8	NNE
Wed Feb  3 21:13:32 2010	Los Angeles	65 18 	Sunny	35	29.75	10	13	W
Wed Feb  3 21:13:33 2010	El Paso	44 7 	Rain	88	29.64	5	9	N
Wed Feb  3 21:13:34 2010	New York	38 3 	Mostly Cloudy	64	29.99	10	9	WNW
Wed Feb  3 21:13:35 2010	Baltimore	42 6 	Mostly Cloudy	54	30.07	10	12	WNW
Wed Feb  3 21:13:35 2010	Las Vegas	57 14 	Partly Sunny	38	29.72	10	5	NNE
Wed Feb  3 21:13:36 2010	Washington	41 5 	Mostly Cloudy	60	30.12	10	7	NW
Wed Feb  3 21:13:37 2010	Austin	48 9 	Light Rain	87	29.97	8	17	E
Wed Feb  3 21:13:38 2010	San Francisco	56 13 		80	29.91	8	3	E
Wed Feb  3 21:13:39 2010	Nashville	44 7 	Mostly Sunny	50	30.27	10	5	NE
Wed Feb  3 21:13:39 2010	Oklahoma City	34 1 	Cloudy	92	30.18	4	0	CLM
Wed Feb  3 21:13:40 2010	Fort Worth	46 8 	Cloudy	70	30.08	10	10	E
Wed Feb  3 21:13:41 2010	Phoenix	64 18 	Cloudy	37	29.59	10	5	SSW
Wed Feb  3 21:13:42 2010	Portland	45 7 	Cloudy	79	29.74	10	18	E
Wed Feb  3 21:13:43 2010	Chicago	30 -1 	Cloudy	69	30.28	6	3	NNW
Wed Feb  3 21:13:43 2010	San Antonio	48 9 	Heavy Rain	100	29.92	1	16	E
Wed Feb  3 21:13:44 2010	Indianapolis	28 -2 	Cloudy	80	30.29	5	6	NW
Wed Feb  3 21:13:45 2010	Boston	32 0 	Cloudy	69	29.97	10	7	NNW
Wed Feb  3 21:13:46 2010	Jacksonville	52 11 	Cloudy	71	30.15	10	5	NNE
Wed Feb  3 21:13:47 2010	Columbus	35 2 	Cloudy	56	30.25	10	12	W
Wed Feb  3 21:13:47 2010	Dallas	46 8 	Cloudy	70	30.08	9	13	E
Wed Feb  3 21:13:48 2010	Houston	54 12 	Cloudy	69	30.05	10	18	E
Wed Feb  3 21:13:49 2010	Seattle	47 8 	Cloudy	65	29.76	10	10	S
Wed Feb  3 21:13:50 2010	Milwaukee	25 -4 	Partly Sunny	63	30.31	10	7	WNW
Wed Feb  3 21:13:51 2010	Detroit	34 1 	Cloudy	69	30.21	6	12	NW
Wed Feb  3 21:13:51 2010	Philadelphia	39 4 	Mostly Cloudy	65	30.06	10	12	W
Wed Feb  3 21:59:05 2010	San Jose	61 16 	Partly Sunny	58	29.86	10	0	CLM
Wed Feb  3 21:59:06 2010	Charlotte	50 10 	Sunny	53	30.15	10	0	CLM
Wed Feb  3 21:59:06 2010	San Diego	61 16 	Mostly Cloudy	66	29.8	10	9	W
Wed Feb  3 21:59:07 2010	Denver	47 8 	Cloudy	21	29.87	10	10	ESE
Wed Feb  3 21:59:08 2010	Memphis	47 8 	Cloudy	51	30.25	10	7	ENE
Wed Feb  3 21:59:09 2010	El Paso	43 6 	Rain	92	29.61	3	12	N
Wed Feb  3 21:59:09 2010	Los Angeles	67 19 	Sunny	30	29.73	10	12	WNW
Wed Feb  3 21:59:10 2010	New York	37 3 	Cloudy	61	30	10	3	N
Wed Feb  3 21:59:11 2010	Baltimore	40 4 	Cloudy	57	30.09	10	14	NW
Wed Feb  3 21:59:12 2010	Las Vegas	59 15 		35	29.71	10	0	CLM
Wed Feb  3 21:59:13 2010	Austin	48 9 	Rain	87	29.96	3	12	E
Wed Feb  3 21:59:13 2010	Washington	41 5 	Cloudy	62	30.13	10	9	WNW
Wed Feb  3 21:59:14 2010	San Francisco	57 14 	Partly Sunny	73	29.88	10	3	NNE
Wed Feb  3 21:59:15 2010	Oklahoma City	37 3 	Cloudy	80	30.14	5	3	E
Wed Feb  3 21:59:16 2010	Nashville	44 7 	Mostly Sunny	49	30.26	10	0	CLM
Wed Feb  3 21:59:17 2010	Fort Worth	45 7 	Light Rain	76	30.08	8	8	E
Wed Feb  3 21:59:17 2010	Phoenix	66 19 		35	29.58	10	7	SSW
Wed Feb  3 21:59:18 2010	Portland	45 7 	Cloudy	79	29.73	10	20	E
Wed Feb  3 21:59:19 2010	Chicago	31 -1 	Cloudy	63	30.33	6	3	N
Wed Feb  3 21:59:20 2010	San Antonio	48 9 	Rain	93	29.88	2	17	ENE
Wed Feb  3 21:59:21 2010	Boston	32 0 	Cloudy	59	29.98	10	10	NNW
Wed Feb  3 21:59:21 2010	Indianapolis	28 -2 	Cloudy	86	30.29	5	5	NW
Wed Feb  3 21:59:22 2010	Jacksonville	52 11 	Cloudy	71	30.15	10	6	N
Wed Feb  3 21:59:23 2010	Columbus	34 1 	Cloudy	61	30.25	10	14	W
Wed Feb  3 21:59:24 2010	Dallas	46 8 	Light Rain	76	30.09	9	9	E
Wed Feb  3 21:59:25 2010	Houston	53 12 	Cloudy	68	30.04	10	17	E
Wed Feb  3 21:59:25 2010	Seattle	44 7 	Light Rain	85	29.75	10	6	SW
Wed Feb  3 21:59:26 2010	Milwaukee	27 -3 	Partly Sunny	54	30.28	10	0	CLM
Wed Feb  3 21:59:27 2010	Detroit	34 1 	Cloudy	69	30.24	6	12	WNW
Wed Feb  3 21:59:28 2010	Philadelphia	39 4 	Cloudy	65	30.06	10	12	WNW
Wed Feb  3 22:49:47 2010	San Jose	63 17 	Partly Sunny	51	29.83	10	0	CLM
Wed Feb  3 22:49:48 2010	Charlotte	50 10 	Partly Sunny	49	30.13	10	3	N
Wed Feb  3 22:49:49 2010	Denver	46 8 		27	29.84	10	12	ESE
Wed Feb  3 22:49:49 2010	San Diego	61 16 	Partly Sunny	66	29.77	9	0	CLM
Wed Feb  3 22:49:50 2010	Memphis	48 9 	Cloudy	47	30.23	10	12	ENE
Wed Feb  3 22:49:51 2010	Los Angeles	69 21 	Sunny	27	29.7	10	9	W
Wed Feb  3 22:49:52 2010	El Paso	43 6 	Cloudy	100	29.68	4	12	N
Wed Feb  3 22:49:53 2010	Baltimore	39 4 	Mostly Cloudy	61	30.11	10	8	WNW
Wed Feb  3 22:49:53 2010	New York	37 3 	Mostly Cloudy	54	30.01	10	12	WNW
Wed Feb  3 22:49:54 2010	Las Vegas	61 16 	Partly Sunny	31	29.69	10	3	N
Wed Feb  3 22:49:55 2010	Washington	41 5 	Cloudy	62	30.15	10	8	W
Wed Feb  3 22:49:56 2010	Austin	48 9 	Rain	87	29.97	2	10	E
Wed Feb  3 22:49:57 2010	Oklahoma City	36 2 	Cloudy	81	30.15	5	7	E
Wed Feb  3 22:49:57 2010	San Francisco	58 14 		72	29.85	10	3	NE
Wed Feb  3 22:49:58 2010	Nashville	46 8 	Mostly Sunny	47	30.24	10	9	NNE
Wed Feb  3 22:49:59 2010	Fort Worth	44 7 	Light Rain	82	30.04	7	14	ENE
Wed Feb  3 22:50:00 2010	Phoenix	67 19 	Sunny	31	29.56	10	5	S
Wed Feb  3 22:50:01 2010	Chicago	31 -1 	Cloudy	69	30.34	7	7	E
Wed Feb  3 22:50:01 2010	Portland	45 7 	Light Rain	82	29.72	10	18	E
Wed Feb  3 22:50:02 2010	San Antonio	49 9 	Rain	92	29.86	2	16	E
Wed Feb  3 22:50:03 2010	Indianapolis	30 -1 	Mostly Cloudy	80	30.29	5	0	CLM
Wed Feb  3 22:50:04 2010	Boston	32 0 	Cloudy	60	29.97	10	10	NW
Wed Feb  3 22:50:05 2010	Columbus	34 1 	Cloudy	61	30.27	10	10	WNW
Wed Feb  3 22:50:05 2010	Jacksonville	52 11 	Mostly Cloudy	71	30.15	10	7	NNE
Wed Feb  3 22:50:06 2010	Dallas	45 7 	Light Rain	82	30.04	7	12	NE
Wed Feb  3 22:50:07 2010	Houston	53 12 		76	30.02	9	8	ESE
Wed Feb  3 22:50:08 2010	Milwaukee	27 -3 	Sunny	54	30.28	10	0	CLM
Wed Feb  3 22:50:08 2010	Seattle	45 7 	Light Rain	85	29.74	10	6	SSW
Wed Feb  3 22:50:09 2010	Detroit	34 1 	Cloudy	69	30.24	7	10	WNW
Wed Feb  3 22:50:10 2010	Philadelphia	37 3 	Cloudy	69	30.06	9	12	NW
Wed Feb  3 23:35:30 2010	Charlotte	51 11 	Sunny	47	30.15	10	3	N
Wed Feb  3 23:35:30 2010	San Jose	64 18 		48	29.8	10	0	CLM
Wed Feb  3 23:35:31 2010	San Diego	62 17 	Partly Sunny	67	29.76	10	12	WSW
Wed Feb  3 23:35:32 2010	Denver	46 8 		27	29.83	10	15	ESE
Wed Feb  3 23:35:33 2010	Memphis	47 8 	Cloudy	49	30.22	10	10	ENE
Wed Feb  3 23:35:34 2010	El Paso	43 6 	Light Rain	92	29.62	7	14	NNE
Wed Feb  3 23:35:34 2010	Los Angeles	70 21 	Sunny	25	29.67	10	3	N
Wed Feb  3 23:35:35 2010	New York	36 2 	Cloudy	59	30.02	10	7	WNW
Wed Feb  3 23:35:36 2010	Baltimore	39 4 	Mostly Cloudy	61	30.13	10	8	WNW
Wed Feb  3 23:35:37 2010	Las Vegas	61 16 	Partly Sunny	33	29.66	10	7	ENE
Wed Feb  3 23:35:38 2010	Austin	48 9 	Rain	93	29.95	5	12	ENE
Wed Feb  3 23:35:38 2010	Washington	41 5 	Cloudy	62	30.16	10	8	NW
Wed Feb  3 23:35:39 2010	San Francisco	58 14 		72	29.82	10	3	NNE
Wed Feb  3 23:35:40 2010	Oklahoma City	37 3 	Cloudy	81	30.11	4	10	E
Wed Feb  3 23:35:41 2010	Nashville	45 7 	Mostly Sunny	49	30.24	10	7	NNE
Wed Feb  3 23:35:42 2010	Fort Worth	44 7 	Rain	85	30.06	4	7	E
Wed Feb  3 23:35:42 2010	Phoenix	68 20 	Sunny	31	29.55	10	9	SW
Wed Feb  3 23:35:43 2010	Portland	45 7 	Light Rain	85	29.71	10	16	E
Wed Feb  3 23:35:44 2010	Chicago	30 -1 	Mostly Cloudy	71	30.36	10	7	E
Wed Feb  3 23:35:45 2010	San Antonio	49 9 	Rain	96	29.86	2	10	E
Wed Feb  3 23:35:46 2010	Boston	32 0 	Cloudy	60	29.98	10	8	NNW
Wed Feb  3 23:35:46 2010	Indianapolis	30 -1 	Mostly Cloudy	80	30.32	7	3	NNW
Wed Feb  3 23:35:47 2010	Jacksonville	51 11 	Cloudy	71	30.16	10	8	NNE
Wed Feb  3 23:35:48 2010	Columbus	34 1 	Cloudy	61	30.28	10	8	W
Wed Feb  3 23:35:49 2010	Dallas	44 7 	Rain	85	30.06	6	5	ENE
Wed Feb  3 23:35:50 2010	Houston	52 11 	Cloudy	76	29.98	10	17	E
Wed Feb  3 23:35:50 2010	Seattle	46 8 	Light Rain	85	29.73	10	8	S
Wed Feb  3 23:35:51 2010	Milwaukee	27 -3 	Sunny	50	30.3	10	0	CLM
Wed Feb  3 23:35:52 2010	Detroit	33 1 	Cloudy	69	30.27	8	9	WNW
Wed Feb  3 23:35:53 2010	Philadelphia	37 3 	Sunny	64	30.09	10	9	NW
